You Are Here

As Though I Were There, 2017.

About the poem. If a landmark unrecognized does not exist, a non-existent landmark recognized becomes one. Cross the sidewalk and crest the ridgeline. Continue straight, past the library and through the marsh thistles. Follow the stream down the street. Knock on the door and collapse on the summit.

What topographic ritual summons city from chaparral? Where is the boundary between psychogeography and psychogeographical break?

The poem, in GPX.

<?xml version="1.0" encoding="UTF-8"?>
<gpx version="1.1" creator="Logan Williams" xmlns="http://www.topografix.com/GPX/1/1" xmlns:xsi="http://www.w3.org/2001/XMLSchema-instance">
  <metadata>
    <time>2017-05-01T05:16:08.683Z</time>
    <bounds minlat="37.928288709" minlon="-122.161570592" maxlat="37.955655204" maxlon="-122.125067906"/>
  </metadata>
  <trk>
    <name>as though i were there</name>
    <trkseg>
      <trkpt lat="37.937546102" lon="-122.127357507">
        <ele>401.970000</ele>
        <time>2017-04-30T20:16:29Z</time>
      </trkpt>
      <trkpt lat="37.937489357" lon="-122.127395645">
        <ele>401.010000</ele>
        <time>2017-04-30T20:16:52Z</time>
      </trkpt>
      <trkpt lat="37.937516430" lon="-122.127333535">
        <ele>401.010000</ele>
        <time>2017-04-30T20:17:22Z</time>
      </trkpt>
      <trkpt lat="37.937493296" lon="-122.127379384">
        <ele>405.330000</ele>
        <time>2017-04-30T20:17:51Z</time>
      </trkpt>
      <trkpt lat="37.937498661" lon="-122.127476530">
        <ele>400.050000</ele>
        <time>2017-04-30T20:18:23Z</time>
      </trkpt>
      <trkpt lat="37.937494889" lon="-122.127397070">
        <ele>397.640000</ele>
        <time>2017-04-30T20:18:49Z</time>
      </trkpt>
      <trkpt lat="37.937465468" lon="-122.127368152">
        <ele>394.760000</ele>
        <time>2017-04-30T20:19:15Z</time>
      </trkpt>
      <trkpt lat="37.937475778" lon="-122.127374019">
        <ele>395.240000</ele>
        <time>2017-04-30T20:19:39Z</time>
      </trkpt>
      <trkpt lat="37.937473096" lon="-122.127372175">
        <ele>393.320000</ele>
        <time>2017-04-30T20:20:04Z</time>
      </trkpt>
      <trkpt lat="37.937490530" lon="-122.127363291">
        <ele>395.240000</ele>
        <time>2017-04-30T20:20:31Z</time>
      </trkpt>
      <trkpt lat="37.937444095" lon="-122.127373600">
        <ele>394.760000</ele>
        <time>2017-04-30T20:20:55Z</time>
      </trkpt>
      <trkpt lat="37.937472258" lon="-122.127403859">
        <ele>394.280000</ele>
        <time>2017-04-30T20:21:18Z</time>
      </trkpt>
      <trkpt lat="37.937415345" lon="-122.127424311">
        <ele>392.360000</ele>
        <time>2017-04-30T20:21:43Z</time>
      </trkpt>
      <trkpt lat="37.937513078" lon="-122.127423976">
        <ele>388.990000</ele>
        <time>2017-04-30T20:22:09Z</time>
      </trkpt>
      <trkpt lat="37.937468234" lon="-122.127350634">
        <ele>395.720000</ele>
        <time>2017-04-30T20:22:36Z</time>
      </trkpt>
      <trkpt lat="37.937472258" lon="-122.127293805">
        <ele>390.430000</ele>
        <time>2017-04-30T20:22:47Z</time>
      </trkpt>
      <trkpt lat="37.937436970" lon="-122.127269665">
        <ele>388.030000</ele>
        <time>2017-04-30T20:23:03Z</time>
      </trkpt>
      <trkpt lat="37.937416099" lon="-122.127218954">
        <ele>385.150000</ele>
        <time>2017-04-30T20:23:14Z</time>
      </trkpt>
      <trkpt lat="37.937389277" lon="-122.127175452">
        <ele>382.740000</ele>
        <time>2017-04-30T20:23:27Z</time>
      </trkpt>
      <trkpt lat="37.937393636" lon="-122.127099428">
        <ele>377.940000</ele>
        <time>2017-04-30T20:23:39Z</time>
      </trkpt>
      <trkpt lat="37.937393552" lon="-122.127017369">
        <ele>376.010000</ele>
        <time>2017-04-30T20:23:58Z</time>
      </trkpt>
      <trkpt lat="37.937368238" lon="-122.126953416">
        <ele>373.610000</ele>
        <time>2017-04-30T20:24:13Z</time>
      </trkpt>
      <trkpt lat="37.937403107" lon="-122.126955846">
        <ele>371.690000</ele>
        <time>2017-04-30T20:24:27Z</time>
      </trkpt>
      <trkpt lat="37.937421715" lon="-122.126895161">
        <ele>370.240000</ele>
        <time>2017-04-30T20:24:43Z</time>
      </trkpt>
      <trkpt lat="37.937458931" lon="-122.126791812">
        <ele>371.210000</ele>
        <time>2017-04-30T20:24:50Z</time>
      </trkpt>
      <trkpt lat="37.937442670" lon="-122.126638172">
        <ele>367.360000</ele>
        <time>2017-04-30T20:25:02Z</time>
      </trkpt>
      <trkpt lat="37.937379638" lon="-122.126639178">
        <ele>364.000000</ele>
        <time>2017-04-30T20:25:15Z</time>
      </trkpt>
      <trkpt lat="37.937357845" lon="-122.126649991">
        <ele>361.590000</ele>
        <time>2017-04-30T20:25:30Z</time>
      </trkpt>
      <trkpt lat="37.937309146" lon="-122.126628365">
        <ele>364.480000</ele>
        <time>2017-04-30T20:25:44Z</time>
      </trkpt>
      <trkpt lat="37.937258519" lon="-122.126605650">
        <ele>365.440000</ele>
        <time>2017-04-30T20:25:57Z</time>
      </trkpt>
      <trkpt lat="37.937283078" lon="-122.126581259">
        <ele>364.000000</ele>
        <time>2017-04-30T20:26:02Z</time>
      </trkpt>
      <trkpt lat="37.937272852" lon="-122.126573715">
        <ele>363.040000</ele>
        <time>2017-04-30T20:26:05Z</time>
      </trkpt>
      <trkpt lat="37.937270338" lon="-122.126573548">
        <ele>362.550000</ele>
        <time>2017-04-30T20:26:17Z</time>
      </trkpt>
      <trkpt lat="37.937261369" lon="-122.126566339">
        <ele>361.590000</ele>
        <time>2017-04-30T20:26:38Z</time>
      </trkpt>
      <trkpt lat="37.937234882" lon="-122.126553599">
        <ele>361.590000</ele>
        <time>2017-04-30T20:26:58Z</time>
      </trkpt>
      <trkpt lat="37.937124912" lon="-122.126466846">
        <ele>355.340000</ele>
        <time>2017-04-30T20:27:11Z</time>
      </trkpt>
      <trkpt lat="37.937127426" lon="-122.126421500">
        <ele>351.500000</ele>
        <time>2017-04-30T20:27:32Z</time>
      </trkpt>
      <trkpt lat="37.937186603" lon="-122.126376238">
        <ele>350.540000</ele>
        <time>2017-04-30T20:27:43Z</time>
      </trkpt>
      <trkpt lat="37.937262626" lon="-122.126296191">
        <ele>348.620000</ele>
        <time>2017-04-30T20:27:54Z</time>
      </trkpt>
      <trkpt lat="37.937308140" lon="-122.126123859">
        <ele>348.620000</ele>
        <time>2017-04-30T20:28:08Z</time>
      </trkpt>
      <trkpt lat="37.937317360" lon="-122.126045739">
        <ele>347.650000</ele>
        <time>2017-04-30T20:28:19Z</time>
      </trkpt>
      <trkpt lat="37.937336555" lon="-122.126013050">
        <ele>347.650000</ele>
        <time>2017-04-30T20:28:37Z</time>
      </trkpt>
      <trkpt lat="37.937350553" lon="-122.125974493">
        <ele>347.650000</ele>
        <time>2017-04-30T20:28:54Z</time>
      </trkpt>
      <trkpt lat="37.937355414" lon="-122.125955215">
        <ele>347.650000</ele>
        <time>2017-04-30T20:29:00Z</time>
      </trkpt>
      <trkpt lat="37.937329346" lon="-122.125916742">
        <ele>347.650000</ele>
        <time>2017-04-30T20:29:13Z</time>
      </trkpt>
      <trkpt lat="37.937320713" lon="-122.125836443">
        <ele>348.130000</ele>
        <time>2017-04-30T20:29:23Z</time>
      </trkpt>
      <trkpt lat="37.937284503" lon="-122.125850189">
        <ele>350.540000</ele>
        <time>2017-04-30T20:29:38Z</time>
      </trkpt>
      <trkpt lat="37.937278720" lon="-122.125775758">
        <ele>352.460000</ele>
        <time>2017-04-30T20:29:58Z</time>
      </trkpt>
      <trkpt lat="37.937281989" lon="-122.125756983">
        <ele>352.940000</ele>
        <time>2017-04-30T20:30:09Z</time>
      </trkpt>
      <trkpt lat="37.937284419" lon="-122.125741309">
        <ele>354.860000</ele>
        <time>2017-04-30T20:30:24Z</time>
      </trkpt>
      <trkpt lat="37.937278384" lon="-122.125705015">
        <ele>356.310000</ele>
        <time>2017-04-30T20:30:42Z</time>
      </trkpt>
      <trkpt lat="37.937266231" lon="-122.125704428">
        <ele>356.310000</ele>
        <time>2017-04-30T20:31:08Z</time>
      </trkpt>
      <trkpt lat="37.937185680" lon="-122.125725718">
        <ele>358.230000</ele>
        <time>2017-04-30T20:31:26Z</time>
      </trkpt>
      <trkpt lat="37.937205043" lon="-122.125705015">
        <ele>363.520000</ele>
        <time>2017-04-30T20:31:49Z</time>
      </trkpt>
      <trkpt lat="37.937210072" lon="-122.125703506">
        <ele>364.960000</ele>
        <time>2017-04-30T20:32:07Z</time>
      </trkpt>
      <trkpt lat="37.937213508" lon="-122.125715744">
        <ele>364.480000</ele>
        <time>2017-04-30T20:32:29Z</time>
      </trkpt>
      <trkpt lat="37.937164558" lon="-122.125712223">
        <ele>364.000000</ele>
        <time>2017-04-30T20:32:58Z</time>
      </trkpt>
      <trkpt lat="37.937117452" lon="-122.125810292">
        <ele>362.550000</ele>
        <time>2017-04-30T20:33:26Z</time>
      </trkpt>
      <trkpt lat="37.937104460" lon="-122.125803586">
        <ele>366.400000</ele>
        <time>2017-04-30T20:33:40Z</time>
      </trkpt>
      <trkpt lat="37.937127678" lon="-122.125775507">
        <ele>369.760000</ele>
        <time>2017-04-30T20:34:10Z</time>
      </trkpt>
      <trkpt lat="37.937045032" lon="-122.125770226">
        <ele>370.730000</ele>
        <time>2017-04-30T20:34:23Z</time>
      </trkpt>
      <trkpt lat="37.937001195" lon="-122.125771483">
        <ele>374.090000</ele>
        <time>2017-04-30T20:34:37Z</time>
      </trkpt>
      <trkpt lat="37.936973702" lon="-122.125749439">
        <ele>377.940000</ele>
        <time>2017-04-30T20:34:51Z</time>
      </trkpt>
      <trkpt lat="37.936870521" lon="-122.125738040">
        <ele>384.180000</ele>
        <time>2017-04-30T20:35:07Z</time>
      </trkpt>
      <trkpt lat="37.936822241" lon="-122.125733932">
        <ele>384.180000</ele>
        <time>2017-04-30T20:35:20Z</time>
      </trkpt>
      <trkpt lat="37.936763484" lon="-122.125714822">
        <ele>386.110000</ele>
        <time>2017-04-30T20:35:39Z</time>
      </trkpt>
      <trkpt lat="37.936694585" lon="-122.125712978">
        <ele>388.510000</ele>
        <time>2017-04-30T20:35:52Z</time>
      </trkpt>
      <trkpt lat="37.936668182" lon="-122.125732256">
        <ele>390.910000</ele>
        <time>2017-04-30T20:36:11Z</time>
      </trkpt>
      <trkpt lat="37.936630296" lon="-122.125754971">
        <ele>395.720000</ele>
        <time>2017-04-30T20:36:24Z</time>
      </trkpt>
      <trkpt lat="37.936576568" lon="-122.125777854">
        <ele>399.570000</ele>
        <time>2017-04-30T20:36:37Z</time>
      </trkpt>
      <trkpt lat="37.936565587" lon="-122.125784894">
        <ele>401.490000</ele>
        <time>2017-04-30T20:36:50Z</time>
      </trkpt>
      <trkpt lat="37.936514961" lon="-122.125780033">
        <ele>401.970000</ele>
        <time>2017-04-30T20:37:09Z</time>
      </trkpt>
      <trkpt lat="37.936468860" lon="-122.125788582">
        <ele>406.290000</ele>
        <time>2017-04-30T20:37:21Z</time>
      </trkpt>
      <trkpt lat="37.936437763" lon="-122.125753798">
        <ele>411.580000</ele>
        <time>2017-04-30T20:37:43Z</time>
      </trkpt>
      <trkpt lat="37.936396273" lon="-122.125748098">
        <ele>415.430000</ele>
        <time>2017-04-30T20:37:54Z</time>
      </trkpt>
      <trkpt lat="37.936334498" lon="-122.125785565">
        <ele>417.830000</ele>
        <time>2017-04-30T20:38:09Z</time>
      </trkpt>
      <trkpt lat="37.936296780" lon="-122.125785146">
        <ele>420.230000</ele>
        <time>2017-04-30T20:38:21Z</time>
      </trkpt>
      <trkpt lat="37.936251853" lon="-122.125800150">
        <ele>423.120000</ele>
        <time>2017-04-30T20:38:34Z</time>
      </trkpt>
      <trkpt lat="37.936229389" lon="-122.125815237">
        <ele>422.160000</ele>
        <time>2017-04-30T20:38:49Z</time>
      </trkpt>
      <trkpt lat="37.936186809" lon="-122.125807777">
        <ele>424.080000</ele>
        <time>2017-04-30T20:39:00Z</time>
      </trkpt>
      <trkpt lat="37.936143056" lon="-122.125803335">
        <ele>426.960000</ele>
        <time>2017-04-30T20:39:11Z</time>
      </trkpt>
      <trkpt lat="37.936065942" lon="-122.125827139">
        <ele>428.890000</ele>
        <time>2017-04-30T20:39:25Z</time>
      </trkpt>
      <trkpt lat="37.936058650" lon="-122.125823619">
        <ele>429.370000</ele>
        <time>2017-04-30T20:39:41Z</time>
      </trkpt>
      <trkpt lat="37.936051022" lon="-122.125822781">
        <ele>431.290000</ele>
        <time>2017-04-30T20:40:05Z</time>
      </trkpt>
      <trkpt lat="37.936053453" lon="-122.125805849">
        <ele>429.370000</ele>
        <time>2017-04-30T20:40:25Z</time>
      </trkpt>
      <trkpt lat="37.936056722" lon="-122.125815907">
        <ele>429.370000</ele>
        <time>2017-04-30T20:40:40Z</time>
      </trkpt>
      <trkpt lat="37.936062170" lon="-122.125818254">
        <ele>428.890000</ele>
        <time>2017-04-30T20:41:13Z</time>
      </trkpt>
      <trkpt lat="37.936057812" lon="-122.125813477">
        <ele>428.400000</ele>
        <time>2017-04-30T20:41:40Z</time>
      </trkpt>
      <trkpt lat="37.936045490" lon="-122.125813561">
        <ele>429.370000</ele>
        <time>2017-04-30T20:42:00Z</time>
      </trkpt>
      <trkpt lat="37.936035851" lon="-122.125807190">
        <ele>430.330000</ele>
        <time>2017-04-30T20:42:06Z</time>
      </trkpt>
      <trkpt lat="37.935910374" lon="-122.125680791">
        <ele>429.850000</ele>
        <time>2017-04-30T20:42:21Z</time>
      </trkpt>
      <trkpt lat="37.935891598" lon="-122.125664614">
        <ele>429.850000</ele>
        <time>2017-04-30T20:42:23Z</time>
      </trkpt>
      <trkpt lat="37.935877852" lon="-122.125641061">
        <ele>429.370000</ele>
        <time>2017-04-30T20:42:25Z</time>
      </trkpt>
      <trkpt lat="37.935712142" lon="-122.125544501">
        <ele>427.440000</ele>
        <time>2017-04-30T20:42:41Z</time>
      </trkpt>
      <trkpt lat="37.935616923" lon="-122.125508375">
        <ele>426.000000</ele>
        <time>2017-04-30T20:42:53Z</time>
      </trkpt>
      <trkpt lat="37.935572248" lon="-122.125490019">
        <ele>424.560000</ele>
        <time>2017-04-30T20:42:57Z</time>
      </trkpt>
      <trkpt lat="37.935481388" lon="-122.125431513">
        <ele>422.160000</ele>
        <time>2017-04-30T20:43:07Z</time>
      </trkpt>
      <trkpt lat="37.935380638" lon="-122.125384323">
        <ele>418.790000</ele>
        <time>2017-04-30T20:43:22Z</time>
      </trkpt>
      <trkpt lat="37.935369909" lon="-122.125351885">
        <ele>418.790000</ele>
        <time>2017-04-30T20:43:37Z</time>
      </trkpt>
      <trkpt lat="37.935357168" lon="-122.125281226">
        <ele>421.190000</ele>
        <time>2017-04-30T20:43:46Z</time>
      </trkpt>
      <trkpt lat="37.935199169" lon="-122.125177123">
        <ele>422.160000</ele>
        <time>2017-04-30T20:44:02Z</time>
      </trkpt>
      <trkpt lat="37.935145358" lon="-122.125153486">
        <ele>422.160000</ele>
        <time>2017-04-30T20:44:07Z</time>
      </trkpt>
      <trkpt lat="37.935093809" lon="-122.125147786">
        <ele>421.680000</ele>
        <time>2017-04-30T20:44:12Z</time>
      </trkpt>
      <trkpt lat="37.935023736" lon="-122.125104200">
        <ele>420.710000</ele>
        <time>2017-04-30T20:44:25Z</time>
      </trkpt>
      <trkpt lat="37.934998758" lon="-122.125067906">
        <ele>422.640000</ele>
        <time>2017-04-30T20:44:39Z</time>
      </trkpt>
      <trkpt lat="37.934968080" lon="-122.125113169">
        <ele>421.190000</ele>
        <time>2017-04-30T20:44:55Z</time>
      </trkpt>
      <trkpt lat="37.934956597" lon="-122.125175111">
        <ele>418.790000</ele>
        <time>2017-04-30T20:45:16Z</time>
      </trkpt>
      <trkpt lat="37.934944108" lon="-122.125222301">
        <ele>418.790000</ele>
        <time>2017-04-30T20:45:24Z</time>
      </trkpt>
      <trkpt lat="37.934907898" lon="-122.125282818">
        <ele>415.430000</ele>
        <time>2017-04-30T20:45:33Z</time>
      </trkpt>
      <trkpt lat="37.934884010" lon="-122.125360267">
        <ele>407.740000</ele>
        <time>2017-04-30T20:45:45Z</time>
      </trkpt>
      <trkpt lat="37.934872443" lon="-122.125373678">
        <ele>404.850000</ele>
        <time>2017-04-30T20:45:51Z</time>
      </trkpt>
      <trkpt lat="37.934795497" lon="-122.125502424">
        <ele>402.450000</ele>
        <time>2017-04-30T20:46:05Z</time>
      </trkpt>
      <trkpt lat="37.934781583" lon="-122.125532264">
        <ele>402.450000</ele>
        <time>2017-04-30T20:46:09Z</time>
      </trkpt>
      <trkpt lat="37.934752246" lon="-122.125597894">
        <ele>402.450000</ele>
        <time>2017-04-30T20:46:14Z</time>
      </trkpt>
      <trkpt lat="37.934732633" lon="-122.125663273">
        <ele>401.970000</ele>
        <time>2017-04-30T20:46:20Z</time>
      </trkpt>
      <trkpt lat="37.934690556" lon="-122.125757150">
        <ele>402.930000</ele>
        <time>2017-04-30T20:46:34Z</time>
      </trkpt>
      <trkpt lat="37.934623500" lon="-122.125897547">
        <ele>403.890000</ele>
        <time>2017-04-30T20:46:47Z</time>
      </trkpt>
      <trkpt lat="37.934574215" lon="-122.125996957">
        <ele>403.890000</ele>
        <time>2017-04-30T20:46:57Z</time>
      </trkpt>
      <trkpt lat="37.934552673" lon="-122.126060156">
        <ele>402.450000</ele>
        <time>2017-04-30T20:47:14Z</time>
      </trkpt>
      <trkpt lat="37.934538424" lon="-122.126104413">
        <ele>402.450000</ele>
        <time>2017-04-30T20:47:39Z</time>
      </trkpt>
      <trkpt lat="37.934511937" lon="-122.126161912">
        <ele>403.410000</ele>
        <time>2017-04-30T20:47:58Z</time>
      </trkpt>
      <trkpt lat="37.934505902" lon="-122.126261322">
        <ele>403.410000</ele>
        <time>2017-04-30T20:48:10Z</time>
      </trkpt>
      <trkpt lat="37.934481259" lon="-122.126346650">
        <ele>399.570000</ele>
        <time>2017-04-30T20:48:21Z</time>
      </trkpt>
      <trkpt lat="37.934462400" lon="-122.126403311">
        <ele>396.680000</ele>
        <time>2017-04-30T20:48:34Z</time>
      </trkpt>
      <trkpt lat="37.934472794" lon="-122.126428122">
        <ele>392.840000</ele>
        <time>2017-04-30T20:48:55Z</time>
      </trkpt>
      <trkpt lat="37.934437171" lon="-122.126442874">
        <ele>393.320000</ele>
        <time>2017-04-30T20:49:08Z</time>
      </trkpt>
      <trkpt lat="37.934439098" lon="-122.126537673">
        <ele>392.360000</ele>
        <time>2017-04-30T20:49:26Z</time>
      </trkpt>
      <trkpt lat="37.934385538" lon="-122.126739342">
        <ele>386.590000</ele>
        <time>2017-04-30T20:49:40Z</time>
      </trkpt>
      <trkpt lat="37.934343796" lon="-122.126913182">
        <ele>385.630000</ele>
        <time>2017-04-30T20:49:53Z</time>
      </trkpt>
      <trkpt lat="37.934335331" lon="-122.127026087">
        <ele>382.740000</ele>
        <time>2017-04-30T20:50:05Z</time>
      </trkpt>
      <trkpt lat="37.934292667" lon="-122.127145277">
        <ele>381.780000</ele>
        <time>2017-04-30T20:50:21Z</time>
      </trkpt>
      <trkpt lat="37.934204824" lon="-122.127179140">
        <ele>379.860000</ele>
        <time>2017-04-30T20:50:34Z</time>
      </trkpt>
      <trkpt lat="37.934154868" lon="-122.127278131">
        <ele>377.450000</ele>
        <time>2017-04-30T20:50:46Z</time>
      </trkpt>
      <trkpt lat="37.934139865" lon="-122.127277460">
        <ele>376.010000</ele>
        <time>2017-04-30T20:51:01Z</time>
      </trkpt>
      <trkpt lat="37.934113629" lon="-122.127321046">
        <ele>376.010000</ele>
        <time>2017-04-30T20:51:25Z</time>
      </trkpt>
      <trkpt lat="37.934116898" lon="-122.127344012">
        <ele>374.570000</ele>
        <time>2017-04-30T20:51:38Z</time>
      </trkpt>
      <trkpt lat="37.934129639" lon="-122.127256840">
        <ele>374.090000</ele>
        <time>2017-04-30T20:51:51Z</time>
      </trkpt>
      <trkpt lat="37.934098290" lon="-122.127215434">
        <ele>372.650000</ele>
        <time>2017-04-30T20:52:05Z</time>
      </trkpt>
      <trkpt lat="37.934056465" lon="-122.127304617">
        <ele>368.800000</ele>
        <time>2017-04-30T20:52:16Z</time>
      </trkpt>
      <trkpt lat="37.934074905" lon="-122.127371756">
        <ele>360.630000</ele>
        <time>2017-04-30T20:52:28Z</time>
      </trkpt>
      <trkpt lat="37.934087897" lon="-122.127423724">
        <ele>354.860000</ele>
        <time>2017-04-30T20:52:39Z</time>
      </trkpt>
      <trkpt lat="37.934048921" lon="-122.127478626">
        <ele>355.340000</ele>
        <time>2017-04-30T20:52:50Z</time>
      </trkpt>
      <trkpt lat="37.934028720" lon="-122.127580885">
        <ele>359.670000</ele>
        <time>2017-04-30T20:53:03Z</time>
      </trkpt>
      <trkpt lat="37.934034504" lon="-122.127628746">
        <ele>359.190000</ele>
        <time>2017-04-30T20:53:16Z</time>
      </trkpt>
      <trkpt lat="37.934020422" lon="-122.127675265">
        <ele>358.710000</ele>
        <time>2017-04-30T20:53:27Z</time>
      </trkpt>
      <trkpt lat="37.934021344" lon="-122.127732178">
        <ele>357.750000</ele>
        <time>2017-04-30T20:53:35Z</time>
      </trkpt>
      <trkpt lat="37.934022183" lon="-122.127753887">
        <ele>351.020000</ele>
        <time>2017-04-30T20:53:50Z</time>
      </trkpt>
      <trkpt lat="37.933928557" lon="-122.127870731">
        <ele>348.130000</ele>
        <time>2017-04-30T20:54:05Z</time>
      </trkpt>
      <trkpt lat="37.933918582" lon="-122.127892273">
        <ele>347.650000</ele>
        <time>2017-04-30T20:54:12Z</time>
      </trkpt>
      <trkpt lat="37.933887066" lon="-122.127927728">
        <ele>347.650000</ele>
        <time>2017-04-30T20:54:16Z</time>
      </trkpt>
      <trkpt lat="37.933823531" lon="-122.128051864">
        <ele>345.730000</ele>
        <time>2017-04-30T20:54:30Z</time>
      </trkpt>
      <trkpt lat="37.933765864" lon="-122.128160158">
        <ele>346.690000</ele>
        <time>2017-04-30T20:54:43Z</time>
      </trkpt>
      <trkpt lat="37.933765613" lon="-122.128164936">
        <ele>346.210000</ele>
        <time>2017-04-30T20:54:56Z</time>
      </trkpt>
      <trkpt lat="37.933756812" lon="-122.128251940">
        <ele>349.100000</ele>
        <time>2017-04-30T20:55:08Z</time>
      </trkpt>
      <trkpt lat="37.933741724" lon="-122.128354032">
        <ele>351.980000</ele>
        <time>2017-04-30T20:55:20Z</time>
      </trkpt>
      <trkpt lat="37.933722613" lon="-122.128394851">
        <ele>354.860000</ele>
        <time>2017-04-30T20:55:33Z</time>
      </trkpt>
      <trkpt lat="37.933694283" lon="-122.128481939">
        <ele>358.710000</ele>
        <time>2017-04-30T20:55:49Z</time>
      </trkpt>
      <trkpt lat="37.933694031" lon="-122.128560226">
        <ele>361.590000</ele>
        <time>2017-04-30T20:56:01Z</time>
      </trkpt>
      <trkpt lat="37.933701994" lon="-122.128587132">
        <ele>361.590000</ele>
        <time>2017-04-30T20:56:18Z</time>
      </trkpt>
      <trkpt lat="37.933708532" lon="-122.128605489">
        <ele>362.070000</ele>
        <time>2017-04-30T20:56:20Z</time>
      </trkpt>
      <trkpt lat="37.933712052" lon="-122.128621414">
        <ele>362.550000</ele>
        <time>2017-04-30T20:56:22Z</time>
      </trkpt>
      <trkpt lat="37.933708364" lon="-122.128676819">
        <ele>363.520000</ele>
        <time>2017-04-30T20:56:27Z</time>
      </trkpt>
      <trkpt lat="37.933722194" lon="-122.128734402">
        <ele>363.040000</ele>
        <time>2017-04-30T20:56:32Z</time>
      </trkpt>
      <trkpt lat="37.933736946" lon="-122.128773211">
        <ele>363.520000</ele>
        <time>2017-04-30T20:56:35Z</time>
      </trkpt>
      <trkpt lat="37.933714399" lon="-122.128931712">
        <ele>359.670000</ele>
        <time>2017-04-30T20:56:49Z</time>
      </trkpt>
      <trkpt lat="37.933699144" lon="-122.128954092">
        <ele>360.150000</ele>
        <time>2017-04-30T20:56:55Z</time>
      </trkpt>
      <trkpt lat="37.933650948" lon="-122.129032798">
        <ele>358.230000</ele>
        <time>2017-04-30T20:57:09Z</time>
      </trkpt>
      <trkpt lat="37.933614906" lon="-122.129068924">
        <ele>355.830000</ele>
        <time>2017-04-30T20:57:21Z</time>
      </trkpt>
      <trkpt lat="37.933571069" lon="-122.129141092">
        <ele>351.020000</ele>
        <time>2017-04-30T20:57:35Z</time>
      </trkpt>
      <trkpt lat="37.933541648" lon="-122.129202532">
        <ele>347.650000</ele>
        <time>2017-04-30T20:57:45Z</time>
      </trkpt>
      <trkpt lat="37.933510467" lon="-122.129258690">
        <ele>344.290000</ele>
        <time>2017-04-30T20:57:55Z</time>
      </trkpt>
      <trkpt lat="37.933455817" lon="-122.129350305">
        <ele>340.440000</ele>
        <time>2017-04-30T20:58:07Z</time>
      </trkpt>
      <trkpt lat="37.933423212" lon="-122.129424904">
        <ele>338.520000</ele>
        <time>2017-04-30T20:58:21Z</time>
      </trkpt>
      <trkpt lat="37.933378955" lon="-122.129486594">
        <ele>339.960000</ele>
        <time>2017-04-30T20:58:33Z</time>
      </trkpt>
      <trkpt lat="37.933342578" lon="-122.129552895">
        <ele>341.410000</ele>
        <time>2017-04-30T20:58:42Z</time>
      </trkpt>
      <trkpt lat="37.933319528" lon="-122.129638894">
        <ele>343.810000</ele>
        <time>2017-04-30T20:58:51Z</time>
      </trkpt>
      <trkpt lat="37.933302512" lon="-122.129750373">
        <ele>346.210000</ele>
        <time>2017-04-30T20:59:04Z</time>
      </trkpt>
      <trkpt lat="37.933252053" lon="-122.129857410">
        <ele>349.580000</ele>
        <time>2017-04-30T20:59:18Z</time>
      </trkpt>
      <trkpt lat="37.933210144" lon="-122.129926728">
        <ele>353.900000</ele>
        <time>2017-04-30T20:59:32Z</time>
      </trkpt>
      <trkpt lat="37.933199164" lon="-122.130003842">
        <ele>356.790000</ele>
        <time>2017-04-30T20:59:42Z</time>
      </trkpt>
      <trkpt lat="37.933176951" lon="-122.130066035">
        <ele>356.310000</ele>
        <time>2017-04-30T20:59:58Z</time>
      </trkpt>
      <trkpt lat="37.933161613" lon="-122.130208779">
        <ele>356.790000</ele>
        <time>2017-04-30T21:00:12Z</time>
      </trkpt>
      <trkpt lat="37.933134623" lon="-122.130330987">
        <ele>359.190000</ele>
        <time>2017-04-30T21:00:25Z</time>
      </trkpt>
      <trkpt lat="37.933093971" lon="-122.130398881">
        <ele>361.110000</ele>
        <time>2017-04-30T21:00:36Z</time>
      </trkpt>
      <trkpt lat="37.933083409" lon="-122.130404413">
        <ele>362.070000</ele>
        <time>2017-04-30T21:00:48Z</time>
      </trkpt>
      <trkpt lat="37.933064885" lon="-122.130381782">
        <ele>363.040000</ele>
        <time>2017-04-30T21:01:00Z</time>
      </trkpt>
      <trkpt lat="37.933068238" lon="-122.130385302">
        <ele>363.040000</ele>
        <time>2017-04-30T21:01:23Z</time>
      </trkpt>
      <trkpt lat="37.933064718" lon="-122.130387817">
        <ele>364.000000</ele>
        <time>2017-04-30T21:01:49Z</time>
      </trkpt>
      <trkpt lat="37.933072513" lon="-122.130370634">
        <ele>364.960000</ele>
        <time>2017-04-30T21:02:08Z</time>
      </trkpt>
      <trkpt lat="37.933071507" lon="-122.130435677">
        <ele>364.480000</ele>
        <time>2017-04-30T21:02:32Z</time>
      </trkpt>
      <trkpt lat="37.933052648" lon="-122.130475491">
        <ele>364.000000</ele>
        <time>2017-04-30T21:02:39Z</time>
      </trkpt>
      <trkpt lat="37.933037644" lon="-122.130494853">
        <ele>361.590000</ele>
        <time>2017-04-30T21:02:53Z</time>
      </trkpt>
      <trkpt lat="37.933037477" lon="-122.130508432">
        <ele>360.150000</ele>
        <time>2017-04-30T21:03:28Z</time>
      </trkpt>
      <trkpt lat="37.933028759" lon="-122.130518239">
        <ele>360.150000</ele>
        <time>2017-04-30T21:03:49Z</time>
      </trkpt>
      <trkpt lat="37.932953909" lon="-122.130649919">
        <ele>355.830000</ele>
        <time>2017-04-30T21:04:02Z</time>
      </trkpt>
      <trkpt lat="37.932950472" lon="-122.130659223">
        <ele>355.340000</ele>
        <time>2017-04-30T21:04:03Z</time>
      </trkpt>
      <trkpt lat="37.932941085" lon="-122.130704736">
        <ele>355.340000</ele>
        <time>2017-04-30T21:04:06Z</time>
      </trkpt>
      <trkpt lat="37.932943851" lon="-122.130829543">
        <ele>357.750000</ele>
        <time>2017-04-30T21:04:19Z</time>
      </trkpt>
      <trkpt lat="37.932931194" lon="-122.130966922">
        <ele>358.710000</ele>
        <time>2017-04-30T21:04:33Z</time>
      </trkpt>
      <trkpt lat="37.932921303" lon="-122.130959965">
        <ele>359.190000</ele>
        <time>2017-04-30T21:04:44Z</time>
      </trkpt>
      <trkpt lat="37.932922896" lon="-122.130952505">
        <ele>360.150000</ele>
        <time>2017-04-30T21:05:12Z</time>
      </trkpt>
      <trkpt lat="37.932922980" lon="-122.131021237">
        <ele>359.670000</ele>
        <time>2017-04-30T21:05:18Z</time>
      </trkpt>
      <trkpt lat="37.932916861" lon="-122.131078737">
        <ele>359.190000</ele>
        <time>2017-04-30T21:05:22Z</time>
      </trkpt>
      <trkpt lat="37.932858272" lon="-122.131167920">
        <ele>356.790000</ele>
        <time>2017-04-30T21:05:35Z</time>
      </trkpt>
      <trkpt lat="37.932781074" lon="-122.131273281">
        <ele>355.340000</ele>
        <time>2017-04-30T21:05:49Z</time>
      </trkpt>
      <trkpt lat="37.932754420" lon="-122.131322147">
        <ele>356.310000</ele>
        <time>2017-04-30T21:06:03Z</time>
      </trkpt>
      <trkpt lat="37.932758443" lon="-122.131318543">
        <ele>354.860000</ele>
        <time>2017-04-30T21:06:25Z</time>
      </trkpt>
      <trkpt lat="37.932726089" lon="-122.131381575">
        <ele>354.860000</ele>
        <time>2017-04-30T21:06:35Z</time>
      </trkpt>
      <trkpt lat="37.932707230" lon="-122.131493138">
        <ele>348.130000</ele>
        <time>2017-04-30T21:06:48Z</time>
      </trkpt>
      <trkpt lat="37.932683844" lon="-122.131570671">
        <ele>342.850000</ele>
        <time>2017-04-30T21:07:03Z</time>
      </trkpt>
      <trkpt lat="37.932666996" lon="-122.131650802">
        <ele>338.520000</ele>
        <time>2017-04-30T21:07:17Z</time>
      </trkpt>
      <trkpt lat="37.932646126" lon="-122.131762533">
        <ele>335.160000</ele>
        <time>2017-04-30T21:07:27Z</time>
      </trkpt>
      <trkpt lat="37.932633301" lon="-122.131901421">
        <ele>330.830000</ele>
        <time>2017-04-30T21:07:40Z</time>
      </trkpt>
      <trkpt lat="37.932618465" lon="-122.131952802">
        <ele>329.390000</ele>
        <time>2017-04-30T21:07:45Z</time>
      </trkpt>
      <trkpt lat="37.932614442" lon="-122.132003177">
        <ele>327.950000</ele>
        <time>2017-04-30T21:07:49Z</time>
      </trkpt>
      <trkpt lat="37.932549650" lon="-122.132072076">
        <ele>326.020000</ele>
        <time>2017-04-30T21:08:00Z</time>
      </trkpt>
      <trkpt lat="37.932499861" lon="-122.132190261">
        <ele>321.700000</ele>
        <time>2017-04-30T21:08:14Z</time>
      </trkpt>
      <trkpt lat="37.932450157" lon="-122.132284725">
        <ele>318.330000</ele>
        <time>2017-04-30T21:08:26Z</time>
      </trkpt>
      <trkpt lat="37.932426352" lon="-122.132326048">
        <ele>316.410000</ele>
        <time>2017-04-30T21:08:30Z</time>
      </trkpt>
      <trkpt lat="37.932386370" lon="-122.132376004">
        <ele>314.490000</ele>
        <time>2017-04-30T21:08:35Z</time>
      </trkpt>
      <trkpt lat="37.932330715" lon="-122.132521681">
        <ele>309.680000</ele>
        <time>2017-04-30T21:08:47Z</time>
      </trkpt>
      <trkpt lat="37.932311771" lon="-122.132594856">
        <ele>307.280000</ele>
        <time>2017-04-30T21:08:53Z</time>
      </trkpt>
      <trkpt lat="37.932303641" lon="-122.132640118">
        <ele>306.800000</ele>
        <time>2017-04-30T21:08:57Z</time>
      </trkpt>
      <trkpt lat="37.932265168" lon="-122.132768864">
        <ele>303.910000</ele>
        <time>2017-04-30T21:09:06Z</time>
      </trkpt>
      <trkpt lat="37.932205237" lon="-122.132957373">
        <ele>300.550000</ele>
        <time>2017-04-30T21:09:19Z</time>
      </trkpt>
      <trkpt lat="37.932179756" lon="-122.133033313">
        <ele>299.110000</ele>
        <time>2017-04-30T21:09:24Z</time>
      </trkpt>
      <trkpt lat="37.932128878" lon="-122.133230539">
        <ele>298.630000</ele>
        <time>2017-04-30T21:09:39Z</time>
      </trkpt>
      <trkpt lat="37.932123933" lon="-122.133240262">
        <ele>300.550000</ele>
        <time>2017-04-30T21:09:51Z</time>
      </trkpt>
      <trkpt lat="37.932118988" lon="-122.133373450">
        <ele>297.180000</ele>
        <time>2017-04-30T21:10:01Z</time>
      </trkpt>
      <trkpt lat="37.932109684" lon="-122.133393735">
        <ele>296.220000</ele>
        <time>2017-04-30T21:10:04Z</time>
      </trkpt>
      <trkpt lat="37.932083197" lon="-122.133470094">
        <ele>294.300000</ele>
        <time>2017-04-30T21:10:15Z</time>
      </trkpt>
      <trkpt lat="37.932082275" lon="-122.133478224">
        <ele>293.820000</ele>
        <time>2017-04-30T21:10:20Z</time>
      </trkpt>
      <trkpt lat="37.932061823" lon="-122.133553997">
        <ele>293.340000</ele>
        <time>2017-04-30T21:10:25Z</time>
      </trkpt>
      <trkpt lat="37.932048663" lon="-122.133561037">
        <ele>293.820000</ele>
        <time>2017-04-30T21:10:41Z</time>
      </trkpt>
      <trkpt lat="37.932034498" lon="-122.133699758">
        <ele>293.340000</ele>
        <time>2017-04-30T21:10:54Z</time>
      </trkpt>
      <trkpt lat="37.931984123" lon="-122.133768070">
        <ele>292.380000</ele>
        <time>2017-04-30T21:11:02Z</time>
      </trkpt>
      <trkpt lat="37.931974567" lon="-122.133802101">
        <ele>291.900000</ele>
        <time>2017-04-30T21:11:05Z</time>
      </trkpt>
      <trkpt lat="37.931941124" lon="-122.133875862">
        <ele>290.940000</ele>
        <time>2017-04-30T21:11:12Z</time>
      </trkpt>
      <trkpt lat="37.931838278" lon="-122.134025982">
        <ele>289.970000</ele>
        <time>2017-04-30T21:11:27Z</time>
      </trkpt>
      <trkpt lat="37.931818999" lon="-122.134065963">
        <ele>291.900000</ele>
        <time>2017-04-30T21:11:39Z</time>
      </trkpt>
      <trkpt lat="37.931721266" lon="-122.134228908">
        <ele>292.380000</ele>
        <time>2017-04-30T21:11:54Z</time>
      </trkpt>
      <trkpt lat="37.931649098" lon="-122.134360839">
        <ele>291.420000</ele>
        <time>2017-04-30T21:12:04Z</time>
      </trkpt>
      <trkpt lat="37.931633759" lon="-122.134380788">
        <ele>291.420000</ele>
        <time>2017-04-30T21:12:06Z</time>
      </trkpt>
      <trkpt lat="37.931616828" lon="-122.134415405">
        <ele>291.900000</ele>
        <time>2017-04-30T21:12:09Z</time>
      </trkpt>
      <trkpt lat="37.931574918" lon="-122.134485142">
        <ele>291.420000</ele>
        <time>2017-04-30T21:12:24Z</time>
      </trkpt>
      <trkpt lat="37.931561591" lon="-122.134485645">
        <ele>288.530000</ele>
        <time>2017-04-30T21:12:39Z</time>
      </trkpt>
      <trkpt lat="37.931556562" lon="-122.134474330">
        <ele>287.570000</ele>
        <time>2017-04-30T21:12:42Z</time>
      </trkpt>
      <trkpt lat="37.931513898" lon="-122.134303087">
        <ele>288.050000</ele>
        <time>2017-04-30T21:12:55Z</time>
      </trkpt>
      <trkpt lat="37.931478946" lon="-122.134184483">
        <ele>289.970000</ele>
        <time>2017-04-30T21:13:11Z</time>
      </trkpt>
      <trkpt lat="37.931471486" lon="-122.134215916">
        <ele>290.940000</ele>
        <time>2017-04-30T21:13:17Z</time>
      </trkpt>
      <trkpt lat="37.931521023" lon="-122.134393109">
        <ele>294.780000</ele>
        <time>2017-04-30T21:13:30Z</time>
      </trkpt>
      <trkpt lat="37.931552287" lon="-122.134475168">
        <ele>293.820000</ele>
        <time>2017-04-30T21:13:42Z</time>
      </trkpt>
      <trkpt lat="37.931536278" lon="-122.134540128">
        <ele>292.380000</ele>
        <time>2017-04-30T21:13:54Z</time>
      </trkpt>
      <trkpt lat="37.931502247" lon="-122.134728469">
        <ele>291.420000</ele>
        <time>2017-04-30T21:14:10Z</time>
      </trkpt>
      <trkpt lat="37.931447932" lon="-122.134891162">
        <ele>289.970000</ele>
        <time>2017-04-30T21:14:26Z</time>
      </trkpt>
      <trkpt lat="37.931380123" lon="-122.135036755">
        <ele>291.900000</ele>
        <time>2017-04-30T21:14:41Z</time>
      </trkpt>
      <trkpt lat="37.931374004" lon="-122.135035582">
        <ele>292.380000</ele>
        <time>2017-04-30T21:14:42Z</time>
      </trkpt>
      <trkpt lat="37.931357827" lon="-122.135085789">
        <ele>291.900000</ele>
        <time>2017-04-30T21:14:54Z</time>
      </trkpt>
      <trkpt lat="37.931357576" lon="-122.135137422">
        <ele>294.780000</ele>
        <time>2017-04-30T21:15:17Z</time>
      </trkpt>
      <trkpt lat="37.931326060" lon="-122.135194670">
        <ele>295.740000</ele>
        <time>2017-04-30T21:15:30Z</time>
      </trkpt>
      <trkpt lat="37.931306027" lon="-122.135263151">
        <ele>298.630000</ele>
        <time>2017-04-30T21:15:45Z</time>
      </trkpt>
      <trkpt lat="37.931286413" lon="-122.135367086">
        <ele>301.030000</ele>
        <time>2017-04-30T21:15:58Z</time>
      </trkpt>
      <trkpt lat="37.931260178" lon="-122.135407990">
        <ele>304.390000</ele>
        <time>2017-04-30T21:16:11Z</time>
      </trkpt>
      <trkpt lat="37.931234948" lon="-122.135457611">
        <ele>304.880000</ele>
        <time>2017-04-30T21:16:33Z</time>
      </trkpt>
      <trkpt lat="37.931204354" lon="-122.135529779">
        <ele>308.240000</ele>
        <time>2017-04-30T21:16:46Z</time>
      </trkpt>
      <trkpt lat="37.931207204" lon="-122.135521816">
        <ele>309.680000</ele>
        <time>2017-04-30T21:17:03Z</time>
      </trkpt>
      <trkpt lat="37.931218520" lon="-122.135578394">
        <ele>309.680000</ele>
        <time>2017-04-30T21:17:34Z</time>
      </trkpt>
      <trkpt lat="37.931223549" lon="-122.135614101">
        <ele>307.280000</ele>
        <time>2017-04-30T21:17:48Z</time>
      </trkpt>
      <trkpt lat="37.931195302" lon="-122.135721892">
        <ele>306.800000</ele>
        <time>2017-04-30T21:18:02Z</time>
      </trkpt>
      <trkpt lat="37.931190524" lon="-122.135807639">
        <ele>308.240000</ele>
        <time>2017-04-30T21:18:15Z</time>
      </trkpt>
      <trkpt lat="37.931214580" lon="-122.135849968">
        <ele>310.640000</ele>
        <time>2017-04-30T21:18:29Z</time>
      </trkpt>
      <trkpt lat="37.931251880" lon="-122.135897493">
        <ele>311.600000</ele>
        <time>2017-04-30T21:18:43Z</time>
      </trkpt>
      <trkpt lat="37.931245845" lon="-122.135919034">
        <ele>314.970000</ele>
        <time>2017-04-30T21:19:00Z</time>
      </trkpt>
      <trkpt lat="37.931234613" lon="-122.135948874">
        <ele>315.930000</ele>
        <time>2017-04-30T21:19:11Z</time>
      </trkpt>
      <trkpt lat="37.931167809" lon="-122.135935547">
        <ele>317.370000</ele>
        <time>2017-04-30T21:19:22Z</time>
      </trkpt>
      <trkpt lat="37.931120787" lon="-122.135915095">
        <ele>319.780000</ele>
        <time>2017-04-30T21:19:37Z</time>
      </trkpt>
      <trkpt lat="37.931096731" lon="-122.135984749">
        <ele>322.180000</ele>
        <time>2017-04-30T21:19:49Z</time>
      </trkpt>
      <trkpt lat="37.931100251" lon="-122.136014253">
        <ele>322.180000</ele>
        <time>2017-04-30T21:20:13Z</time>
      </trkpt>
      <trkpt lat="37.931114333" lon="-122.136037806">
        <ele>326.500000</ele>
        <time>2017-04-30T21:20:36Z</time>
      </trkpt>
      <trkpt lat="37.931086002" lon="-122.136100670">
        <ele>327.950000</ele>
        <time>2017-04-30T21:20:55Z</time>
      </trkpt>
      <trkpt lat="37.931008721" lon="-122.136148280">
        <ele>328.430000</ele>
        <time>2017-04-30T21:21:09Z</time>
      </trkpt>
      <trkpt lat="37.930996316" lon="-122.136157332">
        <ele>328.430000</ele>
        <time>2017-04-30T21:21:11Z</time>
      </trkpt>
      <trkpt lat="37.930906629" lon="-122.136227740">
        <ele>328.910000</ele>
        <time>2017-04-30T21:21:22Z</time>
      </trkpt>
      <trkpt lat="37.930875532" lon="-122.136290604">
        <ele>330.350000</ele>
        <time>2017-04-30T21:21:31Z</time>
      </trkpt>
      <trkpt lat="37.930871677" lon="-122.136465367">
        <ele>330.830000</ele>
        <time>2017-04-30T21:21:46Z</time>
      </trkpt>
      <trkpt lat="37.930842759" lon="-122.136587827">
        <ele>329.390000</ele>
        <time>2017-04-30T21:22:00Z</time>
      </trkpt>
      <trkpt lat="37.930843849" lon="-122.136691762">
        <ele>331.790000</ele>
        <time>2017-04-30T21:22:12Z</time>
      </trkpt>
      <trkpt lat="37.930863798" lon="-122.136797458">
        <ele>335.160000</ele>
        <time>2017-04-30T21:22:26Z</time>
      </trkpt>
      <trkpt lat="37.930854494" lon="-122.136923522">
        <ele>337.080000</ele>
        <time>2017-04-30T21:22:41Z</time>
      </trkpt>
      <trkpt lat="37.930813506" lon="-122.137024691">
        <ele>337.560000</ele>
        <time>2017-04-30T21:22:56Z</time>
      </trkpt>
      <trkpt lat="37.930813842" lon="-122.137033744">
        <ele>337.560000</ele>
        <time>2017-04-30T21:22:57Z</time>
      </trkpt>
      <trkpt lat="37.930759862" lon="-122.137132147">
        <ele>341.410000</ele>
        <time>2017-04-30T21:23:09Z</time>
      </trkpt>
      <trkpt lat="37.930700770" lon="-122.137208423">
        <ele>342.850000</ele>
        <time>2017-04-30T21:23:22Z</time>
      </trkpt>
      <trkpt lat="37.930675456" lon="-122.137214793">
        <ele>342.850000</ele>
        <time>2017-04-30T21:23:25Z</time>
      </trkpt>
      <trkpt lat="37.930629356" lon="-122.137293080">
        <ele>345.730000</ele>
        <time>2017-04-30T21:23:36Z</time>
      </trkpt>
      <trkpt lat="37.930582417" lon="-122.137368098">
        <ele>347.170000</ele>
        <time>2017-04-30T21:23:46Z</time>
      </trkpt>
      <trkpt lat="37.930500191" lon="-122.137460550">
        <ele>345.730000</ele>
        <time>2017-04-30T21:23:57Z</time>
      </trkpt>
      <trkpt lat="37.930463646" lon="-122.137515284">
        <ele>343.810000</ele>
        <time>2017-04-30T21:24:11Z</time>
      </trkpt>
      <trkpt lat="37.930438332" lon="-122.137611257">
        <ele>339.480000</ele>
        <time>2017-04-30T21:24:24Z</time>
      </trkpt>
      <trkpt lat="37.930397596" lon="-122.137669260">
        <ele>341.410000</ele>
        <time>2017-04-30T21:24:41Z</time>
      </trkpt>
      <trkpt lat="37.930351999" lon="-122.137713348">
        <ele>344.290000</ele>
        <time>2017-04-30T21:24:53Z</time>
      </trkpt>
      <trkpt lat="37.930317968" lon="-122.137790965">
        <ele>346.690000</ele>
        <time>2017-04-30T21:25:06Z</time>
      </trkpt>
      <trkpt lat="37.930262564" lon="-122.137865564">
        <ele>350.060000</ele>
        <time>2017-04-30T21:25:19Z</time>
      </trkpt>
      <trkpt lat="37.930166926" lon="-122.137965476">
        <ele>350.060000</ele>
        <time>2017-04-30T21:25:33Z</time>
      </trkpt>
      <trkpt lat="37.930152845" lon="-122.138002524">
        <ele>350.540000</ele>
        <time>2017-04-30T21:25:36Z</time>
      </trkpt>
      <trkpt lat="37.930144127" lon="-122.138074860">
        <ele>350.540000</ele>
        <time>2017-04-30T21:25:41Z</time>
      </trkpt>
      <trkpt lat="37.930132141" lon="-122.138310727">
        <ele>347.170000</ele>
        <time>2017-04-30T21:25:57Z</time>
      </trkpt>
      <trkpt lat="37.930045053" lon="-122.138518095">
        <ele>350.060000</ele>
        <time>2017-04-30T21:26:14Z</time>
      </trkpt>
      <trkpt lat="37.930021081" lon="-122.138552712">
        <ele>351.500000</ele>
        <time>2017-04-30T21:26:19Z</time>
      </trkpt>
      <trkpt lat="37.930009849" lon="-122.138739964">
        <ele>354.380000</ele>
        <time>2017-04-30T21:26:33Z</time>
      </trkpt>
      <trkpt lat="37.929943716" lon="-122.138883462">
        <ele>355.340000</ele>
        <time>2017-04-30T21:26:46Z</time>
      </trkpt>
      <trkpt lat="37.929983279" lon="-122.139002150">
        <ele>354.860000</ele>
        <time>2017-04-30T21:26:55Z</time>
      </trkpt>
      <trkpt lat="37.930000797" lon="-122.139119497">
        <ele>356.310000</ele>
        <time>2017-04-30T21:27:12Z</time>
      </trkpt>
      <trkpt lat="37.930003479" lon="-122.139174817">
        <ele>355.340000</ele>
        <time>2017-04-30T21:27:27Z</time>
      </trkpt>
      <trkpt lat="37.930022925" lon="-122.139368942">
        <ele>357.270000</ele>
        <time>2017-04-30T21:27:40Z</time>
      </trkpt>
      <trkpt lat="37.930016723" lon="-122.139492659">
        <ele>358.710000</ele>
        <time>2017-04-30T21:27:54Z</time>
      </trkpt>
      <trkpt lat="37.930010101" lon="-122.139562396">
        <ele>357.750000</ele>
        <time>2017-04-30T21:28:07Z</time>
      </trkpt>
      <trkpt lat="37.929978333" lon="-122.139726765">
        <ele>358.710000</ele>
        <time>2017-04-30T21:28:19Z</time>
      </trkpt>
      <trkpt lat="37.929957127" lon="-122.139859619">
        <ele>359.190000</ele>
        <time>2017-04-30T21:28:32Z</time>
      </trkpt>
      <trkpt lat="37.929933406" lon="-122.139959615">
        <ele>360.630000</ele>
        <time>2017-04-30T21:28:39Z</time>
      </trkpt>
      <trkpt lat="37.929915637" lon="-122.139999010">
        <ele>360.630000</ele>
        <time>2017-04-30T21:28:43Z</time>
      </trkpt>
      <trkpt lat="37.929897280" lon="-122.140065394">
        <ele>363.040000</ele>
        <time>2017-04-30T21:28:56Z</time>
      </trkpt>
      <trkpt lat="37.929899124" lon="-122.140071597">
        <ele>364.000000</ele>
        <time>2017-04-30T21:29:00Z</time>
      </trkpt>
      <trkpt lat="37.929922091" lon="-122.140096659">
        <ele>364.000000</ele>
        <time>2017-04-30T21:29:16Z</time>
      </trkpt>
      <trkpt lat="37.929927288" lon="-122.140079308">
        <ele>359.670000</ele>
        <time>2017-04-30T21:29:52Z</time>
      </trkpt>
      <trkpt lat="37.929899460" lon="-122.140110573">
        <ele>357.750000</ele>
        <time>2017-04-30T21:30:17Z</time>
      </trkpt>
      <trkpt lat="37.929899376" lon="-122.140125912">
        <ele>358.710000</ele>
        <time>2017-04-30T21:30:48Z</time>
      </trkpt>
      <trkpt lat="37.929929048" lon="-122.140123649">
        <ele>358.710000</ele>
        <time>2017-04-30T21:31:24Z</time>
      </trkpt>
      <trkpt lat="37.929915385" lon="-122.140129600">
        <ele>359.670000</ele>
        <time>2017-04-30T21:31:57Z</time>
      </trkpt>
      <trkpt lat="37.929898035" lon="-122.140140412">
        <ele>362.550000</ele>
        <time>2017-04-30T21:32:27Z</time>
      </trkpt>
      <trkpt lat="37.929883199" lon="-122.140121721">
        <ele>362.550000</ele>
        <time>2017-04-30T21:32:53Z</time>
      </trkpt>
      <trkpt lat="37.929899041" lon="-122.140107723">
        <ele>361.590000</ele>
        <time>2017-04-30T21:33:12Z</time>
      </trkpt>
      <trkpt lat="37.929883869" lon="-122.140075956">
        <ele>362.550000</ele>
        <time>2017-04-30T21:33:28Z</time>
      </trkpt>
      <trkpt lat="37.929880181" lon="-122.140110992">
        <ele>363.040000</ele>
        <time>2017-04-30T21:33:49Z</time>
      </trkpt>
      <trkpt lat="37.929849587" lon="-122.140193973">
        <ele>358.710000</ele>
        <time>2017-04-30T21:34:02Z</time>
      </trkpt>
      <trkpt lat="37.929848162" lon="-122.140267314">
        <ele>355.830000</ele>
        <time>2017-04-30T21:34:13Z</time>
      </trkpt>
      <trkpt lat="37.929811534" lon="-122.140342584">
        <ele>351.500000</ele>
        <time>2017-04-30T21:34:25Z</time>
      </trkpt>
      <trkpt lat="37.929797620" lon="-122.140369238">
        <ele>349.580000</ele>
        <time>2017-04-30T21:34:28Z</time>
      </trkpt>
      <trkpt lat="37.929740874" lon="-122.140444424">
        <ele>345.250000</ele>
        <time>2017-04-30T21:34:38Z</time>
      </trkpt>
      <trkpt lat="37.929732660" lon="-122.140480885">
        <ele>345.250000</ele>
        <time>2017-04-30T21:34:51Z</time>
      </trkpt>
      <trkpt lat="37.929687062" lon="-122.140556406">
        <ele>341.410000</ele>
        <time>2017-04-30T21:35:06Z</time>
      </trkpt>
      <trkpt lat="37.929691924" lon="-122.140562776">
        <ele>341.410000</ele>
        <time>2017-04-30T21:35:07Z</time>
      </trkpt>
      <trkpt lat="37.929718914" lon="-122.140636118">
        <ele>337.560000</ele>
        <time>2017-04-30T21:35:17Z</time>
      </trkpt>
      <trkpt lat="37.929734923" lon="-122.140793363">
        <ele>332.750000</ele>
        <time>2017-04-30T21:35:31Z</time>
      </trkpt>
      <trkpt lat="37.929706424" lon="-122.140918756">
        <ele>328.430000</ele>
        <time>2017-04-30T21:35:42Z</time>
      </trkpt>
      <trkpt lat="37.929681949" lon="-122.141056554">
        <ele>323.140000</ele>
        <time>2017-04-30T21:35:56Z</time>
      </trkpt>
      <trkpt lat="37.929660073" lon="-122.141132494">
        <ele>321.700000</ele>
        <time>2017-04-30T21:36:02Z</time>
      </trkpt>
      <trkpt lat="37.929605171" lon="-122.141194772">
        <ele>316.890000</ele>
        <time>2017-04-30T21:36:15Z</time>
      </trkpt>
      <trkpt lat="37.929586563" lon="-122.141259480">
        <ele>314.010000</ele>
        <time>2017-04-30T21:36:33Z</time>
      </trkpt>
      <trkpt lat="37.929569045" lon="-122.141289152">
        <ele>311.120000</ele>
        <time>2017-04-30T21:36:43Z</time>
      </trkpt>
      <trkpt lat="37.929570135" lon="-122.141387891">
        <ele>306.800000</ele>
        <time>2017-04-30T21:36:57Z</time>
      </trkpt>
      <trkpt lat="37.929590251" lon="-122.141463496">
        <ele>306.320000</ele>
        <time>2017-04-30T21:37:05Z</time>
      </trkpt>
      <trkpt lat="37.929588323" lon="-122.141440278">
        <ele>306.320000</ele>
        <time>2017-04-30T21:37:07Z</time>
      </trkpt>
      <trkpt lat="37.929537361" lon="-122.141393004">
        <ele>304.880000</ele>
        <time>2017-04-30T21:37:12Z</time>
      </trkpt>
      <trkpt lat="37.929500146" lon="-122.141395686">
        <ele>302.950000</ele>
        <time>2017-04-30T21:37:17Z</time>
      </trkpt>
      <trkpt lat="37.929462846" lon="-122.141426615">
        <ele>299.110000</ele>
        <time>2017-04-30T21:37:32Z</time>
      </trkpt>
      <trkpt lat="37.929438120" lon="-122.141527450">
        <ele>295.740000</ele>
        <time>2017-04-30T21:37:47Z</time>
      </trkpt>
      <trkpt lat="37.929406939" lon="-122.141653178">
        <ele>297.670000</ele>
        <time>2017-04-30T21:37:59Z</time>
      </trkpt>
      <trkpt lat="37.929405263" lon="-122.141741859">
        <ele>298.150000</ele>
        <time>2017-04-30T21:38:05Z</time>
      </trkpt>
      <trkpt lat="37.929310966" lon="-122.141805645">
        <ele>295.260000</ele>
        <time>2017-04-30T21:38:19Z</time>
      </trkpt>
      <trkpt lat="37.929272242" lon="-122.141912179">
        <ele>294.300000</ele>
        <time>2017-04-30T21:38:31Z</time>
      </trkpt>
      <trkpt lat="37.929193703" lon="-122.142008403">
        <ele>298.150000</ele>
        <time>2017-04-30T21:38:44Z</time>
      </trkpt>
      <trkpt lat="37.929212982" lon="-122.142082499">
        <ele>305.360000</ele>
        <time>2017-04-30T21:38:57Z</time>
      </trkpt>
      <trkpt lat="37.929229494" lon="-122.142192470">
        <ele>308.720000</ele>
        <time>2017-04-30T21:39:10Z</time>
      </trkpt>
      <trkpt lat="37.929218095" lon="-122.142341416">
        <ele>304.390000</ele>
        <time>2017-04-30T21:39:25Z</time>
      </trkpt>
      <trkpt lat="37.929213066" lon="-122.142474772">
        <ele>305.360000</ele>
        <time>2017-04-30T21:39:38Z</time>
      </trkpt>
      <trkpt lat="37.929172833" lon="-122.142561693">
        <ele>304.880000</ele>
        <time>2017-04-30T21:39:49Z</time>
      </trkpt>
      <trkpt lat="37.929148357" lon="-122.142618354">
        <ele>301.990000</ele>
        <time>2017-04-30T21:40:02Z</time>
      </trkpt>
      <trkpt lat="37.929088762" lon="-122.142704185">
        <ele>296.220000</ele>
        <time>2017-04-30T21:40:12Z</time>
      </trkpt>
      <trkpt lat="37.929013576" lon="-122.142803511">
        <ele>287.570000</ele>
        <time>2017-04-30T21:40:26Z</time>
      </trkpt>
      <trkpt lat="37.929006200" lon="-122.142896466">
        <ele>280.360000</ele>
        <time>2017-04-30T21:40:40Z</time>
      </trkpt>
      <trkpt lat="37.928990778" lon="-122.142985901">
        <ele>277.480000</ele>
        <time>2017-04-30T21:40:54Z</time>
      </trkpt>
      <trkpt lat="37.928952305" lon="-122.143084975">
        <ele>276.040000</ele>
        <time>2017-04-30T21:41:09Z</time>
      </trkpt>
      <trkpt lat="37.928946773" lon="-122.143137278">
        <ele>272.670000</ele>
        <time>2017-04-30T21:41:21Z</time>
      </trkpt>
      <trkpt lat="37.928925902" lon="-122.143211039">
        <ele>269.310000</ele>
        <time>2017-04-30T21:41:32Z</time>
      </trkpt>
      <trkpt lat="37.928888099" lon="-122.143219337">
        <ele>268.830000</ele>
        <time>2017-04-30T21:41:42Z</time>
      </trkpt>
      <trkpt lat="37.928887093" lon="-122.143225539">
        <ele>268.830000</ele>
        <time>2017-04-30T21:41:43Z</time>
      </trkpt>
      <trkpt lat="37.928797826" lon="-122.143500131">
        <ele>265.940000</ele>
        <time>2017-04-30T21:41:59Z</time>
      </trkpt>
      <trkpt lat="37.928729011" lon="-122.143760808">
        <ele>263.060000</ele>
        <time>2017-04-30T21:42:15Z</time>
      </trkpt>
      <trkpt lat="37.928670840" lon="-122.144051911">
        <ele>263.060000</ele>
        <time>2017-04-30T21:42:30Z</time>
      </trkpt>
      <trkpt lat="37.928654328" lon="-122.144167498">
        <ele>262.100000</ele>
        <time>2017-04-30T21:42:37Z</time>
      </trkpt>
      <trkpt lat="37.928627925" lon="-122.144249892">
        <ele>261.620000</ele>
        <time>2017-04-30T21:42:43Z</time>
      </trkpt>
      <trkpt lat="37.928623985" lon="-122.144530350">
        <ele>261.140000</ele>
        <time>2017-04-30T21:42:59Z</time>
      </trkpt>
      <trkpt lat="37.928588614" lon="-122.144659264">
        <ele>260.170000</ele>
        <time>2017-04-30T21:43:12Z</time>
      </trkpt>
      <trkpt lat="37.928588279" lon="-122.144700335">
        <ele>260.650000</ele>
        <time>2017-04-30T21:43:23Z</time>
      </trkpt>
      <trkpt lat="37.928540502" lon="-122.144790525">
        <ele>256.330000</ele>
        <time>2017-04-30T21:43:37Z</time>
      </trkpt>
      <trkpt lat="37.928496245" lon="-122.144920947">
        <ele>255.850000</ele>
        <time>2017-04-30T21:43:54Z</time>
      </trkpt>
      <trkpt lat="37.928488366" lon="-122.144932766">
        <ele>255.850000</ele>
        <time>2017-04-30T21:43:55Z</time>
      </trkpt>
      <trkpt lat="37.928436399" lon="-122.144954978">
        <ele>254.890000</ele>
        <time>2017-04-30T21:44:00Z</time>
      </trkpt>
      <trkpt lat="37.928414522" lon="-122.144960258">
        <ele>254.890000</ele>
        <time>2017-04-30T21:44:02Z</time>
      </trkpt>
      <trkpt lat="37.928346293" lon="-122.144941650">
        <ele>255.370000</ele>
        <time>2017-04-30T21:44:07Z</time>
      </trkpt>
      <trkpt lat="37.928288709" lon="-122.144995462">
        <ele>249.600000</ele>
        <time>2017-04-30T21:44:22Z</time>
      </trkpt>
      <trkpt lat="37.928300444" lon="-122.144976016">
        <ele>248.640000</ele>
        <time>2017-04-30T21:44:32Z</time>
      </trkpt>
      <trkpt lat="37.928358950" lon="-122.144931173">
        <ele>249.120000</ele>
        <time>2017-04-30T21:44:38Z</time>
      </trkpt>
      <trkpt lat="37.928410079" lon="-122.144967383">
        <ele>248.640000</ele>
        <time>2017-04-30T21:44:45Z</time>
      </trkpt>
      <trkpt lat="37.928406810" lon="-122.145073330">
        <ele>251.520000</ele>
        <time>2017-04-30T21:44:57Z</time>
      </trkpt>
      <trkpt lat="37.928411169" lon="-122.145187156">
        <ele>251.520000</ele>
        <time>2017-04-30T21:45:08Z</time>
      </trkpt>
      <trkpt lat="37.928423826" lon="-122.145212134">
        <ele>252.480000</ele>
        <time>2017-04-30T21:45:15Z</time>
      </trkpt>
      <trkpt lat="37.928420976" lon="-122.145388406">
        <ele>254.410000</ele>
        <time>2017-04-30T21:45:30Z</time>
      </trkpt>
      <trkpt lat="37.928415108" lon="-122.145486809">
        <ele>252.480000</ele>
        <time>2017-04-30T21:45:41Z</time>
      </trkpt>
      <trkpt lat="37.928411923" lon="-122.145506674">
        <ele>250.560000</ele>
        <time>2017-04-30T21:45:54Z</time>
      </trkpt>
      <trkpt lat="37.928449810" lon="-122.145591499">
        <ele>250.560000</ele>
        <time>2017-04-30T21:46:03Z</time>
      </trkpt>
      <trkpt lat="37.928499430" lon="-122.145605581">
        <ele>253.440000</ele>
        <time>2017-04-30T21:46:07Z</time>
      </trkpt>
      <trkpt lat="37.928508483" lon="-122.145674145">
        <ele>257.290000</ele>
        <time>2017-04-30T21:46:12Z</time>
      </trkpt>
      <trkpt lat="37.928485936" lon="-122.145775147">
        <ele>256.810000</ele>
        <time>2017-04-30T21:46:21Z</time>
      </trkpt>
      <trkpt lat="37.928460790" lon="-122.145936247">
        <ele>252.960000</ele>
        <time>2017-04-30T21:46:35Z</time>
      </trkpt>
      <trkpt lat="37.928444613" lon="-122.145967344">
        <ele>252.000000</ele>
        <time>2017-04-30T21:46:38Z</time>
      </trkpt>
      <trkpt lat="37.928380240" lon="-122.146132886">
        <ele>246.230000</ele>
        <time>2017-04-30T21:46:54Z</time>
      </trkpt>
      <trkpt lat="37.928370517" lon="-122.146161217">
        <ele>246.720000</ele>
        <time>2017-04-30T21:46:56Z</time>
      </trkpt>
      <trkpt lat="37.928399267" lon="-122.146279570">
        <ele>249.600000</ele>
        <time>2017-04-30T21:47:06Z</time>
      </trkpt>
      <trkpt lat="37.928398512" lon="-122.146296753">
        <ele>249.600000</ele>
        <time>2017-04-30T21:47:24Z</time>
      </trkpt>
      <trkpt lat="37.928388957" lon="-122.146299267">
        <ele>252.000000</ele>
        <time>2017-04-30T21:47:39Z</time>
      </trkpt>
      <trkpt lat="37.928390298" lon="-122.146356096">
        <ele>252.960000</ele>
        <time>2017-04-30T21:48:11Z</time>
      </trkpt>
      <trkpt lat="37.928382838" lon="-122.146336986">
        <ele>256.330000</ele>
        <time>2017-04-30T21:48:36Z</time>
      </trkpt>
      <trkpt lat="37.928430866" lon="-122.146315780">
        <ele>255.370000</ele>
        <time>2017-04-30T21:48:54Z</time>
      </trkpt>
      <trkpt lat="37.928463724" lon="-122.146303123">
        <ele>254.890000</ele>
        <time>2017-04-30T21:48:59Z</time>
      </trkpt>
      <trkpt lat="37.928480487" lon="-122.146315696">
        <ele>255.370000</ele>
        <time>2017-04-30T21:49:02Z</time>
      </trkpt>
      <trkpt lat="37.928459197" lon="-122.146360958">
        <ele>256.810000</ele>
        <time>2017-04-30T21:49:12Z</time>
      </trkpt>
      <trkpt lat="37.928447463" lon="-122.146445699">
        <ele>260.170000</ele>
        <time>2017-04-30T21:49:31Z</time>
      </trkpt>
      <trkpt lat="37.928432040" lon="-122.146489369">
        <ele>261.140000</ele>
        <time>2017-04-30T21:49:35Z</time>
      </trkpt>
      <trkpt lat="37.928370684" lon="-122.146632196">
        <ele>259.210000</ele>
        <time>2017-04-30T21:49:46Z</time>
      </trkpt>
      <trkpt lat="37.928368757" lon="-122.146670250">
        <ele>258.250000</ele>
        <time>2017-04-30T21:49:49Z</time>
      </trkpt>
      <trkpt lat="37.928334139" lon="-122.146842163">
        <ele>256.330000</ele>
        <time>2017-04-30T21:50:00Z</time>
      </trkpt>
      <trkpt lat="37.928337911" lon="-122.146964874">
        <ele>256.330000</ele>
        <time>2017-04-30T21:50:09Z</time>
      </trkpt>
      <trkpt lat="37.928336821" lon="-122.147115245">
        <ele>251.040000</ele>
        <time>2017-04-30T21:50:18Z</time>
      </trkpt>
      <trkpt lat="37.928343695" lon="-122.147248769">
        <ele>248.640000</ele>
        <time>2017-04-30T21:50:30Z</time>
      </trkpt>
      <trkpt lat="37.928323159" lon="-122.147408780">
        <ele>250.080000</ele>
        <time>2017-04-30T21:50:43Z</time>
      </trkpt>
      <trkpt lat="37.928307904" lon="-122.147497209">
        <ele>250.560000</ele>
        <time>2017-04-30T21:50:48Z</time>
      </trkpt>
      <trkpt lat="37.928306814" lon="-122.147754449">
        <ele>250.560000</ele>
        <time>2017-04-30T21:51:05Z</time>
      </trkpt>
      <trkpt lat="37.928306898" lon="-122.147771381">
        <ele>250.560000</ele>
        <time>2017-04-30T21:51:06Z</time>
      </trkpt>
      <trkpt lat="37.928299773" lon="-122.147795772">
        <ele>250.560000</ele>
        <time>2017-04-30T21:51:08Z</time>
      </trkpt>
      <trkpt lat="37.928318297" lon="-122.148016300">
        <ele>248.640000</ele>
        <time>2017-04-30T21:51:23Z</time>
      </trkpt>
      <trkpt lat="37.928331541" lon="-122.148165079">
        <ele>247.680000</ele>
        <time>2017-04-30T21:51:33Z</time>
      </trkpt>
      <trkpt lat="37.928330787" lon="-122.148236996">
        <ele>247.200000</ele>
        <time>2017-04-30T21:51:38Z</time>
      </trkpt>
      <trkpt lat="37.928372612" lon="-122.148322323">
        <ele>245.270000</ele>
        <time>2017-04-30T21:51:52Z</time>
      </trkpt>
      <trkpt lat="37.928378144" lon="-122.148329951">
        <ele>245.750000</ele>
        <time>2017-04-30T21:51:54Z</time>
      </trkpt>
      <trkpt lat="37.928376636" lon="-122.148372782">
        <ele>245.270000</ele>
        <time>2017-04-30T21:51:57Z</time>
      </trkpt>
      <trkpt lat="37.928371523" lon="-122.148438580">
        <ele>244.310000</ele>
        <time>2017-04-30T21:52:02Z</time>
      </trkpt>
      <trkpt lat="37.928429777" lon="-122.148587191">
        <ele>244.790000</ele>
        <time>2017-04-30T21:52:16Z</time>
      </trkpt>
      <trkpt lat="37.928453498" lon="-122.148620803">
        <ele>244.790000</ele>
        <time>2017-04-30T21:52:21Z</time>
      </trkpt>
      <trkpt lat="37.928493228" lon="-122.148702275">
        <ele>243.350000</ele>
        <time>2017-04-30T21:52:35Z</time>
      </trkpt>
      <trkpt lat="37.928487109" lon="-122.148714093">
        <ele>242.870000</ele>
        <time>2017-04-30T21:52:38Z</time>
      </trkpt>
      <trkpt lat="37.928441009" lon="-122.148815682">
        <ele>240.470000</ele>
        <time>2017-04-30T21:52:51Z</time>
      </trkpt>
      <trkpt lat="37.928410163" lon="-122.148899920">
        <ele>240.470000</ele>
        <time>2017-04-30T21:53:09Z</time>
      </trkpt>
      <trkpt lat="37.928404044" lon="-122.148884246">
        <ele>241.430000</ele>
        <time>2017-04-30T21:53:33Z</time>
      </trkpt>
      <trkpt lat="37.928416533" lon="-122.148880307">
        <ele>242.870000</ele>
        <time>2017-04-30T21:53:57Z</time>
      </trkpt>
      <trkpt lat="37.928393148" lon="-122.148895143">
        <ele>246.720000</ele>
        <time>2017-04-30T21:54:18Z</time>
      </trkpt>
      <trkpt lat="37.928454084" lon="-122.148904949">
        <ele>244.310000</ele>
        <time>2017-04-30T21:54:36Z</time>
      </trkpt>
      <trkpt lat="37.928500352" lon="-122.148907967">
        <ele>240.470000</ele>
        <time>2017-04-30T21:54:51Z</time>
      </trkpt>
      <trkpt lat="37.928555422" lon="-122.148955241">
        <ele>235.180000</ele>
        <time>2017-04-30T21:55:03Z</time>
      </trkpt>
      <trkpt lat="37.928538071" lon="-122.148994049">
        <ele>233.260000</ele>
        <time>2017-04-30T21:55:21Z</time>
      </trkpt>
      <trkpt lat="37.928596660" lon="-122.148965886">
        <ele>229.410000</ele>
        <time>2017-04-30T21:55:32Z</time>
      </trkpt>
      <trkpt lat="37.928710319" lon="-122.148986170">
        <ele>229.890000</ele>
        <time>2017-04-30T21:55:40Z</time>
      </trkpt>
      <trkpt lat="37.928735549" lon="-122.148986757">
        <ele>230.850000</ele>
        <time>2017-04-30T21:55:43Z</time>
      </trkpt>
      <trkpt lat="37.928794473" lon="-122.148994384">
        <ele>231.810000</ele>
        <time>2017-04-30T21:55:49Z</time>
      </trkpt>
      <trkpt lat="37.928892458" lon="-122.149009975">
        <ele>227.010000</ele>
        <time>2017-04-30T21:56:03Z</time>
      </trkpt>
      <trkpt lat="37.928886674" lon="-122.148992373">
        <ele>226.530000</ele>
        <time>2017-04-30T21:56:11Z</time>
      </trkpt>
      <trkpt lat="37.928933362" lon="-122.148975357">
        <ele>227.010000</ele>
        <time>2017-04-30T21:56:16Z</time>
      </trkpt>
      <trkpt lat="37.928963536" lon="-122.149018859">
        <ele>225.090000</ele>
        <time>2017-04-30T21:56:28Z</time>
      </trkpt>
      <trkpt lat="37.928990778" lon="-122.149030929">
        <ele>223.640000</ele>
        <time>2017-04-30T21:56:39Z</time>
      </trkpt>
      <trkpt lat="37.928994969" lon="-122.149100499">
        <ele>221.240000</ele>
        <time>2017-04-30T21:56:49Z</time>
      </trkpt>
      <trkpt lat="37.928991951" lon="-122.149167722">
        <ele>216.430000</ele>
        <time>2017-04-30T21:57:03Z</time>
      </trkpt>
      <trkpt lat="37.928970745" lon="-122.149184151">
        <ele>214.990000</ele>
        <time>2017-04-30T21:57:13Z</time>
      </trkpt>
      <trkpt lat="37.928927159" lon="-122.149186581">
        <ele>210.670000</ele>
        <time>2017-04-30T21:57:25Z</time>
      </trkpt>
      <trkpt lat="37.928889943" lon="-122.149135955">
        <ele>209.700000</ele>
        <time>2017-04-30T21:57:46Z</time>
      </trkpt>
      <trkpt lat="37.928864295" lon="-122.149128495">
        <ele>208.740000</ele>
        <time>2017-04-30T21:57:58Z</time>
      </trkpt>
      <trkpt lat="37.928857422" lon="-122.149141487">
        <ele>205.860000</ele>
        <time>2017-04-30T21:58:14Z</time>
      </trkpt>
      <trkpt lat="37.928828672" lon="-122.149155652">
        <ele>205.860000</ele>
        <time>2017-04-30T21:58:31Z</time>
      </trkpt>
      <trkpt lat="37.928776117" lon="-122.149116509">
        <ele>208.260000</ele>
        <time>2017-04-30T21:58:50Z</time>
      </trkpt>
      <trkpt lat="37.928626835" lon="-122.149085328">
        <ele>215.950000</ele>
        <time>2017-04-30T21:59:11Z</time>
      </trkpt>
      <trkpt lat="37.928661369" lon="-122.149126232">
        <ele>221.720000</ele>
        <time>2017-04-30T21:59:31Z</time>
      </trkpt>
      <trkpt lat="37.928647958" lon="-122.149149030">
        <ele>219.800000</ele>
        <time>2017-04-30T21:59:42Z</time>
      </trkpt>
      <trkpt lat="37.928651981" lon="-122.149158083">
        <ele>219.320000</ele>
        <time>2017-04-30T21:59:43Z</time>
      </trkpt>
      <trkpt lat="37.928612167" lon="-122.149232766">
        <ele>221.240000</ele>
        <time>2017-04-30T21:59:54Z</time>
      </trkpt>
      <trkpt lat="37.928632786" lon="-122.149326811">
        <ele>222.200000</ele>
        <time>2017-04-30T22:00:07Z</time>
      </trkpt>
      <trkpt lat="37.928722892" lon="-122.149498975">
        <ele>226.050000</ele>
        <time>2017-04-30T22:00:19Z</time>
      </trkpt>
      <trkpt lat="37.928726161" lon="-122.149538621">
        <ele>226.050000</ele>
        <time>2017-04-30T22:00:23Z</time>
      </trkpt>
      <trkpt lat="37.928700596" lon="-122.149645658">
        <ele>222.680000</ele>
        <time>2017-04-30T22:00:35Z</time>
      </trkpt>
      <trkpt lat="37.928694226" lon="-122.149783289">
        <ele>219.320000</ele>
        <time>2017-04-30T22:00:48Z</time>
      </trkpt>
      <trkpt lat="37.928624405" lon="-122.149860319">
        <ele>217.400000</ele>
        <time>2017-04-30T22:00:59Z</time>
      </trkpt>
      <trkpt lat="37.928610826" lon="-122.149886722">
        <ele>216.910000</ele>
        <time>2017-04-30T22:01:20Z</time>
      </trkpt>
      <trkpt lat="37.928543771" lon="-122.149969535">
        <ele>214.990000</ele>
        <time>2017-04-30T22:01:32Z</time>
      </trkpt>
      <trkpt lat="37.928547710" lon="-122.150018737">
        <ele>215.950000</ele>
        <time>2017-04-30T22:01:45Z</time>
      </trkpt>
      <trkpt lat="37.928595738" lon="-122.150130551">
        <ele>220.280000</ele>
        <time>2017-04-30T22:01:59Z</time>
      </trkpt>
      <trkpt lat="37.928612418" lon="-122.150207749">
        <ele>224.610000</ele>
        <time>2017-04-30T22:02:13Z</time>
      </trkpt>
      <trkpt lat="37.928555757" lon="-122.150248988">
        <ele>226.530000</ele>
        <time>2017-04-30T22:02:40Z</time>
      </trkpt>
      <trkpt lat="37.928556763" lon="-122.150242701">
        <ele>227.490000</ele>
        <time>2017-04-30T22:03:01Z</time>
      </trkpt>
      <trkpt lat="37.928501777" lon="-122.150314115">
        <ele>227.490000</ele>
        <time>2017-04-30T22:03:13Z</time>
      </trkpt>
      <trkpt lat="37.928475458" lon="-122.150332304">
        <ele>228.450000</ele>
        <time>2017-04-30T22:03:24Z</time>
      </trkpt>
      <trkpt lat="37.928490127" lon="-122.150342530">
        <ele>228.450000</ele>
        <time>2017-04-30T22:03:36Z</time>
      </trkpt>
      <trkpt lat="37.928497083" lon="-122.150329705">
        <ele>228.450000</ele>
        <time>2017-04-30T22:03:53Z</time>
      </trkpt>
      <trkpt lat="37.928475207" lon="-122.150309589">
        <ele>228.450000</ele>
        <time>2017-04-30T22:04:05Z</time>
      </trkpt>
      <trkpt lat="37.928460622" lon="-122.150289388">
        <ele>229.410000</ele>
        <time>2017-04-30T22:04:24Z</time>
      </trkpt>
      <trkpt lat="37.928496329" lon="-122.150241863">
        <ele>227.010000</ele>
        <time>2017-04-30T22:04:30Z</time>
      </trkpt>
      <trkpt lat="37.928617280" lon="-122.150223674">
        <ele>227.490000</ele>
        <time>2017-04-30T22:04:43Z</time>
      </trkpt>
      <trkpt lat="37.928674947" lon="-122.150231302">
        <ele>228.450000</ele>
        <time>2017-04-30T22:04:55Z</time>
      </trkpt>
      <trkpt lat="37.928731441" lon="-122.150221998">
        <ele>227.970000</ele>
        <time>2017-04-30T22:05:07Z</time>
      </trkpt>
      <trkpt lat="37.928795479" lon="-122.150270110">
        <ele>226.050000</ele>
        <time>2017-04-30T22:05:21Z</time>
      </trkpt>
      <trkpt lat="37.928868569" lon="-122.150315456">
        <ele>230.850000</ele>
        <time>2017-04-30T22:05:35Z</time>
      </trkpt>
      <trkpt lat="37.928926405" lon="-122.150369603">
        <ele>232.780000</ele>
        <time>2017-04-30T22:05:54Z</time>
      </trkpt>
      <trkpt lat="37.928950964" lon="-122.150361054">
        <ele>233.260000</ele>
        <time>2017-04-30T22:05:58Z</time>
      </trkpt>
      <trkpt lat="37.928942665" lon="-122.150399694">
        <ele>233.260000</ele>
        <time>2017-04-30T22:06:05Z</time>
      </trkpt>
      <trkpt lat="37.929019695" lon="-122.150436072">
        <ele>233.740000</ele>
        <time>2017-04-30T22:06:17Z</time>
      </trkpt>
      <trkpt lat="37.929033693" lon="-122.150442610">
        <ele>232.300000</ele>
        <time>2017-04-30T22:06:27Z</time>
      </trkpt>
      <trkpt lat="37.929022042" lon="-122.150470354">
        <ele>232.300000</ele>
        <time>2017-04-30T22:06:43Z</time>
      </trkpt>
      <trkpt lat="37.929031430" lon="-122.150486028">
        <ele>232.780000</ele>
        <time>2017-04-30T22:06:59Z</time>
      </trkpt>
      <trkpt lat="37.929037213" lon="-122.150487117">
        <ele>232.780000</ele>
        <time>2017-04-30T22:07:01Z</time>
      </trkpt>
      <trkpt lat="37.929032352" lon="-122.150522741">
        <ele>234.220000</ele>
        <time>2017-04-30T22:07:12Z</time>
      </trkpt>
      <trkpt lat="37.929052720" lon="-122.150525590">
        <ele>237.100000</ele>
        <time>2017-04-30T22:07:20Z</time>
      </trkpt>
      <trkpt lat="37.929002261" lon="-122.150565907">
        <ele>235.660000</ele>
        <time>2017-04-30T22:07:25Z</time>
      </trkpt>
      <trkpt lat="37.928922046" lon="-122.150706807">
        <ele>233.740000</ele>
        <time>2017-04-30T22:07:36Z</time>
      </trkpt>
      <trkpt lat="37.928880472" lon="-122.150799427">
        <ele>233.260000</ele>
        <time>2017-04-30T22:07:43Z</time>
      </trkpt>
      <trkpt lat="37.928876951" lon="-122.150869081">
        <ele>234.700000</ele>
        <time>2017-04-30T22:07:58Z</time>
      </trkpt>
      <trkpt lat="37.928873599" lon="-122.150854412">
        <ele>237.100000</ele>
        <time>2017-04-30T22:08:23Z</time>
      </trkpt>
      <trkpt lat="37.929027826" lon="-122.151019285">
        <ele>239.510000</ele>
        <time>2017-04-30T22:08:38Z</time>
      </trkpt>
      <trkpt lat="37.929135617" lon="-122.151141744">
        <ele>240.950000</ele>
        <time>2017-04-30T22:08:50Z</time>
      </trkpt>
      <trkpt lat="37.929231171" lon="-122.151317345">
        <ele>240.950000</ele>
        <time>2017-04-30T22:09:04Z</time>
      </trkpt>
      <trkpt lat="37.929350529" lon="-122.151460676">
        <ele>242.870000</ele>
        <time>2017-04-30T22:09:18Z</time>
      </trkpt>
      <trkpt lat="37.929476760" lon="-122.151527982">
        <ele>244.790000</ele>
        <time>2017-04-30T22:09:32Z</time>
      </trkpt>
      <trkpt lat="37.929525292" lon="-122.151570478">
        <ele>247.200000</ele>
        <time>2017-04-30T22:09:47Z</time>
      </trkpt>
      <trkpt lat="37.929556137" lon="-122.151587913">
        <ele>247.200000</ele>
        <time>2017-04-30T22:09:53Z</time>
      </trkpt>
      <trkpt lat="37.929615313" lon="-122.151612807">
        <ele>247.680000</ele>
        <time>2017-04-30T22:10:03Z</time>
      </trkpt>
      <trkpt lat="37.929634927" lon="-122.151655974">
        <ele>248.160000</ele>
        <time>2017-04-30T22:10:07Z</time>
      </trkpt>
      <trkpt lat="37.929730816" lon="-122.151824953">
        <ele>249.600000</ele>
        <time>2017-04-30T22:10:23Z</time>
      </trkpt>
      <trkpt lat="37.929798877" lon="-122.151962081">
        <ele>252.960000</ele>
        <time>2017-04-30T22:10:38Z</time>
      </trkpt>
      <trkpt lat="37.929803571" lon="-122.151965853">
        <ele>253.440000</ele>
        <time>2017-04-30T22:10:39Z</time>
      </trkpt>
      <trkpt lat="37.929833662" lon="-122.151986556">
        <ele>254.410000</ele>
        <time>2017-04-30T22:10:43Z</time>
      </trkpt>
      <trkpt lat="37.929894347" lon="-122.152111530">
        <ele>258.250000</ele>
        <time>2017-04-30T22:10:58Z</time>
      </trkpt>
      <trkpt lat="37.929921923" lon="-122.152188979">
        <ele>260.650000</ele>
        <time>2017-04-30T22:11:10Z</time>
      </trkpt>
      <trkpt lat="37.929949164" lon="-122.152261734">
        <ele>263.060000</ele>
        <time>2017-04-30T22:11:22Z</time>
      </trkpt>
      <trkpt lat="37.929952685" lon="-122.152270284">
        <ele>264.500000</ele>
        <time>2017-04-30T22:11:36Z</time>
      </trkpt>
      <trkpt lat="37.929991996" lon="-122.152297944">
        <ele>266.900000</ele>
        <time>2017-04-30T22:11:57Z</time>
      </trkpt>
      <trkpt lat="37.930004401" lon="-122.152315462">
        <ele>267.380000</ele>
        <time>2017-04-30T22:12:01Z</time>
      </trkpt>
      <trkpt lat="37.930024853" lon="-122.152349828">
        <ele>268.830000</ele>
        <time>2017-04-30T22:12:13Z</time>
      </trkpt>
      <trkpt lat="37.930054441" lon="-122.152395677">
        <ele>270.270000</ele>
        <time>2017-04-30T22:12:25Z</time>
      </trkpt>
      <trkpt lat="37.930099284" lon="-122.152431300">
        <ele>272.670000</ele>
        <time>2017-04-30T22:12:32Z</time>
      </trkpt>
      <trkpt lat="37.930143457" lon="-122.152503217">
        <ele>276.520000</ele>
        <time>2017-04-30T22:12:42Z</time>
      </trkpt>
      <trkpt lat="37.930184864" lon="-122.152610756">
        <ele>280.840000</ele>
        <time>2017-04-30T22:12:56Z</time>
      </trkpt>
      <trkpt lat="37.930236077" lon="-122.152662724">
        <ele>284.690000</ele>
        <time>2017-04-30T22:13:09Z</time>
      </trkpt>
      <trkpt lat="37.930223923" lon="-122.152660294">
        <ele>284.690000</ele>
        <time>2017-04-30T22:13:26Z</time>
      </trkpt>
      <trkpt lat="37.930216128" lon="-122.152649397">
        <ele>281.800000</ele>
        <time>2017-04-30T22:13:54Z</time>
      </trkpt>
      <trkpt lat="37.930223169" lon="-122.152651576">
        <ele>284.210000</ele>
        <time>2017-04-30T22:14:25Z</time>
      </trkpt>
      <trkpt lat="37.930225516" lon="-122.152654678">
        <ele>284.690000</ele>
        <time>2017-04-30T22:14:52Z</time>
      </trkpt>
      <trkpt lat="37.930226354" lon="-122.152658533">
        <ele>284.690000</ele>
        <time>2017-04-30T22:15:13Z</time>
      </trkpt>
      <trkpt lat="37.930228785" lon="-122.152683847">
        <ele>284.210000</ele>
        <time>2017-04-30T22:15:36Z</time>
      </trkpt>
      <trkpt lat="37.930290475" lon="-122.152751237">
        <ele>286.610000</ele>
        <time>2017-04-30T22:15:48Z</time>
      </trkpt>
      <trkpt lat="37.930347472" lon="-122.152850479">
        <ele>290.460000</ele>
        <time>2017-04-30T22:16:01Z</time>
      </trkpt>
      <trkpt lat="37.930397429" lon="-122.152931867">
        <ele>294.300000</ele>
        <time>2017-04-30T22:16:14Z</time>
      </trkpt>
      <trkpt lat="37.930469010" lon="-122.152957851">
        <ele>298.150000</ele>
        <time>2017-04-30T22:16:26Z</time>
      </trkpt>
      <trkpt lat="37.930542771" lon="-122.153050052">
        <ele>301.030000</ele>
        <time>2017-04-30T22:16:39Z</time>
      </trkpt>
      <trkpt lat="37.930619968" lon="-122.153159771">
        <ele>297.670000</ele>
        <time>2017-04-30T22:16:54Z</time>
      </trkpt>
      <trkpt lat="37.930655256" lon="-122.153214002">
        <ele>294.300000</ele>
        <time>2017-04-30T22:17:04Z</time>
      </trkpt>
      <trkpt lat="37.930683000" lon="-122.153224060">
        <ele>292.380000</ele>
        <time>2017-04-30T22:17:07Z</time>
      </trkpt>
      <trkpt lat="37.930765981" lon="-122.153314669">
        <ele>288.530000</ele>
        <time>2017-04-30T22:17:20Z</time>
      </trkpt>
      <trkpt lat="37.930808393" lon="-122.153397230">
        <ele>283.730000</ele>
        <time>2017-04-30T22:17:31Z</time>
      </trkpt>
      <trkpt lat="37.930822391" lon="-122.153429165">
        <ele>281.320000</ele>
        <time>2017-04-30T22:17:35Z</time>
      </trkpt>
      <trkpt lat="37.930840664" lon="-122.153450456">
        <ele>279.400000</ele>
        <time>2017-04-30T22:17:40Z</time>
      </trkpt>
      <trkpt lat="37.930878801" lon="-122.153498735">
        <ele>276.520000</ele>
        <time>2017-04-30T22:17:45Z</time>
      </trkpt>
      <trkpt lat="37.930912497" lon="-122.153570987">
        <ele>273.150000</ele>
        <time>2017-04-30T22:17:55Z</time>
      </trkpt>
      <trkpt lat="37.930891877" lon="-122.153619435">
        <ele>273.630000</ele>
        <time>2017-04-30T22:18:12Z</time>
      </trkpt>
      <trkpt lat="37.930749804" lon="-122.153711217">
        <ele>268.350000</ele>
        <time>2017-04-30T22:18:26Z</time>
      </trkpt>
      <trkpt lat="37.930733040" lon="-122.153727897">
        <ele>267.860000</ele>
        <time>2017-04-30T22:18:28Z</time>
      </trkpt>
      <trkpt lat="37.930727759" lon="-122.153784307">
        <ele>267.380000</ele>
        <time>2017-04-30T22:18:32Z</time>
      </trkpt>
      <trkpt lat="37.930712420" lon="-122.153825881">
        <ele>266.420000</ele>
        <time>2017-04-30T22:18:36Z</time>
      </trkpt>
      <trkpt lat="37.930729520" lon="-122.153852619">
        <ele>266.420000</ele>
        <time>2017-04-30T22:18:39Z</time>
      </trkpt>
      <trkpt lat="37.930734716" lon="-122.153891176">
        <ele>265.940000</ele>
        <time>2017-04-30T22:18:42Z</time>
      </trkpt>
      <trkpt lat="37.930773357" lon="-122.153937193">
        <ele>265.460000</ele>
        <time>2017-04-30T22:18:47Z</time>
      </trkpt>
      <trkpt lat="37.930771178" lon="-122.153996537">
        <ele>264.980000</ele>
        <time>2017-04-30T22:18:51Z</time>
      </trkpt>
      <trkpt lat="37.930782828" lon="-122.154062251">
        <ele>264.980000</ele>
        <time>2017-04-30T22:18:55Z</time>
      </trkpt>
      <trkpt lat="37.930774279" lon="-122.154129893">
        <ele>264.500000</ele>
        <time>2017-04-30T22:19:00Z</time>
      </trkpt>
      <trkpt lat="37.930781571" lon="-122.154174652">
        <ele>264.500000</ele>
        <time>2017-04-30T22:19:03Z</time>
      </trkpt>
      <trkpt lat="37.930815350" lon="-122.154190075">
        <ele>264.020000</ele>
        <time>2017-04-30T22:19:06Z</time>
      </trkpt>
      <trkpt lat="37.930892212" lon="-122.154244473">
        <ele>264.980000</ele>
        <time>2017-04-30T22:19:15Z</time>
      </trkpt>
      <trkpt lat="37.930986006" lon="-122.154267523">
        <ele>268.350000</ele>
        <time>2017-04-30T22:19:27Z</time>
      </trkpt>
      <trkpt lat="37.931063790" lon="-122.154283952">
        <ele>273.630000</ele>
        <time>2017-04-30T22:19:42Z</time>
      </trkpt>
      <trkpt lat="37.931120032" lon="-122.154251011">
        <ele>276.520000</ele>
        <time>2017-04-30T22:19:52Z</time>
      </trkpt>
      <trkpt lat="37.931168480" lon="-122.154245228">
        <ele>280.360000</ele>
        <time>2017-04-30T22:20:05Z</time>
      </trkpt>
      <trkpt lat="37.931228830" lon="-122.154216059">
        <ele>284.210000</ele>
        <time>2017-04-30T22:20:17Z</time>
      </trkpt>
      <trkpt lat="37.931217263" lon="-122.154222680">
        <ele>281.320000</ele>
        <time>2017-04-30T22:20:43Z</time>
      </trkpt>
      <trkpt lat="37.931217179" lon="-122.154226620">
        <ele>281.800000</ele>
        <time>2017-04-30T22:20:58Z</time>
      </trkpt>
      <trkpt lat="37.931235535" lon="-122.154215639">
        <ele>284.210000</ele>
        <time>2017-04-30T22:21:30Z</time>
      </trkpt>
      <trkpt lat="37.931313151" lon="-122.154262410">
        <ele>285.170000</ele>
        <time>2017-04-30T22:21:44Z</time>
      </trkpt>
      <trkpt lat="37.931346847" lon="-122.154292669">
        <ele>286.130000</ele>
        <time>2017-04-30T22:21:56Z</time>
      </trkpt>
      <trkpt lat="37.931366377" lon="-122.154322760">
        <ele>285.650000</ele>
        <time>2017-04-30T22:21:59Z</time>
      </trkpt>
      <trkpt lat="37.931430247" lon="-122.154359641">
        <ele>286.130000</ele>
        <time>2017-04-30T22:22:06Z</time>
      </trkpt>
      <trkpt lat="37.931478694" lon="-122.154417727">
        <ele>286.130000</ele>
        <time>2017-04-30T22:22:14Z</time>
      </trkpt>
      <trkpt lat="37.931557233" lon="-122.154491656">
        <ele>288.530000</ele>
        <time>2017-04-30T22:22:27Z</time>
      </trkpt>
      <trkpt lat="37.931584222" lon="-122.154535241">
        <ele>291.900000</ele>
        <time>2017-04-30T22:22:37Z</time>
      </trkpt>
      <trkpt lat="37.931624120" lon="-122.154584359">
        <ele>293.820000</ele>
        <time>2017-04-30T22:22:50Z</time>
      </trkpt>
      <trkpt lat="37.931660078" lon="-122.154603386">
        <ele>297.180000</ele>
        <time>2017-04-30T22:22:58Z</time>
      </trkpt>
      <trkpt lat="37.931719422" lon="-122.154610343">
        <ele>301.030000</ele>
        <time>2017-04-30T22:23:11Z</time>
      </trkpt>
      <trkpt lat="37.931735348" lon="-122.154621240">
        <ele>304.390000</ele>
        <time>2017-04-30T22:23:32Z</time>
      </trkpt>
      <trkpt lat="37.931813216" lon="-122.154616714">
        <ele>307.280000</ele>
        <time>2017-04-30T22:23:43Z</time>
      </trkpt>
      <trkpt lat="37.931850767" lon="-122.154599531">
        <ele>307.280000</ele>
        <time>2017-04-30T22:23:49Z</time>
      </trkpt>
      <trkpt lat="37.931892341" lon="-122.154580755">
        <ele>307.760000</ele>
        <time>2017-04-30T22:23:55Z</time>
      </trkpt>
      <trkpt lat="37.931987057" lon="-122.154546473">
        <ele>309.200000</ele>
        <time>2017-04-30T22:24:07Z</time>
      </trkpt>
      <trkpt lat="37.932001390" lon="-122.154537924">
        <ele>310.160000</ele>
        <time>2017-04-30T22:24:21Z</time>
      </trkpt>
      <trkpt lat="37.932035085" lon="-122.154534487">
        <ele>308.720000</ele>
        <time>2017-04-30T22:24:38Z</time>
      </trkpt>
      <trkpt lat="37.932075653" lon="-122.154550664">
        <ele>308.240000</ele>
        <time>2017-04-30T22:24:43Z</time>
      </trkpt>
      <trkpt lat="37.932120245" lon="-122.154590562">
        <ele>306.800000</ele>
        <time>2017-04-30T22:24:49Z</time>
      </trkpt>
      <trkpt lat="37.932188725" lon="-122.154672118">
        <ele>307.280000</ele>
        <time>2017-04-30T22:25:00Z</time>
      </trkpt>
      <trkpt lat="37.932221498" lon="-122.154716458">
        <ele>307.760000</ele>
        <time>2017-04-30T22:25:06Z</time>
      </trkpt>
      <trkpt lat="37.932280339" lon="-122.154766750">
        <ele>308.240000</ele>
        <time>2017-04-30T22:25:14Z</time>
      </trkpt>
      <trkpt lat="37.932292745" lon="-122.154787788">
        <ele>308.240000</ele>
        <time>2017-04-30T22:25:16Z</time>
      </trkpt>
      <trkpt lat="37.932306910" lon="-122.154802708">
        <ele>308.240000</ele>
        <time>2017-04-30T22:25:18Z</time>
      </trkpt>
      <trkpt lat="37.932371954" lon="-122.154899351">
        <ele>307.280000</ele>
        <time>2017-04-30T22:25:27Z</time>
      </trkpt>
      <trkpt lat="37.932421155" lon="-122.155001108">
        <ele>305.360000</ele>
        <time>2017-04-30T22:25:38Z</time>
      </trkpt>
      <trkpt lat="37.932478236" lon="-122.155022146">
        <ele>304.390000</ele>
        <time>2017-04-30T22:25:50Z</time>
      </trkpt>
      <trkpt lat="37.932552751" lon="-122.155074701">
        <ele>305.840000</ele>
        <time>2017-04-30T22:26:02Z</time>
      </trkpt>
      <trkpt lat="37.932621231" lon="-122.155092973">
        <ele>309.200000</ele>
        <time>2017-04-30T22:26:14Z</time>
      </trkpt>
      <trkpt lat="37.932620896" lon="-122.155101858">
        <ele>310.160000</ele>
        <time>2017-04-30T22:26:28Z</time>
      </trkpt>
      <trkpt lat="37.932637911" lon="-122.155099008">
        <ele>311.120000</ele>
        <time>2017-04-30T22:26:45Z</time>
      </trkpt>
      <trkpt lat="37.932705218" lon="-122.155120131">
        <ele>313.530000</ele>
        <time>2017-04-30T22:26:56Z</time>
      </trkpt>
      <trkpt lat="37.932809405" lon="-122.155103534">
        <ele>316.890000</ele>
        <time>2017-04-30T22:27:08Z</time>
      </trkpt>
      <trkpt lat="37.932896325" lon="-122.155088615">
        <ele>317.850000</ele>
        <time>2017-04-30T22:27:16Z</time>
      </trkpt>
      <trkpt lat="37.932930775" lon="-122.155073360">
        <ele>318.330000</ele>
        <time>2017-04-30T22:27:20Z</time>
      </trkpt>
      <trkpt lat="37.933054995" lon="-122.155019464">
        <ele>319.300000</ele>
        <time>2017-04-30T22:27:33Z</time>
      </trkpt>
      <trkpt lat="37.933101263" lon="-122.155050980">
        <ele>318.330000</ele>
        <time>2017-04-30T22:27:45Z</time>
      </trkpt>
      <trkpt lat="37.933161277" lon="-122.155025918">
        <ele>317.370000</ele>
        <time>2017-04-30T22:27:56Z</time>
      </trkpt>
      <trkpt lat="37.933177706" lon="-122.155013345">
        <ele>315.930000</ele>
        <time>2017-04-30T22:28:14Z</time>
      </trkpt>
      <trkpt lat="37.933172677" lon="-122.155016614">
        <ele>317.370000</ele>
        <time>2017-04-30T22:28:40Z</time>
      </trkpt>
      <trkpt lat="37.933171000" lon="-122.155026086">
        <ele>316.890000</ele>
        <time>2017-04-30T22:29:10Z</time>
      </trkpt>
      <trkpt lat="37.933161361" lon="-122.155018374">
        <ele>316.890000</ele>
        <time>2017-04-30T22:29:33Z</time>
      </trkpt>
      <trkpt lat="37.933185166" lon="-122.155010076">
        <ele>319.300000</ele>
        <time>2017-04-30T22:29:52Z</time>
      </trkpt>
      <trkpt lat="37.933194051" lon="-122.155010412">
        <ele>320.260000</ele>
        <time>2017-04-30T22:30:26Z</time>
      </trkpt>
      <trkpt lat="37.933186674" lon="-122.155036647">
        <ele>319.780000</ele>
        <time>2017-04-30T22:30:46Z</time>
      </trkpt>
      <trkpt lat="37.933240486" lon="-122.155002197">
        <ele>318.330000</ele>
        <time>2017-04-30T22:30:59Z</time>
      </trkpt>
      <trkpt lat="37.933324389" lon="-122.154923240">
        <ele>317.850000</ele>
        <time>2017-04-30T22:31:11Z</time>
      </trkpt>
      <trkpt lat="37.933376776" lon="-122.154884180">
        <ele>315.930000</ele>
        <time>2017-04-30T22:31:26Z</time>
      </trkpt>
      <trkpt lat="37.933390522" lon="-122.154862890">
        <ele>315.450000</ele>
        <time>2017-04-30T22:31:33Z</time>
      </trkpt>
      <trkpt lat="37.933466462" lon="-122.154829111">
        <ele>312.570000</ele>
        <time>2017-04-30T22:31:44Z</time>
      </trkpt>
      <trkpt lat="37.933474425" lon="-122.154817041">
        <ele>312.090000</ele>
        <time>2017-04-30T22:31:47Z</time>
      </trkpt>
      <trkpt lat="37.933558999" lon="-122.154769935">
        <ele>312.090000</ele>
        <time>2017-04-30T22:31:57Z</time>
      </trkpt>
      <trkpt lat="37.933676094" lon="-122.154808072">
        <ele>314.970000</ele>
        <time>2017-04-30T22:32:11Z</time>
      </trkpt>
      <trkpt lat="37.933785310" lon="-122.154832631">
        <ele>318.810000</ele>
        <time>2017-04-30T22:32:23Z</time>
      </trkpt>
      <trkpt lat="37.933807019" lon="-122.154842941">
        <ele>318.330000</ele>
        <time>2017-04-30T22:32:25Z</time>
      </trkpt>
      <trkpt lat="37.933860915" lon="-122.154913433">
        <ele>315.930000</ele>
        <time>2017-04-30T22:32:32Z</time>
      </trkpt>
      <trkpt lat="37.933939537" lon="-122.155058859">
        <ele>310.640000</ele>
        <time>2017-04-30T22:32:44Z</time>
      </trkpt>
      <trkpt lat="37.934004413" lon="-122.155111665">
        <ele>308.240000</ele>
        <time>2017-04-30T22:32:52Z</time>
      </trkpt>
      <trkpt lat="37.934080437" lon="-122.155108228">
        <ele>305.360000</ele>
        <time>2017-04-30T22:32:59Z</time>
      </trkpt>
      <trkpt lat="37.934125699" lon="-122.155082580">
        <ele>303.430000</ele>
        <time>2017-04-30T22:33:04Z</time>
      </trkpt>
      <trkpt lat="37.934165848" lon="-122.155082412">
        <ele>302.470000</ele>
        <time>2017-04-30T22:33:08Z</time>
      </trkpt>
      <trkpt lat="37.934229719" lon="-122.155078975">
        <ele>298.630000</ele>
        <time>2017-04-30T22:33:21Z</time>
      </trkpt>
      <trkpt lat="37.934270957" lon="-122.155079814">
        <ele>297.670000</ele>
        <time>2017-04-30T22:33:33Z</time>
      </trkpt>
      <trkpt lat="37.934312029" lon="-122.155093895">
        <ele>296.700000</ele>
        <time>2017-04-30T22:33:46Z</time>
      </trkpt>
      <trkpt lat="37.934379503" lon="-122.155135721">
        <ele>295.740000</ele>
        <time>2017-04-30T22:33:55Z</time>
      </trkpt>
      <trkpt lat="37.934412695" lon="-122.155128848">
        <ele>295.260000</ele>
        <time>2017-04-30T22:33:58Z</time>
      </trkpt>
      <trkpt lat="37.934461646" lon="-122.155162375">
        <ele>291.900000</ele>
        <time>2017-04-30T22:34:04Z</time>
      </trkpt>
      <trkpt lat="37.934518391" lon="-122.155212080">
        <ele>288.050000</ele>
        <time>2017-04-30T22:34:12Z</time>
      </trkpt>
      <trkpt lat="37.934617214" lon="-122.155246362">
        <ele>286.130000</ele>
        <time>2017-04-30T22:34:21Z</time>
      </trkpt>
      <trkpt lat="37.934667757" lon="-122.155242171">
        <ele>286.610000</ele>
        <time>2017-04-30T22:34:26Z</time>
      </trkpt>
      <trkpt lat="37.934727352" lon="-122.155243345">
        <ele>285.170000</ele>
        <time>2017-04-30T22:34:41Z</time>
      </trkpt>
      <trkpt lat="37.934806142" lon="-122.155250385">
        <ele>287.570000</ele>
        <time>2017-04-30T22:34:59Z</time>
      </trkpt>
      <trkpt lat="37.934932206" lon="-122.155191461">
        <ele>285.170000</ele>
        <time>2017-04-30T22:35:12Z</time>
      </trkpt>
      <trkpt lat="37.935017366" lon="-122.155169751">
        <ele>283.730000</ele>
        <time>2017-04-30T22:35:23Z</time>
      </trkpt>
      <trkpt lat="37.935073776" lon="-122.155154161">
        <ele>279.880000</ele>
        <time>2017-04-30T22:35:36Z</time>
      </trkpt>
      <trkpt lat="37.935173437" lon="-122.155177044">
        <ele>276.040000</ele>
        <time>2017-04-30T22:35:47Z</time>
      </trkpt>
      <trkpt lat="37.935211156" lon="-122.155199172">
        <ele>275.070000</ele>
        <time>2017-04-30T22:35:52Z</time>
      </trkpt>
      <trkpt lat="37.935229260" lon="-122.155181821">
        <ele>274.110000</ele>
        <time>2017-04-30T22:35:55Z</time>
      </trkpt>
      <trkpt lat="37.935283491" lon="-122.155162208">
        <ele>273.630000</ele>
        <time>2017-04-30T22:36:01Z</time>
      </trkpt>
      <trkpt lat="37.935357755" lon="-122.155169584">
        <ele>274.590000</ele>
        <time>2017-04-30T22:36:09Z</time>
      </trkpt>
      <trkpt lat="37.935375860" lon="-122.155189533">
        <ele>274.110000</ele>
        <time>2017-04-30T22:36:11Z</time>
      </trkpt>
      <trkpt lat="37.935489854" lon="-122.155301850">
        <ele>270.750000</ele>
        <time>2017-04-30T22:36:22Z</time>
      </trkpt>
      <trkpt lat="37.935528243" lon="-122.155412324">
        <ele>265.460000</ele>
        <time>2017-04-30T22:36:33Z</time>
      </trkpt>
      <trkpt lat="37.935597561" lon="-122.155416515">
        <ele>264.020000</ele>
        <time>2017-04-30T22:36:45Z</time>
      </trkpt>
      <trkpt lat="37.935628323" lon="-122.155376198">
        <ele>268.830000</ele>
        <time>2017-04-30T22:36:56Z</time>
      </trkpt>
      <trkpt lat="37.935642907" lon="-122.155357087">
        <ele>269.790000</ele>
        <time>2017-04-30T22:37:13Z</time>
      </trkpt>
      <trkpt lat="37.935745334" lon="-122.155413330">
        <ele>269.310000</ele>
        <time>2017-04-30T22:37:24Z</time>
      </trkpt>
      <trkpt lat="37.935860837" lon="-122.155493125">
        <ele>270.270000</ele>
        <time>2017-04-30T22:37:34Z</time>
      </trkpt>
      <trkpt lat="37.935991008" lon="-122.155599827">
        <ele>273.150000</ele>
        <time>2017-04-30T22:37:48Z</time>
      </trkpt>
      <trkpt lat="37.936072396" lon="-122.155669648">
        <ele>277.000000</ele>
        <time>2017-04-30T22:37:58Z</time>
      </trkpt>
      <trkpt lat="37.936090166" lon="-122.155695381">
        <ele>277.480000</ele>
        <time>2017-04-30T22:38:01Z</time>
      </trkpt>
      <trkpt lat="37.936124364" lon="-122.155742906">
        <ele>279.400000</ele>
        <time>2017-04-30T22:38:15Z</time>
      </trkpt>
      <trkpt lat="37.936226455" lon="-122.155796215">
        <ele>278.920000</ele>
        <time>2017-04-30T22:38:27Z</time>
      </trkpt>
      <trkpt lat="37.936284207" lon="-122.155817170">
        <ele>280.840000</ele>
        <time>2017-04-30T22:38:34Z</time>
      </trkpt>
      <trkpt lat="37.936295187" lon="-122.155836197">
        <ele>281.800000</ele>
        <time>2017-04-30T22:38:36Z</time>
      </trkpt>
      <trkpt lat="37.936363583" lon="-122.155865198">
        <ele>284.690000</ele>
        <time>2017-04-30T22:38:49Z</time>
      </trkpt>
      <trkpt lat="37.936402308" lon="-122.155877771">
        <ele>286.610000</ele>
        <time>2017-04-30T22:39:02Z</time>
      </trkpt>
      <trkpt lat="37.936461819" lon="-122.155897552">
        <ele>286.610000</ele>
        <time>2017-04-30T22:39:31Z</time>
      </trkpt>
      <trkpt lat="37.936483864" lon="-122.155892942">
        <ele>286.610000</ele>
        <time>2017-04-30T22:39:34Z</time>
      </trkpt>
      <trkpt lat="37.936514458" lon="-122.155895457">
        <ele>287.090000</ele>
        <time>2017-04-30T22:39:38Z</time>
      </trkpt>
      <trkpt lat="37.936706152" lon="-122.155890008">
        <ele>289.010000</ele>
        <time>2017-04-30T22:39:54Z</time>
      </trkpt>
      <trkpt lat="37.936765077" lon="-122.155881124">
        <ele>288.530000</ele>
        <time>2017-04-30T22:39:59Z</time>
      </trkpt>
      <trkpt lat="37.936897008" lon="-122.155812224">
        <ele>287.570000</ele>
        <time>2017-04-30T22:40:13Z</time>
      </trkpt>
      <trkpt lat="37.936995244" lon="-122.155705104">
        <ele>288.050000</ele>
        <time>2017-04-30T22:40:27Z</time>
      </trkpt>
      <trkpt lat="37.937045451" lon="-122.155662859">
        <ele>289.490000</ele>
        <time>2017-04-30T22:40:33Z</time>
      </trkpt>
      <trkpt lat="37.937116111" lon="-122.155634947">
        <ele>289.010000</ele>
        <time>2017-04-30T22:40:42Z</time>
      </trkpt>
      <trkpt lat="37.937124744" lon="-122.155640982">
        <ele>289.010000</ele>
        <time>2017-04-30T22:40:43Z</time>
      </trkpt>
      <trkpt lat="37.937226249" lon="-122.155624302">
        <ele>291.900000</ele>
        <time>2017-04-30T22:40:56Z</time>
      </trkpt>
      <trkpt lat="37.937326077" lon="-122.155620446">
        <ele>292.860000</ele>
        <time>2017-04-30T22:41:06Z</time>
      </trkpt>
      <trkpt lat="37.937449962" lon="-122.155575519">
        <ele>291.900000</ele>
        <time>2017-04-30T22:41:17Z</time>
      </trkpt>
      <trkpt lat="37.937453734" lon="-122.155575687">
        <ele>293.340000</ele>
        <time>2017-04-30T22:41:33Z</time>
      </trkpt>
      <trkpt lat="37.937537888" lon="-122.155536795">
        <ele>288.530000</ele>
        <time>2017-04-30T22:41:49Z</time>
      </trkpt>
      <trkpt lat="37.937619360" lon="-122.155572586">
        <ele>285.170000</ele>
        <time>2017-04-30T22:42:00Z</time>
      </trkpt>
      <trkpt lat="37.937609637" lon="-122.155576944">
        <ele>282.280000</ele>
        <time>2017-04-30T22:42:14Z</time>
      </trkpt>
      <trkpt lat="37.937684488" lon="-122.155619944">
        <ele>280.360000</ele>
        <time>2017-04-30T22:42:28Z</time>
      </trkpt>
      <trkpt lat="37.937753135" lon="-122.155691190">
        <ele>280.840000</ele>
        <time>2017-04-30T22:42:35Z</time>
      </trkpt>
      <trkpt lat="37.937834859" lon="-122.155754892">
        <ele>282.770000</ele>
        <time>2017-04-30T22:42:42Z</time>
      </trkpt>
      <trkpt lat="37.937913816" lon="-122.155829575">
        <ele>283.730000</ele>
        <time>2017-04-30T22:42:54Z</time>
      </trkpt>
      <trkpt lat="37.937979447" lon="-122.155894786">
        <ele>284.690000</ele>
        <time>2017-04-30T22:43:06Z</time>
      </trkpt>
      <trkpt lat="37.938060081" lon="-122.155914232">
        <ele>283.730000</ele>
        <time>2017-04-30T22:43:21Z</time>
      </trkpt>
      <trkpt lat="37.938130740" lon="-122.155935438">
        <ele>283.730000</ele>
        <time>2017-04-30T22:43:32Z</time>
      </trkpt>
      <trkpt lat="37.938152030" lon="-122.155955303">
        <ele>284.210000</ele>
        <time>2017-04-30T22:43:36Z</time>
      </trkpt>
      <trkpt lat="37.938246410" lon="-122.155962512">
        <ele>286.610000</ele>
        <time>2017-04-30T22:43:49Z</time>
      </trkpt>
      <trkpt lat="37.938259067" lon="-122.155959075">
        <ele>286.610000</ele>
        <time>2017-04-30T22:43:51Z</time>
      </trkpt>
      <trkpt lat="37.938341964" lon="-122.155931834">
        <ele>289.490000</ele>
        <time>2017-04-30T22:44:03Z</time>
      </trkpt>
      <trkpt lat="37.938344646" lon="-122.155919932">
        <ele>290.460000</ele>
        <time>2017-04-30T22:44:18Z</time>
      </trkpt>
      <trkpt lat="37.938338444" lon="-122.155911718">
        <ele>285.650000</ele>
        <time>2017-04-30T22:44:37Z</time>
      </trkpt>
      <trkpt lat="37.938327380" lon="-122.155937282">
        <ele>289.010000</ele>
        <time>2017-04-30T22:44:58Z</time>
      </trkpt>
      <trkpt lat="37.938346071" lon="-122.155933259">
        <ele>289.490000</ele>
        <time>2017-04-30T22:45:14Z</time>
      </trkpt>
      <trkpt lat="37.938439446" lon="-122.155936947">
        <ele>292.380000</ele>
        <time>2017-04-30T22:45:26Z</time>
      </trkpt>
      <trkpt lat="37.938502897" lon="-122.155915238">
        <ele>295.260000</ele>
        <time>2017-04-30T22:45:35Z</time>
      </trkpt>
      <trkpt lat="37.938576238" lon="-122.155935941">
        <ele>298.150000</ele>
        <time>2017-04-30T22:45:46Z</time>
      </trkpt>
      <trkpt lat="37.938643796" lon="-122.155956561">
        <ele>300.550000</ele>
        <time>2017-04-30T22:45:55Z</time>
      </trkpt>
      <trkpt lat="37.938715294" lon="-122.155980784">
        <ele>302.470000</ele>
        <time>2017-04-30T22:46:05Z</time>
      </trkpt>
      <trkpt lat="37.938799448" lon="-122.155974414">
        <ele>302.950000</ele>
        <time>2017-04-30T22:46:20Z</time>
      </trkpt>
      <trkpt lat="37.938799197" lon="-122.155952957">
        <ele>301.990000</ele>
        <time>2017-04-30T22:46:42Z</time>
      </trkpt>
      <trkpt lat="37.938777823" lon="-122.155968463">
        <ele>304.880000</ele>
        <time>2017-04-30T22:47:05Z</time>
      </trkpt>
      <trkpt lat="37.938825097" lon="-122.155970978">
        <ele>305.360000</ele>
        <time>2017-04-30T22:47:16Z</time>
      </trkpt>
      <trkpt lat="37.938959040" lon="-122.155943150">
        <ele>302.470000</ele>
        <time>2017-04-30T22:47:28Z</time>
      </trkpt>
      <trkpt lat="37.939092228" lon="-122.155910796">
        <ele>296.220000</ele>
        <time>2017-04-30T22:47:40Z</time>
      </trkpt>
      <trkpt lat="37.939116871" lon="-122.155901659">
        <ele>292.380000</ele>
        <time>2017-04-30T22:47:56Z</time>
      </trkpt>
      <trkpt lat="37.939266404" lon="-122.155843573">
        <ele>297.670000</ele>
        <time>2017-04-30T22:48:08Z</time>
      </trkpt>
      <trkpt lat="37.939424319" lon="-122.155694291">
        <ele>295.740000</ele>
        <time>2017-04-30T22:48:23Z</time>
      </trkpt>
      <trkpt lat="37.939496655" lon="-122.155611226">
        <ele>295.260000</ele>
        <time>2017-04-30T22:48:31Z</time>
      </trkpt>
      <trkpt lat="37.939516101" lon="-122.155583734">
        <ele>295.260000</ele>
        <time>2017-04-30T22:48:34Z</time>
      </trkpt>
      <trkpt lat="37.939535212" lon="-122.155576441">
        <ele>294.780000</ele>
        <time>2017-04-30T22:48:36Z</time>
      </trkpt>
      <trkpt lat="37.939628083" lon="-122.155528497">
        <ele>290.460000</ele>
        <time>2017-04-30T22:48:48Z</time>
      </trkpt>
      <trkpt lat="37.939667730" lon="-122.155530341">
        <ele>284.690000</ele>
        <time>2017-04-30T22:48:58Z</time>
      </trkpt>
      <trkpt lat="37.939709974" lon="-122.155558420">
        <ele>283.250000</ele>
        <time>2017-04-30T22:49:02Z</time>
      </trkpt>
      <trkpt lat="37.939779125" lon="-122.155576525">
        <ele>280.840000</ele>
        <time>2017-04-30T22:49:07Z</time>
      </trkpt>
      <trkpt lat="37.939841487" lon="-122.155626565">
        <ele>277.480000</ele>
        <time>2017-04-30T22:49:14Z</time>
      </trkpt>
      <trkpt lat="37.939942991" lon="-122.155669816">
        <ele>274.110000</ele>
        <time>2017-04-30T22:49:25Z</time>
      </trkpt>
      <trkpt lat="37.940008957" lon="-122.155740140">
        <ele>278.440000</ele>
        <time>2017-04-30T23:09:19Z</time>
      </trkpt>
      <trkpt lat="37.940012896" lon="-122.155727064">
        <ele>278.440000</ele>
        <time>2017-04-30T23:09:20Z</time>
      </trkpt>
      <trkpt lat="37.940126304" lon="-122.155537130">
        <ele>280.840000</ele>
        <time>2017-04-30T23:09:38Z</time>
      </trkpt>
      <trkpt lat="37.940159915" lon="-122.155517768">
        <ele>282.770000</ele>
        <time>2017-04-30T23:09:44Z</time>
      </trkpt>
      <trkpt lat="37.940187575" lon="-122.155542746">
        <ele>283.250000</ele>
        <time>2017-04-30T23:09:48Z</time>
      </trkpt>
      <trkpt lat="37.940236442" lon="-122.155544506">
        <ele>283.250000</ele>
        <time>2017-04-30T23:09:52Z</time>
      </trkpt>
      <trkpt lat="37.940259324" lon="-122.155557582">
        <ele>282.770000</ele>
        <time>2017-04-30T23:09:55Z</time>
      </trkpt>
      <trkpt lat="37.940343814" lon="-122.155534280">
        <ele>280.360000</ele>
        <time>2017-04-30T23:10:06Z</time>
      </trkpt>
      <trkpt lat="37.940456802" lon="-122.155518355">
        <ele>279.880000</ele>
        <time>2017-04-30T23:10:19Z</time>
      </trkpt>
      <trkpt lat="37.940492425" lon="-122.155512739">
        <ele>279.880000</ele>
        <time>2017-04-30T23:10:22Z</time>
      </trkpt>
      <trkpt lat="37.940606587" lon="-122.155533023">
        <ele>280.360000</ele>
        <time>2017-04-30T23:10:35Z</time>
      </trkpt>
      <trkpt lat="37.940660566" lon="-122.155527407">
        <ele>279.400000</ele>
        <time>2017-04-30T23:10:48Z</time>
      </trkpt>
      <trkpt lat="37.940740446" lon="-122.155564455">
        <ele>281.320000</ele>
        <time>2017-04-30T23:11:02Z</time>
      </trkpt>
      <trkpt lat="37.940794760" lon="-122.155572502">
        <ele>282.770000</ele>
        <time>2017-04-30T23:11:15Z</time>
      </trkpt>
      <trkpt lat="37.940836502" lon="-122.155544087">
        <ele>285.650000</ele>
        <time>2017-04-30T23:11:29Z</time>
      </trkpt>
      <trkpt lat="37.940854859" lon="-122.155501591">
        <ele>288.050000</ele>
        <time>2017-04-30T23:11:44Z</time>
      </trkpt>
      <trkpt lat="37.940866509" lon="-122.155552721">
        <ele>288.050000</ele>
        <time>2017-04-30T23:12:09Z</time>
      </trkpt>
      <trkpt lat="37.940905737" lon="-122.155555990">
        <ele>290.940000</ele>
        <time>2017-04-30T23:12:21Z</time>
      </trkpt>
      <trkpt lat="37.940926272" lon="-122.155575352">
        <ele>294.300000</ele>
        <time>2017-04-30T23:12:28Z</time>
      </trkpt>
      <trkpt lat="37.940926943" lon="-122.155573927">
        <ele>297.180000</ele>
        <time>2017-04-30T23:12:39Z</time>
      </trkpt>
      <trkpt lat="37.940954017" lon="-122.155575352">
        <ele>298.630000</ele>
        <time>2017-04-30T23:12:58Z</time>
      </trkpt>
      <trkpt lat="37.940958207" lon="-122.155575100">
        <ele>300.550000</ele>
        <time>2017-04-30T23:13:14Z</time>
      </trkpt>
      <trkpt lat="37.940985449" lon="-122.155559259">
        <ele>299.110000</ele>
        <time>2017-04-30T23:13:34Z</time>
      </trkpt>
      <trkpt lat="37.940997351" lon="-122.155517852">
        <ele>299.110000</ele>
        <time>2017-04-30T23:13:46Z</time>
      </trkpt>
      <trkpt lat="37.940982515" lon="-122.155518271">
        <ele>301.030000</ele>
        <time>2017-04-30T23:13:58Z</time>
      </trkpt>
      <trkpt lat="37.940978492" lon="-122.155526988">
        <ele>301.990000</ele>
        <time>2017-04-30T23:14:17Z</time>
      </trkpt>
      <trkpt lat="37.940933146" lon="-122.155494718">
        <ele>302.950000</ele>
        <time>2017-04-30T23:14:42Z</time>
      </trkpt>
      <trkpt lat="37.940930882" lon="-122.155492958">
        <ele>304.390000</ele>
        <time>2017-04-30T23:15:05Z</time>
      </trkpt>
      <trkpt lat="37.940967763" lon="-122.155533945">
        <ele>305.360000</ele>
        <time>2017-04-30T23:15:25Z</time>
      </trkpt>
      <trkpt lat="37.940933397" lon="-122.155512488">
        <ele>304.390000</ele>
        <time>2017-04-30T23:15:47Z</time>
      </trkpt>
      <trkpt lat="37.940960303" lon="-122.155441744">
        <ele>300.550000</ele>
        <time>2017-04-30T23:16:10Z</time>
      </trkpt>
      <trkpt lat="37.940966673" lon="-122.155463202">
        <ele>301.510000</ele>
        <time>2017-04-30T23:16:47Z</time>
      </trkpt>
      <trkpt lat="37.941013947" lon="-122.155512655">
        <ele>301.030000</ele>
        <time>2017-04-30T23:17:20Z</time>
      </trkpt>
      <trkpt lat="37.941004978" lon="-122.155484157">
        <ele>300.550000</ele>
        <time>2017-04-30T23:17:41Z</time>
      </trkpt>
      <trkpt lat="37.940922668" lon="-122.155485414">
        <ele>299.590000</ele>
        <time>2017-04-30T23:18:01Z</time>
      </trkpt>
      <trkpt lat="37.940928033" lon="-122.155456664">
        <ele>299.110000</ele>
        <time>2017-04-30T23:18:05Z</time>
      </trkpt>
      <trkpt lat="37.941003973" lon="-122.155290619">
        <ele>296.700000</ele>
        <time>2017-04-30T23:18:23Z</time>
      </trkpt>
      <trkpt lat="37.941002296" lon="-122.155184839">
        <ele>299.590000</ele>
        <time>2017-04-30T23:18:38Z</time>
      </trkpt>
      <trkpt lat="37.941016881" lon="-122.155013932">
        <ele>297.670000</ele>
        <time>2017-04-30T23:18:55Z</time>
      </trkpt>
      <trkpt lat="37.941048313" lon="-122.154981578">
        <ele>298.630000</ele>
        <time>2017-04-30T23:19:08Z</time>
      </trkpt>
      <trkpt lat="37.941117045" lon="-122.155035893">
        <ele>301.990000</ele>
        <time>2017-04-30T23:19:23Z</time>
      </trkpt>
      <trkpt lat="37.941165492" lon="-122.155025415">
        <ele>301.510000</ele>
        <time>2017-04-30T23:19:40Z</time>
      </trkpt>
      <trkpt lat="37.941200277" lon="-122.154970849">
        <ele>303.910000</ele>
        <time>2017-04-30T23:19:55Z</time>
      </trkpt>
      <trkpt lat="37.941239672" lon="-122.154971687">
        <ele>303.910000</ele>
        <time>2017-04-30T23:20:14Z</time>
      </trkpt>
      <trkpt lat="37.941292729" lon="-122.154955678">
        <ele>305.360000</ele>
        <time>2017-04-30T23:20:41Z</time>
      </trkpt>
      <trkpt lat="37.941318881" lon="-122.154959869">
        <ele>306.320000</ele>
        <time>2017-04-30T23:20:46Z</time>
      </trkpt>
      <trkpt lat="37.941383841" lon="-122.155025164">
        <ele>310.160000</ele>
        <time>2017-04-30T23:20:58Z</time>
      </trkpt>
      <trkpt lat="37.941401778" lon="-122.155029103">
        <ele>314.490000</ele>
        <time>2017-04-30T23:21:08Z</time>
      </trkpt>
      <trkpt lat="37.941421140" lon="-122.155094231">
        <ele>320.260000</ele>
        <time>2017-04-30T23:21:29Z</time>
      </trkpt>
      <trkpt lat="37.941451147" lon="-122.155114096">
        <ele>323.620000</ele>
        <time>2017-04-30T23:21:47Z</time>
      </trkpt>
      <trkpt lat="37.941495068" lon="-122.155138822">
        <ele>328.430000</ele>
        <time>2017-04-30T23:22:05Z</time>
      </trkpt>
      <trkpt lat="37.941515269" lon="-122.155140750">
        <ele>327.950000</ele>
        <time>2017-04-30T23:22:26Z</time>
      </trkpt>
      <trkpt lat="37.941531194" lon="-122.155123483">
        <ele>325.540000</ele>
        <time>2017-04-30T23:22:51Z</time>
      </trkpt>
      <trkpt lat="37.941572936" lon="-122.155133961">
        <ele>327.950000</ele>
        <time>2017-04-30T23:23:06Z</time>
      </trkpt>
      <trkpt lat="37.941621384" lon="-122.155173775">
        <ele>331.790000</ele>
        <time>2017-04-30T23:23:25Z</time>
      </trkpt>
      <trkpt lat="37.941607637" lon="-122.155197915">
        <ele>336.600000</ele>
        <time>2017-04-30T23:23:51Z</time>
      </trkpt>
      <trkpt lat="37.941615013" lon="-122.155163800">
        <ele>341.410000</ele>
        <time>2017-04-30T23:24:15Z</time>
      </trkpt>
      <trkpt lat="37.941574613" lon="-122.155142343">
        <ele>348.620000</ele>
        <time>2017-04-30T23:24:44Z</time>
      </trkpt>
      <trkpt lat="37.941597998" lon="-122.155151479">
        <ele>346.210000</ele>
        <time>2017-04-30T23:25:21Z</time>
      </trkpt>
      <trkpt lat="37.941622725" lon="-122.155145276">
        <ele>348.130000</ele>
        <time>2017-04-30T23:25:57Z</time>
      </trkpt>
      <trkpt lat="37.941653403" lon="-122.155206297">
        <ele>348.130000</ele>
        <time>2017-04-30T23:26:21Z</time>
      </trkpt>
      <trkpt lat="37.941709058" lon="-122.155232113">
        <ele>346.690000</ele>
        <time>2017-04-30T23:26:46Z</time>
      </trkpt>
      <trkpt lat="37.941769995" lon="-122.155225994">
        <ele>347.650000</ele>
        <time>2017-04-30T23:27:07Z</time>
      </trkpt>
      <trkpt lat="37.941804696" lon="-122.155194059">
        <ele>349.100000</ele>
        <time>2017-04-30T23:27:26Z</time>
      </trkpt>
      <trkpt lat="37.941825818" lon="-122.155218199">
        <ele>350.540000</ele>
        <time>2017-04-30T23:27:33Z</time>
      </trkpt>
      <trkpt lat="37.941879882" lon="-122.155275280">
        <ele>353.900000</ele>
        <time>2017-04-30T23:27:43Z</time>
      </trkpt>
      <trkpt lat="37.941877451" lon="-122.155311909">
        <ele>356.790000</ele>
        <time>2017-04-30T23:27:57Z</time>
      </trkpt>
      <trkpt lat="37.941879379" lon="-122.155318279">
        <ele>354.860000</ele>
        <time>2017-04-30T23:28:34Z</time>
      </trkpt>
      <trkpt lat="37.941911062" lon="-122.155349962">
        <ele>355.340000</ele>
        <time>2017-04-30T23:28:48Z</time>
      </trkpt>
      <trkpt lat="37.941981219" lon="-122.155467561">
        <ele>355.830000</ele>
        <time>2017-04-30T23:28:59Z</time>
      </trkpt>
      <trkpt lat="37.941981889" lon="-122.155476697">
        <ele>355.830000</ele>
        <time>2017-04-30T23:29:00Z</time>
      </trkpt>
      <trkpt lat="37.941964120" lon="-122.155553978">
        <ele>356.310000</ele>
        <time>2017-04-30T23:29:14Z</time>
      </trkpt>
      <trkpt lat="37.941999407" lon="-122.155622123">
        <ele>356.790000</ele>
        <time>2017-04-30T23:29:27Z</time>
      </trkpt>
      <trkpt lat="37.942051878" lon="-122.155699404">
        <ele>359.190000</ele>
        <time>2017-04-30T23:29:41Z</time>
      </trkpt>
      <trkpt lat="37.942133518" lon="-122.155733099">
        <ele>360.630000</ele>
        <time>2017-04-30T23:29:55Z</time>
      </trkpt>
      <trkpt lat="37.942174925" lon="-122.155789509">
        <ele>362.070000</ele>
        <time>2017-04-30T23:30:05Z</time>
      </trkpt>
      <trkpt lat="37.942211302" lon="-122.155831754">
        <ele>363.520000</ele>
        <time>2017-04-30T23:30:12Z</time>
      </trkpt>
      <trkpt lat="37.942257905" lon="-122.155927727">
        <ele>364.480000</ele>
        <time>2017-04-30T23:30:20Z</time>
      </trkpt>
      <trkpt lat="37.942308951" lon="-122.156023700">
        <ele>364.000000</ele>
        <time>2017-04-30T23:30:28Z</time>
      </trkpt>
      <trkpt lat="37.942335606" lon="-122.156081367">
        <ele>363.520000</ele>
        <time>2017-04-30T23:30:41Z</time>
      </trkpt>
      <trkpt lat="37.942337031" lon="-122.156086648">
        <ele>363.040000</ele>
        <time>2017-04-30T23:30:44Z</time>
      </trkpt>
      <trkpt lat="37.942397213" lon="-122.156107938">
        <ele>361.110000</ele>
        <time>2017-04-30T23:30:50Z</time>
      </trkpt>
      <trkpt lat="37.942510368" lon="-122.156074326">
        <ele>354.380000</ele>
        <time>2017-04-30T23:31:01Z</time>
      </trkpt>
      <trkpt lat="37.942583794" lon="-122.156024789">
        <ele>349.580000</ele>
        <time>2017-04-30T23:31:08Z</time>
      </trkpt>
      <trkpt lat="37.942639282" lon="-122.156042727">
        <ele>346.210000</ele>
        <time>2017-04-30T23:31:13Z</time>
      </trkpt>
      <trkpt lat="37.942677587" lon="-122.156069549">
        <ele>344.290000</ele>
        <time>2017-04-30T23:31:17Z</time>
      </trkpt>
      <trkpt lat="37.942710361" lon="-122.156109782">
        <ele>341.410000</ele>
        <time>2017-04-30T23:31:23Z</time>
      </trkpt>
      <trkpt lat="37.942815805" lon="-122.156226877">
        <ele>337.560000</ele>
        <time>2017-04-30T23:31:35Z</time>
      </trkpt>
      <trkpt lat="37.942850087" lon="-122.156314887">
        <ele>334.680000</ele>
        <time>2017-04-30T23:31:42Z</time>
      </trkpt>
      <trkpt lat="37.942922171" lon="-122.156437095">
        <ele>330.350000</ele>
        <time>2017-04-30T23:31:55Z</time>
      </trkpt>
      <trkpt lat="37.943017893" lon="-122.156466264">
        <ele>326.990000</ele>
        <time>2017-04-30T23:32:04Z</time>
      </trkpt>
      <trkpt lat="37.943254514" lon="-122.156459559">
        <ele>320.260000</ele>
        <time>2017-04-30T23:32:21Z</time>
      </trkpt>
      <trkpt lat="37.943321569" lon="-122.156518064">
        <ele>318.330000</ele>
        <time>2017-04-30T23:32:28Z</time>
      </trkpt>
      <trkpt lat="37.943460122" lon="-122.156606074">
        <ele>319.780000</ele>
        <time>2017-04-30T23:32:42Z</time>
      </trkpt>
      <trkpt lat="37.943523573" lon="-122.156625772">
        <ele>320.260000</ele>
        <time>2017-04-30T23:32:47Z</time>
      </trkpt>
      <trkpt lat="37.943540085" lon="-122.156652510">
        <ele>320.740000</ele>
        <time>2017-04-30T23:32:49Z</time>
      </trkpt>
      <trkpt lat="37.943620216" lon="-122.156685703">
        <ele>321.700000</ele>
        <time>2017-04-30T23:33:03Z</time>
      </trkpt>
      <trkpt lat="37.943643853" lon="-122.156716380">
        <ele>320.260000</ele>
        <time>2017-04-30T23:33:16Z</time>
      </trkpt>
      <trkpt lat="37.943681236" lon="-122.156731803">
        <ele>320.260000</ele>
        <time>2017-04-30T23:33:19Z</time>
      </trkpt>
      <trkpt lat="37.943816688" lon="-122.156805312">
        <ele>319.300000</ele>
        <time>2017-04-30T23:33:31Z</time>
      </trkpt>
      <trkpt lat="37.943826746" lon="-122.156815035">
        <ele>319.300000</ele>
        <time>2017-04-30T23:33:32Z</time>
      </trkpt>
      <trkpt lat="37.943927832" lon="-122.156976722">
        <ele>314.490000</ele>
        <time>2017-04-30T23:33:48Z</time>
      </trkpt>
      <trkpt lat="37.943970328" lon="-122.156998180">
        <ele>311.120000</ele>
        <time>2017-04-30T23:33:59Z</time>
      </trkpt>
      <trkpt lat="37.944021039" lon="-122.157076383">
        <ele>307.760000</ele>
        <time>2017-04-30T23:34:10Z</time>
      </trkpt>
      <trkpt lat="37.944035204" lon="-122.157194819">
        <ele>304.390000</ele>
        <time>2017-04-30T23:34:22Z</time>
      </trkpt>
      <trkpt lat="37.944036294" lon="-122.157247039">
        <ele>302.950000</ele>
        <time>2017-04-30T23:34:27Z</time>
      </trkpt>
      <trkpt lat="37.944068899" lon="-122.157342592">
        <ele>299.590000</ele>
        <time>2017-04-30T23:34:36Z</time>
      </trkpt>
      <trkpt lat="37.944074348" lon="-122.157391123">
        <ele>297.670000</ele>
        <time>2017-04-30T23:34:41Z</time>
      </trkpt>
      <trkpt lat="37.944105864" lon="-122.157389866">
        <ele>293.820000</ele>
        <time>2017-04-30T23:34:57Z</time>
      </trkpt>
      <trkpt lat="37.944103014" lon="-122.157445187">
        <ele>294.300000</ele>
        <time>2017-04-30T23:35:21Z</time>
      </trkpt>
      <trkpt lat="37.944106702" lon="-122.157470835">
        <ele>293.820000</ele>
        <time>2017-04-30T23:35:24Z</time>
      </trkpt>
      <trkpt lat="37.944116006" lon="-122.157597234">
        <ele>289.490000</ele>
        <time>2017-04-30T23:35:38Z</time>
      </trkpt>
      <trkpt lat="37.944112821" lon="-122.157610897">
        <ele>289.010000</ele>
        <time>2017-04-30T23:35:40Z</time>
      </trkpt>
      <trkpt lat="37.944069738" lon="-122.157695051">
        <ele>286.610000</ele>
        <time>2017-04-30T23:35:47Z</time>
      </trkpt>
      <trkpt lat="37.944103600" lon="-122.157765711">
        <ele>285.170000</ele>
        <time>2017-04-30T23:35:53Z</time>
      </trkpt>
      <trkpt lat="37.944239471" lon="-122.157802591">
        <ele>282.770000</ele>
        <time>2017-04-30T23:36:03Z</time>
      </trkpt>
      <trkpt lat="37.944267970" lon="-122.157873251">
        <ele>281.320000</ele>
        <time>2017-04-30T23:36:08Z</time>
      </trkpt>
      <trkpt lat="37.944279704" lon="-122.158076093">
        <ele>277.000000</ele>
        <time>2017-04-30T23:36:21Z</time>
      </trkpt>
      <trkpt lat="37.944299988" lon="-122.158165695">
        <ele>276.520000</ele>
        <time>2017-04-30T23:36:25Z</time>
      </trkpt>
      <trkpt lat="37.944325469" lon="-122.158347750">
        <ele>273.630000</ele>
        <time>2017-04-30T23:36:37Z</time>
      </trkpt>
      <trkpt lat="37.944330750" lon="-122.158435928">
        <ele>273.630000</ele>
        <time>2017-04-30T23:36:42Z</time>
      </trkpt>
      <trkpt lat="37.944372576" lon="-122.158517651">
        <ele>273.150000</ele>
        <time>2017-04-30T23:36:48Z</time>
      </trkpt>
      <trkpt lat="37.944438122" lon="-122.158589149">
        <ele>273.630000</ele>
        <time>2017-04-30T23:36:55Z</time>
      </trkpt>
      <trkpt lat="37.944504675" lon="-122.158578588">
        <ele>272.190000</ele>
        <time>2017-04-30T23:37:10Z</time>
      </trkpt>
      <trkpt lat="37.944514230" lon="-122.158580599">
        <ele>272.190000</ele>
        <time>2017-04-30T23:37:16Z</time>
      </trkpt>
      <trkpt lat="37.944623614" lon="-122.158599794">
        <ele>272.190000</ele>
        <time>2017-04-30T23:37:27Z</time>
      </trkpt>
      <trkpt lat="37.944644568" lon="-122.158606164">
        <ele>272.670000</ele>
        <time>2017-04-30T23:37:29Z</time>
      </trkpt>
      <trkpt lat="37.944683041" lon="-122.158667017">
        <ele>272.670000</ele>
        <time>2017-04-30T23:37:34Z</time>
      </trkpt>
      <trkpt lat="37.944738613" lon="-122.158931885">
        <ele>273.150000</ele>
        <time>2017-04-30T23:37:50Z</time>
      </trkpt>
      <trkpt lat="37.944756467" lon="-122.159091812">
        <ele>272.190000</ele>
        <time>2017-04-30T23:37:59Z</time>
      </trkpt>
      <trkpt lat="37.944750851" lon="-122.159165824">
        <ele>271.710000</ele>
        <time>2017-04-30T23:38:04Z</time>
      </trkpt>
      <trkpt lat="37.944736183" lon="-122.159280321">
        <ele>272.190000</ele>
        <time>2017-04-30T23:38:11Z</time>
      </trkpt>
      <trkpt lat="37.944713300" lon="-122.159382161">
        <ele>271.230000</ele>
        <time>2017-04-30T23:38:18Z</time>
      </trkpt>
      <trkpt lat="37.944624117" lon="-122.159615932">
        <ele>268.350000</ele>
        <time>2017-04-30T23:38:34Z</time>
      </trkpt>
      <trkpt lat="37.944581788" lon="-122.159723639">
        <ele>267.380000</ele>
        <time>2017-04-30T23:38:41Z</time>
      </trkpt>
      <trkpt lat="37.944530826" lon="-122.159868730">
        <ele>266.900000</ele>
        <time>2017-04-30T23:38:51Z</time>
      </trkpt>
      <trkpt lat="37.944511212" lon="-122.159951041">
        <ele>267.380000</ele>
        <time>2017-04-30T23:38:56Z</time>
      </trkpt>
      <trkpt lat="37.944481708" lon="-122.160013486">
        <ele>264.020000</ele>
        <time>2017-04-30T23:39:08Z</time>
      </trkpt>
      <trkpt lat="37.944481876" lon="-122.160023460">
        <ele>264.020000</ele>
        <time>2017-04-30T23:39:10Z</time>
      </trkpt>
      <trkpt lat="37.944505513" lon="-122.160143405">
        <ele>266.900000</ele>
        <time>2017-04-30T23:39:21Z</time>
      </trkpt>
      <trkpt lat="37.944588410" lon="-122.160348510">
        <ele>269.790000</ele>
        <time>2017-04-30T23:39:36Z</time>
      </trkpt>
      <trkpt lat="37.944674995" lon="-122.160601309">
        <ele>270.270000</ele>
        <time>2017-04-30T23:39:53Z</time>
      </trkpt>
      <trkpt lat="37.944696033" lon="-122.160672387">
        <ele>268.350000</ele>
        <time>2017-04-30T23:40:07Z</time>
      </trkpt>
      <trkpt lat="37.944670301" lon="-122.160709687">
        <ele>270.270000</ele>
        <time>2017-04-30T23:40:14Z</time>
      </trkpt>
      <trkpt lat="37.944622440" lon="-122.160765175">
        <ele>273.150000</ele>
        <time>2017-04-30T23:40:26Z</time>
      </trkpt>
      <trkpt lat="37.944639120" lon="-122.160811024">
        <ele>276.040000</ele>
        <time>2017-04-30T23:40:35Z</time>
      </trkpt>
      <trkpt lat="37.944635181" lon="-122.160892580">
        <ele>278.920000</ele>
        <time>2017-04-30T23:40:45Z</time>
      </trkpt>
      <trkpt lat="37.944633756" lon="-122.160956198">
        <ele>281.800000</ele>
        <time>2017-04-30T23:40:52Z</time>
      </trkpt>
      <trkpt lat="37.944631744" lon="-122.161009926">
        <ele>284.690000</ele>
        <time>2017-04-30T23:40:59Z</time>
      </trkpt>
      <trkpt lat="37.944639204" lon="-122.161020320">
        <ele>285.650000</ele>
        <time>2017-04-30T23:41:12Z</time>
      </trkpt>
      <trkpt lat="37.944649598" lon="-122.161042280">
        <ele>283.730000</ele>
        <time>2017-04-30T23:41:35Z</time>
      </trkpt>
      <trkpt lat="37.944679605" lon="-122.161114449">
        <ele>286.610000</ele>
        <time>2017-04-30T23:41:45Z</time>
      </trkpt>
      <trkpt lat="37.944682790" lon="-122.161134398">
        <ele>287.090000</ele>
        <time>2017-04-30T23:41:48Z</time>
      </trkpt>
      <trkpt lat="37.944703661" lon="-122.161195837">
        <ele>290.460000</ele>
        <time>2017-04-30T23:41:57Z</time>
      </trkpt>
      <trkpt lat="37.944717240" lon="-122.161303125">
        <ele>294.300000</ele>
        <time>2017-04-30T23:42:08Z</time>
      </trkpt>
      <trkpt lat="37.944739284" lon="-122.161442852">
        <ele>296.700000</ele>
        <time>2017-04-30T23:42:20Z</time>
      </trkpt>
      <trkpt lat="37.944765938" lon="-122.161530359">
        <ele>298.150000</ele>
        <time>2017-04-30T23:42:33Z</time>
      </trkpt>
      <trkpt lat="37.944768369" lon="-122.161552152">
        <ele>297.670000</ele>
        <time>2017-04-30T23:42:35Z</time>
      </trkpt>
      <trkpt lat="37.944788821" lon="-122.161570592">
        <ele>297.670000</ele>
        <time>2017-04-30T23:42:50Z</time>
      </trkpt>
      <trkpt lat="37.944796113" lon="-122.161565227">
        <ele>298.150000</ele>
        <time>2017-04-30T23:43:04Z</time>
      </trkpt>
      <trkpt lat="37.944829473" lon="-122.161507979">
        <ele>299.110000</ele>
        <time>2017-04-30T23:43:35Z</time>
      </trkpt>
      <trkpt lat="37.944843052" lon="-122.161500854">
        <ele>299.590000</ele>
        <time>2017-04-30T23:43:38Z</time>
      </trkpt>
      <trkpt lat="37.944939109" lon="-122.161424663">
        <ele>302.470000</ele>
        <time>2017-04-30T23:43:53Z</time>
      </trkpt>
      <trkpt lat="37.945011109" lon="-122.161367163">
        <ele>303.430000</ele>
        <time>2017-04-30T23:44:01Z</time>
      </trkpt>
      <trkpt lat="37.945062909" lon="-122.161346795">
        <ele>300.550000</ele>
        <time>2017-04-30T23:44:08Z</time>
      </trkpt>
      <trkpt lat="37.945092665" lon="-122.161346208">
        <ele>299.110000</ele>
        <time>2017-04-30T23:44:11Z</time>
      </trkpt>
      <trkpt lat="37.945179418" lon="-122.161288876">
        <ele>295.260000</ele>
        <time>2017-04-30T23:44:21Z</time>
      </trkpt>
      <trkpt lat="37.945264494" lon="-122.161265155">
        <ele>293.340000</ele>
        <time>2017-04-30T23:44:28Z</time>
      </trkpt>
      <trkpt lat="37.945335656" lon="-122.161193406">
        <ele>292.380000</ele>
        <time>2017-04-30T23:44:36Z</time>
      </trkpt>
      <trkpt lat="37.945387121" lon="-122.161174798">
        <ele>289.970000</ele>
        <time>2017-04-30T23:44:41Z</time>
      </trkpt>
      <trkpt lat="37.945433641" lon="-122.161120316">
        <ele>288.050000</ele>
        <time>2017-04-30T23:44:50Z</time>
      </trkpt>
      <trkpt lat="37.945463229" lon="-122.161093326">
        <ele>287.090000</ele>
        <time>2017-04-30T23:45:03Z</time>
      </trkpt>
      <trkpt lat="37.945501115" lon="-122.161066085">
        <ele>286.610000</ele>
        <time>2017-04-30T23:45:07Z</time>
      </trkpt>
      <trkpt lat="37.945538918" lon="-122.161059547">
        <ele>285.650000</ele>
        <time>2017-04-30T23:45:12Z</time>
      </trkpt>
      <trkpt lat="37.945600441" lon="-122.161026942">
        <ele>282.280000</ele>
        <time>2017-04-30T23:45:23Z</time>
      </trkpt>
      <trkpt lat="37.945677722" lon="-122.160929125">
        <ele>278.440000</ele>
        <time>2017-04-30T23:45:35Z</time>
      </trkpt>
      <trkpt lat="37.945674285" lon="-122.160905153">
        <ele>278.920000</ele>
        <time>2017-04-30T23:45:40Z</time>
      </trkpt>
      <trkpt lat="37.945721811" lon="-122.160872295">
        <ele>278.440000</ele>
        <time>2017-04-30T23:45:50Z</time>
      </trkpt>
      <trkpt lat="37.945737652" lon="-122.160848575">
        <ele>277.000000</ele>
        <time>2017-04-30T23:45:53Z</time>
      </trkpt>
      <trkpt lat="37.945782579" lon="-122.160813035">
        <ele>275.560000</ele>
        <time>2017-04-30T23:45:58Z</time>
      </trkpt>
      <trkpt lat="37.945809988" lon="-122.160723936">
        <ele>274.110000</ele>
        <time>2017-04-30T23:46:02Z</time>
      </trkpt>
      <trkpt lat="37.945855837" lon="-122.160664089">
        <ele>274.110000</ele>
        <time>2017-04-30T23:46:11Z</time>
      </trkpt>
      <trkpt lat="37.945920797" lon="-122.160637015">
        <ele>274.590000</ele>
        <time>2017-04-30T23:46:17Z</time>
      </trkpt>
      <trkpt lat="37.945951726" lon="-122.160612289">
        <ele>274.110000</ele>
        <time>2017-04-30T23:46:33Z</time>
      </trkpt>
      <trkpt lat="37.945923479" lon="-122.160615139">
        <ele>276.040000</ele>
        <time>2017-04-30T23:47:20Z</time>
      </trkpt>
      <trkpt lat="37.945957594" lon="-122.160601644">
        <ele>275.560000</ele>
        <time>2017-04-30T23:47:55Z</time>
      </trkpt>
      <trkpt lat="37.945997827" lon="-122.160575492">
        <ele>275.560000</ele>
        <time>2017-04-30T23:48:00Z</time>
      </trkpt>
      <trkpt lat="37.946061781" lon="-122.160533667">
        <ele>276.520000</ele>
        <time>2017-04-30T23:48:07Z</time>
      </trkpt>
      <trkpt lat="37.946080472" lon="-122.160526793">
        <ele>276.520000</ele>
        <time>2017-04-30T23:48:09Z</time>
      </trkpt>
      <trkpt lat="37.946166219" lon="-122.160434006">
        <ele>277.960000</ele>
        <time>2017-04-30T23:48:22Z</time>
      </trkpt>
      <trkpt lat="37.946237214" lon="-122.160378518">
        <ele>282.280000</ele>
        <time>2017-04-30T23:48:35Z</time>
      </trkpt>
      <trkpt lat="37.946296809" lon="-122.160309199">
        <ele>287.090000</ele>
        <time>2017-04-30T23:48:48Z</time>
      </trkpt>
      <trkpt lat="37.946309466" lon="-122.160295034">
        <ele>288.050000</ele>
        <time>2017-04-30T23:48:51Z</time>
      </trkpt>
      <trkpt lat="37.946356656" lon="-122.160221608">
        <ele>291.900000</ele>
        <time>2017-04-30T23:49:03Z</time>
      </trkpt>
      <trkpt lat="37.946360847" lon="-122.160213729">
        <ele>293.340000</ele>
        <time>2017-04-30T23:49:22Z</time>
      </trkpt>
      <trkpt lat="37.946415413" lon="-122.160165114">
        <ele>295.740000</ele>
        <time>2017-04-30T23:49:41Z</time>
      </trkpt>
      <trkpt lat="37.946462939" lon="-122.160109123">
        <ele>300.070000</ele>
        <time>2017-04-30T23:49:53Z</time>
      </trkpt>
      <trkpt lat="37.946509290" lon="-122.160098311">
        <ele>303.430000</ele>
        <time>2017-04-30T23:50:02Z</time>
      </trkpt>
      <trkpt lat="37.946541896" lon="-122.160104346">
        <ele>304.390000</ele>
        <time>2017-04-30T23:50:07Z</time>
      </trkpt>
      <trkpt lat="37.946582884" lon="-122.160098897">
        <ele>304.390000</ele>
        <time>2017-04-30T23:50:11Z</time>
      </trkpt>
      <trkpt lat="37.946669552" lon="-122.160049360">
        <ele>305.360000</ele>
        <time>2017-04-30T23:50:27Z</time>
      </trkpt>
      <trkpt lat="37.946727052" lon="-122.159995213">
        <ele>304.390000</ele>
        <time>2017-04-30T23:50:32Z</time>
      </trkpt>
      <trkpt lat="37.946765944" lon="-122.159973923">
        <ele>302.950000</ele>
        <time>2017-04-30T23:50:37Z</time>
      </trkpt>
      <trkpt lat="37.946873149" lon="-122.159871832">
        <ele>301.990000</ele>
        <time>2017-04-30T23:50:48Z</time>
      </trkpt>
      <trkpt lat="37.946973145" lon="-122.159805447">
        <ele>300.550000</ele>
        <time>2017-04-30T23:50:58Z</time>
      </trkpt>
      <trkpt lat="37.947098957" lon="-122.159758760">
        <ele>300.070000</ele>
        <time>2017-04-30T23:51:11Z</time>
      </trkpt>
      <trkpt lat="37.947187638" lon="-122.159737973">
        <ele>301.990000</ele>
        <time>2017-04-30T23:51:22Z</time>
      </trkpt>
      <trkpt lat="37.947212281" lon="-122.159735961">
        <ele>302.950000</ele>
        <time>2017-04-30T23:51:26Z</time>
      </trkpt>
      <trkpt lat="37.947300207" lon="-122.159702685">
        <ele>305.840000</ele>
        <time>2017-04-30T23:51:39Z</time>
      </trkpt>
      <trkpt lat="37.947372794" lon="-122.159660440">
        <ele>309.200000</ele>
        <time>2017-04-30T23:51:50Z</time>
      </trkpt>
      <trkpt lat="37.947382936" lon="-122.159669157">
        <ele>310.640000</ele>
        <time>2017-04-30T23:52:00Z</time>
      </trkpt>
      <trkpt lat="37.947381930" lon="-122.159664547">
        <ele>309.680000</ele>
        <time>2017-04-30T23:52:17Z</time>
      </trkpt>
      <trkpt lat="37.947401293" lon="-122.159654070">
        <ele>310.640000</ele>
        <time>2017-04-30T23:52:35Z</time>
      </trkpt>
      <trkpt lat="37.947498523" lon="-122.159588942">
        <ele>313.050000</ele>
        <time>2017-04-30T23:52:48Z</time>
      </trkpt>
      <trkpt lat="37.947548563" lon="-122.159536975">
        <ele>315.930000</ele>
        <time>2017-04-30T23:52:56Z</time>
      </trkpt>
      <trkpt lat="37.947618719" lon="-122.159431698">
        <ele>319.780000</ele>
        <time>2017-04-30T23:53:10Z</time>
      </trkpt>
      <trkpt lat="37.947633723" lon="-122.159411749">
        <ele>321.220000</ele>
        <time>2017-04-30T23:53:23Z</time>
      </trkpt>
      <trkpt lat="37.947628945" lon="-122.159406971">
        <ele>321.700000</ele>
        <time>2017-04-30T23:53:30Z</time>
      </trkpt>
      <trkpt lat="37.947694995" lon="-122.159324661">
        <ele>323.140000</ele>
        <time>2017-04-30T23:53:43Z</time>
      </trkpt>
      <trkpt lat="37.947736820" lon="-122.159283003">
        <ele>326.020000</ele>
        <time>2017-04-30T23:53:57Z</time>
      </trkpt>
      <trkpt lat="37.947744783" lon="-122.159266826">
        <ele>324.580000</ele>
        <time>2017-04-30T23:54:10Z</time>
      </trkpt>
      <trkpt lat="37.947850060" lon="-122.159115532">
        <ele>326.500000</ele>
        <time>2017-04-30T23:54:25Z</time>
      </trkpt>
      <trkpt lat="37.947939327" lon="-122.158988211">
        <ele>327.470000</ele>
        <time>2017-04-30T23:54:38Z</time>
      </trkpt>
      <trkpt lat="37.948076958" lon="-122.158871200">
        <ele>326.500000</ele>
        <time>2017-04-30T23:54:53Z</time>
      </trkpt>
      <trkpt lat="37.948208135" lon="-122.158805234">
        <ele>327.470000</ele>
        <time>2017-04-30T23:55:07Z</time>
      </trkpt>
      <trkpt lat="37.948320871" lon="-122.158765588">
        <ele>328.430000</ele>
        <time>2017-04-30T23:55:20Z</time>
      </trkpt>
      <trkpt lat="37.948338641" lon="-122.158771036">
        <ele>328.430000</ele>
        <time>2017-04-30T23:55:22Z</time>
      </trkpt>
      <trkpt lat="37.948368313" lon="-122.158781094">
        <ele>328.910000</ele>
        <time>2017-04-30T23:55:26Z</time>
      </trkpt>
      <trkpt lat="37.948451797" lon="-122.158777071">
        <ele>331.790000</ele>
        <time>2017-04-30T23:55:40Z</time>
      </trkpt>
      <trkpt lat="37.948458754" lon="-122.158759469">
        <ele>334.200000</ele>
        <time>2017-04-30T23:55:52Z</time>
      </trkpt>
      <trkpt lat="37.948507536" lon="-122.158627203">
        <ele>337.080000</ele>
        <time>2017-04-30T23:56:06Z</time>
      </trkpt>
      <trkpt lat="37.948525222" lon="-122.158559309">
        <ele>339.000000</ele>
        <time>2017-04-30T23:56:19Z</time>
      </trkpt>
      <trkpt lat="37.948601162" lon="-122.158496864">
        <ele>340.440000</ele>
        <time>2017-04-30T23:56:30Z</time>
      </trkpt>
      <trkpt lat="37.948679114" lon="-122.158408687">
        <ele>343.330000</ele>
        <time>2017-04-30T23:56:45Z</time>
      </trkpt>
      <trkpt lat="37.948697386" lon="-122.158376751">
        <ele>343.330000</ele>
        <time>2017-04-30T23:56:48Z</time>
      </trkpt>
      <trkpt lat="37.948840214" lon="-122.158265356">
        <ele>342.370000</ele>
        <time>2017-04-30T23:57:03Z</time>
      </trkpt>
      <trkpt lat="37.948938282" lon="-122.158220010">
        <ele>340.920000</ele>
        <time>2017-04-30T23:57:13Z</time>
      </trkpt>
      <trkpt lat="37.948983461" lon="-122.158200564">
        <ele>340.920000</ele>
        <time>2017-04-30T23:57:19Z</time>
      </trkpt>
      <trkpt lat="37.949023610" lon="-122.158207269">
        <ele>340.440000</ele>
        <time>2017-04-30T23:57:35Z</time>
      </trkpt>
      <trkpt lat="37.949034506" lon="-122.158206599">
        <ele>340.440000</ele>
        <time>2017-04-30T23:57:38Z</time>
      </trkpt>
      <trkpt lat="37.949144058" lon="-122.158156391">
        <ele>337.560000</ele>
        <time>2017-04-30T23:57:50Z</time>
      </trkpt>
      <trkpt lat="37.949189823" lon="-122.158124205">
        <ele>337.080000</ele>
        <time>2017-04-30T23:57:54Z</time>
      </trkpt>
      <trkpt lat="37.949303985" lon="-122.158138957">
        <ele>332.750000</ele>
        <time>2017-04-30T23:58:06Z</time>
      </trkpt>
      <trkpt lat="37.949388139" lon="-122.158135436">
        <ele>334.200000</ele>
        <time>2017-04-30T23:58:16Z</time>
      </trkpt>
      <trkpt lat="37.949393420" lon="-122.158126803">
        <ele>334.200000</ele>
        <time>2017-04-30T23:58:18Z</time>
      </trkpt>
      <trkpt lat="37.949406579" lon="-122.158105262">
        <ele>334.200000</ele>
        <time>2017-04-30T23:58:21Z</time>
      </trkpt>
      <trkpt lat="37.949423259" lon="-122.158092856">
        <ele>334.680000</ele>
        <time>2017-04-30T23:58:23Z</time>
      </trkpt>
      <trkpt lat="37.949441532" lon="-122.158059664">
        <ele>334.680000</ele>
        <time>2017-04-30T23:58:26Z</time>
      </trkpt>
      <trkpt lat="37.949460978" lon="-122.157975174">
        <ele>336.600000</ele>
        <time>2017-04-30T23:58:37Z</time>
      </trkpt>
      <trkpt lat="37.949496936" lon="-122.157961261">
        <ele>336.600000</ele>
        <time>2017-04-30T23:58:50Z</time>
      </trkpt>
      <trkpt lat="37.949505737" lon="-122.157955728">
        <ele>338.040000</ele>
        <time>2017-04-30T23:59:09Z</time>
      </trkpt>
      <trkpt lat="37.949539265" lon="-122.157942234">
        <ele>339.480000</ele>
        <time>2017-04-30T23:59:22Z</time>
      </trkpt>
      <trkpt lat="37.949576396" lon="-122.157924380">
        <ele>342.370000</ele>
        <time>2017-04-30T23:59:31Z</time>
      </trkpt>
      <trkpt lat="37.949587796" lon="-122.157931589">
        <ele>342.850000</ele>
        <time>2017-04-30T23:59:35Z</time>
      </trkpt>
      <trkpt lat="37.949657952" lon="-122.157898815">
        <ele>346.210000</ele>
        <time>2017-04-30T23:59:49Z</time>
      </trkpt>
      <trkpt lat="37.949651498" lon="-122.157889847">
        <ele>346.210000</ele>
        <time>2017-04-30T23:59:51Z</time>
      </trkpt>
      <trkpt lat="37.949653594" lon="-122.157852296">
        <ele>348.130000</ele>
        <time>2017-05-01T00:00:03Z</time>
      </trkpt>
      <trkpt lat="37.949653761" lon="-122.157841483">
        <ele>348.130000</ele>
        <time>2017-05-01T00:00:04Z</time>
      </trkpt>
      <trkpt lat="37.949652169" lon="-122.157765208">
        <ele>348.130000</ele>
        <time>2017-05-01T00:00:11Z</time>
      </trkpt>
      <trkpt lat="37.949669771" lon="-122.157725897">
        <ele>348.620000</ele>
        <time>2017-05-01T00:00:15Z</time>
      </trkpt>
      <trkpt lat="37.949704640" lon="-122.157585751">
        <ele>352.460000</ele>
        <time>2017-05-01T00:00:29Z</time>
      </trkpt>
      <trkpt lat="37.949702544" lon="-122.157562617">
        <ele>353.420000</ele>
        <time>2017-05-01T00:00:45Z</time>
      </trkpt>
      <trkpt lat="37.949707154" lon="-122.157554487">
        <ele>353.900000</ele>
        <time>2017-05-01T00:00:47Z</time>
      </trkpt>
      <trkpt lat="37.949733138" lon="-122.157429932">
        <ele>356.310000</ele>
        <time>2017-05-01T00:01:03Z</time>
      </trkpt>
      <trkpt lat="37.949767085" lon="-122.157538729">
        <ele>355.340000</ele>
        <time>2017-05-01T00:01:15Z</time>
      </trkpt>
      <trkpt lat="37.949773287" lon="-122.157533113">
        <ele>353.420000</ele>
        <time>2017-05-01T00:01:28Z</time>
      </trkpt>
      <trkpt lat="37.949784184" lon="-122.157532023">
        <ele>354.380000</ele>
        <time>2017-05-01T00:01:39Z</time>
      </trkpt>
      <trkpt lat="37.949808156" lon="-122.157519870">
        <ele>354.380000</ele>
        <time>2017-05-01T00:01:42Z</time>
      </trkpt>
      <trkpt lat="37.949809497" lon="-122.157439319">
        <ele>355.340000</ele>
        <time>2017-05-01T00:01:53Z</time>
      </trkpt>
      <trkpt lat="37.949814107" lon="-122.157428507">
        <ele>355.340000</ele>
        <time>2017-05-01T00:01:54Z</time>
      </trkpt>
      <trkpt lat="37.949813018" lon="-122.157364720">
        <ele>356.310000</ele>
        <time>2017-05-01T00:02:00Z</time>
      </trkpt>
      <trkpt lat="37.949811760" lon="-122.157283332">
        <ele>357.270000</ele>
        <time>2017-05-01T00:02:07Z</time>
      </trkpt>
      <trkpt lat="37.949845372" lon="-122.157224575">
        <ele>357.750000</ele>
        <time>2017-05-01T00:02:12Z</time>
      </trkpt>
      <trkpt lat="37.949844282" lon="-122.157200100">
        <ele>358.230000</ele>
        <time>2017-05-01T00:02:30Z</time>
      </trkpt>
      <trkpt lat="37.949852664" lon="-122.157186856">
        <ele>358.230000</ele>
        <time>2017-05-01T00:02:34Z</time>
      </trkpt>
      <trkpt lat="37.949911421" lon="-122.157085603">
        <ele>359.670000</ele>
        <time>2017-05-01T00:02:47Z</time>
      </trkpt>
      <trkpt lat="37.949989792" lon="-122.156987200">
        <ele>360.150000</ele>
        <time>2017-05-01T00:03:00Z</time>
      </trkpt>
      <trkpt lat="37.950099595" lon="-122.156830877">
        <ele>361.590000</ele>
        <time>2017-05-01T00:03:15Z</time>
      </trkpt>
      <trkpt lat="37.950153239" lon="-122.156757452">
        <ele>363.040000</ele>
        <time>2017-05-01T00:03:22Z</time>
      </trkpt>
      <trkpt lat="37.950170757" lon="-122.156741107">
        <ele>363.520000</ele>
        <time>2017-05-01T00:03:24Z</time>
      </trkpt>
      <trkpt lat="37.950276537" lon="-122.156560477">
        <ele>364.960000</ele>
        <time>2017-05-01T00:03:40Z</time>
      </trkpt>
      <trkpt lat="37.950282823" lon="-122.156548407">
        <ele>364.960000</ele>
        <time>2017-05-01T00:03:41Z</time>
      </trkpt>
      <trkpt lat="37.950303191" lon="-122.156458721">
        <ele>365.920000</ele>
        <time>2017-05-01T00:03:53Z</time>
      </trkpt>
      <trkpt lat="37.950343508" lon="-122.156416476">
        <ele>364.960000</ele>
        <time>2017-05-01T00:04:04Z</time>
      </trkpt>
      <trkpt lat="37.950372426" lon="-122.156330310">
        <ele>364.000000</ele>
        <time>2017-05-01T00:04:19Z</time>
      </trkpt>
      <trkpt lat="37.950374605" lon="-122.156347744">
        <ele>364.000000</ele>
        <time>2017-05-01T00:04:38Z</time>
      </trkpt>
      <trkpt lat="37.950392291" lon="-122.156290244">
        <ele>361.590000</ele>
        <time>2017-05-01T00:05:10Z</time>
      </trkpt>
      <trkpt lat="37.950403690" lon="-122.156282784">
        <ele>361.590000</ele>
        <time>2017-05-01T00:05:36Z</time>
      </trkpt>
      <trkpt lat="37.950426405" lon="-122.156228470">
        <ele>359.670000</ele>
        <time>2017-05-01T00:05:56Z</time>
      </trkpt>
      <trkpt lat="37.950425902" lon="-122.156192930">
        <ele>356.310000</ele>
        <time>2017-05-01T00:06:09Z</time>
      </trkpt>
      <trkpt lat="37.950416598" lon="-122.156188488">
        <ele>354.860000</ele>
        <time>2017-05-01T00:06:39Z</time>
      </trkpt>
      <trkpt lat="37.950467141" lon="-122.156126797">
        <ele>350.540000</ele>
        <time>2017-05-01T00:06:56Z</time>
      </trkpt>
      <trkpt lat="37.950509554" lon="-122.156116655">
        <ele>348.620000</ele>
        <time>2017-05-01T00:07:07Z</time>
      </trkpt>
      <trkpt lat="37.950539980" lon="-122.156153284">
        <ele>348.620000</ele>
        <time>2017-05-01T00:07:16Z</time>
      </trkpt>
      <trkpt lat="37.950609047" lon="-122.156180693">
        <ele>344.290000</ele>
        <time>2017-05-01T00:07:30Z</time>
      </trkpt>
      <trkpt lat="37.950632349" lon="-122.156165689">
        <ele>343.330000</ele>
        <time>2017-05-01T00:07:36Z</time>
      </trkpt>
      <trkpt lat="37.950676689" lon="-122.156137610">
        <ele>340.440000</ele>
        <time>2017-05-01T00:07:48Z</time>
      </trkpt>
      <trkpt lat="37.950690519" lon="-122.156086564">
        <ele>341.890000</ele>
        <time>2017-05-01T00:07:58Z</time>
      </trkpt>
      <trkpt lat="37.950694626" lon="-122.156058066">
        <ele>342.850000</ele>
        <time>2017-05-01T00:08:00Z</time>
      </trkpt>
      <trkpt lat="37.950735362" lon="-122.156003835">
        <ele>344.290000</ele>
        <time>2017-05-01T00:08:18Z</time>
      </trkpt>
      <trkpt lat="37.950775092" lon="-122.155897971">
        <ele>341.410000</ele>
        <time>2017-05-01T00:08:33Z</time>
      </trkpt>
      <trkpt lat="37.950831419" lon="-122.155834939">
        <ele>338.040000</ele>
        <time>2017-05-01T00:08:46Z</time>
      </trkpt>
      <trkpt lat="37.950872490" lon="-122.155814068">
        <ele>335.160000</ele>
        <time>2017-05-01T00:09:00Z</time>
      </trkpt>
      <trkpt lat="37.950868467" lon="-122.155781295">
        <ele>332.270000</ele>
        <time>2017-05-01T00:09:12Z</time>
      </trkpt>
      <trkpt lat="37.950872574" lon="-122.155746259">
        <ele>328.910000</ele>
        <time>2017-05-01T00:09:25Z</time>
      </trkpt>
      <trkpt lat="37.950863941" lon="-122.155698063">
        <ele>326.990000</ele>
        <time>2017-05-01T00:09:37Z</time>
      </trkpt>
      <trkpt lat="37.950830497" lon="-122.155638132">
        <ele>326.500000</ele>
        <time>2017-05-01T00:09:50Z</time>
      </trkpt>
      <trkpt lat="37.950812476" lon="-122.155606952">
        <ele>326.990000</ele>
        <time>2017-05-01T00:10:10Z</time>
      </trkpt>
      <trkpt lat="37.950849356" lon="-122.155535035">
        <ele>325.060000</ele>
        <time>2017-05-01T00:10:24Z</time>
      </trkpt>
      <trkpt lat="37.950800993" lon="-122.155512236">
        <ele>322.660000</ele>
        <time>2017-05-01T00:10:35Z</time>
      </trkpt>
      <trkpt lat="37.950813230" lon="-122.155470243">
        <ele>319.780000</ele>
        <time>2017-05-01T00:10:47Z</time>
      </trkpt>
      <trkpt lat="37.950782720" lon="-122.155410564">
        <ele>314.010000</ele>
        <time>2017-05-01T00:10:59Z</time>
      </trkpt>
      <trkpt lat="37.950771740" lon="-122.155364463">
        <ele>309.200000</ele>
        <time>2017-05-01T00:11:16Z</time>
      </trkpt>
      <trkpt lat="37.950720442" lon="-122.155292127">
        <ele>305.360000</ele>
        <time>2017-05-01T00:11:39Z</time>
      </trkpt>
      <trkpt lat="37.950724298" lon="-122.155376533">
        <ele>310.640000</ele>
        <time>2017-05-01T00:11:56Z</time>
      </trkpt>
      <trkpt lat="37.950715497" lon="-122.155381395">
        <ele>317.850000</ele>
        <time>2017-05-01T00:12:19Z</time>
      </trkpt>
      <trkpt lat="37.950716419" lon="-122.155356416">
        <ele>318.810000</ele>
        <time>2017-05-01T00:12:33Z</time>
      </trkpt>
      <trkpt lat="37.950725639" lon="-122.155305622">
        <ele>323.620000</ele>
        <time>2017-05-01T00:12:55Z</time>
      </trkpt>
      <trkpt lat="37.950797305" lon="-122.155223479">
        <ele>320.740000</ele>
        <time>2017-05-01T00:13:08Z</time>
      </trkpt>
      <trkpt lat="37.950814487" lon="-122.155121388">
        <ele>319.300000</ele>
        <time>2017-05-01T00:13:25Z</time>
      </trkpt>
      <trkpt lat="37.950757071" lon="-122.155087357">
        <ele>317.370000</ele>
        <time>2017-05-01T00:13:41Z</time>
      </trkpt>
      <trkpt lat="37.950794538" lon="-122.154978896">
        <ele>318.330000</ele>
        <time>2017-05-01T00:13:54Z</time>
      </trkpt>
      <trkpt lat="37.950742822" lon="-122.154886946">
        <ele>318.330000</ele>
        <time>2017-05-01T00:14:07Z</time>
      </trkpt>
      <trkpt lat="37.950753216" lon="-122.154825591">
        <ele>320.260000</ele>
        <time>2017-05-01T00:14:19Z</time>
      </trkpt>
      <trkpt lat="37.950761681" lon="-122.154799607">
        <ele>319.300000</ele>
        <time>2017-05-01T00:14:26Z</time>
      </trkpt>
      <trkpt lat="37.950721029" lon="-122.154605733">
        <ele>309.680000</ele>
        <time>2017-05-01T00:14:39Z</time>
      </trkpt>
      <trkpt lat="37.950701416" lon="-122.154505569">
        <ele>303.430000</ele>
        <time>2017-05-01T00:14:50Z</time>
      </trkpt>
      <trkpt lat="37.950686663" lon="-122.154443795">
        <ele>303.430000</ele>
        <time>2017-05-01T00:14:54Z</time>
      </trkpt>
      <trkpt lat="37.950641233" lon="-122.154339021">
        <ele>301.510000</ele>
        <time>2017-05-01T00:15:10Z</time>
      </trkpt>
      <trkpt lat="37.950598821" lon="-122.154202396">
        <ele>300.550000</ele>
        <time>2017-05-01T00:15:20Z</time>
      </trkpt>
      <trkpt lat="37.950478457" lon="-122.154105082">
        <ele>296.220000</ele>
        <time>2017-05-01T00:15:35Z</time>
      </trkpt>
      <trkpt lat="37.950388771" lon="-122.154030399">
        <ele>293.820000</ele>
        <time>2017-05-01T00:15:45Z</time>
      </trkpt>
      <trkpt lat="37.950407630" lon="-122.153960494">
        <ele>294.300000</ele>
        <time>2017-05-01T00:15:57Z</time>
      </trkpt>
      <trkpt lat="37.950454820" lon="-122.153955214">
        <ele>291.900000</ele>
        <time>2017-05-01T00:16:09Z</time>
      </trkpt>
      <trkpt lat="37.950551463" lon="-122.153942054">
        <ele>291.420000</ele>
        <time>2017-05-01T00:16:21Z</time>
      </trkpt>
      <trkpt lat="37.950663110" lon="-122.153943228">
        <ele>295.260000</ele>
        <time>2017-05-01T00:16:35Z</time>
      </trkpt>
      <trkpt lat="37.950677527" lon="-122.153968457">
        <ele>298.150000</ele>
        <time>2017-05-01T00:16:45Z</time>
      </trkpt>
      <trkpt lat="37.950696805" lon="-122.153921267">
        <ele>293.340000</ele>
        <time>2017-05-01T00:17:01Z</time>
      </trkpt>
      <trkpt lat="37.950718766" lon="-122.153882626">
        <ele>296.700000</ele>
        <time>2017-05-01T00:17:15Z</time>
      </trkpt>
      <trkpt lat="37.950741649" lon="-122.153866114">
        <ele>293.820000</ele>
        <time>2017-05-01T00:17:27Z</time>
      </trkpt>
      <trkpt lat="37.950754557" lon="-122.153929314">
        <ele>294.300000</ele>
        <time>2017-05-01T00:17:39Z</time>
      </trkpt>
      <trkpt lat="37.950835191" lon="-122.153941635">
        <ele>301.990000</ele>
        <time>2017-05-01T00:17:59Z</time>
      </trkpt>
      <trkpt lat="37.950816834" lon="-122.153889835">
        <ele>304.880000</ele>
        <time>2017-05-01T00:18:11Z</time>
      </trkpt>
      <trkpt lat="37.950808033" lon="-122.153835017">
        <ele>308.240000</ele>
        <time>2017-05-01T00:18:23Z</time>
      </trkpt>
      <trkpt lat="37.950846422" lon="-122.153818337">
        <ele>312.570000</ele>
        <time>2017-05-01T00:18:35Z</time>
      </trkpt>
      <trkpt lat="37.950828066" lon="-122.153791180">
        <ele>309.680000</ele>
        <time>2017-05-01T00:18:48Z</time>
      </trkpt>
      <trkpt lat="37.950826725" lon="-122.153709792">
        <ele>310.160000</ele>
        <time>2017-05-01T00:18:58Z</time>
      </trkpt>
      <trkpt lat="37.950853799" lon="-122.153708870">
        <ele>312.570000</ele>
        <time>2017-05-01T00:19:10Z</time>
      </trkpt>
      <trkpt lat="37.950854469" lon="-122.153662099">
        <ele>315.450000</ele>
        <time>2017-05-01T00:19:22Z</time>
      </trkpt>
      <trkpt lat="37.950866539" lon="-122.153643826">
        <ele>315.450000</ele>
        <time>2017-05-01T00:19:47Z</time>
      </trkpt>
      <trkpt lat="37.950880537" lon="-122.153632930">
        <ele>312.570000</ele>
        <time>2017-05-01T00:20:09Z</time>
      </trkpt>
      <trkpt lat="37.950908868" lon="-122.153611053">
        <ele>312.570000</ele>
        <time>2017-05-01T00:20:15Z</time>
      </trkpt>
      <trkpt lat="37.950928817" lon="-122.153595882">
        <ele>314.490000</ele>
        <time>2017-05-01T00:20:26Z</time>
      </trkpt>
      <trkpt lat="37.950991513" lon="-122.153595295">
        <ele>316.410000</ele>
        <time>2017-05-01T00:20:37Z</time>
      </trkpt>
      <trkpt lat="37.951018838" lon="-122.153602503">
        <ele>316.890000</ele>
        <time>2017-05-01T00:20:43Z</time>
      </trkpt>
      <trkpt lat="37.951158062" lon="-122.153639887">
        <ele>318.330000</ele>
        <time>2017-05-01T00:20:57Z</time>
      </trkpt>
      <trkpt lat="37.951219669" lon="-122.153676599">
        <ele>318.330000</ele>
        <time>2017-05-01T00:21:06Z</time>
      </trkpt>
      <trkpt lat="37.951292926" lon="-122.153741894">
        <ele>317.370000</ele>
        <time>2017-05-01T00:21:17Z</time>
      </trkpt>
      <trkpt lat="37.951344810" lon="-122.153766537">
        <ele>314.970000</ele>
        <time>2017-05-01T00:21:32Z</time>
      </trkpt>
      <trkpt lat="37.951344643" lon="-122.153790509">
        <ele>314.490000</ele>
        <time>2017-05-01T00:21:52Z</time>
      </trkpt>
      <trkpt lat="37.951314133" lon="-122.153813057">
        <ele>314.010000</ele>
        <time>2017-05-01T00:22:24Z</time>
      </trkpt>
      <trkpt lat="37.951384541" lon="-122.153794700">
        <ele>316.890000</ele>
        <time>2017-05-01T00:22:44Z</time>
      </trkpt>
      <trkpt lat="37.951540193" lon="-122.153828312">
        <ele>318.330000</ele>
        <time>2017-05-01T00:22:59Z</time>
      </trkpt>
      <trkpt lat="37.951574977" lon="-122.153800065">
        <ele>319.780000</ele>
        <time>2017-05-01T00:23:04Z</time>
      </trkpt>
      <trkpt lat="37.951674806" lon="-122.153745415">
        <ele>321.700000</ele>
        <time>2017-05-01T00:23:18Z</time>
      </trkpt>
      <trkpt lat="37.951688385" lon="-122.153689926">
        <ele>325.060000</ele>
        <time>2017-05-01T00:23:36Z</time>
      </trkpt>
      <trkpt lat="37.951705065" lon="-122.153573837">
        <ele>327.470000</ele>
        <time>2017-05-01T00:23:50Z</time>
      </trkpt>
      <trkpt lat="37.951733395" lon="-122.153477361">
        <ele>329.390000</ele>
        <time>2017-05-01T00:24:03Z</time>
      </trkpt>
      <trkpt lat="37.951750662" lon="-122.153343335">
        <ele>332.270000</ele>
        <time>2017-05-01T00:24:17Z</time>
      </trkpt>
      <trkpt lat="37.951760804" lon="-122.153333947">
        <ele>336.120000</ele>
        <time>2017-05-01T00:24:32Z</time>
      </trkpt>
      <trkpt lat="37.951788632" lon="-122.153197909">
        <ele>338.520000</ele>
        <time>2017-05-01T00:24:47Z</time>
      </trkpt>
      <trkpt lat="37.951804977" lon="-122.153132278">
        <ele>339.960000</ele>
        <time>2017-05-01T00:24:54Z</time>
      </trkpt>
      <trkpt lat="37.951844120" lon="-122.153015770">
        <ele>340.920000</ele>
        <time>2017-05-01T00:25:06Z</time>
      </trkpt>
      <trkpt lat="37.951848730" lon="-122.152994899">
        <ele>340.920000</ele>
        <time>2017-05-01T00:25:08Z</time>
      </trkpt>
      <trkpt lat="37.951880498" lon="-122.152893562">
        <ele>340.440000</ele>
        <time>2017-05-01T00:25:18Z</time>
      </trkpt>
      <trkpt lat="37.951894579" lon="-122.152840756">
        <ele>342.370000</ele>
        <time>2017-05-01T00:25:32Z</time>
      </trkpt>
      <trkpt lat="37.951902961" lon="-122.152818125">
        <ele>346.690000</ele>
        <time>2017-05-01T00:25:58Z</time>
      </trkpt>
      <trkpt lat="37.951914696" lon="-122.152746292">
        <ele>346.210000</ele>
        <time>2017-05-01T00:26:16Z</time>
      </trkpt>
      <trkpt lat="37.951921569" lon="-122.152686361">
        <ele>346.690000</ele>
        <time>2017-05-01T00:26:22Z</time>
      </trkpt>
      <trkpt lat="37.951936321" lon="-122.152536912">
        <ele>350.540000</ele>
        <time>2017-05-01T00:26:38Z</time>
      </trkpt>
      <trkpt lat="37.951961383" lon="-122.152413027">
        <ele>353.900000</ele>
        <time>2017-05-01T00:26:52Z</time>
      </trkpt>
      <trkpt lat="37.951968340" lon="-122.152368436">
        <ele>356.310000</ele>
        <time>2017-05-01T00:27:05Z</time>
      </trkpt>
      <trkpt lat="37.951976135" lon="-122.152317222">
        <ele>355.830000</ele>
        <time>2017-05-01T00:27:19Z</time>
      </trkpt>
      <trkpt lat="37.951988373" lon="-122.152155703">
        <ele>358.230000</ele>
        <time>2017-05-01T00:27:34Z</time>
      </trkpt>
      <trkpt lat="37.951994156" lon="-122.152118068">
        <ele>358.710000</ele>
        <time>2017-05-01T00:27:37Z</time>
      </trkpt>
      <trkpt lat="37.951994827" lon="-122.152092839">
        <ele>358.710000</ele>
        <time>2017-05-01T00:27:39Z</time>
      </trkpt>
      <trkpt lat="37.951999940" lon="-122.152043888">
        <ele>358.710000</ele>
        <time>2017-05-01T00:27:43Z</time>
      </trkpt>
      <trkpt lat="37.952020811" lon="-122.151959231">
        <ele>359.190000</ele>
        <time>2017-05-01T00:27:50Z</time>
      </trkpt>
      <trkpt lat="37.952042855" lon="-122.151843896">
        <ele>358.710000</ele>
        <time>2017-05-01T00:28:05Z</time>
      </trkpt>
      <trkpt lat="37.952088872" lon="-122.151739458">
        <ele>357.750000</ele>
        <time>2017-05-01T00:28:13Z</time>
      </trkpt>
      <trkpt lat="37.952137152" lon="-122.151542902">
        <ele>357.750000</ele>
        <time>2017-05-01T00:28:29Z</time>
      </trkpt>
      <trkpt lat="37.952168249" lon="-122.151464783">
        <ele>360.150000</ele>
        <time>2017-05-01T00:28:45Z</time>
      </trkpt>
      <trkpt lat="37.952219294" lon="-122.151304772">
        <ele>360.630000</ele>
        <time>2017-05-01T00:28:59Z</time>
      </trkpt>
      <trkpt lat="37.952248380" lon="-122.151219780">
        <ele>363.040000</ele>
        <time>2017-05-01T00:29:07Z</time>
      </trkpt>
      <trkpt lat="37.952307221" lon="-122.151053818">
        <ele>365.440000</ele>
        <time>2017-05-01T00:29:23Z</time>
      </trkpt>
      <trkpt lat="37.952330606" lon="-122.150928592">
        <ele>368.800000</ele>
        <time>2017-05-01T00:29:37Z</time>
      </trkpt>
      <trkpt lat="37.952351393" lon="-122.150854412">
        <ele>370.240000</ele>
        <time>2017-05-01T00:29:52Z</time>
      </trkpt>
      <trkpt lat="37.952356590" lon="-122.150824154">
        <ele>370.730000</ele>
        <time>2017-05-01T00:29:55Z</time>
      </trkpt>
      <trkpt lat="37.952373018" lon="-122.150730612">
        <ele>370.730000</ele>
        <time>2017-05-01T00:30:04Z</time>
      </trkpt>
      <trkpt lat="37.952392129" lon="-122.150709489">
        <ele>370.240000</ele>
        <time>2017-05-01T00:30:07Z</time>
      </trkpt>
      <trkpt lat="37.952383244" lon="-122.150554843">
        <ele>371.210000</ele>
        <time>2017-05-01T00:30:21Z</time>
      </trkpt>
      <trkpt lat="37.952383999" lon="-122.150546797">
        <ele>371.210000</ele>
        <time>2017-05-01T00:30:23Z</time>
      </trkpt>
      <trkpt lat="37.952375365" lon="-122.150459290">
        <ele>371.690000</ele>
        <time>2017-05-01T00:30:33Z</time>
      </trkpt>
      <trkpt lat="37.952317698" lon="-122.150357785">
        <ele>371.690000</ele>
        <time>2017-05-01T00:30:45Z</time>
      </trkpt>
      <trkpt lat="37.952320967" lon="-122.150334399">
        <ele>371.210000</ele>
        <time>2017-05-01T00:30:49Z</time>
      </trkpt>
      <trkpt lat="37.952315267" lon="-122.150281593">
        <ele>370.730000</ele>
        <time>2017-05-01T00:30:54Z</time>
      </trkpt>
      <trkpt lat="37.952313088" lon="-122.150265668">
        <ele>370.240000</ele>
        <time>2017-05-01T00:31:06Z</time>
      </trkpt>
      <trkpt lat="37.952314429" lon="-122.150220489">
        <ele>368.320000</ele>
        <time>2017-05-01T00:31:19Z</time>
      </trkpt>
      <trkpt lat="37.952295654" lon="-122.150174556">
        <ele>367.360000</ele>
        <time>2017-05-01T00:31:30Z</time>
      </trkpt>
      <trkpt lat="37.952278052" lon="-122.150119655">
        <ele>366.880000</ele>
        <time>2017-05-01T00:31:36Z</time>
      </trkpt>
      <trkpt lat="37.952273106" lon="-122.149962075">
        <ele>365.440000</ele>
        <time>2017-05-01T00:31:49Z</time>
      </trkpt>
      <trkpt lat="37.952273358" lon="-122.149921758">
        <ele>364.960000</ele>
        <time>2017-05-01T00:31:53Z</time>
      </trkpt>
      <trkpt lat="37.952271514" lon="-122.149895858">
        <ele>364.480000</ele>
        <time>2017-05-01T00:31:55Z</time>
      </trkpt>
      <trkpt lat="37.952305293" lon="-122.149797119">
        <ele>364.000000</ele>
        <time>2017-05-01T00:32:06Z</time>
      </trkpt>
      <trkpt lat="37.952305125" lon="-122.149762586">
        <ele>364.000000</ele>
        <time>2017-05-01T00:32:11Z</time>
      </trkpt>
      <trkpt lat="37.952287691" lon="-122.149653034">
        <ele>363.520000</ele>
        <time>2017-05-01T00:32:22Z</time>
      </trkpt>
      <trkpt lat="37.952322979" lon="-122.149561839">
        <ele>362.550000</ele>
        <time>2017-05-01T00:32:30Z</time>
      </trkpt>
      <trkpt lat="37.952369833" lon="-122.149471818">
        <ele>362.550000</ele>
        <time>2017-05-01T00:32:43Z</time>
      </trkpt>
      <trkpt lat="37.952384334" lon="-122.149469890">
        <ele>363.040000</ele>
        <time>2017-05-01T00:33:03Z</time>
      </trkpt>
      <trkpt lat="37.952396069" lon="-122.149416246">
        <ele>363.520000</ele>
        <time>2017-05-01T00:33:19Z</time>
      </trkpt>
      <trkpt lat="37.952437811" lon="-122.149363356">
        <ele>366.880000</ele>
        <time>2017-05-01T00:33:27Z</time>
      </trkpt>
      <trkpt lat="37.952517355" lon="-122.149328068">
        <ele>369.280000</ele>
        <time>2017-05-01T00:33:36Z</time>
      </trkpt>
      <trkpt lat="37.952544764" lon="-122.149305018">
        <ele>369.760000</ele>
        <time>2017-05-01T00:33:40Z</time>
      </trkpt>
      <trkpt lat="37.952645514" lon="-122.149205357">
        <ele>372.650000</ele>
        <time>2017-05-01T00:33:55Z</time>
      </trkpt>
      <trkpt lat="37.952709971" lon="-122.149062613">
        <ele>373.130000</ele>
        <time>2017-05-01T00:34:09Z</time>
      </trkpt>
      <trkpt lat="37.952713827" lon="-122.149047190">
        <ele>372.650000</ele>
        <time>2017-05-01T00:34:12Z</time>
      </trkpt>
      <trkpt lat="37.952752132" lon="-122.148941495">
        <ele>372.170000</ele>
        <time>2017-05-01T00:34:20Z</time>
      </trkpt>
      <trkpt lat="37.952808877" lon="-122.148692133">
        <ele>372.650000</ele>
        <time>2017-05-01T00:34:38Z</time>
      </trkpt>
      <trkpt lat="37.952798149" lon="-122.148475125">
        <ele>371.210000</ele>
        <time>2017-05-01T00:34:53Z</time>
      </trkpt>
      <trkpt lat="37.952801585" lon="-122.148447633">
        <ele>370.730000</ele>
        <time>2017-05-01T00:34:55Z</time>
      </trkpt>
      <trkpt lat="37.952792617" lon="-122.148290975">
        <ele>368.320000</ele>
        <time>2017-05-01T00:35:09Z</time>
      </trkpt>
      <trkpt lat="37.952825474" lon="-122.148220651">
        <ele>363.040000</ele>
        <time>2017-05-01T00:35:18Z</time>
      </trkpt>
      <trkpt lat="37.952880040" lon="-122.148136497">
        <ele>355.830000</ele>
        <time>2017-05-01T00:35:31Z</time>
      </trkpt>
      <trkpt lat="37.952891942" lon="-122.148114201">
        <ele>353.420000</ele>
        <time>2017-05-01T00:35:38Z</time>
      </trkpt>
      <trkpt lat="37.952932343" lon="-122.148030214">
        <ele>348.620000</ele>
        <time>2017-05-01T00:35:46Z</time>
      </trkpt>
      <trkpt lat="37.952939300" lon="-122.147947066">
        <ele>346.690000</ele>
        <time>2017-05-01T00:35:51Z</time>
      </trkpt>
      <trkpt lat="37.952956902" lon="-122.147895265">
        <ele>344.770000</ele>
        <time>2017-05-01T00:35:55Z</time>
      </trkpt>
      <trkpt lat="37.952947682" lon="-122.147765094">
        <ele>343.810000</ele>
        <time>2017-05-01T00:36:02Z</time>
      </trkpt>
      <trkpt lat="37.952992944" lon="-122.147592595">
        <ele>342.850000</ele>
        <time>2017-05-01T00:36:14Z</time>
      </trkpt>
      <trkpt lat="37.953031249" lon="-122.147511961">
        <ele>340.920000</ele>
        <time>2017-05-01T00:36:21Z</time>
      </trkpt>
      <trkpt lat="37.953114230" lon="-122.147361003">
        <ele>338.520000</ele>
        <time>2017-05-01T00:36:36Z</time>
      </trkpt>
      <trkpt lat="37.953215735" lon="-122.147204680">
        <ele>333.230000</ele>
        <time>2017-05-01T00:36:53Z</time>
      </trkpt>
      <trkpt lat="37.953253454" lon="-122.147121448">
        <ele>329.870000</ele>
        <time>2017-05-01T00:37:05Z</time>
      </trkpt>
      <trkpt lat="37.953289328" lon="-122.147010975">
        <ele>326.990000</ele>
        <time>2017-05-01T00:37:17Z</time>
      </trkpt>
      <trkpt lat="37.953287400" lon="-122.147000413">
        <ele>326.500000</ele>
        <time>2017-05-01T00:37:18Z</time>
      </trkpt>
      <trkpt lat="37.953281282" lon="-122.146866722">
        <ele>321.220000</ele>
        <time>2017-05-01T00:37:31Z</time>
      </trkpt>
      <trkpt lat="37.953305924" lon="-122.146821879">
        <ele>319.780000</ele>
        <time>2017-05-01T00:37:35Z</time>
      </trkpt>
      <trkpt lat="37.953342469" lon="-122.146756584">
        <ele>315.930000</ele>
        <time>2017-05-01T00:37:42Z</time>
      </trkpt>
      <trkpt lat="37.953380775" lon="-122.146708053">
        <ele>312.090000</ele>
        <time>2017-05-01T00:37:48Z</time>
      </trkpt>
      <trkpt lat="37.953407010" lon="-122.146569751">
        <ele>305.840000</ele>
        <time>2017-05-01T00:38:01Z</time>
      </trkpt>
      <trkpt lat="37.953408435" lon="-122.146550138">
        <ele>305.840000</ele>
        <time>2017-05-01T00:38:03Z</time>
      </trkpt>
      <trkpt lat="37.953407178" lon="-122.146466570">
        <ele>303.430000</ele>
        <time>2017-05-01T00:38:11Z</time>
      </trkpt>
      <trkpt lat="37.953389408" lon="-122.146407645">
        <ele>302.470000</ele>
        <time>2017-05-01T00:38:17Z</time>
      </trkpt>
      <trkpt lat="37.953341380" lon="-122.146301446">
        <ele>300.070000</ele>
        <time>2017-05-01T00:38:29Z</time>
      </trkpt>
      <trkpt lat="37.953321934" lon="-122.146142107">
        <ele>297.670000</ele>
        <time>2017-05-01T00:38:44Z</time>
      </trkpt>
      <trkpt lat="37.953349678" lon="-122.145909090">
        <ele>296.220000</ele>
        <time>2017-05-01T00:38:58Z</time>
      </trkpt>
      <trkpt lat="37.953443052" lon="-122.145690825">
        <ele>296.220000</ele>
        <time>2017-05-01T00:39:13Z</time>
      </trkpt>
      <trkpt lat="37.953501726" lon="-122.145473817">
        <ele>297.180000</ele>
        <time>2017-05-01T00:39:30Z</time>
      </trkpt>
      <trkpt lat="37.953510946" lon="-122.145324619">
        <ele>295.260000</ele>
        <time>2017-05-01T00:39:44Z</time>
      </trkpt>
      <trkpt lat="37.953560147" lon="-122.145166788">
        <ele>293.340000</ele>
        <time>2017-05-01T00:39:57Z</time>
      </trkpt>
      <trkpt lat="37.953564674" lon="-122.145124124">
        <ele>287.570000</ele>
        <time>2017-05-01T00:40:11Z</time>
      </trkpt>
      <trkpt lat="37.953578252" lon="-122.145122699">
        <ele>286.130000</ele>
        <time>2017-05-01T00:40:32Z</time>
      </trkpt>
      <trkpt lat="37.953594932" lon="-122.145081377">
        <ele>285.650000</ele>
        <time>2017-05-01T00:40:48Z</time>
      </trkpt>
      <trkpt lat="37.953615300" lon="-122.145067379">
        <ele>284.690000</ele>
        <time>2017-05-01T00:40:56Z</time>
      </trkpt>
      <trkpt lat="37.953712698" lon="-122.145044329">
        <ele>283.730000</ele>
        <time>2017-05-01T00:41:10Z</time>
      </trkpt>
      <trkpt lat="37.953728456" lon="-122.145001665">
        <ele>286.610000</ele>
        <time>2017-05-01T00:41:20Z</time>
      </trkpt>
      <trkpt lat="37.953739436" lon="-122.144912817">
        <ele>287.090000</ele>
        <time>2017-05-01T00:41:31Z</time>
      </trkpt>
      <trkpt lat="37.953759301" lon="-122.144853557">
        <ele>285.650000</ele>
        <time>2017-05-01T00:41:39Z</time>
      </trkpt>
      <trkpt lat="37.953764834" lon="-122.144782813">
        <ele>283.730000</ele>
        <time>2017-05-01T00:41:47Z</time>
      </trkpt>
      <trkpt lat="37.953762654" lon="-122.144737467">
        <ele>280.840000</ele>
        <time>2017-05-01T00:42:00Z</time>
      </trkpt>
      <trkpt lat="37.953741532" lon="-122.144658845">
        <ele>276.040000</ele>
        <time>2017-05-01T00:42:13Z</time>
      </trkpt>
      <trkpt lat="37.953823423" lon="-122.144540241">
        <ele>273.150000</ele>
        <time>2017-05-01T00:42:25Z</time>
      </trkpt>
      <trkpt lat="37.953851083" lon="-122.144472599">
        <ele>271.710000</ele>
        <time>2017-05-01T00:42:34Z</time>
      </trkpt>
      <trkpt lat="37.953859381" lon="-122.144383751">
        <ele>268.350000</ele>
        <time>2017-05-01T00:42:46Z</time>
      </trkpt>
      <trkpt lat="37.953870529" lon="-122.144276630">
        <ele>264.980000</ele>
        <time>2017-05-01T00:43:00Z</time>
      </trkpt>
      <trkpt lat="37.953861225" lon="-122.144246288">
        <ele>262.100000</ele>
        <time>2017-05-01T00:43:15Z</time>
      </trkpt>
      <trkpt lat="37.953881091" lon="-122.144248970">
        <ele>262.580000</ele>
        <time>2017-05-01T00:43:34Z</time>
      </trkpt>
      <trkpt lat="37.953948649" lon="-122.144270176">
        <ele>261.140000</ele>
        <time>2017-05-01T00:43:43Z</time>
      </trkpt>
      <trkpt lat="37.954023331" lon="-122.144350223">
        <ele>259.690000</ele>
        <time>2017-05-01T00:43:56Z</time>
      </trkpt>
      <trkpt lat="37.954034898" lon="-122.144366316">
        <ele>259.690000</ele>
        <time>2017-05-01T00:43:58Z</time>
      </trkpt>
      <trkpt lat="37.954121819" lon="-122.144384421">
        <ele>260.170000</ele>
        <time>2017-05-01T00:44:06Z</time>
      </trkpt>
      <trkpt lat="37.954270346" lon="-122.144441754">
        <ele>263.540000</ele>
        <time>2017-05-01T00:44:21Z</time>
      </trkpt>
      <trkpt lat="37.954333127" lon="-122.144473437">
        <ele>264.500000</ele>
        <time>2017-05-01T00:44:34Z</time>
      </trkpt>
      <trkpt lat="37.954491042" lon="-122.144557005">
        <ele>264.500000</ele>
        <time>2017-05-01T00:44:50Z</time>
      </trkpt>
      <trkpt lat="37.954595396" lon="-122.144586677">
        <ele>266.420000</ele>
        <time>2017-05-01T00:45:03Z</time>
      </trkpt>
      <trkpt lat="37.954639066" lon="-122.144592209">
        <ele>268.350000</ele>
        <time>2017-05-01T00:45:09Z</time>
      </trkpt>
      <trkpt lat="37.954749456" lon="-122.144621043">
        <ele>274.590000</ele>
        <time>2017-05-01T00:45:24Z</time>
      </trkpt>
      <trkpt lat="37.954861941" lon="-122.144692121">
        <ele>277.480000</ele>
        <time>2017-05-01T00:45:38Z</time>
      </trkpt>
      <trkpt lat="37.954962524" lon="-122.144752136">
        <ele>277.960000</ele>
        <time>2017-05-01T00:45:49Z</time>
      </trkpt>
      <trkpt lat="37.954993872" lon="-122.144767223">
        <ele>277.960000</ele>
        <time>2017-05-01T00:45:52Z</time>
      </trkpt>
      <trkpt lat="37.955109375" lon="-122.144784490">
        <ele>276.040000</ele>
        <time>2017-05-01T00:46:01Z</time>
      </trkpt>
      <trkpt lat="37.955236444" lon="-122.144796895">
        <ele>273.150000</ele>
        <time>2017-05-01T00:46:11Z</time>
      </trkpt>
      <trkpt lat="37.955415398" lon="-122.144791028">
        <ele>273.150000</ele>
        <time>2017-05-01T00:46:29Z</time>
      </trkpt>
      <trkpt lat="37.955456637" lon="-122.144814748">
        <ele>271.710000</ele>
        <time>2017-05-01T00:46:45Z</time>
      </trkpt>
      <trkpt lat="37.955481280" lon="-122.144809635">
        <ele>272.190000</ele>
        <time>2017-05-01T00:46:49Z</time>
      </trkpt>
      <trkpt lat="37.955506090" lon="-122.144931424">
        <ele>274.590000</ele>
        <time>2017-05-01T00:47:03Z</time>
      </trkpt>
      <trkpt lat="37.955508521" lon="-122.144985655">
        <ele>276.040000</ele>
        <time>2017-05-01T00:47:18Z</time>
      </trkpt>
      <trkpt lat="37.955519585" lon="-122.145022703">
        <ele>276.520000</ele>
        <time>2017-05-01T00:47:33Z</time>
      </trkpt>
      <trkpt lat="37.955553699" lon="-122.145005856">
        <ele>278.920000</ele>
        <time>2017-05-01T00:47:48Z</time>
      </trkpt>
      <trkpt lat="37.955593597" lon="-122.144982554">
        <ele>280.360000</ele>
        <time>2017-05-01T00:48:00Z</time>
      </trkpt>
      <trkpt lat="37.955645313" lon="-122.144955900">
        <ele>278.920000</ele>
        <time>2017-05-01T00:48:09Z</time>
      </trkpt>
      <trkpt lat="37.955647912" lon="-122.144990265">
        <ele>277.480000</ele>
        <time>2017-05-01T00:48:21Z</time>
      </trkpt>
      <trkpt lat="37.955644559" lon="-122.144967970">
        <ele>277.480000</ele>
        <time>2017-05-01T00:48:45Z</time>
      </trkpt>
      <trkpt lat="37.955655204" lon="-122.144973669">
        <ele>277.960000</ele>
        <time>2017-05-01T00:49:03Z</time>
      </trkpt>
      <trkpt lat="37.955642380" lon="-122.144957157">
        <ele>278.440000</ele>
        <time>2017-05-01T00:49:15Z</time>
      </trkpt>
    </trkseg>
  </trk>
</gpx>
	

As Though I Were There (Translated)

<?xml version="1.0" encoding="UTF-8"?>
<gpx version="1.1" creator="Logan Williams" xmlns="http://www.topografix.com/GPX/1/1" xmlns:xsi="http://www.w3.org/2001/XMLSchema-instance">
  <metadata>
    <time>2017-05-01T05:16:50.935Z</time>
    <bounds minlat="42.353249709" minlon="-71.122508451" maxlat="42.380595224" maxlon="-71.083556767"/>
  </metadata>
  <trk>
    <name>as though i were there (translated)</name>
    <trkseg>
      <trkpt lat="42.362500000" lon="-71.086000000">
        <ele>401.970000</ele>
        <time>2017-04-30T20:16:29Z</time>
      </trkpt>
      <trkpt lat="42.362443298" lon="-71.086040697">
        <ele>401.010000</ele>
        <time>2017-04-30T20:16:52Z</time>
      </trkpt>
      <trkpt lat="42.362470351" lon="-71.085974419">
        <ele>401.010000</ele>
        <time>2017-04-30T20:17:22Z</time>
      </trkpt>
      <trkpt lat="42.362447235" lon="-71.086023345">
        <ele>405.330000</ele>
        <time>2017-04-30T20:17:51Z</time>
      </trkpt>
      <trkpt lat="42.362452595" lon="-71.086127010">
        <ele>400.050000</ele>
        <time>2017-04-30T20:18:23Z</time>
      </trkpt>
      <trkpt lat="42.362448826" lon="-71.086042217">
        <ele>397.640000</ele>
        <time>2017-04-30T20:18:49Z</time>
      </trkpt>
      <trkpt lat="42.362419428" lon="-71.086011359">
        <ele>394.760000</ele>
        <time>2017-04-30T20:19:15Z</time>
      </trkpt>
      <trkpt lat="42.362429730" lon="-71.086017620">
        <ele>395.240000</ele>
        <time>2017-04-30T20:19:39Z</time>
      </trkpt>
      <trkpt lat="42.362427050" lon="-71.086015653">
        <ele>393.320000</ele>
        <time>2017-04-30T20:20:04Z</time>
      </trkpt>
      <trkpt lat="42.362444471" lon="-71.086006172">
        <ele>395.240000</ele>
        <time>2017-04-30T20:20:31Z</time>
      </trkpt>
      <trkpt lat="42.362398070" lon="-71.086017173">
        <ele>394.760000</ele>
        <time>2017-04-30T20:20:55Z</time>
      </trkpt>
      <trkpt lat="42.362426212" lon="-71.086049462">
        <ele>394.280000</ele>
        <time>2017-04-30T20:21:18Z</time>
      </trkpt>
      <trkpt lat="42.362369342" lon="-71.086071287">
        <ele>392.360000</ele>
        <time>2017-04-30T20:21:43Z</time>
      </trkpt>
      <trkpt lat="42.362467001" lon="-71.086070929">
        <ele>388.990000</ele>
        <time>2017-04-30T20:22:09Z</time>
      </trkpt>
      <trkpt lat="42.362422192" lon="-71.085992666">
        <ele>395.720000</ele>
        <time>2017-04-30T20:22:36Z</time>
      </trkpt>
      <trkpt lat="42.362426212" lon="-71.085932023">
        <ele>390.430000</ele>
        <time>2017-04-30T20:22:47Z</time>
      </trkpt>
      <trkpt lat="42.362390951" lon="-71.085906263">
        <ele>388.030000</ele>
        <time>2017-04-30T20:23:03Z</time>
      </trkpt>
      <trkpt lat="42.362370096" lon="-71.085852150">
        <ele>385.150000</ele>
        <time>2017-04-30T20:23:14Z</time>
      </trkpt>
      <trkpt lat="42.362343295" lon="-71.085805729">
        <ele>382.740000</ele>
        <time>2017-04-30T20:23:27Z</time>
      </trkpt>
      <trkpt lat="42.362347650" lon="-71.085724604">
        <ele>377.940000</ele>
        <time>2017-04-30T20:23:39Z</time>
      </trkpt>
      <trkpt lat="42.362347566" lon="-71.085637039">
        <ele>376.010000</ele>
        <time>2017-04-30T20:23:58Z</time>
      </trkpt>
      <trkpt lat="42.362322273" lon="-71.085568794">
        <ele>373.610000</ele>
        <time>2017-04-30T20:24:13Z</time>
      </trkpt>
      <trkpt lat="42.362357115" lon="-71.085571388">
        <ele>371.690000</ele>
        <time>2017-04-30T20:24:27Z</time>
      </trkpt>
      <trkpt lat="42.362375708" lon="-71.085506631">
        <ele>370.240000</ele>
        <time>2017-04-30T20:24:43Z</time>
      </trkpt>
      <trkpt lat="42.362412895" lon="-71.085396347">
        <ele>371.210000</ele>
        <time>2017-04-30T20:24:50Z</time>
      </trkpt>
      <trkpt lat="42.362396647" lon="-71.085232397">
        <ele>367.360000</ele>
        <time>2017-04-30T20:25:02Z</time>
      </trkpt>
      <trkpt lat="42.362333663" lon="-71.085233471">
        <ele>364.000000</ele>
        <time>2017-04-30T20:25:15Z</time>
      </trkpt>
      <trkpt lat="42.362311887" lon="-71.085245009">
        <ele>361.590000</ele>
        <time>2017-04-30T20:25:30Z</time>
      </trkpt>
      <trkpt lat="42.362263225" lon="-71.085221932">
        <ele>364.480000</ele>
        <time>2017-04-30T20:25:44Z</time>
      </trkpt>
      <trkpt lat="42.362212637" lon="-71.085197693">
        <ele>365.440000</ele>
        <time>2017-04-30T20:25:57Z</time>
      </trkpt>
      <trkpt lat="42.362237177" lon="-71.085171665">
        <ele>364.000000</ele>
        <time>2017-04-30T20:26:02Z</time>
      </trkpt>
      <trkpt lat="42.362226959" lon="-71.085163615">
        <ele>363.040000</ele>
        <time>2017-04-30T20:26:05Z</time>
      </trkpt>
      <trkpt lat="42.362224447" lon="-71.085163436">
        <ele>362.550000</ele>
        <time>2017-04-30T20:26:17Z</time>
      </trkpt>
      <trkpt lat="42.362215485" lon="-71.085155744">
        <ele>361.590000</ele>
        <time>2017-04-30T20:26:38Z</time>
      </trkpt>
      <trkpt lat="42.362189018" lon="-71.085142149">
        <ele>361.590000</ele>
        <time>2017-04-30T20:26:58Z</time>
      </trkpt>
      <trkpt lat="42.362079132" lon="-71.085049575">
        <ele>355.340000</ele>
        <time>2017-04-30T20:27:11Z</time>
      </trkpt>
      <trkpt lat="42.362081645" lon="-71.085001186">
        <ele>351.500000</ele>
        <time>2017-04-30T20:27:32Z</time>
      </trkpt>
      <trkpt lat="42.362140776" lon="-71.084952886">
        <ele>350.540000</ele>
        <time>2017-04-30T20:27:43Z</time>
      </trkpt>
      <trkpt lat="42.362216741" lon="-71.084867468">
        <ele>348.620000</ele>
        <time>2017-04-30T20:27:54Z</time>
      </trkpt>
      <trkpt lat="42.362262220" lon="-71.084683572">
        <ele>348.620000</ele>
        <time>2017-04-30T20:28:08Z</time>
      </trkpt>
      <trkpt lat="42.362271433" lon="-71.084600211">
        <ele>347.650000</ele>
        <time>2017-04-30T20:28:19Z</time>
      </trkpt>
      <trkpt lat="42.362290613" lon="-71.084565328">
        <ele>347.650000</ele>
        <time>2017-04-30T20:28:37Z</time>
      </trkpt>
      <trkpt lat="42.362304600" lon="-71.084524184">
        <ele>347.650000</ele>
        <time>2017-04-30T20:28:54Z</time>
      </trkpt>
      <trkpt lat="42.362309457" lon="-71.084503612">
        <ele>347.650000</ele>
        <time>2017-04-30T20:29:00Z</time>
      </trkpt>
      <trkpt lat="42.362283410" lon="-71.084462557">
        <ele>347.650000</ele>
        <time>2017-04-30T20:29:13Z</time>
      </trkpt>
      <trkpt lat="42.362274783" lon="-71.084376871">
        <ele>348.130000</ele>
        <time>2017-04-30T20:29:23Z</time>
      </trkpt>
      <trkpt lat="42.362238601" lon="-71.084391540">
        <ele>350.540000</ele>
        <time>2017-04-30T20:29:38Z</time>
      </trkpt>
      <trkpt lat="42.362232822" lon="-71.084312114">
        <ele>352.460000</ele>
        <time>2017-04-30T20:29:58Z</time>
      </trkpt>
      <trkpt lat="42.362236088" lon="-71.084292079">
        <ele>352.940000</ele>
        <time>2017-04-30T20:30:09Z</time>
      </trkpt>
      <trkpt lat="42.362238517" lon="-71.084275353">
        <ele>354.860000</ele>
        <time>2017-04-30T20:30:24Z</time>
      </trkpt>
      <trkpt lat="42.362232487" lon="-71.084236624">
        <ele>356.310000</ele>
        <time>2017-04-30T20:30:42Z</time>
      </trkpt>
      <trkpt lat="42.362220343" lon="-71.084235998">
        <ele>356.310000</ele>
        <time>2017-04-30T20:31:08Z</time>
      </trkpt>
      <trkpt lat="42.362139854" lon="-71.084258717">
        <ele>358.230000</ele>
        <time>2017-04-30T20:31:26Z</time>
      </trkpt>
      <trkpt lat="42.362159201" lon="-71.084236624">
        <ele>363.520000</ele>
        <time>2017-04-30T20:31:49Z</time>
      </trkpt>
      <trkpt lat="42.362164227" lon="-71.084235014">
        <ele>364.960000</ele>
        <time>2017-04-30T20:32:07Z</time>
      </trkpt>
      <trkpt lat="42.362167661" lon="-71.084248073">
        <ele>364.480000</ele>
        <time>2017-04-30T20:32:29Z</time>
      </trkpt>
      <trkpt lat="42.362118748" lon="-71.084244316">
        <ele>364.000000</ele>
        <time>2017-04-30T20:32:58Z</time>
      </trkpt>
      <trkpt lat="42.362071678" lon="-71.084348965">
        <ele>362.550000</ele>
        <time>2017-04-30T20:33:26Z</time>
      </trkpt>
      <trkpt lat="42.362058696" lon="-71.084341809">
        <ele>366.400000</ele>
        <time>2017-04-30T20:33:40Z</time>
      </trkpt>
      <trkpt lat="42.362081896" lon="-71.084311846">
        <ele>369.760000</ele>
        <time>2017-04-30T20:34:10Z</time>
      </trkpt>
      <trkpt lat="42.361999314" lon="-71.084306211">
        <ele>370.730000</ele>
        <time>2017-04-30T20:34:23Z</time>
      </trkpt>
      <trkpt lat="42.361955510" lon="-71.084307552">
        <ele>374.090000</ele>
        <time>2017-04-30T20:34:37Z</time>
      </trkpt>
      <trkpt lat="42.361928038" lon="-71.084284029">
        <ele>377.940000</ele>
        <time>2017-04-30T20:34:51Z</time>
      </trkpt>
      <trkpt lat="42.361824936" lon="-71.084271864">
        <ele>384.180000</ele>
        <time>2017-04-30T20:35:07Z</time>
      </trkpt>
      <trkpt lat="42.361776693" lon="-71.084267482">
        <ele>384.180000</ele>
        <time>2017-04-30T20:35:20Z</time>
      </trkpt>
      <trkpt lat="42.361717981" lon="-71.084247089">
        <ele>386.110000</ele>
        <time>2017-04-30T20:35:39Z</time>
      </trkpt>
      <trkpt lat="42.361649134" lon="-71.084245121">
        <ele>388.510000</ele>
        <time>2017-04-30T20:35:52Z</time>
      </trkpt>
      <trkpt lat="42.361622752" lon="-71.084265693">
        <ele>390.910000</ele>
        <time>2017-04-30T20:36:11Z</time>
      </trkpt>
      <trkpt lat="42.361584894" lon="-71.084289932">
        <ele>395.720000</ele>
        <time>2017-04-30T20:36:24Z</time>
      </trkpt>
      <trkpt lat="42.361531208" lon="-71.084314350">
        <ele>399.570000</ele>
        <time>2017-04-30T20:36:37Z</time>
      </trkpt>
      <trkpt lat="42.361520236" lon="-71.084321863">
        <ele>401.490000</ele>
        <time>2017-04-30T20:36:50Z</time>
      </trkpt>
      <trkpt lat="42.361469648" lon="-71.084316676">
        <ele>401.970000</ele>
        <time>2017-04-30T20:37:09Z</time>
      </trkpt>
      <trkpt lat="42.361423583" lon="-71.084325799">
        <ele>406.290000</ele>
        <time>2017-04-30T20:37:21Z</time>
      </trkpt>
      <trkpt lat="42.361392510" lon="-71.084288680">
        <ele>411.580000</ele>
        <time>2017-04-30T20:37:43Z</time>
      </trkpt>
      <trkpt lat="42.361351051" lon="-71.084282598">
        <ele>415.430000</ele>
        <time>2017-04-30T20:37:54Z</time>
      </trkpt>
      <trkpt lat="42.361289324" lon="-71.084322579">
        <ele>417.830000</ele>
        <time>2017-04-30T20:38:09Z</time>
      </trkpt>
      <trkpt lat="42.361251634" lon="-71.084322132">
        <ele>420.230000</ele>
        <time>2017-04-30T20:38:21Z</time>
      </trkpt>
      <trkpt lat="42.361206741" lon="-71.084338142">
        <ele>423.120000</ele>
        <time>2017-04-30T20:38:34Z</time>
      </trkpt>
      <trkpt lat="42.361184295" lon="-71.084354242">
        <ele>422.160000</ele>
        <time>2017-04-30T20:38:49Z</time>
      </trkpt>
      <trkpt lat="42.361141748" lon="-71.084346281">
        <ele>424.080000</ele>
        <time>2017-04-30T20:39:00Z</time>
      </trkpt>
      <trkpt lat="42.361098028" lon="-71.084341541">
        <ele>426.960000</ele>
        <time>2017-04-30T20:39:11Z</time>
      </trkpt>
      <trkpt lat="42.361020973" lon="-71.084366943">
        <ele>428.890000</ele>
        <time>2017-04-30T20:39:25Z</time>
      </trkpt>
      <trkpt lat="42.361013686" lon="-71.084363186">
        <ele>429.370000</ele>
        <time>2017-04-30T20:39:41Z</time>
      </trkpt>
      <trkpt lat="42.361006065" lon="-71.084362292">
        <ele>431.290000</ele>
        <time>2017-04-30T20:40:05Z</time>
      </trkpt>
      <trkpt lat="42.361008494" lon="-71.084344224">
        <ele>429.370000</ele>
        <time>2017-04-30T20:40:25Z</time>
      </trkpt>
      <trkpt lat="42.361011760" lon="-71.084354957">
        <ele>429.370000</ele>
        <time>2017-04-30T20:40:40Z</time>
      </trkpt>
      <trkpt lat="42.361017204" lon="-71.084357462">
        <ele>428.890000</ele>
        <time>2017-04-30T20:41:13Z</time>
      </trkpt>
      <trkpt lat="42.361012849" lon="-71.084352364">
        <ele>428.400000</ele>
        <time>2017-04-30T20:41:40Z</time>
      </trkpt>
      <trkpt lat="42.361000537" lon="-71.084352453">
        <ele>429.370000</ele>
        <time>2017-04-30T20:42:00Z</time>
      </trkpt>
      <trkpt lat="42.360990905" lon="-71.084345655">
        <ele>430.330000</ele>
        <time>2017-04-30T20:42:06Z</time>
      </trkpt>
      <trkpt lat="42.360865524" lon="-71.084210775">
        <ele>429.850000</ele>
        <time>2017-04-30T20:42:21Z</time>
      </trkpt>
      <trkpt lat="42.360846763" lon="-71.084193512">
        <ele>429.850000</ele>
        <time>2017-04-30T20:42:23Z</time>
      </trkpt>
      <trkpt lat="42.360833027" lon="-71.084168379">
        <ele>429.370000</ele>
        <time>2017-04-30T20:42:25Z</time>
      </trkpt>
      <trkpt lat="42.360667444" lon="-71.084065340">
        <ele>427.440000</ele>
        <time>2017-04-30T20:42:41Z</time>
      </trkpt>
      <trkpt lat="42.360572299" lon="-71.084026790">
        <ele>426.000000</ele>
        <time>2017-04-30T20:42:53Z</time>
      </trkpt>
      <trkpt lat="42.360527657" lon="-71.084007202">
        <ele>424.560000</ele>
        <time>2017-04-30T20:42:57Z</time>
      </trkpt>
      <trkpt lat="42.360436867" lon="-71.083944771">
        <ele>422.160000</ele>
        <time>2017-04-30T20:43:07Z</time>
      </trkpt>
      <trkpt lat="42.360336194" lon="-71.083894414">
        <ele>418.790000</ele>
        <time>2017-04-30T20:43:22Z</time>
      </trkpt>
      <trkpt lat="42.360325473" lon="-71.083859800">
        <ele>418.790000</ele>
        <time>2017-04-30T20:43:37Z</time>
      </trkpt>
      <trkpt lat="42.360312743" lon="-71.083784400">
        <ele>421.190000</ele>
        <time>2017-04-30T20:43:46Z</time>
      </trkpt>
      <trkpt lat="42.360154865" lon="-71.083673311">
        <ele>422.160000</ele>
        <time>2017-04-30T20:44:02Z</time>
      </trkpt>
      <trkpt lat="42.360101094" lon="-71.083648088">
        <ele>422.160000</ele>
        <time>2017-04-30T20:44:07Z</time>
      </trkpt>
      <trkpt lat="42.360049585" lon="-71.083642006">
        <ele>421.680000</ele>
        <time>2017-04-30T20:44:12Z</time>
      </trkpt>
      <trkpt lat="42.359979566" lon="-71.083595496">
        <ele>420.710000</ele>
        <time>2017-04-30T20:44:25Z</time>
      </trkpt>
      <trkpt lat="42.359954607" lon="-71.083556767">
        <ele>422.640000</ele>
        <time>2017-04-30T20:44:39Z</time>
      </trkpt>
      <trkpt lat="42.359923953" lon="-71.083605066">
        <ele>421.190000</ele>
        <time>2017-04-30T20:44:55Z</time>
      </trkpt>
      <trkpt lat="42.359912479" lon="-71.083671164">
        <ele>418.790000</ele>
        <time>2017-04-30T20:45:16Z</time>
      </trkpt>
      <trkpt lat="42.359899999" lon="-71.083721521">
        <ele>418.790000</ele>
        <time>2017-04-30T20:45:24Z</time>
      </trkpt>
      <trkpt lat="42.359863817" lon="-71.083786098">
        <ele>415.430000</ele>
        <time>2017-04-30T20:45:33Z</time>
      </trkpt>
      <trkpt lat="42.359839947" lon="-71.083868743">
        <ele>407.740000</ele>
        <time>2017-04-30T20:45:45Z</time>
      </trkpt>
      <trkpt lat="42.359828389" lon="-71.083883054">
        <ele>404.850000</ele>
        <time>2017-04-30T20:45:51Z</time>
      </trkpt>
      <trkpt lat="42.359751502" lon="-71.084020439">
        <ele>402.450000</ele>
        <time>2017-04-30T20:46:05Z</time>
      </trkpt>
      <trkpt lat="42.359737599" lon="-71.084052280">
        <ele>402.450000</ele>
        <time>2017-04-30T20:46:09Z</time>
      </trkpt>
      <trkpt lat="42.359708285" lon="-71.084122314">
        <ele>402.450000</ele>
        <time>2017-04-30T20:46:14Z</time>
      </trkpt>
      <trkpt lat="42.359688686" lon="-71.084192079">
        <ele>401.970000</ele>
        <time>2017-04-30T20:46:20Z</time>
      </trkpt>
      <trkpt lat="42.359646641" lon="-71.084292255">
        <ele>402.930000</ele>
        <time>2017-04-30T20:46:34Z</time>
      </trkpt>
      <trkpt lat="42.359579638" lon="-71.084442072">
        <ele>403.890000</ele>
        <time>2017-04-30T20:46:47Z</time>
      </trkpt>
      <trkpt lat="42.359530390" lon="-71.084548151">
        <ele>403.890000</ele>
        <time>2017-04-30T20:46:57Z</time>
      </trkpt>
      <trkpt lat="42.359508865" lon="-71.084615591">
        <ele>402.450000</ele>
        <time>2017-04-30T20:47:14Z</time>
      </trkpt>
      <trkpt lat="42.359494627" lon="-71.084662817">
        <ele>402.450000</ele>
        <time>2017-04-30T20:47:39Z</time>
      </trkpt>
      <trkpt lat="42.359468160" lon="-71.084724175">
        <ele>403.410000</ele>
        <time>2017-04-30T20:47:58Z</time>
      </trkpt>
      <trkpt lat="42.359462130" lon="-71.084830254">
        <ele>403.410000</ele>
        <time>2017-04-30T20:48:10Z</time>
      </trkpt>
      <trkpt lat="42.359437506" lon="-71.084921306">
        <ele>399.570000</ele>
        <time>2017-04-30T20:48:21Z</time>
      </trkpt>
      <trkpt lat="42.359418661" lon="-71.084981770">
        <ele>396.680000</ele>
        <time>2017-04-30T20:48:34Z</time>
      </trkpt>
      <trkpt lat="42.359429047" lon="-71.085008245">
        <ele>392.840000</ele>
        <time>2017-04-30T20:48:55Z</time>
      </trkpt>
      <trkpt lat="42.359393451" lon="-71.085023987">
        <ele>393.320000</ele>
        <time>2017-04-30T20:49:08Z</time>
      </trkpt>
      <trkpt lat="42.359395377" lon="-71.085125146">
        <ele>392.360000</ele>
        <time>2017-04-30T20:49:26Z</time>
      </trkpt>
      <trkpt lat="42.359341858" lon="-71.085340346">
        <ele>386.590000</ele>
        <time>2017-04-30T20:49:40Z</time>
      </trkpt>
      <trkpt lat="42.359300148" lon="-71.085525851">
        <ele>385.630000</ele>
        <time>2017-04-30T20:49:53Z</time>
      </trkpt>
      <trkpt lat="42.359291689" lon="-71.085646330">
        <ele>382.740000</ele>
        <time>2017-04-30T20:50:05Z</time>
      </trkpt>
      <trkpt lat="42.359249058" lon="-71.085773517">
        <ele>381.780000</ele>
        <time>2017-04-30T20:50:21Z</time>
      </trkpt>
      <trkpt lat="42.359161283" lon="-71.085809652">
        <ele>379.860000</ele>
        <time>2017-04-30T20:50:34Z</time>
      </trkpt>
      <trkpt lat="42.359111365" lon="-71.085915284">
        <ele>377.450000</ele>
        <time>2017-04-30T20:50:46Z</time>
      </trkpt>
      <trkpt lat="42.359096373" lon="-71.085914569">
        <ele>376.010000</ele>
        <time>2017-04-30T20:51:01Z</time>
      </trkpt>
      <trkpt lat="42.359070158" lon="-71.085961079">
        <ele>376.010000</ele>
        <time>2017-04-30T20:51:25Z</time>
      </trkpt>
      <trkpt lat="42.359073424" lon="-71.085985586">
        <ele>374.570000</ele>
        <time>2017-04-30T20:51:38Z</time>
      </trkpt>
      <trkpt lat="42.359086155" lon="-71.085892566">
        <ele>374.090000</ele>
        <time>2017-04-30T20:51:51Z</time>
      </trkpt>
      <trkpt lat="42.359054831" lon="-71.085848381">
        <ele>372.650000</ele>
        <time>2017-04-30T20:52:05Z</time>
      </trkpt>
      <trkpt lat="42.359013037" lon="-71.085943548">
        <ele>368.800000</ele>
        <time>2017-04-30T20:52:16Z</time>
      </trkpt>
      <trkpt lat="42.359031463" lon="-71.086015192">
        <ele>360.630000</ele>
        <time>2017-04-30T20:52:28Z</time>
      </trkpt>
      <trkpt lat="42.359044445" lon="-71.086070646">
        <ele>354.860000</ele>
        <time>2017-04-30T20:52:39Z</time>
      </trkpt>
      <trkpt lat="42.359005499" lon="-71.086129231">
        <ele>355.340000</ele>
        <time>2017-04-30T20:52:50Z</time>
      </trkpt>
      <trkpt lat="42.358985314" lon="-71.086238351">
        <ele>359.670000</ele>
        <time>2017-04-30T20:53:03Z</time>
      </trkpt>
      <trkpt lat="42.358991093" lon="-71.086289423">
        <ele>359.190000</ele>
        <time>2017-04-30T20:53:16Z</time>
      </trkpt>
      <trkpt lat="42.358977022" lon="-71.086339063">
        <ele>358.710000</ele>
        <time>2017-04-30T20:53:27Z</time>
      </trkpt>
      <trkpt lat="42.358977944" lon="-71.086399795">
        <ele>357.750000</ele>
        <time>2017-04-30T20:53:35Z</time>
      </trkpt>
      <trkpt lat="42.358978781" lon="-71.086422960">
        <ele>351.020000</ele>
        <time>2017-04-30T20:53:50Z</time>
      </trkpt>
      <trkpt lat="42.358885227" lon="-71.086547644">
        <ele>348.130000</ele>
        <time>2017-04-30T20:54:05Z</time>
      </trkpt>
      <trkpt lat="42.358875261" lon="-71.086570630">
        <ele>347.650000</ele>
        <time>2017-04-30T20:54:12Z</time>
      </trkpt>
      <trkpt lat="42.358843769" lon="-71.086608465">
        <ele>347.650000</ele>
        <time>2017-04-30T20:54:16Z</time>
      </trkpt>
      <trkpt lat="42.358780283" lon="-71.086740929">
        <ele>345.730000</ele>
        <time>2017-04-30T20:54:30Z</time>
      </trkpt>
      <trkpt lat="42.358722660" lon="-71.086856489">
        <ele>346.690000</ele>
        <time>2017-04-30T20:54:43Z</time>
      </trkpt>
      <trkpt lat="42.358722408" lon="-71.086861587">
        <ele>346.210000</ele>
        <time>2017-04-30T20:54:56Z</time>
      </trkpt>
      <trkpt lat="42.358713614" lon="-71.086954428">
        <ele>349.100000</ele>
        <time>2017-04-30T20:55:08Z</time>
      </trkpt>
      <trkpt lat="42.358698538" lon="-71.087063370">
        <ele>351.980000</ele>
        <time>2017-04-30T20:55:20Z</time>
      </trkpt>
      <trkpt lat="42.358679442" lon="-71.087106928">
        <ele>354.860000</ele>
        <time>2017-04-30T20:55:33Z</time>
      </trkpt>
      <trkpt lat="42.358651133" lon="-71.087199859">
        <ele>358.710000</ele>
        <time>2017-04-30T20:55:49Z</time>
      </trkpt>
      <trkpt lat="42.358650882" lon="-71.087283398">
        <ele>361.590000</ele>
        <time>2017-04-30T20:56:01Z</time>
      </trkpt>
      <trkpt lat="42.358658839" lon="-71.087312109">
        <ele>361.590000</ele>
        <time>2017-04-30T20:56:18Z</time>
      </trkpt>
      <trkpt lat="42.358665372" lon="-71.087331697">
        <ele>362.070000</ele>
        <time>2017-04-30T20:56:20Z</time>
      </trkpt>
      <trkpt lat="42.358668889" lon="-71.087348691">
        <ele>362.550000</ele>
        <time>2017-04-30T20:56:22Z</time>
      </trkpt>
      <trkpt lat="42.358665204" lon="-71.087407813">
        <ele>363.520000</ele>
        <time>2017-04-30T20:56:27Z</time>
      </trkpt>
      <trkpt lat="42.358679024" lon="-71.087469260">
        <ele>363.040000</ele>
        <time>2017-04-30T20:56:32Z</time>
      </trkpt>
      <trkpt lat="42.358693764" lon="-71.087510671">
        <ele>363.520000</ele>
        <time>2017-04-30T20:56:35Z</time>
      </trkpt>
      <trkpt lat="42.358671234" lon="-71.087679808">
        <ele>359.670000</ele>
        <time>2017-04-30T20:56:49Z</time>
      </trkpt>
      <trkpt lat="42.358655991" lon="-71.087703689">
        <ele>360.150000</ele>
        <time>2017-04-30T20:56:55Z</time>
      </trkpt>
      <trkpt lat="42.358607832" lon="-71.087787676">
        <ele>358.230000</ele>
        <time>2017-04-30T20:57:09Z</time>
      </trkpt>
      <trkpt lat="42.358571817" lon="-71.087826226">
        <ele>355.830000</ele>
        <time>2017-04-30T20:57:21Z</time>
      </trkpt>
      <trkpt lat="42.358528014" lon="-71.087903236">
        <ele>351.020000</ele>
        <time>2017-04-30T20:57:35Z</time>
      </trkpt>
      <trkpt lat="42.358498616" lon="-71.087968797">
        <ele>347.650000</ele>
        <time>2017-04-30T20:57:45Z</time>
      </trkpt>
      <trkpt lat="42.358467459" lon="-71.088028724">
        <ele>344.290000</ele>
        <time>2017-04-30T20:57:55Z</time>
      </trkpt>
      <trkpt lat="42.358412851" lon="-71.088126484">
        <ele>340.440000</ele>
        <time>2017-04-30T20:58:07Z</time>
      </trkpt>
      <trkpt lat="42.358380271" lon="-71.088206088">
        <ele>338.520000</ele>
        <time>2017-04-30T20:58:21Z</time>
      </trkpt>
      <trkpt lat="42.358336048" lon="-71.088271918">
        <ele>339.960000</ele>
        <time>2017-04-30T20:58:33Z</time>
      </trkpt>
      <trkpt lat="42.358299699" lon="-71.088342667">
        <ele>341.410000</ele>
        <time>2017-04-30T20:58:42Z</time>
      </trkpt>
      <trkpt lat="42.358276666" lon="-71.088434435">
        <ele>343.810000</ele>
        <time>2017-04-30T20:58:51Z</time>
      </trkpt>
      <trkpt lat="42.358259664" lon="-71.088553393">
        <ele>346.210000</ele>
        <time>2017-04-30T20:59:04Z</time>
      </trkpt>
      <trkpt lat="42.358209244" lon="-71.088667611">
        <ele>349.580000</ele>
        <time>2017-04-30T20:59:18Z</time>
      </trkpt>
      <trkpt lat="42.358167367" lon="-71.088741580">
        <ele>353.900000</ele>
        <time>2017-04-30T20:59:32Z</time>
      </trkpt>
      <trkpt lat="42.358156395" lon="-71.088823867">
        <ele>356.790000</ele>
        <time>2017-04-30T20:59:42Z</time>
      </trkpt>
      <trkpt lat="42.358134200" lon="-71.088890234">
        <ele>356.310000</ele>
        <time>2017-04-30T20:59:58Z</time>
      </trkpt>
      <trkpt lat="42.358118873" lon="-71.089042555">
        <ele>356.790000</ele>
        <time>2017-04-30T21:00:12Z</time>
      </trkpt>
      <trkpt lat="42.358091904" lon="-71.089172962">
        <ele>359.190000</ele>
        <time>2017-04-30T21:00:25Z</time>
      </trkpt>
      <trkpt lat="42.358051283" lon="-71.089245410">
        <ele>361.110000</ele>
        <time>2017-04-30T21:00:36Z</time>
      </trkpt>
      <trkpt lat="42.358040730" lon="-71.089251313">
        <ele>362.070000</ele>
        <time>2017-04-30T21:00:48Z</time>
      </trkpt>
      <trkpt lat="42.358022220" lon="-71.089227164">
        <ele>363.040000</ele>
        <time>2017-04-30T21:01:00Z</time>
      </trkpt>
      <trkpt lat="42.358025570" lon="-71.089230920">
        <ele>363.040000</ele>
        <time>2017-04-30T21:01:23Z</time>
      </trkpt>
      <trkpt lat="42.358022052" lon="-71.089233604">
        <ele>364.000000</ele>
        <time>2017-04-30T21:01:49Z</time>
      </trkpt>
      <trkpt lat="42.358029841" lon="-71.089215268">
        <ele>364.960000</ele>
        <time>2017-04-30T21:02:08Z</time>
      </trkpt>
      <trkpt lat="42.358028836" lon="-71.089284675">
        <ele>364.480000</ele>
        <time>2017-04-30T21:02:32Z</time>
      </trkpt>
      <trkpt lat="42.358009992" lon="-71.089327160">
        <ele>364.000000</ele>
        <time>2017-04-30T21:02:39Z</time>
      </trkpt>
      <trkpt lat="42.357995000" lon="-71.089347822">
        <ele>361.590000</ele>
        <time>2017-04-30T21:02:53Z</time>
      </trkpt>
      <trkpt lat="42.357994832" lon="-71.089362311">
        <ele>360.150000</ele>
        <time>2017-04-30T21:03:28Z</time>
      </trkpt>
      <trkpt lat="42.357986121" lon="-71.089372776">
        <ele>360.150000</ele>
        <time>2017-04-30T21:03:49Z</time>
      </trkpt>
      <trkpt lat="42.357911328" lon="-71.089513290">
        <ele>355.830000</ele>
        <time>2017-04-30T21:04:02Z</time>
      </trkpt>
      <trkpt lat="42.357907895" lon="-71.089523219">
        <ele>355.340000</ele>
        <time>2017-04-30T21:04:03Z</time>
      </trkpt>
      <trkpt lat="42.357898514" lon="-71.089571786">
        <ele>355.340000</ele>
        <time>2017-04-30T21:04:06Z</time>
      </trkpt>
      <trkpt lat="42.357901278" lon="-71.089704965">
        <ele>357.750000</ele>
        <time>2017-04-30T21:04:19Z</time>
      </trkpt>
      <trkpt lat="42.357888631" lon="-71.089851562">
        <ele>358.710000</ele>
        <time>2017-04-30T21:04:33Z</time>
      </trkpt>
      <trkpt lat="42.357878748" lon="-71.089844138">
        <ele>359.190000</ele>
        <time>2017-04-30T21:04:44Z</time>
      </trkpt>
      <trkpt lat="42.357880339" lon="-71.089836178">
        <ele>360.150000</ele>
        <time>2017-04-30T21:05:12Z</time>
      </trkpt>
      <trkpt lat="42.357880423" lon="-71.089909521">
        <ele>359.670000</ele>
        <time>2017-04-30T21:05:18Z</time>
      </trkpt>
      <trkpt lat="42.357874309" lon="-71.089970878">
        <ele>359.190000</ele>
        <time>2017-04-30T21:05:22Z</time>
      </trkpt>
      <trkpt lat="42.357815764" lon="-71.090066045">
        <ele>356.790000</ele>
        <time>2017-04-30T21:05:35Z</time>
      </trkpt>
      <trkpt lat="42.357738626" lon="-71.090178474">
        <ele>355.340000</ele>
        <time>2017-04-30T21:05:49Z</time>
      </trkpt>
      <trkpt lat="42.357711992" lon="-71.090230619">
        <ele>356.310000</ele>
        <time>2017-04-30T21:06:03Z</time>
      </trkpt>
      <trkpt lat="42.357716013" lon="-71.090226773">
        <ele>354.860000</ele>
        <time>2017-04-30T21:06:25Z</time>
      </trkpt>
      <trkpt lat="42.357683683" lon="-71.090294034">
        <ele>354.860000</ele>
        <time>2017-04-30T21:06:35Z</time>
      </trkpt>
      <trkpt lat="42.357664838" lon="-71.090413081">
        <ele>348.130000</ele>
        <time>2017-04-30T21:06:48Z</time>
      </trkpt>
      <trkpt lat="42.357641471" lon="-71.090495815">
        <ele>342.850000</ele>
        <time>2017-04-30T21:07:03Z</time>
      </trkpt>
      <trkpt lat="42.357624636" lon="-71.090581322">
        <ele>338.520000</ele>
        <time>2017-04-30T21:07:17Z</time>
      </trkpt>
      <trkpt lat="42.357603782" lon="-71.090700549">
        <ele>335.160000</ele>
        <time>2017-04-30T21:07:27Z</time>
      </trkpt>
      <trkpt lat="42.357590967" lon="-71.090848755">
        <ele>330.830000</ele>
        <time>2017-04-30T21:07:40Z</time>
      </trkpt>
      <trkpt lat="42.357576142" lon="-71.090903583">
        <ele>329.390000</ele>
        <time>2017-04-30T21:07:45Z</time>
      </trkpt>
      <trkpt lat="42.357572122" lon="-71.090957338">
        <ele>327.950000</ele>
        <time>2017-04-30T21:07:49Z</time>
      </trkpt>
      <trkpt lat="42.357507380" lon="-71.091030860">
        <ele>326.020000</ele>
        <time>2017-04-30T21:08:00Z</time>
      </trkpt>
      <trkpt lat="42.357457630" lon="-71.091156974">
        <ele>321.700000</ele>
        <time>2017-04-30T21:08:14Z</time>
      </trkpt>
      <trkpt lat="42.357407963" lon="-71.091257775">
        <ele>318.330000</ele>
        <time>2017-04-30T21:08:26Z</time>
      </trkpt>
      <trkpt lat="42.357384177" lon="-71.091301870">
        <ele>316.410000</ele>
        <time>2017-04-30T21:08:30Z</time>
      </trkpt>
      <trkpt lat="42.357344226" lon="-71.091355178">
        <ele>314.490000</ele>
        <time>2017-04-30T21:08:35Z</time>
      </trkpt>
      <trkpt lat="42.357288613" lon="-71.091510629">
        <ele>309.680000</ele>
        <time>2017-04-30T21:08:47Z</time>
      </trkpt>
      <trkpt lat="42.357269684" lon="-71.091588712">
        <ele>307.280000</ele>
        <time>2017-04-30T21:08:53Z</time>
      </trkpt>
      <trkpt lat="42.357261560" lon="-71.091637011">
        <ele>306.800000</ele>
        <time>2017-04-30T21:08:57Z</time>
      </trkpt>
      <trkpt lat="42.357223117" lon="-71.091774394">
        <ele>303.910000</ele>
        <time>2017-04-30T21:09:06Z</time>
      </trkpt>
      <trkpt lat="42.357163232" lon="-71.091975550">
        <ele>300.550000</ele>
        <time>2017-04-30T21:09:19Z</time>
      </trkpt>
      <trkpt lat="42.357137771" lon="-71.092056585">
        <ele>299.110000</ele>
        <time>2017-04-30T21:09:24Z</time>
      </trkpt>
      <trkpt lat="42.357086931" lon="-71.092267043">
        <ele>298.630000</ele>
        <time>2017-04-30T21:09:39Z</time>
      </trkpt>
      <trkpt lat="42.357081990" lon="-71.092277419">
        <ele>300.550000</ele>
        <time>2017-04-30T21:09:51Z</time>
      </trkpt>
      <trkpt lat="42.357077048" lon="-71.092419543">
        <ele>297.180000</ele>
        <time>2017-04-30T21:10:01Z</time>
      </trkpt>
      <trkpt lat="42.357067751" lon="-71.092441188">
        <ele>296.220000</ele>
        <time>2017-04-30T21:10:04Z</time>
      </trkpt>
      <trkpt lat="42.357041285" lon="-71.092522670">
        <ele>294.300000</ele>
        <time>2017-04-30T21:10:15Z</time>
      </trkpt>
      <trkpt lat="42.357040364" lon="-71.092531346">
        <ele>293.820000</ele>
        <time>2017-04-30T21:10:20Z</time>
      </trkpt>
      <trkpt lat="42.357019928" lon="-71.092612201">
        <ele>293.340000</ele>
        <time>2017-04-30T21:10:25Z</time>
      </trkpt>
      <trkpt lat="42.357006778" lon="-71.092619715">
        <ele>293.820000</ele>
        <time>2017-04-30T21:10:41Z</time>
      </trkpt>
      <trkpt lat="42.356992623" lon="-71.092767742">
        <ele>293.340000</ele>
        <time>2017-04-30T21:10:54Z</time>
      </trkpt>
      <trkpt lat="42.356942287" lon="-71.092840637">
        <ele>292.380000</ele>
        <time>2017-04-30T21:11:02Z</time>
      </trkpt>
      <trkpt lat="42.356932739" lon="-71.092876951">
        <ele>291.900000</ele>
        <time>2017-04-30T21:11:05Z</time>
      </trkpt>
      <trkpt lat="42.356899321" lon="-71.092955660">
        <ele>290.940000</ele>
        <time>2017-04-30T21:11:12Z</time>
      </trkpt>
      <trkpt lat="42.356796554" lon="-71.093115852">
        <ele>289.970000</ele>
        <time>2017-04-30T21:11:27Z</time>
      </trkpt>
      <trkpt lat="42.356777290" lon="-71.093158515">
        <ele>291.900000</ele>
        <time>2017-04-30T21:11:39Z</time>
      </trkpt>
      <trkpt lat="42.356679632" lon="-71.093332392">
        <ele>292.380000</ele>
        <time>2017-04-30T21:11:54Z</time>
      </trkpt>
      <trkpt lat="42.356607519" lon="-71.093473174">
        <ele>291.420000</ele>
        <time>2017-04-30T21:12:04Z</time>
      </trkpt>
      <trkpt lat="42.356592192" lon="-71.093494461">
        <ele>291.420000</ele>
        <time>2017-04-30T21:12:06Z</time>
      </trkpt>
      <trkpt lat="42.356575273" lon="-71.093531401">
        <ele>291.900000</ele>
        <time>2017-04-30T21:12:09Z</time>
      </trkpt>
      <trkpt lat="42.356533396" lon="-71.093605817">
        <ele>291.420000</ele>
        <time>2017-04-30T21:12:24Z</time>
      </trkpt>
      <trkpt lat="42.356520079" lon="-71.093606354">
        <ele>288.530000</ele>
        <time>2017-04-30T21:12:39Z</time>
      </trkpt>
      <trkpt lat="42.356515054" lon="-71.093594279">
        <ele>287.570000</ele>
        <time>2017-04-30T21:12:42Z</time>
      </trkpt>
      <trkpt lat="42.356472423" lon="-71.093411548">
        <ele>288.050000</ele>
        <time>2017-04-30T21:12:55Z</time>
      </trkpt>
      <trkpt lat="42.356437497" lon="-71.093284987">
        <ele>289.970000</ele>
        <time>2017-04-30T21:13:11Z</time>
      </trkpt>
      <trkpt lat="42.356430043" lon="-71.093318528">
        <ele>290.940000</ele>
        <time>2017-04-30T21:13:17Z</time>
      </trkpt>
      <trkpt lat="42.356479542" lon="-71.093507609">
        <ele>294.780000</ele>
        <time>2017-04-30T21:13:30Z</time>
      </trkpt>
      <trkpt lat="42.356510782" lon="-71.093595173">
        <ele>293.820000</ele>
        <time>2017-04-30T21:13:42Z</time>
      </trkpt>
      <trkpt lat="42.356494785" lon="-71.093664491">
        <ele>292.380000</ele>
        <time>2017-04-30T21:13:54Z</time>
      </trkpt>
      <trkpt lat="42.356460781" lon="-71.093865468">
        <ele>291.420000</ele>
        <time>2017-04-30T21:14:10Z</time>
      </trkpt>
      <trkpt lat="42.356406508" lon="-71.094039076">
        <ele>289.970000</ele>
        <time>2017-04-30T21:14:26Z</time>
      </trkpt>
      <trkpt lat="42.356338750" lon="-71.094194437">
        <ele>291.900000</ele>
        <time>2017-04-30T21:14:41Z</time>
      </trkpt>
      <trkpt lat="42.356332636" lon="-71.094193185">
        <ele>292.380000</ele>
        <time>2017-04-30T21:14:42Z</time>
      </trkpt>
      <trkpt lat="42.356316471" lon="-71.094246761">
        <ele>291.900000</ele>
        <time>2017-04-30T21:14:54Z</time>
      </trkpt>
      <trkpt lat="42.356316220" lon="-71.094301857">
        <ele>294.780000</ele>
        <time>2017-04-30T21:15:17Z</time>
      </trkpt>
      <trkpt lat="42.356284728" lon="-71.094362946">
        <ele>295.740000</ele>
        <time>2017-04-30T21:15:30Z</time>
      </trkpt>
      <trkpt lat="42.356264711" lon="-71.094436020">
        <ele>298.630000</ele>
        <time>2017-04-30T21:15:45Z</time>
      </trkpt>
      <trkpt lat="42.356245112" lon="-71.094546928">
        <ele>301.030000</ele>
        <time>2017-04-30T21:15:58Z</time>
      </trkpt>
      <trkpt lat="42.356218897" lon="-71.094590576">
        <ele>304.390000</ele>
        <time>2017-04-30T21:16:11Z</time>
      </trkpt>
      <trkpt lat="42.356193687" lon="-71.094643526">
        <ele>304.880000</ele>
        <time>2017-04-30T21:16:33Z</time>
      </trkpt>
      <trkpt lat="42.356163117" lon="-71.094720535">
        <ele>308.240000</ele>
        <time>2017-04-30T21:16:46Z</time>
      </trkpt>
      <trkpt lat="42.356165964" lon="-71.094712038">
        <ele>309.680000</ele>
        <time>2017-04-30T21:17:03Z</time>
      </trkpt>
      <trkpt lat="42.356177271" lon="-71.094772412">
        <ele>309.680000</ele>
        <time>2017-04-30T21:17:34Z</time>
      </trkpt>
      <trkpt lat="42.356182296" lon="-71.094810514">
        <ele>307.280000</ele>
        <time>2017-04-30T21:17:48Z</time>
      </trkpt>
      <trkpt lat="42.356154071" lon="-71.094925536">
        <ele>306.800000</ele>
        <time>2017-04-30T21:18:02Z</time>
      </trkpt>
      <trkpt lat="42.356149297" lon="-71.095017036">
        <ele>308.240000</ele>
        <time>2017-04-30T21:18:15Z</time>
      </trkpt>
      <trkpt lat="42.356173335" lon="-71.095062204">
        <ele>310.640000</ele>
        <time>2017-04-30T21:18:29Z</time>
      </trkpt>
      <trkpt lat="42.356210606" lon="-71.095112917">
        <ele>311.600000</ele>
        <time>2017-04-30T21:18:43Z</time>
      </trkpt>
      <trkpt lat="42.356204575" lon="-71.095135904">
        <ele>314.970000</ele>
        <time>2017-04-30T21:19:00Z</time>
      </trkpt>
      <trkpt lat="42.356193352" lon="-71.095167745">
        <ele>315.930000</ele>
        <time>2017-04-30T21:19:11Z</time>
      </trkpt>
      <trkpt lat="42.356126600" lon="-71.095153524">
        <ele>317.370000</ele>
        <time>2017-04-30T21:19:22Z</time>
      </trkpt>
      <trkpt lat="42.356079613" lon="-71.095131700">
        <ele>319.780000</ele>
        <time>2017-04-30T21:19:37Z</time>
      </trkpt>
      <trkpt lat="42.356055575" lon="-71.095206026">
        <ele>322.180000</ele>
        <time>2017-04-30T21:19:49Z</time>
      </trkpt>
      <trkpt lat="42.356059093" lon="-71.095237510">
        <ele>322.180000</ele>
        <time>2017-04-30T21:20:13Z</time>
      </trkpt>
      <trkpt lat="42.356073164" lon="-71.095262643">
        <ele>326.500000</ele>
        <time>2017-04-30T21:20:36Z</time>
      </trkpt>
      <trkpt lat="42.356044855" lon="-71.095329725">
        <ele>327.950000</ele>
        <time>2017-04-30T21:20:55Z</time>
      </trkpt>
      <trkpt lat="42.355967633" lon="-71.095380528">
        <ele>328.430000</ele>
        <time>2017-04-30T21:21:09Z</time>
      </trkpt>
      <trkpt lat="42.355955237" lon="-71.095390188">
        <ele>328.430000</ele>
        <time>2017-04-30T21:21:11Z</time>
      </trkpt>
      <trkpt lat="42.355865620" lon="-71.095465319">
        <ele>328.910000</ele>
        <time>2017-04-30T21:21:22Z</time>
      </trkpt>
      <trkpt lat="42.355834547" lon="-71.095532401">
        <ele>330.350000</ele>
        <time>2017-04-30T21:21:31Z</time>
      </trkpt>
      <trkpt lat="42.355830694" lon="-71.095718888">
        <ele>330.830000</ele>
        <time>2017-04-30T21:21:46Z</time>
      </trkpt>
      <trkpt lat="42.355801799" lon="-71.095849563">
        <ele>329.390000</ele>
        <time>2017-04-30T21:22:00Z</time>
      </trkpt>
      <trkpt lat="42.355802887" lon="-71.095960470">
        <ele>331.790000</ele>
        <time>2017-04-30T21:22:12Z</time>
      </trkpt>
      <trkpt lat="42.355822821" lon="-71.096073257">
        <ele>335.160000</ele>
        <time>2017-04-30T21:22:26Z</time>
      </trkpt>
      <trkpt lat="42.355813524" lon="-71.096207777">
        <ele>337.080000</ele>
        <time>2017-04-30T21:22:41Z</time>
      </trkpt>
      <trkpt lat="42.355772568" lon="-71.096315734">
        <ele>337.560000</ele>
        <time>2017-04-30T21:22:56Z</time>
      </trkpt>
      <trkpt lat="42.355772903" lon="-71.096325393">
        <ele>337.560000</ele>
        <time>2017-04-30T21:22:57Z</time>
      </trkpt>
      <trkpt lat="42.355718965" lon="-71.096430398">
        <ele>341.410000</ele>
        <time>2017-04-30T21:23:09Z</time>
      </trkpt>
      <trkpt lat="42.355659918" lon="-71.096511791">
        <ele>342.850000</ele>
        <time>2017-04-30T21:23:22Z</time>
      </trkpt>
      <trkpt lat="42.355634624" lon="-71.096518588">
        <ele>342.850000</ele>
        <time>2017-04-30T21:23:25Z</time>
      </trkpt>
      <trkpt lat="42.355588559" lon="-71.096602127">
        <ele>345.730000</ele>
        <time>2017-04-30T21:23:36Z</time>
      </trkpt>
      <trkpt lat="42.355541657" lon="-71.096682178">
        <ele>347.170000</ele>
        <time>2017-04-30T21:23:46Z</time>
      </trkpt>
      <trkpt lat="42.355459493" lon="-71.096780832">
        <ele>345.730000</ele>
        <time>2017-04-30T21:23:57Z</time>
      </trkpt>
      <trkpt lat="42.355422976" lon="-71.096839238">
        <ele>343.810000</ele>
        <time>2017-04-30T21:24:11Z</time>
      </trkpt>
      <trkpt lat="42.355397682" lon="-71.096941649">
        <ele>339.480000</ele>
        <time>2017-04-30T21:24:24Z</time>
      </trkpt>
      <trkpt lat="42.355356978" lon="-71.097003543">
        <ele>341.410000</ele>
        <time>2017-04-30T21:24:41Z</time>
      </trkpt>
      <trkpt lat="42.355311415" lon="-71.097050589">
        <ele>344.290000</ele>
        <time>2017-04-30T21:24:53Z</time>
      </trkpt>
      <trkpt lat="42.355277411" lon="-71.097133412">
        <ele>346.690000</ele>
        <time>2017-04-30T21:25:06Z</time>
      </trkpt>
      <trkpt lat="42.355222049" lon="-71.097213016">
        <ele>350.060000</ele>
        <time>2017-04-30T21:25:19Z</time>
      </trkpt>
      <trkpt lat="42.355126485" lon="-71.097319631">
        <ele>350.060000</ele>
        <time>2017-04-30T21:25:33Z</time>
      </trkpt>
      <trkpt lat="42.355112414" lon="-71.097359164">
        <ele>350.540000</ele>
        <time>2017-04-30T21:25:36Z</time>
      </trkpt>
      <trkpt lat="42.355103703" lon="-71.097436352">
        <ele>350.540000</ele>
        <time>2017-04-30T21:25:41Z</time>
      </trkpt>
      <trkpt lat="42.355091726" lon="-71.097688042">
        <ele>347.170000</ele>
        <time>2017-04-30T21:25:57Z</time>
      </trkpt>
      <trkpt lat="42.355004705" lon="-71.097909322">
        <ele>350.060000</ele>
        <time>2017-04-30T21:26:14Z</time>
      </trkpt>
      <trkpt lat="42.354980751" lon="-71.097946261">
        <ele>351.500000</ele>
        <time>2017-04-30T21:26:19Z</time>
      </trkpt>
      <trkpt lat="42.354969528" lon="-71.098146075">
        <ele>354.380000</ele>
        <time>2017-04-30T21:26:33Z</time>
      </trkpt>
      <trkpt lat="42.354903446" lon="-71.098299200">
        <ele>355.340000</ele>
        <time>2017-04-30T21:26:46Z</time>
      </trkpt>
      <trkpt lat="42.354942978" lon="-71.098425850">
        <ele>354.860000</ele>
        <time>2017-04-30T21:26:55Z</time>
      </trkpt>
      <trkpt lat="42.354960482" lon="-71.098551068">
        <ele>356.310000</ele>
        <time>2017-04-30T21:27:12Z</time>
      </trkpt>
      <trkpt lat="42.354963163" lon="-71.098610099">
        <ele>355.340000</ele>
        <time>2017-04-30T21:27:27Z</time>
      </trkpt>
      <trkpt lat="42.354982594" lon="-71.098817247">
        <ele>357.270000</ele>
        <time>2017-04-30T21:27:40Z</time>
      </trkpt>
      <trkpt lat="42.354976396" lon="-71.098949263">
        <ele>358.710000</ele>
        <time>2017-04-30T21:27:54Z</time>
      </trkpt>
      <trkpt lat="42.354969779" lon="-71.099023679">
        <ele>357.750000</ele>
        <time>2017-04-30T21:28:07Z</time>
      </trkpt>
      <trkpt lat="42.354938036" lon="-71.099199075">
        <ele>358.710000</ele>
        <time>2017-04-30T21:28:19Z</time>
      </trkpt>
      <trkpt lat="42.354916846" lon="-71.099340841">
        <ele>359.190000</ele>
        <time>2017-04-30T21:28:32Z</time>
      </trkpt>
      <trkpt lat="42.354893144" lon="-71.099447544">
        <ele>360.630000</ele>
        <time>2017-04-30T21:28:39Z</time>
      </trkpt>
      <trkpt lat="42.354875388" lon="-71.099489582">
        <ele>360.630000</ele>
        <time>2017-04-30T21:28:43Z</time>
      </trkpt>
      <trkpt lat="42.354857045" lon="-71.099560420">
        <ele>363.040000</ele>
        <time>2017-04-30T21:28:56Z</time>
      </trkpt>
      <trkpt lat="42.354858888" lon="-71.099567039">
        <ele>364.000000</ele>
        <time>2017-04-30T21:29:00Z</time>
      </trkpt>
      <trkpt lat="42.354881837" lon="-71.099593782">
        <ele>364.000000</ele>
        <time>2017-04-30T21:29:16Z</time>
      </trkpt>
      <trkpt lat="42.354887030" lon="-71.099575267">
        <ele>359.670000</ele>
        <time>2017-04-30T21:29:52Z</time>
      </trkpt>
      <trkpt lat="42.354859223" lon="-71.099608629">
        <ele>357.750000</ele>
        <time>2017-04-30T21:30:17Z</time>
      </trkpt>
      <trkpt lat="42.354859139" lon="-71.099624997">
        <ele>358.710000</ele>
        <time>2017-04-30T21:30:48Z</time>
      </trkpt>
      <trkpt lat="42.354888788" lon="-71.099622582">
        <ele>358.710000</ele>
        <time>2017-04-30T21:31:24Z</time>
      </trkpt>
      <trkpt lat="42.354875136" lon="-71.099628933">
        <ele>359.670000</ele>
        <time>2017-04-30T21:31:57Z</time>
      </trkpt>
      <trkpt lat="42.354857799" lon="-71.099640471">
        <ele>362.550000</ele>
        <time>2017-04-30T21:32:27Z</time>
      </trkpt>
      <trkpt lat="42.354842975" lon="-71.099620525">
        <ele>362.550000</ele>
        <time>2017-04-30T21:32:53Z</time>
      </trkpt>
      <trkpt lat="42.354858804" lon="-71.099605588">
        <ele>361.590000</ele>
        <time>2017-04-30T21:33:12Z</time>
      </trkpt>
      <trkpt lat="42.354843645" lon="-71.099571690">
        <ele>362.550000</ele>
        <time>2017-04-30T21:33:28Z</time>
      </trkpt>
      <trkpt lat="42.354839959" lon="-71.099609076">
        <ele>363.040000</ele>
        <time>2017-04-30T21:33:49Z</time>
      </trkpt>
      <trkpt lat="42.354809389" lon="-71.099697624">
        <ele>358.710000</ele>
        <time>2017-04-30T21:34:02Z</time>
      </trkpt>
      <trkpt lat="42.354807965" lon="-71.099775885">
        <ele>355.830000</ele>
        <time>2017-04-30T21:34:13Z</time>
      </trkpt>
      <trkpt lat="42.354771365" lon="-71.099856204">
        <ele>351.500000</ele>
        <time>2017-04-30T21:34:25Z</time>
      </trkpt>
      <trkpt lat="42.354757461" lon="-71.099884646">
        <ele>349.580000</ele>
        <time>2017-04-30T21:34:28Z</time>
      </trkpt>
      <trkpt lat="42.354700759" lon="-71.099964876">
        <ele>345.250000</ele>
        <time>2017-04-30T21:34:38Z</time>
      </trkpt>
      <trkpt lat="42.354692551" lon="-71.100003783">
        <ele>345.250000</ele>
        <time>2017-04-30T21:34:51Z</time>
      </trkpt>
      <trkpt lat="42.354646989" lon="-71.100084370">
        <ele>341.410000</ele>
        <time>2017-04-30T21:35:06Z</time>
      </trkpt>
      <trkpt lat="42.354651847" lon="-71.100091168">
        <ele>341.410000</ele>
        <time>2017-04-30T21:35:07Z</time>
      </trkpt>
      <trkpt lat="42.354678816" lon="-71.100169429">
        <ele>337.560000</ele>
        <time>2017-04-30T21:35:17Z</time>
      </trkpt>
      <trkpt lat="42.354694813" lon="-71.100337222">
        <ele>332.750000</ele>
        <time>2017-04-30T21:35:31Z</time>
      </trkpt>
      <trkpt lat="42.354666336" lon="-71.100471027">
        <ele>328.430000</ele>
        <time>2017-04-30T21:35:42Z</time>
      </trkpt>
      <trkpt lat="42.354641880" lon="-71.100618070">
        <ele>323.140000</ele>
        <time>2017-04-30T21:35:56Z</time>
      </trkpt>
      <trkpt lat="42.354620020" lon="-71.100699104">
        <ele>321.700000</ele>
        <time>2017-04-30T21:36:02Z</time>
      </trkpt>
      <trkpt lat="42.354565161" lon="-71.100765559">
        <ele>316.890000</ele>
        <time>2017-04-30T21:36:15Z</time>
      </trkpt>
      <trkpt lat="42.354546567" lon="-71.100834608">
        <ele>314.010000</ele>
        <time>2017-04-30T21:36:33Z</time>
      </trkpt>
      <trkpt lat="42.354529062" lon="-71.100866271">
        <ele>311.120000</ele>
        <time>2017-04-30T21:36:43Z</time>
      </trkpt>
      <trkpt lat="42.354530151" lon="-71.100971633">
        <ele>306.800000</ele>
        <time>2017-04-30T21:36:57Z</time>
      </trkpt>
      <trkpt lat="42.354550252" lon="-71.101052309">
        <ele>306.320000</ele>
        <time>2017-04-30T21:37:05Z</time>
      </trkpt>
      <trkpt lat="42.354548326" lon="-71.101027534">
        <ele>306.320000</ele>
        <time>2017-04-30T21:37:07Z</time>
      </trkpt>
      <trkpt lat="42.354497403" lon="-71.100977089">
        <ele>304.880000</ele>
        <time>2017-04-30T21:37:12Z</time>
      </trkpt>
      <trkpt lat="42.354460216" lon="-71.100979951">
        <ele>302.950000</ele>
        <time>2017-04-30T21:37:17Z</time>
      </trkpt>
      <trkpt lat="42.354422945" lon="-71.101012955">
        <ele>299.110000</ele>
        <time>2017-04-30T21:37:32Z</time>
      </trkpt>
      <trkpt lat="42.354398237" lon="-71.101120553">
        <ele>295.740000</ele>
        <time>2017-04-30T21:37:47Z</time>
      </trkpt>
      <trkpt lat="42.354367081" lon="-71.101254716">
        <ele>297.670000</ele>
        <time>2017-04-30T21:37:59Z</time>
      </trkpt>
      <trkpt lat="42.354365406" lon="-71.101349345">
        <ele>298.150000</ele>
        <time>2017-04-30T21:38:05Z</time>
      </trkpt>
      <trkpt lat="42.354271182" lon="-71.101417410">
        <ele>295.260000</ele>
        <time>2017-04-30T21:38:19Z</time>
      </trkpt>
      <trkpt lat="42.354232487" lon="-71.101531090">
        <ele>294.300000</ele>
        <time>2017-04-30T21:38:31Z</time>
      </trkpt>
      <trkpt lat="42.354154009" lon="-71.101633770">
        <ele>298.150000</ele>
        <time>2017-04-30T21:38:44Z</time>
      </trkpt>
      <trkpt lat="42.354173272" lon="-71.101712836">
        <ele>305.360000</ele>
        <time>2017-04-30T21:38:57Z</time>
      </trkpt>
      <trkpt lat="42.354189772" lon="-71.101830183">
        <ele>308.720000</ele>
        <time>2017-04-30T21:39:10Z</time>
      </trkpt>
      <trkpt lat="42.354178381" lon="-71.101989122">
        <ele>304.390000</ele>
        <time>2017-04-30T21:39:25Z</time>
      </trkpt>
      <trkpt lat="42.354173356" lon="-71.102131424">
        <ele>305.360000</ele>
        <time>2017-04-30T21:39:38Z</time>
      </trkpt>
      <trkpt lat="42.354133154" lon="-71.102224175">
        <ele>304.880000</ele>
        <time>2017-04-30T21:39:49Z</time>
      </trkpt>
      <trkpt lat="42.354108697" lon="-71.102284637">
        <ele>301.990000</ele>
        <time>2017-04-30T21:40:02Z</time>
      </trkpt>
      <trkpt lat="42.354049148" lon="-71.102376226">
        <ele>296.220000</ele>
        <time>2017-04-30T21:40:12Z</time>
      </trkpt>
      <trkpt lat="42.353974020" lon="-71.102482214">
        <ele>287.570000</ele>
        <time>2017-04-30T21:40:26Z</time>
      </trkpt>
      <trkpt lat="42.353966650" lon="-71.102581405">
        <ele>280.360000</ele>
        <time>2017-04-30T21:40:40Z</time>
      </trkpt>
      <trkpt lat="42.353951239" lon="-71.102676839">
        <ele>277.480000</ele>
        <time>2017-04-30T21:40:54Z</time>
      </trkpt>
      <trkpt lat="42.353912795" lon="-71.102782559">
        <ele>276.040000</ele>
        <time>2017-04-30T21:41:09Z</time>
      </trkpt>
      <trkpt lat="42.353907267" lon="-71.102838370">
        <ele>272.670000</ele>
        <time>2017-04-30T21:41:21Z</time>
      </trkpt>
      <trkpt lat="42.353886413" lon="-71.102917079">
        <ele>269.310000</ele>
        <time>2017-04-30T21:41:32Z</time>
      </trkpt>
      <trkpt lat="42.353848639" lon="-71.102925934">
        <ele>268.830000</ele>
        <time>2017-04-30T21:41:42Z</time>
      </trkpt>
      <trkpt lat="42.353847634" lon="-71.102932552">
        <ele>268.830000</ele>
        <time>2017-04-30T21:41:43Z</time>
      </trkpt>
      <trkpt lat="42.353758435" lon="-71.103225564">
        <ele>265.940000</ele>
        <time>2017-04-30T21:41:59Z</time>
      </trkpt>
      <trkpt lat="42.353689672" lon="-71.103503728">
        <ele>263.060000</ele>
        <time>2017-04-30T21:42:15Z</time>
      </trkpt>
      <trkpt lat="42.353631546" lon="-71.103814359">
        <ele>263.060000</ele>
        <time>2017-04-30T21:42:30Z</time>
      </trkpt>
      <trkpt lat="42.353615047" lon="-71.103937699">
        <ele>262.100000</ele>
        <time>2017-04-30T21:42:37Z</time>
      </trkpt>
      <trkpt lat="42.353588664" lon="-71.104025620">
        <ele>261.620000</ele>
        <time>2017-04-30T21:42:43Z</time>
      </trkpt>
      <trkpt lat="42.353584728" lon="-71.104324892">
        <ele>261.140000</ele>
        <time>2017-04-30T21:42:59Z</time>
      </trkpt>
      <trkpt lat="42.353549383" lon="-71.104462453">
        <ele>260.170000</ele>
        <time>2017-04-30T21:43:12Z</time>
      </trkpt>
      <trkpt lat="42.353549048" lon="-71.104506280">
        <ele>260.650000</ele>
        <time>2017-04-30T21:43:23Z</time>
      </trkpt>
      <trkpt lat="42.353501308" lon="-71.104602519">
        <ele>256.330000</ele>
        <time>2017-04-30T21:43:37Z</time>
      </trkpt>
      <trkpt lat="42.353457086" lon="-71.104741690">
        <ele>255.850000</ele>
        <time>2017-04-30T21:43:54Z</time>
      </trkpt>
      <trkpt lat="42.353449213" lon="-71.104754301">
        <ele>255.850000</ele>
        <time>2017-04-30T21:43:55Z</time>
      </trkpt>
      <trkpt lat="42.353397285" lon="-71.104778003">
        <ele>254.890000</ele>
        <time>2017-04-30T21:44:00Z</time>
      </trkpt>
      <trkpt lat="42.353375425" lon="-71.104783638">
        <ele>254.890000</ele>
        <time>2017-04-30T21:44:02Z</time>
      </trkpt>
      <trkpt lat="42.353307248" lon="-71.104763782">
        <ele>255.370000</ele>
        <time>2017-04-30T21:44:07Z</time>
      </trkpt>
      <trkpt lat="42.353249709" lon="-71.104821203">
        <ele>249.600000</ele>
        <time>2017-04-30T21:44:22Z</time>
      </trkpt>
      <trkpt lat="42.353261434" lon="-71.104800453">
        <ele>248.640000</ele>
        <time>2017-04-30T21:44:32Z</time>
      </trkpt>
      <trkpt lat="42.353319895" lon="-71.104752601">
        <ele>249.120000</ele>
        <time>2017-04-30T21:44:38Z</time>
      </trkpt>
      <trkpt lat="42.353370986" lon="-71.104791240">
        <ele>248.640000</ele>
        <time>2017-04-30T21:44:45Z</time>
      </trkpt>
      <trkpt lat="42.353367719" lon="-71.104904294">
        <ele>251.520000</ele>
        <time>2017-04-30T21:44:57Z</time>
      </trkpt>
      <trkpt lat="42.353372075" lon="-71.105025756">
        <ele>251.520000</ele>
        <time>2017-04-30T21:45:08Z</time>
      </trkpt>
      <trkpt lat="42.353384721" lon="-71.105052409">
        <ele>252.480000</ele>
        <time>2017-04-30T21:45:15Z</time>
      </trkpt>
      <trkpt lat="42.353381874" lon="-71.105240505">
        <ele>254.410000</ele>
        <time>2017-04-30T21:45:30Z</time>
      </trkpt>
      <trkpt lat="42.353376011" lon="-71.105345509">
        <ele>252.480000</ele>
        <time>2017-04-30T21:45:41Z</time>
      </trkpt>
      <trkpt lat="42.353372828" lon="-71.105366707">
        <ele>250.560000</ele>
        <time>2017-04-30T21:45:54Z</time>
      </trkpt>
      <trkpt lat="42.353410685" lon="-71.105457222">
        <ele>250.560000</ele>
        <time>2017-04-30T21:46:03Z</time>
      </trkpt>
      <trkpt lat="42.353460268" lon="-71.105472248">
        <ele>253.440000</ele>
        <time>2017-04-30T21:46:07Z</time>
      </trkpt>
      <trkpt lat="42.353469314" lon="-71.105545411">
        <ele>257.290000</ele>
        <time>2017-04-30T21:46:12Z</time>
      </trkpt>
      <trkpt lat="42.353446784" lon="-71.105653188">
        <ele>256.810000</ele>
        <time>2017-04-30T21:46:21Z</time>
      </trkpt>
      <trkpt lat="42.353421657" lon="-71.105825095">
        <ele>252.960000</ele>
        <time>2017-04-30T21:46:35Z</time>
      </trkpt>
      <trkpt lat="42.353405493" lon="-71.105858278">
        <ele>252.000000</ele>
        <time>2017-04-30T21:46:38Z</time>
      </trkpt>
      <trkpt lat="42.353341169" lon="-71.106034925">
        <ele>246.230000</ele>
        <time>2017-04-30T21:46:54Z</time>
      </trkpt>
      <trkpt lat="42.353331453" lon="-71.106065157">
        <ele>246.720000</ele>
        <time>2017-04-30T21:46:56Z</time>
      </trkpt>
      <trkpt lat="42.353360181" lon="-71.106191448">
        <ele>249.600000</ele>
        <time>2017-04-30T21:47:06Z</time>
      </trkpt>
      <trkpt lat="42.353359427" lon="-71.106209783">
        <ele>249.600000</ele>
        <time>2017-04-30T21:47:24Z</time>
      </trkpt>
      <trkpt lat="42.353349879" lon="-71.106212467">
        <ele>252.000000</ele>
        <time>2017-04-30T21:47:39Z</time>
      </trkpt>
      <trkpt lat="42.353351219" lon="-71.106273108">
        <ele>252.960000</ele>
        <time>2017-04-30T21:48:11Z</time>
      </trkpt>
      <trkpt lat="42.353343765" lon="-71.106252715">
        <ele>256.330000</ele>
        <time>2017-04-30T21:48:36Z</time>
      </trkpt>
      <trkpt lat="42.353391757" lon="-71.106230087">
        <ele>255.370000</ele>
        <time>2017-04-30T21:48:54Z</time>
      </trkpt>
      <trkpt lat="42.353424589" lon="-71.106216581">
        <ele>254.890000</ele>
        <time>2017-04-30T21:48:59Z</time>
      </trkpt>
      <trkpt lat="42.353441340" lon="-71.106229997">
        <ele>255.370000</ele>
        <time>2017-04-30T21:49:02Z</time>
      </trkpt>
      <trkpt lat="42.353420066" lon="-71.106278295">
        <ele>256.810000</ele>
        <time>2017-04-30T21:49:12Z</time>
      </trkpt>
      <trkpt lat="42.353408340" lon="-71.106368721">
        <ele>260.170000</ele>
        <time>2017-04-30T21:49:31Z</time>
      </trkpt>
      <trkpt lat="42.353392929" lon="-71.106415320">
        <ele>261.140000</ele>
        <time>2017-04-30T21:49:35Z</time>
      </trkpt>
      <trkpt lat="42.353331621" lon="-71.106567728">
        <ele>259.210000</ele>
        <time>2017-04-30T21:49:46Z</time>
      </trkpt>
      <trkpt lat="42.353329694" lon="-71.106608335">
        <ele>258.250000</ele>
        <time>2017-04-30T21:49:49Z</time>
      </trkpt>
      <trkpt lat="42.353295104" lon="-71.106791780">
        <ele>256.330000</ele>
        <time>2017-04-30T21:50:00Z</time>
      </trkpt>
      <trkpt lat="42.353298873" lon="-71.106922722">
        <ele>256.330000</ele>
        <time>2017-04-30T21:50:09Z</time>
      </trkpt>
      <trkpt lat="42.353297784" lon="-71.107083181">
        <ele>251.040000</ele>
        <time>2017-04-30T21:50:18Z</time>
      </trkpt>
      <trkpt lat="42.353304652" lon="-71.107225661">
        <ele>248.640000</ele>
        <time>2017-04-30T21:50:30Z</time>
      </trkpt>
      <trkpt lat="42.353284132" lon="-71.107396406">
        <ele>250.080000</ele>
        <time>2017-04-30T21:50:43Z</time>
      </trkpt>
      <trkpt lat="42.353268888" lon="-71.107490766">
        <ele>250.560000</ele>
        <time>2017-04-30T21:50:48Z</time>
      </trkpt>
      <trkpt lat="42.353267800" lon="-71.107765263">
        <ele>250.560000</ele>
        <time>2017-04-30T21:51:05Z</time>
      </trkpt>
      <trkpt lat="42.353267883" lon="-71.107783330">
        <ele>250.560000</ele>
        <time>2017-04-30T21:51:06Z</time>
      </trkpt>
      <trkpt lat="42.353260764" lon="-71.107809358">
        <ele>250.560000</ele>
        <time>2017-04-30T21:51:08Z</time>
      </trkpt>
      <trkpt lat="42.353279274" lon="-71.108044679">
        <ele>248.640000</ele>
        <time>2017-04-30T21:51:23Z</time>
      </trkpt>
      <trkpt lat="42.353292507" lon="-71.108203438">
        <ele>247.680000</ele>
        <time>2017-04-30T21:51:33Z</time>
      </trkpt>
      <trkpt lat="42.353291754" lon="-71.108280179">
        <ele>247.200000</ele>
        <time>2017-04-30T21:51:38Z</time>
      </trkpt>
      <trkpt lat="42.353333547" lon="-71.108371230">
        <ele>245.270000</ele>
        <time>2017-04-30T21:51:52Z</time>
      </trkpt>
      <trkpt lat="42.353339075" lon="-71.108379369">
        <ele>245.750000</ele>
        <time>2017-04-30T21:51:54Z</time>
      </trkpt>
      <trkpt lat="42.353337567" lon="-71.108425074">
        <ele>245.270000</ele>
        <time>2017-04-30T21:51:57Z</time>
      </trkpt>
      <trkpt lat="42.353332458" lon="-71.108495285">
        <ele>244.310000</ele>
        <time>2017-04-30T21:52:02Z</time>
      </trkpt>
      <trkpt lat="42.353390668" lon="-71.108653866">
        <ele>244.790000</ele>
        <time>2017-04-30T21:52:16Z</time>
      </trkpt>
      <trkpt lat="42.353414370" lon="-71.108689732">
        <ele>244.790000</ele>
        <time>2017-04-30T21:52:21Z</time>
      </trkpt>
      <trkpt lat="42.353454070" lon="-71.108776669">
        <ele>243.350000</ele>
        <time>2017-04-30T21:52:35Z</time>
      </trkpt>
      <trkpt lat="42.353447956" lon="-71.108789280">
        <ele>242.870000</ele>
        <time>2017-04-30T21:52:38Z</time>
      </trkpt>
      <trkpt lat="42.353401891" lon="-71.108897683">
        <ele>240.470000</ele>
        <time>2017-04-30T21:52:51Z</time>
      </trkpt>
      <trkpt lat="42.353371069" lon="-71.108987572">
        <ele>240.470000</ele>
        <time>2017-04-30T21:53:09Z</time>
      </trkpt>
      <trkpt lat="42.353364955" lon="-71.108970846">
        <ele>241.430000</ele>
        <time>2017-04-30T21:53:33Z</time>
      </trkpt>
      <trkpt lat="42.353377435" lon="-71.108966642">
        <ele>242.870000</ele>
        <time>2017-04-30T21:53:57Z</time>
      </trkpt>
      <trkpt lat="42.353354067" lon="-71.108982474">
        <ele>246.720000</ele>
        <time>2017-04-30T21:54:18Z</time>
      </trkpt>
      <trkpt lat="42.353414957" lon="-71.108992938">
        <ele>244.310000</ele>
        <time>2017-04-30T21:54:36Z</time>
      </trkpt>
      <trkpt lat="42.353461190" lon="-71.108996158">
        <ele>240.470000</ele>
        <time>2017-04-30T21:54:51Z</time>
      </trkpt>
      <trkpt lat="42.353516216" lon="-71.109046603">
        <ele>235.180000</ele>
        <time>2017-04-30T21:55:03Z</time>
      </trkpt>
      <trkpt lat="42.353498879" lon="-71.109088015">
        <ele>233.260000</ele>
        <time>2017-04-30T21:55:21Z</time>
      </trkpt>
      <trkpt lat="42.353557424" lon="-71.109057962">
        <ele>229.410000</ele>
        <time>2017-04-30T21:55:32Z</time>
      </trkpt>
      <trkpt lat="42.353670995" lon="-71.109079607">
        <ele>229.890000</ele>
        <time>2017-04-30T21:55:40Z</time>
      </trkpt>
      <trkpt lat="42.353696206" lon="-71.109080233">
        <ele>230.850000</ele>
        <time>2017-04-30T21:55:43Z</time>
      </trkpt>
      <trkpt lat="42.353755085" lon="-71.109088373">
        <ele>231.810000</ele>
        <time>2017-04-30T21:55:49Z</time>
      </trkpt>
      <trkpt lat="42.353852995" lon="-71.109105009">
        <ele>227.010000</ele>
        <time>2017-04-30T21:56:03Z</time>
      </trkpt>
      <trkpt lat="42.353847216" lon="-71.109086226">
        <ele>226.530000</ele>
        <time>2017-04-30T21:56:11Z</time>
      </trkpt>
      <trkpt lat="42.353893867" lon="-71.109068069">
        <ele>227.010000</ele>
        <time>2017-04-30T21:56:16Z</time>
      </trkpt>
      <trkpt lat="42.353924019" lon="-71.109114490">
        <ele>225.090000</ele>
        <time>2017-04-30T21:56:28Z</time>
      </trkpt>
      <trkpt lat="42.353951239" lon="-71.109127369">
        <ele>223.640000</ele>
        <time>2017-04-30T21:56:39Z</time>
      </trkpt>
      <trkpt lat="42.353955427" lon="-71.109201606">
        <ele>221.240000</ele>
        <time>2017-04-30T21:56:49Z</time>
      </trkpt>
      <trkpt lat="42.353952412" lon="-71.109273338">
        <ele>216.430000</ele>
        <time>2017-04-30T21:57:03Z</time>
      </trkpt>
      <trkpt lat="42.353931222" lon="-71.109290868">
        <ele>214.990000</ele>
        <time>2017-04-30T21:57:13Z</time>
      </trkpt>
      <trkpt lat="42.353887669" lon="-71.109293462">
        <ele>210.670000</ele>
        <time>2017-04-30T21:57:25Z</time>
      </trkpt>
      <trkpt lat="42.353850482" lon="-71.109239439">
        <ele>209.700000</ele>
        <time>2017-04-30T21:57:46Z</time>
      </trkpt>
      <trkpt lat="42.353824853" lon="-71.109231479">
        <ele>208.740000</ele>
        <time>2017-04-30T21:57:58Z</time>
      </trkpt>
      <trkpt lat="42.353817985" lon="-71.109245343">
        <ele>205.860000</ele>
        <time>2017-04-30T21:58:14Z</time>
      </trkpt>
      <trkpt lat="42.353789257" lon="-71.109260458">
        <ele>205.860000</ele>
        <time>2017-04-30T21:58:31Z</time>
      </trkpt>
      <trkpt lat="42.353736743" lon="-71.109218689">
        <ele>208.260000</ele>
        <time>2017-04-30T21:58:50Z</time>
      </trkpt>
      <trkpt lat="42.353587576" lon="-71.109185416">
        <ele>215.950000</ele>
        <time>2017-04-30T21:59:11Z</time>
      </trkpt>
      <trkpt lat="42.353622083" lon="-71.109229064">
        <ele>221.720000</ele>
        <time>2017-04-30T21:59:31Z</time>
      </trkpt>
      <trkpt lat="42.353608682" lon="-71.109253392">
        <ele>219.800000</ele>
        <time>2017-04-30T21:59:42Z</time>
      </trkpt>
      <trkpt lat="42.353612702" lon="-71.109263052">
        <ele>219.320000</ele>
        <time>2017-04-30T21:59:43Z</time>
      </trkpt>
      <trkpt lat="42.353572919" lon="-71.109342744">
        <ele>221.240000</ele>
        <time>2017-04-30T21:59:54Z</time>
      </trkpt>
      <trkpt lat="42.353593522" lon="-71.109443098">
        <ele>222.200000</ele>
        <time>2017-04-30T22:00:07Z</time>
      </trkpt>
      <trkpt lat="42.353683559" lon="-71.109626811">
        <ele>226.050000</ele>
        <time>2017-04-30T22:00:19Z</time>
      </trkpt>
      <trkpt lat="42.353686825" lon="-71.109669117">
        <ele>226.050000</ele>
        <time>2017-04-30T22:00:23Z</time>
      </trkpt>
      <trkpt lat="42.353661280" lon="-71.109783334">
        <ele>222.680000</ele>
        <time>2017-04-30T22:00:35Z</time>
      </trkpt>
      <trkpt lat="42.353654915" lon="-71.109930197">
        <ele>219.320000</ele>
        <time>2017-04-30T22:00:48Z</time>
      </trkpt>
      <trkpt lat="42.353585147" lon="-71.110012394">
        <ele>217.400000</ele>
        <time>2017-04-30T22:00:59Z</time>
      </trkpt>
      <trkpt lat="42.353571579" lon="-71.110040568">
        <ele>216.910000</ele>
        <time>2017-04-30T22:01:20Z</time>
      </trkpt>
      <trkpt lat="42.353504575" lon="-71.110128937">
        <ele>214.990000</ele>
        <time>2017-04-30T22:01:32Z</time>
      </trkpt>
      <trkpt lat="42.353508512" lon="-71.110181439">
        <ele>215.950000</ele>
        <time>2017-04-30T22:01:45Z</time>
      </trkpt>
      <trkpt lat="42.353556503" lon="-71.110300754">
        <ele>220.280000</ele>
        <time>2017-04-30T22:01:59Z</time>
      </trkpt>
      <trkpt lat="42.353573170" lon="-71.110383129">
        <ele>224.610000</ele>
        <time>2017-04-30T22:02:13Z</time>
      </trkpt>
      <trkpt lat="42.353516552" lon="-71.110427135">
        <ele>226.530000</ele>
        <time>2017-04-30T22:02:40Z</time>
      </trkpt>
      <trkpt lat="42.353517557" lon="-71.110420426">
        <ele>227.490000</ele>
        <time>2017-04-30T22:03:01Z</time>
      </trkpt>
      <trkpt lat="42.353462614" lon="-71.110496631">
        <ele>227.490000</ele>
        <time>2017-04-30T22:03:13Z</time>
      </trkpt>
      <trkpt lat="42.353436315" lon="-71.110516040">
        <ele>228.450000</ele>
        <time>2017-04-30T22:03:24Z</time>
      </trkpt>
      <trkpt lat="42.353450972" lon="-71.110526952">
        <ele>228.450000</ele>
        <time>2017-04-30T22:03:36Z</time>
      </trkpt>
      <trkpt lat="42.353457923" lon="-71.110513267">
        <ele>228.450000</ele>
        <time>2017-04-30T22:03:53Z</time>
      </trkpt>
      <trkpt lat="42.353436063" lon="-71.110491801">
        <ele>228.450000</ele>
        <time>2017-04-30T22:04:05Z</time>
      </trkpt>
      <trkpt lat="42.353421490" lon="-71.110470245">
        <ele>229.410000</ele>
        <time>2017-04-30T22:04:24Z</time>
      </trkpt>
      <trkpt lat="42.353457170" lon="-71.110419532">
        <ele>227.010000</ele>
        <time>2017-04-30T22:04:30Z</time>
      </trkpt>
      <trkpt lat="42.353578028" lon="-71.110400123">
        <ele>227.490000</ele>
        <time>2017-04-30T22:04:43Z</time>
      </trkpt>
      <trkpt lat="42.353635651" lon="-71.110408262">
        <ele>228.450000</ele>
        <time>2017-04-30T22:04:55Z</time>
      </trkpt>
      <trkpt lat="42.353692102" lon="-71.110398334">
        <ele>227.970000</ele>
        <time>2017-04-30T22:05:07Z</time>
      </trkpt>
      <trkpt lat="42.353756091" lon="-71.110449674">
        <ele>226.050000</ele>
        <time>2017-04-30T22:05:21Z</time>
      </trkpt>
      <trkpt lat="42.353829125" lon="-71.110498062">
        <ele>230.850000</ele>
        <time>2017-04-30T22:05:35Z</time>
      </trkpt>
      <trkpt lat="42.353886916" lon="-71.110555841">
        <ele>232.780000</ele>
        <time>2017-04-30T22:05:54Z</time>
      </trkpt>
      <trkpt lat="42.353911456" lon="-71.110546718">
        <ele>233.260000</ele>
        <time>2017-04-30T22:05:58Z</time>
      </trkpt>
      <trkpt lat="42.353903164" lon="-71.110587951">
        <ele>233.260000</ele>
        <time>2017-04-30T22:06:05Z</time>
      </trkpt>
      <trkpt lat="42.353980135" lon="-71.110626769">
        <ele>233.740000</ele>
        <time>2017-04-30T22:06:17Z</time>
      </trkpt>
      <trkpt lat="42.353994122" lon="-71.110633745">
        <ele>232.300000</ele>
        <time>2017-04-30T22:06:27Z</time>
      </trkpt>
      <trkpt lat="42.353982480" lon="-71.110663350">
        <ele>232.300000</ele>
        <time>2017-04-30T22:06:43Z</time>
      </trkpt>
      <trkpt lat="42.353991861" lon="-71.110680076">
        <ele>232.780000</ele>
        <time>2017-04-30T22:06:59Z</time>
      </trkpt>
      <trkpt lat="42.353997640" lon="-71.110681239">
        <ele>232.780000</ele>
        <time>2017-04-30T22:07:01Z</time>
      </trkpt>
      <trkpt lat="42.353992782" lon="-71.110719251">
        <ele>234.220000</ele>
        <time>2017-04-30T22:07:12Z</time>
      </trkpt>
      <trkpt lat="42.354013134" lon="-71.110722292">
        <ele>237.100000</ele>
        <time>2017-04-30T22:07:20Z</time>
      </trkpt>
      <trkpt lat="42.353962714" lon="-71.110765314">
        <ele>235.660000</ele>
        <time>2017-04-30T22:07:25Z</time>
      </trkpt>
      <trkpt lat="42.353882560" lon="-71.110915666">
        <ele>233.740000</ele>
        <time>2017-04-30T22:07:36Z</time>
      </trkpt>
      <trkpt lat="42.353841018" lon="-71.111014499">
        <ele>233.260000</ele>
        <time>2017-04-30T22:07:43Z</time>
      </trkpt>
      <trkpt lat="42.353837500" lon="-71.111088824">
        <ele>234.700000</ele>
        <time>2017-04-30T22:07:58Z</time>
      </trkpt>
      <trkpt lat="42.353834150" lon="-71.111073172">
        <ele>237.100000</ele>
        <time>2017-04-30T22:08:23Z</time>
      </trkpt>
      <trkpt lat="42.353988259" lon="-71.111249105">
        <ele>239.510000</ele>
        <time>2017-04-30T22:08:38Z</time>
      </trkpt>
      <trkpt lat="42.354095968" lon="-71.111379779">
        <ele>240.950000</ele>
        <time>2017-04-30T22:08:50Z</time>
      </trkpt>
      <trkpt lat="42.354191448" lon="-71.111567160">
        <ele>240.950000</ele>
        <time>2017-04-30T22:09:04Z</time>
      </trkpt>
      <trkpt lat="42.354310715" lon="-71.111720106">
        <ele>242.870000</ele>
        <time>2017-04-30T22:09:18Z</time>
      </trkpt>
      <trkpt lat="42.354436850" lon="-71.111791927">
        <ele>244.790000</ele>
        <time>2017-04-30T22:09:32Z</time>
      </trkpt>
      <trkpt lat="42.354485344" lon="-71.111837275">
        <ele>247.200000</ele>
        <time>2017-04-30T22:09:47Z</time>
      </trkpt>
      <trkpt lat="42.354516166" lon="-71.111855878">
        <ele>247.200000</ele>
        <time>2017-04-30T22:09:53Z</time>
      </trkpt>
      <trkpt lat="42.354575297" lon="-71.111882443">
        <ele>247.680000</ele>
        <time>2017-04-30T22:10:03Z</time>
      </trkpt>
      <trkpt lat="42.354594895" lon="-71.111928505">
        <ele>248.160000</ele>
        <time>2017-04-30T22:10:07Z</time>
      </trkpt>
      <trkpt lat="42.354690711" lon="-71.112108820">
        <ele>249.600000</ele>
        <time>2017-04-30T22:10:23Z</time>
      </trkpt>
      <trkpt lat="42.354758720" lon="-71.112255148">
        <ele>252.960000</ele>
        <time>2017-04-30T22:10:38Z</time>
      </trkpt>
      <trkpt lat="42.354763410" lon="-71.112259173">
        <ele>253.440000</ele>
        <time>2017-04-30T22:10:39Z</time>
      </trkpt>
      <trkpt lat="42.354793478" lon="-71.112281265">
        <ele>254.410000</ele>
        <time>2017-04-30T22:10:43Z</time>
      </trkpt>
      <trkpt lat="42.354854116" lon="-71.112414622">
        <ele>258.250000</ele>
        <time>2017-04-30T22:10:58Z</time>
      </trkpt>
      <trkpt lat="42.354881671" lon="-71.112497267">
        <ele>260.650000</ele>
        <time>2017-04-30T22:11:10Z</time>
      </trkpt>
      <trkpt lat="42.354908892" lon="-71.112574902">
        <ele>263.060000</ele>
        <time>2017-04-30T22:11:22Z</time>
      </trkpt>
      <trkpt lat="42.354912409" lon="-71.112584025">
        <ele>264.500000</ele>
        <time>2017-04-30T22:11:36Z</time>
      </trkpt>
      <trkpt lat="42.354951690" lon="-71.112613541">
        <ele>266.900000</ele>
        <time>2017-04-30T22:11:57Z</time>
      </trkpt>
      <trkpt lat="42.354964086" lon="-71.112632234">
        <ele>267.380000</ele>
        <time>2017-04-30T22:12:01Z</time>
      </trkpt>
      <trkpt lat="42.354984522" lon="-71.112668906">
        <ele>268.830000</ele>
        <time>2017-04-30T22:12:13Z</time>
      </trkpt>
      <trkpt lat="42.355014088" lon="-71.112717830">
        <ele>270.270000</ele>
        <time>2017-04-30T22:12:25Z</time>
      </trkpt>
      <trkpt lat="42.355058896" lon="-71.112755843">
        <ele>272.670000</ele>
        <time>2017-04-30T22:12:32Z</time>
      </trkpt>
      <trkpt lat="42.355103035" lon="-71.112832584">
        <ele>276.520000</ele>
        <time>2017-04-30T22:12:42Z</time>
      </trkpt>
      <trkpt lat="42.355144410" lon="-71.112947338">
        <ele>280.840000</ele>
        <time>2017-04-30T22:12:56Z</time>
      </trkpt>
      <trkpt lat="42.355195584" lon="-71.113002792">
        <ele>284.690000</ele>
        <time>2017-04-30T22:13:09Z</time>
      </trkpt>
      <trkpt lat="42.355183439" lon="-71.113000199">
        <ele>284.690000</ele>
        <time>2017-04-30T22:13:26Z</time>
      </trkpt>
      <trkpt lat="42.355175650" lon="-71.112988571">
        <ele>281.800000</ele>
        <time>2017-04-30T22:13:54Z</time>
      </trkpt>
      <trkpt lat="42.355182686" lon="-71.112990896">
        <ele>284.210000</ele>
        <time>2017-04-30T22:14:25Z</time>
      </trkpt>
      <trkpt lat="42.355185031" lon="-71.112994206">
        <ele>284.690000</ele>
        <time>2017-04-30T22:14:52Z</time>
      </trkpt>
      <trkpt lat="42.355185868" lon="-71.112998320">
        <ele>284.690000</ele>
        <time>2017-04-30T22:15:13Z</time>
      </trkpt>
      <trkpt lat="42.355188297" lon="-71.113025332">
        <ele>284.210000</ele>
        <time>2017-04-30T22:15:36Z</time>
      </trkpt>
      <trkpt lat="42.355249941" lon="-71.113097243">
        <ele>286.610000</ele>
        <time>2017-04-30T22:15:48Z</time>
      </trkpt>
      <trkpt lat="42.355306894" lon="-71.113203142">
        <ele>290.460000</ele>
        <time>2017-04-30T22:16:01Z</time>
      </trkpt>
      <trkpt lat="42.355356811" lon="-71.113289990">
        <ele>294.300000</ele>
        <time>2017-04-30T22:16:14Z</time>
      </trkpt>
      <trkpt lat="42.355428338" lon="-71.113317717">
        <ele>298.150000</ele>
        <time>2017-04-30T22:16:26Z</time>
      </trkpt>
      <trkpt lat="42.355502042" lon="-71.113416104">
        <ele>301.030000</ele>
        <time>2017-04-30T22:16:39Z</time>
      </trkpt>
      <trkpt lat="42.355579180" lon="-71.113533183">
        <ele>297.670000</ele>
        <time>2017-04-30T22:16:54Z</time>
      </trkpt>
      <trkpt lat="42.355614441" lon="-71.113591052">
        <ele>294.300000</ele>
        <time>2017-04-30T22:17:04Z</time>
      </trkpt>
      <trkpt lat="42.355642164" lon="-71.113601785">
        <ele>292.380000</ele>
        <time>2017-04-30T22:17:07Z</time>
      </trkpt>
      <trkpt lat="42.355725081" lon="-71.113698472">
        <ele>288.530000</ele>
        <time>2017-04-30T22:17:20Z</time>
      </trkpt>
      <trkpt lat="42.355767461" lon="-71.113786573">
        <ele>283.730000</ele>
        <time>2017-04-30T22:17:31Z</time>
      </trkpt>
      <trkpt lat="42.355781448" lon="-71.113820650">
        <ele>281.320000</ele>
        <time>2017-04-30T22:17:35Z</time>
      </trkpt>
      <trkpt lat="42.355799706" lon="-71.113843368">
        <ele>279.400000</ele>
        <time>2017-04-30T22:17:40Z</time>
      </trkpt>
      <trkpt lat="42.355837815" lon="-71.113894887">
        <ele>276.520000</ele>
        <time>2017-04-30T22:17:45Z</time>
      </trkpt>
      <trkpt lat="42.355871484" lon="-71.113971986">
        <ele>273.150000</ele>
        <time>2017-04-30T22:17:55Z</time>
      </trkpt>
      <trkpt lat="42.355850880" lon="-71.114023684">
        <ele>273.630000</ele>
        <time>2017-04-30T22:18:12Z</time>
      </trkpt>
      <trkpt lat="42.355708916" lon="-71.114121623">
        <ele>268.350000</ele>
        <time>2017-04-30T22:18:26Z</time>
      </trkpt>
      <trkpt lat="42.355692165" lon="-71.114139422">
        <ele>267.860000</ele>
        <time>2017-04-30T22:18:28Z</time>
      </trkpt>
      <trkpt lat="42.355686889" lon="-71.114199616">
        <ele>267.380000</ele>
        <time>2017-04-30T22:18:32Z</time>
      </trkpt>
      <trkpt lat="42.355671561" lon="-71.114243979">
        <ele>266.420000</ele>
        <time>2017-04-30T22:18:36Z</time>
      </trkpt>
      <trkpt lat="42.355688647" lon="-71.114272511">
        <ele>266.420000</ele>
        <time>2017-04-30T22:18:39Z</time>
      </trkpt>
      <trkpt lat="42.355693840" lon="-71.114313655">
        <ele>265.940000</ele>
        <time>2017-04-30T22:18:42Z</time>
      </trkpt>
      <trkpt lat="42.355732451" lon="-71.114362758">
        <ele>265.460000</ele>
        <time>2017-04-30T22:18:47Z</time>
      </trkpt>
      <trkpt lat="42.355730273" lon="-71.114426083">
        <ele>264.980000</ele>
        <time>2017-04-30T22:18:51Z</time>
      </trkpt>
      <trkpt lat="42.355741915" lon="-71.114496206">
        <ele>264.980000</ele>
        <time>2017-04-30T22:18:55Z</time>
      </trkpt>
      <trkpt lat="42.355733372" lon="-71.114568385">
        <ele>264.500000</ele>
        <time>2017-04-30T22:19:00Z</time>
      </trkpt>
      <trkpt lat="42.355740659" lon="-71.114616147">
        <ele>264.500000</ele>
        <time>2017-04-30T22:19:03Z</time>
      </trkpt>
      <trkpt lat="42.355774412" lon="-71.114632605">
        <ele>264.020000</ele>
        <time>2017-04-30T22:19:06Z</time>
      </trkpt>
      <trkpt lat="42.355851215" lon="-71.114690653">
        <ele>264.980000</ele>
        <time>2017-04-30T22:19:15Z</time>
      </trkpt>
      <trkpt lat="42.355944937" lon="-71.114715249">
        <ele>268.350000</ele>
        <time>2017-04-30T22:19:27Z</time>
      </trkpt>
      <trkpt lat="42.356022661" lon="-71.114732780">
        <ele>273.630000</ele>
        <time>2017-04-30T22:19:42Z</time>
      </trkpt>
      <trkpt lat="42.356078861" lon="-71.114697629">
        <ele>276.520000</ele>
        <time>2017-04-30T22:19:52Z</time>
      </trkpt>
      <trkpt lat="42.356127271" lon="-71.114691458">
        <ele>280.360000</ele>
        <time>2017-04-30T22:20:05Z</time>
      </trkpt>
      <trkpt lat="42.356187575" lon="-71.114660332">
        <ele>284.210000</ele>
        <time>2017-04-30T22:20:17Z</time>
      </trkpt>
      <trkpt lat="42.356176017" lon="-71.114667398">
        <ele>281.320000</ele>
        <time>2017-04-30T22:20:43Z</time>
      </trkpt>
      <trkpt lat="42.356175933" lon="-71.114671601">
        <ele>281.800000</ele>
        <time>2017-04-30T22:20:58Z</time>
      </trkpt>
      <trkpt lat="42.356194275" lon="-71.114659884">
        <ele>284.210000</ele>
        <time>2017-04-30T22:21:30Z</time>
      </trkpt>
      <trkpt lat="42.356271832" lon="-71.114709793">
        <ele>285.170000</ele>
        <time>2017-04-30T22:21:44Z</time>
      </trkpt>
      <trkpt lat="42.356305502" lon="-71.114742082">
        <ele>286.130000</ele>
        <time>2017-04-30T22:21:56Z</time>
      </trkpt>
      <trkpt lat="42.356325016" lon="-71.114774192">
        <ele>285.650000</ele>
        <time>2017-04-30T22:21:59Z</time>
      </trkpt>
      <trkpt lat="42.356388837" lon="-71.114813546">
        <ele>286.130000</ele>
        <time>2017-04-30T22:22:06Z</time>
      </trkpt>
      <trkpt lat="42.356437248" lon="-71.114875530">
        <ele>286.130000</ele>
        <time>2017-04-30T22:22:14Z</time>
      </trkpt>
      <trkpt lat="42.356515726" lon="-71.114954418">
        <ele>288.530000</ele>
        <time>2017-04-30T22:22:27Z</time>
      </trkpt>
      <trkpt lat="42.356542695" lon="-71.115000928">
        <ele>291.900000</ele>
        <time>2017-04-30T22:22:37Z</time>
      </trkpt>
      <trkpt lat="42.356582562" lon="-71.115053341">
        <ele>293.820000</ele>
        <time>2017-04-30T22:22:50Z</time>
      </trkpt>
      <trkpt lat="42.356618493" lon="-71.115073644">
        <ele>297.180000</ele>
        <time>2017-04-30T22:22:58Z</time>
      </trkpt>
      <trkpt lat="42.356677791" lon="-71.115081068">
        <ele>301.030000</ele>
        <time>2017-04-30T22:23:11Z</time>
      </trkpt>
      <trkpt lat="42.356693705" lon="-71.115092696">
        <ele>304.390000</ele>
        <time>2017-04-30T22:23:32Z</time>
      </trkpt>
      <trkpt lat="42.356771513" lon="-71.115087866">
        <ele>307.280000</ele>
        <time>2017-04-30T22:23:43Z</time>
      </trkpt>
      <trkpt lat="42.356809035" lon="-71.115069530">
        <ele>307.280000</ele>
        <time>2017-04-30T22:23:49Z</time>
      </trkpt>
      <trkpt lat="42.356850578" lon="-71.115049495">
        <ele>307.760000</ele>
        <time>2017-04-30T22:23:55Z</time>
      </trkpt>
      <trkpt lat="42.356945221" lon="-71.115012913">
        <ele>309.200000</ele>
        <time>2017-04-30T22:24:07Z</time>
      </trkpt>
      <trkpt lat="42.356959543" lon="-71.115003790">
        <ele>310.160000</ele>
        <time>2017-04-30T22:24:21Z</time>
      </trkpt>
      <trkpt lat="42.356993212" lon="-71.115000123">
        <ele>308.720000</ele>
        <time>2017-04-30T22:24:38Z</time>
      </trkpt>
      <trkpt lat="42.357033749" lon="-71.115017385">
        <ele>308.240000</ele>
        <time>2017-04-30T22:24:43Z</time>
      </trkpt>
      <trkpt lat="42.357078307" lon="-71.115059960">
        <ele>306.800000</ele>
        <time>2017-04-30T22:24:49Z</time>
      </trkpt>
      <trkpt lat="42.357146734" lon="-71.115146987">
        <ele>307.280000</ele>
        <time>2017-04-30T22:25:00Z</time>
      </trkpt>
      <trkpt lat="42.357179483" lon="-71.115194302">
        <ele>307.760000</ele>
        <time>2017-04-30T22:25:06Z</time>
      </trkpt>
      <trkpt lat="42.357238278" lon="-71.115247968">
        <ele>308.240000</ele>
        <time>2017-04-30T22:25:14Z</time>
      </trkpt>
      <trkpt lat="42.357250674" lon="-71.115270418">
        <ele>308.240000</ele>
        <time>2017-04-30T22:25:16Z</time>
      </trkpt>
      <trkpt lat="42.357264829" lon="-71.115286338">
        <ele>308.240000</ele>
        <time>2017-04-30T22:25:18Z</time>
      </trkpt>
      <trkpt lat="42.357329822" lon="-71.115389466">
        <ele>307.280000</ele>
        <time>2017-04-30T22:25:27Z</time>
      </trkpt>
      <trkpt lat="42.357378986" lon="-71.115498048">
        <ele>305.360000</ele>
        <time>2017-04-30T22:25:38Z</time>
      </trkpt>
      <trkpt lat="42.357436023" lon="-71.115520499">
        <ele>304.390000</ele>
        <time>2017-04-30T22:25:50Z</time>
      </trkpt>
      <trkpt lat="42.357510481" lon="-71.115576579">
        <ele>305.840000</ele>
        <time>2017-04-30T22:26:02Z</time>
      </trkpt>
      <trkpt lat="42.357578909" lon="-71.115596078">
        <ele>309.200000</ele>
        <time>2017-04-30T22:26:14Z</time>
      </trkpt>
      <trkpt lat="42.357578574" lon="-71.115605558">
        <ele>310.160000</ele>
        <time>2017-04-30T22:26:28Z</time>
      </trkpt>
      <trkpt lat="42.357595576" lon="-71.115602517">
        <ele>311.120000</ele>
        <time>2017-04-30T22:26:45Z</time>
      </trkpt>
      <trkpt lat="42.357662831" lon="-71.115625057">
        <ele>313.530000</ele>
        <time>2017-04-30T22:26:56Z</time>
      </trkpt>
      <trkpt lat="42.357766939" lon="-71.115607347">
        <ele>316.890000</ele>
        <time>2017-04-30T22:27:08Z</time>
      </trkpt>
      <trkpt lat="42.357853792" lon="-71.115591427">
        <ele>317.850000</ele>
        <time>2017-04-30T22:27:16Z</time>
      </trkpt>
      <trkpt lat="42.357888216" lon="-71.115575148">
        <ele>318.330000</ele>
        <time>2017-04-30T22:27:20Z</time>
      </trkpt>
      <trkpt lat="42.358012340" lon="-71.115517636">
        <ele>319.300000</ele>
        <time>2017-04-30T22:27:33Z</time>
      </trkpt>
      <trkpt lat="42.358058573" lon="-71.115551267">
        <ele>318.330000</ele>
        <time>2017-04-30T22:27:45Z</time>
      </trkpt>
      <trkpt lat="42.358118541" lon="-71.115524523">
        <ele>317.370000</ele>
        <time>2017-04-30T22:27:56Z</time>
      </trkpt>
      <trkpt lat="42.358134957" lon="-71.115511107">
        <ele>315.930000</ele>
        <time>2017-04-30T22:28:14Z</time>
      </trkpt>
      <trkpt lat="42.358129932" lon="-71.115514595">
        <ele>317.370000</ele>
        <time>2017-04-30T22:28:40Z</time>
      </trkpt>
      <trkpt lat="42.358128257" lon="-71.115524702">
        <ele>316.890000</ele>
        <time>2017-04-30T22:29:10Z</time>
      </trkpt>
      <trkpt lat="42.358118625" lon="-71.115516473">
        <ele>316.890000</ele>
        <time>2017-04-30T22:29:33Z</time>
      </trkpt>
      <trkpt lat="42.358142412" lon="-71.115507619">
        <ele>319.300000</ele>
        <time>2017-04-30T22:29:52Z</time>
      </trkpt>
      <trkpt lat="42.358151290" lon="-71.115507976">
        <ele>320.260000</ele>
        <time>2017-04-30T22:30:26Z</time>
      </trkpt>
      <trkpt lat="42.358143919" lon="-71.115535972">
        <ele>319.780000</ele>
        <time>2017-04-30T22:30:46Z</time>
      </trkpt>
      <trkpt lat="42.358197690" lon="-71.115499211">
        <ele>318.330000</ele>
        <time>2017-04-30T22:30:59Z</time>
      </trkpt>
      <trkpt lat="42.358281528" lon="-71.115414956">
        <ele>317.850000</ele>
        <time>2017-04-30T22:31:11Z</time>
      </trkpt>
      <trkpt lat="42.358333875" lon="-71.115373276">
        <ele>315.930000</ele>
        <time>2017-04-30T22:31:26Z</time>
      </trkpt>
      <trkpt lat="42.358347611" lon="-71.115350557">
        <ele>315.450000</ele>
        <time>2017-04-30T22:31:33Z</time>
      </trkpt>
      <trkpt lat="42.358423493" lon="-71.115314512">
        <ele>312.570000</ele>
        <time>2017-04-30T22:31:44Z</time>
      </trkpt>
      <trkpt lat="42.358431449" lon="-71.115301632">
        <ele>312.090000</ele>
        <time>2017-04-30T22:31:47Z</time>
      </trkpt>
      <trkpt lat="42.358515958" lon="-71.115251365">
        <ele>312.090000</ele>
        <time>2017-04-30T22:31:57Z</time>
      </trkpt>
      <trkpt lat="42.358632963" lon="-71.115292062">
        <ele>314.970000</ele>
        <time>2017-04-30T22:32:11Z</time>
      </trkpt>
      <trkpt lat="42.358742096" lon="-71.115318268">
        <ele>318.810000</ele>
        <time>2017-04-30T22:32:23Z</time>
      </trkpt>
      <trkpt lat="42.358763788" lon="-71.115329270">
        <ele>318.330000</ele>
        <time>2017-04-30T22:32:25Z</time>
      </trkpt>
      <trkpt lat="42.358817643" lon="-71.115404491">
        <ele>315.930000</ele>
        <time>2017-04-30T22:32:32Z</time>
      </trkpt>
      <trkpt lat="42.358896205" lon="-71.115559675">
        <ele>310.640000</ele>
        <time>2017-04-30T22:32:44Z</time>
      </trkpt>
      <trkpt lat="42.358961031" lon="-71.115616024">
        <ele>308.240000</ele>
        <time>2017-04-30T22:32:52Z</time>
      </trkpt>
      <trkpt lat="42.359036997" lon="-71.115612356">
        <ele>305.360000</ele>
        <time>2017-04-30T22:32:59Z</time>
      </trkpt>
      <trkpt lat="42.359082224" lon="-71.115584987">
        <ele>303.430000</ele>
        <time>2017-04-30T22:33:04Z</time>
      </trkpt>
      <trkpt lat="42.359122343" lon="-71.115584808">
        <ele>302.470000</ele>
        <time>2017-04-30T22:33:08Z</time>
      </trkpt>
      <trkpt lat="42.359186164" lon="-71.115581141">
        <ele>298.630000</ele>
        <time>2017-04-30T22:33:21Z</time>
      </trkpt>
      <trkpt lat="42.359227371" lon="-71.115582035">
        <ele>297.670000</ele>
        <time>2017-04-30T22:33:33Z</time>
      </trkpt>
      <trkpt lat="42.359268411" lon="-71.115597062">
        <ele>296.700000</ele>
        <time>2017-04-30T22:33:46Z</time>
      </trkpt>
      <trkpt lat="42.359335834" lon="-71.115641694">
        <ele>295.740000</ele>
        <time>2017-04-30T22:33:55Z</time>
      </trkpt>
      <trkpt lat="42.359369001" lon="-71.115634359">
        <ele>295.260000</ele>
        <time>2017-04-30T22:33:58Z</time>
      </trkpt>
      <trkpt lat="42.359417914" lon="-71.115670137">
        <ele>291.900000</ele>
        <time>2017-04-30T22:34:04Z</time>
      </trkpt>
      <trkpt lat="42.359474616" lon="-71.115723176">
        <ele>288.050000</ele>
        <time>2017-04-30T22:34:12Z</time>
      </trkpt>
      <trkpt lat="42.359573363" lon="-71.115759759">
        <ele>286.130000</ele>
        <time>2017-04-30T22:34:21Z</time>
      </trkpt>
      <trkpt lat="42.359623867" lon="-71.115755286">
        <ele>286.610000</ele>
        <time>2017-04-30T22:34:26Z</time>
      </trkpt>
      <trkpt lat="42.359683416" lon="-71.115756539">
        <ele>285.170000</ele>
        <time>2017-04-30T22:34:41Z</time>
      </trkpt>
      <trkpt lat="42.359762146" lon="-71.115764052">
        <ele>287.570000</ele>
        <time>2017-04-30T22:34:59Z</time>
      </trkpt>
      <trkpt lat="42.359888113" lon="-71.115701173">
        <ele>285.170000</ele>
        <time>2017-04-30T22:35:12Z</time>
      </trkpt>
      <trkpt lat="42.359973208" lon="-71.115678007">
        <ele>283.730000</ele>
        <time>2017-04-30T22:35:23Z</time>
      </trkpt>
      <trkpt lat="42.360029575" lon="-71.115661371">
        <ele>279.880000</ele>
        <time>2017-04-30T22:35:36Z</time>
      </trkpt>
      <trkpt lat="42.360129160" lon="-71.115685789">
        <ele>276.040000</ele>
        <time>2017-04-30T22:35:47Z</time>
      </trkpt>
      <trkpt lat="42.360166849" lon="-71.115709402">
        <ele>275.070000</ele>
        <time>2017-04-30T22:35:52Z</time>
      </trkpt>
      <trkpt lat="42.360184940" lon="-71.115690887">
        <ele>274.110000</ele>
        <time>2017-04-30T22:35:55Z</time>
      </trkpt>
      <trkpt lat="42.360239130" lon="-71.115669958">
        <ele>273.630000</ele>
        <time>2017-04-30T22:36:01Z</time>
      </trkpt>
      <trkpt lat="42.360313337" lon="-71.115677829">
        <ele>274.590000</ele>
        <time>2017-04-30T22:36:09Z</time>
      </trkpt>
      <trkpt lat="42.360331428" lon="-71.115699116">
        <ele>274.110000</ele>
        <time>2017-04-30T22:36:11Z</time>
      </trkpt>
      <trkpt lat="42.360445334" lon="-71.115818970">
        <ele>270.750000</ele>
        <time>2017-04-30T22:36:22Z</time>
      </trkpt>
      <trkpt lat="42.360483694" lon="-71.115936856">
        <ele>265.460000</ele>
        <time>2017-04-30T22:36:33Z</time>
      </trkpt>
      <trkpt lat="42.360552959" lon="-71.115941328">
        <ele>264.020000</ele>
        <time>2017-04-30T22:36:45Z</time>
      </trkpt>
      <trkpt lat="42.360583697" lon="-71.115898306">
        <ele>268.830000</ele>
        <time>2017-04-30T22:36:56Z</time>
      </trkpt>
      <trkpt lat="42.360598270" lon="-71.115877913">
        <ele>269.790000</ele>
        <time>2017-04-30T22:37:13Z</time>
      </trkpt>
      <trkpt lat="42.360700619" lon="-71.115937929">
        <ele>269.310000</ele>
        <time>2017-04-30T22:37:24Z</time>
      </trkpt>
      <trkpt lat="42.360816033" lon="-71.116023079">
        <ele>270.270000</ele>
        <time>2017-04-30T22:37:34Z</time>
      </trkpt>
      <trkpt lat="42.360946104" lon="-71.116136940">
        <ele>273.150000</ele>
        <time>2017-04-30T22:37:48Z</time>
      </trkpt>
      <trkpt lat="42.361027430" lon="-71.116211447">
        <ele>277.000000</ele>
        <time>2017-04-30T22:37:58Z</time>
      </trkpt>
      <trkpt lat="42.361045186" lon="-71.116238906">
        <ele>277.480000</ele>
        <time>2017-04-30T22:38:01Z</time>
      </trkpt>
      <trkpt lat="42.361079358" lon="-71.116289620">
        <ele>279.400000</ele>
        <time>2017-04-30T22:38:15Z</time>
      </trkpt>
      <trkpt lat="42.361181371" lon="-71.116346506">
        <ele>278.920000</ele>
        <time>2017-04-30T22:38:27Z</time>
      </trkpt>
      <trkpt lat="42.361239078" lon="-71.116368867">
        <ele>280.840000</ele>
        <time>2017-04-30T22:38:34Z</time>
      </trkpt>
      <trkpt lat="42.361250050" lon="-71.116389170">
        <ele>281.800000</ele>
        <time>2017-04-30T22:38:36Z</time>
      </trkpt>
      <trkpt lat="42.361318394" lon="-71.116420118">
        <ele>284.690000</ele>
        <time>2017-04-30T22:38:49Z</time>
      </trkpt>
      <trkpt lat="42.361357089" lon="-71.116433534">
        <ele>286.610000</ele>
        <time>2017-04-30T22:39:02Z</time>
      </trkpt>
      <trkpt lat="42.361416555" lon="-71.116454643">
        <ele>286.610000</ele>
        <time>2017-04-30T22:39:31Z</time>
      </trkpt>
      <trkpt lat="42.361438582" lon="-71.116449723">
        <ele>286.610000</ele>
        <time>2017-04-30T22:39:34Z</time>
      </trkpt>
      <trkpt lat="42.361469152" lon="-71.116452407">
        <ele>287.090000</ele>
        <time>2017-04-30T22:39:38Z</time>
      </trkpt>
      <trkpt lat="42.361660700" lon="-71.116446593">
        <ele>289.010000</ele>
        <time>2017-04-30T22:39:54Z</time>
      </trkpt>
      <trkpt lat="42.361719580" lon="-71.116437112">
        <ele>288.530000</ele>
        <time>2017-04-30T22:39:59Z</time>
      </trkpt>
      <trkpt lat="42.361851410" lon="-71.116363589">
        <ele>287.570000</ele>
        <time>2017-04-30T22:40:13Z</time>
      </trkpt>
      <trkpt lat="42.361949570" lon="-71.116249281">
        <ele>288.050000</ele>
        <time>2017-04-30T22:40:27Z</time>
      </trkpt>
      <trkpt lat="42.361999739" lon="-71.116204201">
        <ele>289.490000</ele>
        <time>2017-04-30T22:40:33Z</time>
      </trkpt>
      <trkpt lat="42.362070345" lon="-71.116174417">
        <ele>289.010000</ele>
        <time>2017-04-30T22:40:42Z</time>
      </trkpt>
      <trkpt lat="42.362078971" lon="-71.116180856">
        <ele>289.010000</ele>
        <time>2017-04-30T22:40:43Z</time>
      </trkpt>
      <trkpt lat="42.362180399" lon="-71.116163057">
        <ele>291.900000</ele>
        <time>2017-04-30T22:40:56Z</time>
      </trkpt>
      <trkpt lat="42.362280151" lon="-71.116158943">
        <ele>292.860000</ele>
        <time>2017-04-30T22:41:06Z</time>
      </trkpt>
      <trkpt lat="42.362403940" lon="-71.116111001">
        <ele>291.900000</ele>
        <time>2017-04-30T22:41:17Z</time>
      </trkpt>
      <trkpt lat="42.362407709" lon="-71.116111180">
        <ele>293.340000</ele>
        <time>2017-04-30T22:41:33Z</time>
      </trkpt>
      <trkpt lat="42.362491799" lon="-71.116069678">
        <ele>288.530000</ele>
        <time>2017-04-30T22:41:49Z</time>
      </trkpt>
      <trkpt lat="42.362573209" lon="-71.116107870">
        <ele>285.170000</ele>
        <time>2017-04-30T22:42:00Z</time>
      </trkpt>
      <trkpt lat="42.362563493" lon="-71.116112521">
        <ele>282.280000</ele>
        <time>2017-04-30T22:42:14Z</time>
      </trkpt>
      <trkpt lat="42.362638286" lon="-71.116158406">
        <ele>280.360000</ele>
        <time>2017-04-30T22:42:28Z</time>
      </trkpt>
      <trkpt lat="42.362706881" lon="-71.116234433">
        <ele>280.840000</ele>
        <time>2017-04-30T22:42:35Z</time>
      </trkpt>
      <trkpt lat="42.362788542" lon="-71.116302410">
        <ele>282.770000</ele>
        <time>2017-04-30T22:42:42Z</time>
      </trkpt>
      <trkpt lat="42.362867439" lon="-71.116382105">
        <ele>283.730000</ele>
        <time>2017-04-30T22:42:54Z</time>
      </trkpt>
      <trkpt lat="42.362933019" lon="-71.116451692">
        <ele>284.690000</ele>
        <time>2017-04-30T22:43:06Z</time>
      </trkpt>
      <trkpt lat="42.363013591" lon="-71.116472443">
        <ele>283.730000</ele>
        <time>2017-04-30T22:43:21Z</time>
      </trkpt>
      <trkpt lat="42.363084197" lon="-71.116495072">
        <ele>283.730000</ele>
        <time>2017-04-30T22:43:32Z</time>
      </trkpt>
      <trkpt lat="42.363105470" lon="-71.116516270">
        <ele>284.210000</ele>
        <time>2017-04-30T22:43:36Z</time>
      </trkpt>
      <trkpt lat="42.363199778" lon="-71.116523962">
        <ele>286.610000</ele>
        <time>2017-04-30T22:43:49Z</time>
      </trkpt>
      <trkpt lat="42.363212425" lon="-71.116520295">
        <ele>286.610000</ele>
        <time>2017-04-30T22:43:51Z</time>
      </trkpt>
      <trkpt lat="42.363295259" lon="-71.116491226">
        <ele>289.490000</ele>
        <time>2017-04-30T22:44:03Z</time>
      </trkpt>
      <trkpt lat="42.363297939" lon="-71.116478525">
        <ele>290.460000</ele>
        <time>2017-04-30T22:44:18Z</time>
      </trkpt>
      <trkpt lat="42.363291741" lon="-71.116469759">
        <ele>285.650000</ele>
        <time>2017-04-30T22:44:37Z</time>
      </trkpt>
      <trkpt lat="42.363280686" lon="-71.116497040">
        <ele>289.010000</ele>
        <time>2017-04-30T22:44:58Z</time>
      </trkpt>
      <trkpt lat="42.363299363" lon="-71.116492746">
        <ele>289.490000</ele>
        <time>2017-04-30T22:45:14Z</time>
      </trkpt>
      <trkpt lat="42.363392666" lon="-71.116496682">
        <ele>292.380000</ele>
        <time>2017-04-30T22:45:26Z</time>
      </trkpt>
      <trkpt lat="42.363456068" lon="-71.116473516">
        <ele>295.260000</ele>
        <time>2017-04-30T22:45:35Z</time>
      </trkpt>
      <trkpt lat="42.363529354" lon="-71.116495609">
        <ele>298.150000</ele>
        <time>2017-04-30T22:45:46Z</time>
      </trkpt>
      <trkpt lat="42.363596860" lon="-71.116517612">
        <ele>300.550000</ele>
        <time>2017-04-30T22:45:55Z</time>
      </trkpt>
      <trkpt lat="42.363668303" lon="-71.116543461">
        <ele>302.470000</ele>
        <time>2017-04-30T22:46:05Z</time>
      </trkpt>
      <trkpt lat="42.363752393" lon="-71.116536663">
        <ele>302.950000</ele>
        <time>2017-04-30T22:46:20Z</time>
      </trkpt>
      <trkpt lat="42.363752142" lon="-71.116513766">
        <ele>301.990000</ele>
        <time>2017-04-30T22:46:42Z</time>
      </trkpt>
      <trkpt lat="42.363730784" lon="-71.116530313">
        <ele>304.880000</ele>
        <time>2017-04-30T22:47:05Z</time>
      </trkpt>
      <trkpt lat="42.363778022" lon="-71.116532996">
        <ele>305.360000</ele>
        <time>2017-04-30T22:47:16Z</time>
      </trkpt>
      <trkpt lat="42.363911862" lon="-71.116503301">
        <ele>302.470000</ele>
        <time>2017-04-30T22:47:28Z</time>
      </trkpt>
      <trkpt lat="42.364044949" lon="-71.116468775">
        <ele>296.220000</ele>
        <time>2017-04-30T22:47:40Z</time>
      </trkpt>
      <trkpt lat="42.364069573" lon="-71.116459026">
        <ele>292.380000</ele>
        <time>2017-04-30T22:47:56Z</time>
      </trkpt>
      <trkpt lat="42.364218991" lon="-71.116397041">
        <ele>297.670000</ele>
        <time>2017-04-30T22:48:08Z</time>
      </trkpt>
      <trkpt lat="42.364376785" lon="-71.116237741">
        <ele>295.740000</ele>
        <time>2017-04-30T22:48:23Z</time>
      </trkpt>
      <trkpt lat="42.364449066" lon="-71.116149103">
        <ele>295.260000</ele>
        <time>2017-04-30T22:48:31Z</time>
      </trkpt>
      <trkpt lat="42.364468497" lon="-71.116119765">
        <ele>295.260000</ele>
        <time>2017-04-30T22:48:34Z</time>
      </trkpt>
      <trkpt lat="42.364487593" lon="-71.116111983">
        <ele>294.780000</ele>
        <time>2017-04-30T22:48:36Z</time>
      </trkpt>
      <trkpt lat="42.364580393" lon="-71.116060821">
        <ele>290.460000</ele>
        <time>2017-04-30T22:48:48Z</time>
      </trkpt>
      <trkpt lat="42.364620009" lon="-71.116062789">
        <ele>284.690000</ele>
        <time>2017-04-30T22:48:58Z</time>
      </trkpt>
      <trkpt lat="42.364662222" lon="-71.116092753">
        <ele>283.250000</ele>
        <time>2017-04-30T22:49:02Z</time>
      </trkpt>
      <trkpt lat="42.364731319" lon="-71.116112073">
        <ele>280.840000</ele>
        <time>2017-04-30T22:49:07Z</time>
      </trkpt>
      <trkpt lat="42.364793633" lon="-71.116165471">
        <ele>277.480000</ele>
        <time>2017-04-30T22:49:14Z</time>
      </trkpt>
      <trkpt lat="42.364895060" lon="-71.116211624">
        <ele>274.110000</ele>
        <time>2017-04-30T22:49:25Z</time>
      </trkpt>
      <trkpt lat="42.364960975" lon="-71.116286668">
        <ele>278.440000</ele>
        <time>2017-04-30T23:09:19Z</time>
      </trkpt>
      <trkpt lat="42.364964912" lon="-71.116272714">
        <ele>278.440000</ele>
        <time>2017-04-30T23:09:20Z</time>
      </trkpt>
      <trkpt lat="42.365078232" lon="-71.116070034">
        <ele>280.840000</ele>
        <time>2017-04-30T23:09:38Z</time>
      </trkpt>
      <trkpt lat="42.365111817" lon="-71.116049372">
        <ele>282.770000</ele>
        <time>2017-04-30T23:09:44Z</time>
      </trkpt>
      <trkpt lat="42.365139457" lon="-71.116076026">
        <ele>283.250000</ele>
        <time>2017-04-30T23:09:48Z</time>
      </trkpt>
      <trkpt lat="42.365188286" lon="-71.116077905">
        <ele>283.250000</ele>
        <time>2017-04-30T23:09:52Z</time>
      </trkpt>
      <trkpt lat="42.365211151" lon="-71.116091858">
        <ele>282.770000</ele>
        <time>2017-04-30T23:09:55Z</time>
      </trkpt>
      <trkpt lat="42.365295575" lon="-71.116066993">
        <ele>280.360000</ele>
        <time>2017-04-30T23:10:06Z</time>
      </trkpt>
      <trkpt lat="42.365408477" lon="-71.116049998">
        <ele>279.880000</ele>
        <time>2017-04-30T23:10:19Z</time>
      </trkpt>
      <trkpt lat="42.365444073" lon="-71.116044005">
        <ele>279.880000</ele>
        <time>2017-04-30T23:10:22Z</time>
      </trkpt>
      <trkpt lat="42.365558147" lon="-71.116065651">
        <ele>280.360000</ele>
        <time>2017-04-30T23:10:35Z</time>
      </trkpt>
      <trkpt lat="42.365612085" lon="-71.116059658">
        <ele>279.400000</ele>
        <time>2017-04-30T23:10:48Z</time>
      </trkpt>
      <trkpt lat="42.365691904" lon="-71.116099193">
        <ele>281.320000</ele>
        <time>2017-04-30T23:11:02Z</time>
      </trkpt>
      <trkpt lat="42.365746177" lon="-71.116107779">
        <ele>282.770000</ele>
        <time>2017-04-30T23:11:15Z</time>
      </trkpt>
      <trkpt lat="42.365787887" lon="-71.116077458">
        <ele>285.650000</ele>
        <time>2017-04-30T23:11:29Z</time>
      </trkpt>
      <trkpt lat="42.365806229" lon="-71.116032109">
        <ele>288.050000</ele>
        <time>2017-04-30T23:11:44Z</time>
      </trkpt>
      <trkpt lat="42.365817871" lon="-71.116086670">
        <ele>288.050000</ele>
        <time>2017-04-30T23:12:09Z</time>
      </trkpt>
      <trkpt lat="42.365857068" lon="-71.116090159">
        <ele>290.940000</ele>
        <time>2017-04-30T23:12:21Z</time>
      </trkpt>
      <trkpt lat="42.365877588" lon="-71.116110820">
        <ele>294.300000</ele>
        <time>2017-04-30T23:12:28Z</time>
      </trkpt>
      <trkpt lat="42.365878258" lon="-71.116109300">
        <ele>297.180000</ele>
        <time>2017-04-30T23:12:39Z</time>
      </trkpt>
      <trkpt lat="42.365905311" lon="-71.116110820">
        <ele>298.630000</ele>
        <time>2017-04-30T23:12:58Z</time>
      </trkpt>
      <trkpt lat="42.365909498" lon="-71.116110552">
        <ele>300.550000</ele>
        <time>2017-04-30T23:13:14Z</time>
      </trkpt>
      <trkpt lat="42.365936719" lon="-71.116093647">
        <ele>299.110000</ele>
        <time>2017-04-30T23:13:34Z</time>
      </trkpt>
      <trkpt lat="42.365948612" lon="-71.116049462">
        <ele>299.110000</ele>
        <time>2017-04-30T23:13:46Z</time>
      </trkpt>
      <trkpt lat="42.365933787" lon="-71.116049909">
        <ele>301.030000</ele>
        <time>2017-04-30T23:13:58Z</time>
      </trkpt>
      <trkpt lat="42.365929767" lon="-71.116059211">
        <ele>301.990000</ele>
        <time>2017-04-30T23:14:17Z</time>
      </trkpt>
      <trkpt lat="42.365884456" lon="-71.116024775">
        <ele>302.950000</ele>
        <time>2017-04-30T23:14:42Z</time>
      </trkpt>
      <trkpt lat="42.365882194" lon="-71.116022897">
        <ele>304.390000</ele>
        <time>2017-04-30T23:15:05Z</time>
      </trkpt>
      <trkpt lat="42.365919046" lon="-71.116066635">
        <ele>305.360000</ele>
        <time>2017-04-30T23:15:25Z</time>
      </trkpt>
      <trkpt lat="42.365884707" lon="-71.116043737">
        <ele>304.390000</ele>
        <time>2017-04-30T23:15:47Z</time>
      </trkpt>
      <trkpt lat="42.365911592" lon="-71.115968246">
        <ele>300.550000</ele>
        <time>2017-04-30T23:16:10Z</time>
      </trkpt>
      <trkpt lat="42.365917958" lon="-71.115991144">
        <ele>301.510000</ele>
        <time>2017-04-30T23:16:47Z</time>
      </trkpt>
      <trkpt lat="42.365965195" lon="-71.116043916">
        <ele>301.030000</ele>
        <time>2017-04-30T23:17:20Z</time>
      </trkpt>
      <trkpt lat="42.365956233" lon="-71.116013505">
        <ele>300.550000</ele>
        <time>2017-04-30T23:17:41Z</time>
      </trkpt>
      <trkpt lat="42.365873986" lon="-71.116014847">
        <ele>299.590000</ele>
        <time>2017-04-30T23:18:01Z</time>
      </trkpt>
      <trkpt lat="42.365879346" lon="-71.115984168">
        <ele>299.110000</ele>
        <time>2017-04-30T23:18:05Z</time>
      </trkpt>
      <trkpt lat="42.365955228" lon="-71.115806978">
        <ele>296.700000</ele>
        <time>2017-04-30T23:18:23Z</time>
      </trkpt>
      <trkpt lat="42.365953553" lon="-71.115694100">
        <ele>299.590000</ele>
        <time>2017-04-30T23:18:38Z</time>
      </trkpt>
      <trkpt lat="42.365968127" lon="-71.115511723">
        <ele>297.670000</ele>
        <time>2017-04-30T23:18:55Z</time>
      </trkpt>
      <trkpt lat="42.365999534" lon="-71.115477197">
        <ele>298.630000</ele>
        <time>2017-04-30T23:19:08Z</time>
      </trkpt>
      <trkpt lat="42.366068213" lon="-71.115535157">
        <ele>301.990000</ele>
        <time>2017-04-30T23:19:23Z</time>
      </trkpt>
      <trkpt lat="42.366116624" lon="-71.115523977">
        <ele>301.510000</ele>
        <time>2017-04-30T23:19:40Z</time>
      </trkpt>
      <trkpt lat="42.366151382" lon="-71.115465749">
        <ele>303.910000</ele>
        <time>2017-04-30T23:19:55Z</time>
      </trkpt>
      <trkpt lat="42.366190747" lon="-71.115466643">
        <ele>303.910000</ele>
        <time>2017-04-30T23:20:14Z</time>
      </trkpt>
      <trkpt lat="42.366243764" lon="-71.115449559">
        <ele>305.360000</ele>
        <time>2017-04-30T23:20:41Z</time>
      </trkpt>
      <trkpt lat="42.366269895" lon="-71.115454031">
        <ele>306.320000</ele>
        <time>2017-04-30T23:20:46Z</time>
      </trkpt>
      <trkpt lat="42.366334805" lon="-71.115523709">
        <ele>310.160000</ele>
        <time>2017-04-30T23:20:58Z</time>
      </trkpt>
      <trkpt lat="42.366352728" lon="-71.115527912">
        <ele>314.490000</ele>
        <time>2017-04-30T23:21:08Z</time>
      </trkpt>
      <trkpt lat="42.366372076" lon="-71.115597411">
        <ele>320.260000</ele>
        <time>2017-04-30T23:21:29Z</time>
      </trkpt>
      <trkpt lat="42.366402060" lon="-71.115618609">
        <ele>323.620000</ele>
        <time>2017-04-30T23:21:47Z</time>
      </trkpt>
      <trkpt lat="42.366445947" lon="-71.115644995">
        <ele>328.430000</ele>
        <time>2017-04-30T23:22:05Z</time>
      </trkpt>
      <trkpt lat="42.366466132" lon="-71.115647052">
        <ele>327.950000</ele>
        <time>2017-04-30T23:22:26Z</time>
      </trkpt>
      <trkpt lat="42.366482046" lon="-71.115628627">
        <ele>325.540000</ele>
        <time>2017-04-30T23:22:51Z</time>
      </trkpt>
      <trkpt lat="42.366523756" lon="-71.115639807">
        <ele>327.950000</ele>
        <time>2017-04-30T23:23:06Z</time>
      </trkpt>
      <trkpt lat="42.366572166" lon="-71.115682293">
        <ele>331.790000</ele>
        <time>2017-04-30T23:23:25Z</time>
      </trkpt>
      <trkpt lat="42.366558430" lon="-71.115708053">
        <ele>336.600000</ele>
        <time>2017-04-30T23:23:51Z</time>
      </trkpt>
      <trkpt lat="42.366565801" lon="-71.115671650">
        <ele>341.410000</ele>
        <time>2017-04-30T23:24:15Z</time>
      </trkpt>
      <trkpt lat="42.366525431" lon="-71.115648752">
        <ele>348.620000</ele>
        <time>2017-04-30T23:24:44Z</time>
      </trkpt>
      <trkpt lat="42.366548798" lon="-71.115658501">
        <ele>346.210000</ele>
        <time>2017-04-30T23:25:21Z</time>
      </trkpt>
      <trkpt lat="42.366573506" lon="-71.115651882">
        <ele>348.130000</ele>
        <time>2017-04-30T23:25:57Z</time>
      </trkpt>
      <trkpt lat="42.366604160" lon="-71.115716998">
        <ele>348.130000</ele>
        <time>2017-04-30T23:26:21Z</time>
      </trkpt>
      <trkpt lat="42.366659773" lon="-71.115744546">
        <ele>346.690000</ele>
        <time>2017-04-30T23:26:46Z</time>
      </trkpt>
      <trkpt lat="42.366720663" lon="-71.115738017">
        <ele>347.650000</ele>
        <time>2017-04-30T23:27:07Z</time>
      </trkpt>
      <trkpt lat="42.366755338" lon="-71.115703939">
        <ele>349.100000</ele>
        <time>2017-04-30T23:27:26Z</time>
      </trkpt>
      <trkpt lat="42.366776444" lon="-71.115729699">
        <ele>350.540000</ele>
        <time>2017-04-30T23:27:33Z</time>
      </trkpt>
      <trkpt lat="42.366830466" lon="-71.115790610">
        <ele>353.900000</ele>
        <time>2017-04-30T23:27:43Z</time>
      </trkpt>
      <trkpt lat="42.366828037" lon="-71.115829698">
        <ele>356.790000</ele>
        <time>2017-04-30T23:27:57Z</time>
      </trkpt>
      <trkpt lat="42.366829963" lon="-71.115836495">
        <ele>354.860000</ele>
        <time>2017-04-30T23:28:34Z</time>
      </trkpt>
      <trkpt lat="42.366861622" lon="-71.115870305">
        <ele>355.340000</ele>
        <time>2017-04-30T23:28:48Z</time>
      </trkpt>
      <trkpt lat="42.366931725" lon="-71.115995796">
        <ele>355.830000</ele>
        <time>2017-04-30T23:28:59Z</time>
      </trkpt>
      <trkpt lat="42.366932395" lon="-71.116005545">
        <ele>355.830000</ele>
        <time>2017-04-30T23:29:00Z</time>
      </trkpt>
      <trkpt lat="42.366914639" lon="-71.116088013">
        <ele>356.310000</ele>
        <time>2017-04-30T23:29:14Z</time>
      </trkpt>
      <trkpt lat="42.366949900" lon="-71.116160731">
        <ele>356.790000</ele>
        <time>2017-04-30T23:29:27Z</time>
      </trkpt>
      <trkpt lat="42.367002330" lon="-71.116243199">
        <ele>359.190000</ele>
        <time>2017-04-30T23:29:41Z</time>
      </trkpt>
      <trkpt lat="42.367083907" lon="-71.116279155">
        <ele>360.630000</ele>
        <time>2017-04-30T23:29:55Z</time>
      </trkpt>
      <trkpt lat="42.367125282" lon="-71.116339351">
        <ele>362.070000</ele>
        <time>2017-04-30T23:30:05Z</time>
      </trkpt>
      <trkpt lat="42.367161632" lon="-71.116384431">
        <ele>363.520000</ele>
        <time>2017-04-30T23:30:12Z</time>
      </trkpt>
      <trkpt lat="42.367208199" lon="-71.116486845">
        <ele>364.480000</ele>
        <time>2017-04-30T23:30:20Z</time>
      </trkpt>
      <trkpt lat="42.367259206" lon="-71.116589259">
        <ele>364.000000</ele>
        <time>2017-04-30T23:30:28Z</time>
      </trkpt>
      <trkpt lat="42.367285840" lon="-71.116650797">
        <ele>363.520000</ele>
        <time>2017-04-30T23:30:41Z</time>
      </trkpt>
      <trkpt lat="42.367287264" lon="-71.116656432">
        <ele>363.040000</ele>
        <time>2017-04-30T23:30:44Z</time>
      </trkpt>
      <trkpt lat="42.367347399" lon="-71.116679151">
        <ele>361.110000</ele>
        <time>2017-04-30T23:30:50Z</time>
      </trkpt>
      <trkpt lat="42.367460468" lon="-71.116643283">
        <ele>354.380000</ele>
        <time>2017-04-30T23:31:01Z</time>
      </trkpt>
      <trkpt lat="42.367533838" lon="-71.116590422">
        <ele>349.580000</ele>
        <time>2017-04-30T23:31:08Z</time>
      </trkpt>
      <trkpt lat="42.367589283" lon="-71.116609563">
        <ele>346.210000</ele>
        <time>2017-04-30T23:31:13Z</time>
      </trkpt>
      <trkpt lat="42.367627559" lon="-71.116638185">
        <ele>344.290000</ele>
        <time>2017-04-30T23:31:17Z</time>
      </trkpt>
      <trkpt lat="42.367660308" lon="-71.116681118">
        <ele>341.410000</ele>
        <time>2017-04-30T23:31:23Z</time>
      </trkpt>
      <trkpt lat="42.367765671" lon="-71.116806072">
        <ele>337.560000</ele>
        <time>2017-04-30T23:31:35Z</time>
      </trkpt>
      <trkpt lat="42.367799926" lon="-71.116899989">
        <ele>334.680000</ele>
        <time>2017-04-30T23:31:42Z</time>
      </trkpt>
      <trkpt lat="42.367871955" lon="-71.117030399">
        <ele>330.350000</ele>
        <time>2017-04-30T23:31:55Z</time>
      </trkpt>
      <trkpt lat="42.367967603" lon="-71.117061526">
        <ele>326.990000</ele>
        <time>2017-04-30T23:32:04Z</time>
      </trkpt>
      <trkpt lat="42.368204043" lon="-71.117054370">
        <ele>320.260000</ele>
        <time>2017-04-30T23:32:21Z</time>
      </trkpt>
      <trkpt lat="42.368271047" lon="-71.117116803">
        <ele>318.330000</ele>
        <time>2017-04-30T23:32:28Z</time>
      </trkpt>
      <trkpt lat="42.368409494" lon="-71.117210720">
        <ele>319.780000</ele>
        <time>2017-04-30T23:32:42Z</time>
      </trkpt>
      <trkpt lat="42.368472896" lon="-71.117231739">
        <ele>320.260000</ele>
        <time>2017-04-30T23:32:47Z</time>
      </trkpt>
      <trkpt lat="42.368489396" lon="-71.117260272">
        <ele>320.740000</ele>
        <time>2017-04-30T23:32:49Z</time>
      </trkpt>
      <trkpt lat="42.368569466" lon="-71.117295692">
        <ele>321.700000</ele>
        <time>2017-04-30T23:33:03Z</time>
      </trkpt>
      <trkpt lat="42.368593084" lon="-71.117328429">
        <ele>320.260000</ele>
        <time>2017-04-30T23:33:16Z</time>
      </trkpt>
      <trkpt lat="42.368630439" lon="-71.117344887">
        <ele>320.260000</ele>
        <time>2017-04-30T23:33:19Z</time>
      </trkpt>
      <trkpt lat="42.368765787" lon="-71.117423330">
        <ele>319.300000</ele>
        <time>2017-04-30T23:33:31Z</time>
      </trkpt>
      <trkpt lat="42.368775837" lon="-71.117433706">
        <ele>319.300000</ele>
        <time>2017-04-30T23:33:32Z</time>
      </trkpt>
      <trkpt lat="42.368876846" lon="-71.117606245">
        <ele>314.490000</ele>
        <time>2017-04-30T23:33:48Z</time>
      </trkpt>
      <trkpt lat="42.368919309" lon="-71.117629143">
        <ele>311.120000</ele>
        <time>2017-04-30T23:33:59Z</time>
      </trkpt>
      <trkpt lat="42.368969981" lon="-71.117712595">
        <ele>307.760000</ele>
        <time>2017-04-30T23:34:10Z</time>
      </trkpt>
      <trkpt lat="42.368984135" lon="-71.117838980">
        <ele>304.390000</ele>
        <time>2017-04-30T23:34:22Z</time>
      </trkpt>
      <trkpt lat="42.368985224" lon="-71.117894704">
        <ele>302.950000</ele>
        <time>2017-04-30T23:34:27Z</time>
      </trkpt>
      <trkpt lat="42.369017805" lon="-71.117996671">
        <ele>299.590000</ele>
        <time>2017-04-30T23:34:36Z</time>
      </trkpt>
      <trkpt lat="42.369023249" lon="-71.118048460">
        <ele>297.670000</ele>
        <time>2017-04-30T23:34:41Z</time>
      </trkpt>
      <trkpt lat="42.369054741" lon="-71.118047118">
        <ele>293.820000</ele>
        <time>2017-04-30T23:34:57Z</time>
      </trkpt>
      <trkpt lat="42.369051893" lon="-71.118106152">
        <ele>294.300000</ele>
        <time>2017-04-30T23:35:21Z</time>
      </trkpt>
      <trkpt lat="42.369055578" lon="-71.118133522">
        <ele>293.820000</ele>
        <time>2017-04-30T23:35:24Z</time>
      </trkpt>
      <trkpt lat="42.369064875" lon="-71.118268404">
        <ele>289.490000</ele>
        <time>2017-04-30T23:35:38Z</time>
      </trkpt>
      <trkpt lat="42.369061692" lon="-71.118282983">
        <ele>289.010000</ele>
        <time>2017-04-30T23:35:40Z</time>
      </trkpt>
      <trkpt lat="42.369018642" lon="-71.118372786">
        <ele>286.610000</ele>
        <time>2017-04-30T23:35:47Z</time>
      </trkpt>
      <trkpt lat="42.369052479" lon="-71.118448188">
        <ele>285.170000</ele>
        <time>2017-04-30T23:35:53Z</time>
      </trkpt>
      <trkpt lat="42.369188246" lon="-71.118487544">
        <ele>282.770000</ele>
        <time>2017-04-30T23:36:03Z</time>
      </trkpt>
      <trkpt lat="42.369216722" lon="-71.118562946">
        <ele>281.320000</ele>
        <time>2017-04-30T23:36:08Z</time>
      </trkpt>
      <trkpt lat="42.369228448" lon="-71.118779403">
        <ele>277.000000</ele>
        <time>2017-04-30T23:36:21Z</time>
      </trkpt>
      <trkpt lat="42.369248717" lon="-71.118875019">
        <ele>276.520000</ele>
        <time>2017-04-30T23:36:25Z</time>
      </trkpt>
      <trkpt lat="42.369274178" lon="-71.119069294">
        <ele>273.630000</ele>
        <time>2017-04-30T23:36:37Z</time>
      </trkpt>
      <trkpt lat="42.369279455" lon="-71.119163389">
        <ele>273.630000</ele>
        <time>2017-04-30T23:36:42Z</time>
      </trkpt>
      <trkpt lat="42.369321248" lon="-71.119250598">
        <ele>273.150000</ele>
        <time>2017-04-30T23:36:48Z</time>
      </trkpt>
      <trkpt lat="42.369386744" lon="-71.119326895">
        <ele>273.630000</ele>
        <time>2017-04-30T23:36:55Z</time>
      </trkpt>
      <trkpt lat="42.369453246" lon="-71.119315625">
        <ele>272.190000</ele>
        <time>2017-04-30T23:37:10Z</time>
      </trkpt>
      <trkpt lat="42.369462794" lon="-71.119317771">
        <ele>272.190000</ele>
        <time>2017-04-30T23:37:16Z</time>
      </trkpt>
      <trkpt lat="42.369572094" lon="-71.119338254">
        <ele>272.190000</ele>
        <time>2017-04-30T23:37:27Z</time>
      </trkpt>
      <trkpt lat="42.369593032" lon="-71.119345052">
        <ele>272.670000</ele>
        <time>2017-04-30T23:37:29Z</time>
      </trkpt>
      <trkpt lat="42.369631476" lon="-71.119409989">
        <ele>272.670000</ele>
        <time>2017-04-30T23:37:34Z</time>
      </trkpt>
      <trkpt lat="42.369687005" lon="-71.119692636">
        <ele>273.150000</ele>
        <time>2017-04-30T23:37:50Z</time>
      </trkpt>
      <trkpt lat="42.369704845" lon="-71.119863297">
        <ele>272.190000</ele>
        <time>2017-04-30T23:37:59Z</time>
      </trkpt>
      <trkpt lat="42.369699234" lon="-71.119942277">
        <ele>271.710000</ele>
        <time>2017-04-30T23:38:04Z</time>
      </trkpt>
      <trkpt lat="42.369684576" lon="-71.120064458">
        <ele>272.190000</ele>
        <time>2017-04-30T23:38:11Z</time>
      </trkpt>
      <trkpt lat="42.369661711" lon="-71.120173134">
        <ele>271.230000</ele>
        <time>2017-04-30T23:38:18Z</time>
      </trkpt>
      <trkpt lat="42.369572596" lon="-71.120422596">
        <ele>268.350000</ele>
        <time>2017-04-30T23:38:34Z</time>
      </trkpt>
      <trkpt lat="42.369530300" lon="-71.120537532">
        <ele>267.380000</ele>
        <time>2017-04-30T23:38:41Z</time>
      </trkpt>
      <trkpt lat="42.369479377" lon="-71.120692362">
        <ele>266.900000</ele>
        <time>2017-04-30T23:38:51Z</time>
      </trkpt>
      <trkpt lat="42.369459779" lon="-71.120780197">
        <ele>267.380000</ele>
        <time>2017-04-30T23:38:56Z</time>
      </trkpt>
      <trkpt lat="42.369430297" lon="-71.120846833">
        <ele>264.020000</ele>
        <time>2017-04-30T23:39:08Z</time>
      </trkpt>
      <trkpt lat="42.369430465" lon="-71.120857477">
        <ele>264.020000</ele>
        <time>2017-04-30T23:39:10Z</time>
      </trkpt>
      <trkpt lat="42.369454083" lon="-71.120985472">
        <ele>266.900000</ele>
        <time>2017-04-30T23:39:21Z</time>
      </trkpt>
      <trkpt lat="42.369536917" lon="-71.121204345">
        <ele>269.790000</ele>
        <time>2017-04-30T23:39:36Z</time>
      </trkpt>
      <trkpt lat="42.369623436" lon="-71.121474111">
        <ele>270.270000</ele>
        <time>2017-04-30T23:39:53Z</time>
      </trkpt>
      <trkpt lat="42.369644458" lon="-71.121549960">
        <ele>268.350000</ele>
        <time>2017-04-30T23:40:07Z</time>
      </trkpt>
      <trkpt lat="42.369618745" lon="-71.121589763">
        <ele>270.270000</ele>
        <time>2017-04-30T23:40:14Z</time>
      </trkpt>
      <trkpt lat="42.369570921" lon="-71.121648976">
        <ele>273.150000</ele>
        <time>2017-04-30T23:40:26Z</time>
      </trkpt>
      <trkpt lat="42.369587589" lon="-71.121697902">
        <ele>276.040000</ele>
        <time>2017-04-30T23:40:35Z</time>
      </trkpt>
      <trkpt lat="42.369583652" lon="-71.121784932">
        <ele>278.920000</ele>
        <time>2017-04-30T23:40:45Z</time>
      </trkpt>
      <trkpt lat="42.369582228" lon="-71.121852820">
        <ele>281.800000</ele>
        <time>2017-04-30T23:40:52Z</time>
      </trkpt>
      <trkpt lat="42.369580218" lon="-71.121910154">
        <ele>284.690000</ele>
        <time>2017-04-30T23:40:59Z</time>
      </trkpt>
      <trkpt lat="42.369587672" lon="-71.121921245">
        <ele>285.650000</ele>
        <time>2017-04-30T23:41:12Z</time>
      </trkpt>
      <trkpt lat="42.369598058" lon="-71.121944680">
        <ele>283.730000</ele>
        <time>2017-04-30T23:41:35Z</time>
      </trkpt>
      <trkpt lat="42.369628042" lon="-71.122021692">
        <ele>286.610000</ele>
        <time>2017-04-30T23:41:45Z</time>
      </trkpt>
      <trkpt lat="42.369631225" lon="-71.122042980">
        <ele>287.090000</ele>
        <time>2017-04-30T23:41:48Z</time>
      </trkpt>
      <trkpt lat="42.369652079" lon="-71.122108543">
        <ele>290.460000</ele>
        <time>2017-04-30T23:41:57Z</time>
      </trkpt>
      <trkpt lat="42.369665648" lon="-71.122223032">
        <ele>294.300000</ele>
        <time>2017-04-30T23:42:08Z</time>
      </trkpt>
      <trkpt lat="42.369687675" lon="-71.122372137">
        <ele>296.700000</ele>
        <time>2017-04-30T23:42:20Z</time>
      </trkpt>
      <trkpt lat="42.369714309" lon="-71.122465518">
        <ele>298.150000</ele>
        <time>2017-04-30T23:42:33Z</time>
      </trkpt>
      <trkpt lat="42.369716738" lon="-71.122488773">
        <ele>297.670000</ele>
        <time>2017-04-30T23:42:35Z</time>
      </trkpt>
      <trkpt lat="42.369737174" lon="-71.122508451">
        <ele>297.670000</ele>
        <time>2017-04-30T23:42:50Z</time>
      </trkpt>
      <trkpt lat="42.369744461" lon="-71.122502727">
        <ele>298.150000</ele>
        <time>2017-04-30T23:43:04Z</time>
      </trkpt>
      <trkpt lat="42.369777795" lon="-71.122441636">
        <ele>299.110000</ele>
        <time>2017-04-30T23:43:35Z</time>
      </trkpt>
      <trkpt lat="42.369791363" lon="-71.122434033">
        <ele>299.590000</ele>
        <time>2017-04-30T23:43:38Z</time>
      </trkpt>
      <trkpt lat="42.369887346" lon="-71.122352727">
        <ele>302.470000</ele>
        <time>2017-04-30T23:43:53Z</time>
      </trkpt>
      <trkpt lat="42.369959292" lon="-71.122291368">
        <ele>303.430000</ele>
        <time>2017-04-30T23:44:01Z</time>
      </trkpt>
      <trkpt lat="42.370011052" lon="-71.122269633">
        <ele>300.550000</ele>
        <time>2017-04-30T23:44:08Z</time>
      </trkpt>
      <trkpt lat="42.370040785" lon="-71.122269007">
        <ele>299.110000</ele>
        <time>2017-04-30T23:44:11Z</time>
      </trkpt>
      <trkpt lat="42.370127471" lon="-71.122207826">
        <ele>295.260000</ele>
        <time>2017-04-30T23:44:21Z</time>
      </trkpt>
      <trkpt lat="42.370212483" lon="-71.122182513">
        <ele>293.340000</ele>
        <time>2017-04-30T23:44:28Z</time>
      </trkpt>
      <trkpt lat="42.370283590" lon="-71.122105948">
        <ele>292.380000</ele>
        <time>2017-04-30T23:44:36Z</time>
      </trkpt>
      <trkpt lat="42.370335016" lon="-71.122086091">
        <ele>289.970000</ele>
        <time>2017-04-30T23:44:41Z</time>
      </trkpt>
      <trkpt lat="42.370381500" lon="-71.122027952">
        <ele>288.050000</ele>
        <time>2017-04-30T23:44:50Z</time>
      </trkpt>
      <trkpt lat="42.370411065" lon="-71.121999151">
        <ele>287.090000</ele>
        <time>2017-04-30T23:45:03Z</time>
      </trkpt>
      <trkpt lat="42.370448922" lon="-71.121970081">
        <ele>286.610000</ele>
        <time>2017-04-30T23:45:07Z</time>
      </trkpt>
      <trkpt lat="42.370486696" lon="-71.121963104">
        <ele>285.650000</ele>
        <time>2017-04-30T23:45:12Z</time>
      </trkpt>
      <trkpt lat="42.370548172" lon="-71.121928310">
        <ele>282.280000</ele>
        <time>2017-04-30T23:45:23Z</time>
      </trkpt>
      <trkpt lat="42.370625393" lon="-71.121823927">
        <ele>278.440000</ele>
        <time>2017-04-30T23:45:35Z</time>
      </trkpt>
      <trkpt lat="42.370621959" lon="-71.121798346">
        <ele>278.920000</ele>
        <time>2017-04-30T23:45:40Z</time>
      </trkpt>
      <trkpt lat="42.370669449" lon="-71.121763284">
        <ele>278.440000</ele>
        <time>2017-04-30T23:45:50Z</time>
      </trkpt>
      <trkpt lat="42.370685278" lon="-71.121737971">
        <ele>277.000000</ele>
        <time>2017-04-30T23:45:53Z</time>
      </trkpt>
      <trkpt lat="42.370730171" lon="-71.121700046">
        <ele>275.560000</ele>
        <time>2017-04-30T23:45:58Z</time>
      </trkpt>
      <trkpt lat="42.370757558" lon="-71.121604966">
        <ele>274.110000</ele>
        <time>2017-04-30T23:46:02Z</time>
      </trkpt>
      <trkpt lat="42.370803372" lon="-71.121541102">
        <ele>274.110000</ele>
        <time>2017-04-30T23:46:11Z</time>
      </trkpt>
      <trkpt lat="42.370868282" lon="-71.121512211">
        <ele>274.590000</ele>
        <time>2017-04-30T23:46:17Z</time>
      </trkpt>
      <trkpt lat="42.370899188" lon="-71.121485825">
        <ele>274.110000</ele>
        <time>2017-04-30T23:46:33Z</time>
      </trkpt>
      <trkpt lat="42.370870962" lon="-71.121488866">
        <ele>276.040000</ele>
        <time>2017-04-30T23:47:20Z</time>
      </trkpt>
      <trkpt lat="42.370905050" lon="-71.121474465">
        <ele>275.560000</ele>
        <time>2017-04-30T23:47:55Z</time>
      </trkpt>
      <trkpt lat="42.370945253" lon="-71.121446558">
        <ele>275.560000</ele>
        <time>2017-04-30T23:48:00Z</time>
      </trkpt>
      <trkpt lat="42.371009158" lon="-71.121401925">
        <ele>276.520000</ele>
        <time>2017-04-30T23:48:07Z</time>
      </trkpt>
      <trkpt lat="42.371027835" lon="-71.121394590">
        <ele>276.520000</ele>
        <time>2017-04-30T23:48:09Z</time>
      </trkpt>
      <trkpt lat="42.371113516" lon="-71.121295574">
        <ele>277.960000</ele>
        <time>2017-04-30T23:48:22Z</time>
      </trkpt>
      <trkpt lat="42.371184456" lon="-71.121236362">
        <ele>282.280000</ele>
        <time>2017-04-30T23:48:35Z</time>
      </trkpt>
      <trkpt lat="42.371244006" lon="-71.121162390">
        <ele>287.090000</ele>
        <time>2017-04-30T23:48:48Z</time>
      </trkpt>
      <trkpt lat="42.371256653" lon="-71.121147274">
        <ele>288.050000</ele>
        <time>2017-04-30T23:48:51Z</time>
      </trkpt>
      <trkpt lat="42.371303807" lon="-71.121068920">
        <ele>291.900000</ele>
        <time>2017-04-30T23:49:03Z</time>
      </trkpt>
      <trkpt lat="42.371307994" lon="-71.121060512">
        <ele>293.340000</ele>
        <time>2017-04-30T23:49:22Z</time>
      </trkpt>
      <trkpt lat="42.371362519" lon="-71.121008634">
        <ele>295.740000</ele>
        <time>2017-04-30T23:49:41Z</time>
      </trkpt>
      <trkpt lat="42.371410008" lon="-71.120948884">
        <ele>300.070000</ele>
        <time>2017-04-30T23:49:53Z</time>
      </trkpt>
      <trkpt lat="42.371456324" lon="-71.120937346">
        <ele>303.430000</ele>
        <time>2017-04-30T23:50:02Z</time>
      </trkpt>
      <trkpt lat="42.371488905" lon="-71.120943786">
        <ele>304.390000</ele>
        <time>2017-04-30T23:50:07Z</time>
      </trkpt>
      <trkpt lat="42.371529861" lon="-71.120937972">
        <ele>304.390000</ele>
        <time>2017-04-30T23:50:11Z</time>
      </trkpt>
      <trkpt lat="42.371616463" lon="-71.120885110">
        <ele>305.360000</ele>
        <time>2017-04-30T23:50:27Z</time>
      </trkpt>
      <trkpt lat="42.371673919" lon="-71.120827328">
        <ele>304.390000</ele>
        <time>2017-04-30T23:50:32Z</time>
      </trkpt>
      <trkpt lat="42.371712781" lon="-71.120804609">
        <ele>302.950000</ele>
        <time>2017-04-30T23:50:37Z</time>
      </trkpt>
      <trkpt lat="42.371819904" lon="-71.120695664">
        <ele>301.990000</ele>
        <time>2017-04-30T23:50:48Z</time>
      </trkpt>
      <trkpt lat="42.371919823" lon="-71.120624823">
        <ele>300.550000</ele>
        <time>2017-04-30T23:50:58Z</time>
      </trkpt>
      <trkpt lat="42.372045539" lon="-71.120575002">
        <ele>300.070000</ele>
        <time>2017-04-30T23:51:11Z</time>
      </trkpt>
      <trkpt lat="42.372134152" lon="-71.120552820">
        <ele>301.990000</ele>
        <time>2017-04-30T23:51:22Z</time>
      </trkpt>
      <trkpt lat="42.372158776" lon="-71.120550673">
        <ele>302.950000</ele>
        <time>2017-04-30T23:51:26Z</time>
      </trkpt>
      <trkpt lat="42.372246635" lon="-71.120515163">
        <ele>305.840000</ele>
        <time>2017-04-30T23:51:39Z</time>
      </trkpt>
      <trkpt lat="42.372319166" lon="-71.120470082">
        <ele>309.200000</ele>
        <time>2017-04-30T23:51:50Z</time>
      </trkpt>
      <trkpt lat="42.372329300" lon="-71.120479385">
        <ele>310.640000</ele>
        <time>2017-04-30T23:52:00Z</time>
      </trkpt>
      <trkpt lat="42.372328295" lon="-71.120474465">
        <ele>309.680000</ele>
        <time>2017-04-30T23:52:17Z</time>
      </trkpt>
      <trkpt lat="42.372347643" lon="-71.120463285">
        <ele>310.640000</ele>
        <time>2017-04-30T23:52:35Z</time>
      </trkpt>
      <trkpt lat="42.372444798" lon="-71.120393785">
        <ele>313.050000</ele>
        <time>2017-04-30T23:52:48Z</time>
      </trkpt>
      <trkpt lat="42.372494800" lon="-71.120338329">
        <ele>315.930000</ele>
        <time>2017-04-30T23:52:56Z</time>
      </trkpt>
      <trkpt lat="42.372564903" lon="-71.120225985">
        <ele>319.780000</ele>
        <time>2017-04-30T23:53:10Z</time>
      </trkpt>
      <trkpt lat="42.372579894" lon="-71.120204697">
        <ele>321.220000</ele>
        <time>2017-04-30T23:53:23Z</time>
      </trkpt>
      <trkpt lat="42.372575121" lon="-71.120199599">
        <ele>321.700000</ele>
        <time>2017-04-30T23:53:30Z</time>
      </trkpt>
      <trkpt lat="42.372641119" lon="-71.120111764">
        <ele>323.140000</ele>
        <time>2017-04-30T23:53:43Z</time>
      </trkpt>
      <trkpt lat="42.372682913" lon="-71.120067309">
        <ele>326.020000</ele>
        <time>2017-04-30T23:53:57Z</time>
      </trkpt>
      <trkpt lat="42.372690869" lon="-71.120050046">
        <ele>324.580000</ele>
        <time>2017-04-30T23:54:10Z</time>
      </trkpt>
      <trkpt lat="42.372796065" lon="-71.119888596">
        <ele>326.500000</ele>
        <time>2017-04-30T23:54:25Z</time>
      </trkpt>
      <trkpt lat="42.372885264" lon="-71.119752729">
        <ele>327.470000</ele>
        <time>2017-04-30T23:54:38Z</time>
      </trkpt>
      <trkpt lat="42.373022789" lon="-71.119627862">
        <ele>326.500000</ele>
        <time>2017-04-30T23:54:53Z</time>
      </trkpt>
      <trkpt lat="42.373153866" lon="-71.119557468">
        <ele>327.470000</ele>
        <time>2017-04-30T23:55:07Z</time>
      </trkpt>
      <trkpt lat="42.373266516" lon="-71.119515161">
        <ele>328.430000</ele>
        <time>2017-04-30T23:55:20Z</time>
      </trkpt>
      <trkpt lat="42.373284272" lon="-71.119520975">
        <ele>328.430000</ele>
        <time>2017-04-30T23:55:22Z</time>
      </trkpt>
      <trkpt lat="42.373313921" lon="-71.119531708">
        <ele>328.910000</ele>
        <time>2017-04-30T23:55:26Z</time>
      </trkpt>
      <trkpt lat="42.373397341" lon="-71.119527415">
        <ele>331.790000</ele>
        <time>2017-04-30T23:55:40Z</time>
      </trkpt>
      <trkpt lat="42.373404293" lon="-71.119508631">
        <ele>334.200000</ele>
        <time>2017-04-30T23:55:52Z</time>
      </trkpt>
      <trkpt lat="42.373453038" lon="-71.119367485">
        <ele>337.080000</ele>
        <time>2017-04-30T23:56:06Z</time>
      </trkpt>
      <trkpt lat="42.373470710" lon="-71.119295034">
        <ele>339.000000</ele>
        <time>2017-04-30T23:56:19Z</time>
      </trkpt>
      <trkpt lat="42.373546592" lon="-71.119228397">
        <ele>340.440000</ele>
        <time>2017-04-30T23:56:30Z</time>
      </trkpt>
      <trkpt lat="42.373624484" lon="-71.119134300">
        <ele>343.330000</ele>
        <time>2017-04-30T23:56:45Z</time>
      </trkpt>
      <trkpt lat="42.373642742" lon="-71.119100222">
        <ele>343.330000</ele>
        <time>2017-04-30T23:56:48Z</time>
      </trkpt>
      <trkpt lat="42.373785461" lon="-71.118981348">
        <ele>342.370000</ele>
        <time>2017-04-30T23:57:03Z</time>
      </trkpt>
      <trkpt lat="42.373883454" lon="-71.118932958">
        <ele>340.920000</ele>
        <time>2017-04-30T23:57:13Z</time>
      </trkpt>
      <trkpt lat="42.373928597" lon="-71.118912206">
        <ele>340.920000</ele>
        <time>2017-04-30T23:57:19Z</time>
      </trkpt>
      <trkpt lat="42.373968716" lon="-71.118919362">
        <ele>340.440000</ele>
        <time>2017-04-30T23:57:35Z</time>
      </trkpt>
      <trkpt lat="42.373979604" lon="-71.118918646">
        <ele>340.440000</ele>
        <time>2017-04-30T23:57:38Z</time>
      </trkpt>
      <trkpt lat="42.374089072" lon="-71.118865068">
        <ele>337.560000</ele>
        <time>2017-04-30T23:57:50Z</time>
      </trkpt>
      <trkpt lat="42.374134802" lon="-71.118830721">
        <ele>337.080000</ele>
        <time>2017-04-30T23:57:54Z</time>
      </trkpt>
      <trkpt lat="42.374248876" lon="-71.118846463">
        <ele>332.750000</ele>
        <time>2017-04-30T23:58:06Z</time>
      </trkpt>
      <trkpt lat="42.374332966" lon="-71.118842707">
        <ele>334.200000</ele>
        <time>2017-04-30T23:58:16Z</time>
      </trkpt>
      <trkpt lat="42.374338242" lon="-71.118833494">
        <ele>334.200000</ele>
        <time>2017-04-30T23:58:18Z</time>
      </trkpt>
      <trkpt lat="42.374351392" lon="-71.118810506">
        <ele>334.200000</ele>
        <time>2017-04-30T23:58:21Z</time>
      </trkpt>
      <trkpt lat="42.374368059" lon="-71.118797268">
        <ele>334.680000</ele>
        <time>2017-04-30T23:58:23Z</time>
      </trkpt>
      <trkpt lat="42.374386318" lon="-71.118761848">
        <ele>334.680000</ele>
        <time>2017-04-30T23:58:26Z</time>
      </trkpt>
      <trkpt lat="42.374405749" lon="-71.118671686">
        <ele>336.600000</ele>
        <time>2017-04-30T23:58:37Z</time>
      </trkpt>
      <trkpt lat="42.374441680" lon="-71.118656838">
        <ele>336.600000</ele>
        <time>2017-04-30T23:58:50Z</time>
      </trkpt>
      <trkpt lat="42.374450474" lon="-71.118650935">
        <ele>338.040000</ele>
        <time>2017-04-30T23:59:09Z</time>
      </trkpt>
      <trkpt lat="42.374483976" lon="-71.118636534">
        <ele>339.480000</ele>
        <time>2017-04-30T23:59:22Z</time>
      </trkpt>
      <trkpt lat="42.374521079" lon="-71.118617482">
        <ele>342.370000</ele>
        <time>2017-04-30T23:59:31Z</time>
      </trkpt>
      <trkpt lat="42.374532470" lon="-71.118625174">
        <ele>342.850000</ele>
        <time>2017-04-30T23:59:35Z</time>
      </trkpt>
      <trkpt lat="42.374602573" lon="-71.118590201">
        <ele>346.210000</ele>
        <time>2017-04-30T23:59:49Z</time>
      </trkpt>
      <trkpt lat="42.374596123" lon="-71.118580630">
        <ele>346.210000</ele>
        <time>2017-04-30T23:59:51Z</time>
      </trkpt>
      <trkpt lat="42.374598217" lon="-71.118540558">
        <ele>348.130000</ele>
        <time>2017-05-01T00:00:03Z</time>
      </trkpt>
      <trkpt lat="42.374598385" lon="-71.118529020">
        <ele>348.130000</ele>
        <time>2017-05-01T00:00:04Z</time>
      </trkpt>
      <trkpt lat="42.374596793" lon="-71.118447624">
        <ele>348.130000</ele>
        <time>2017-05-01T00:00:11Z</time>
      </trkpt>
      <trkpt lat="42.374614382" lon="-71.118405674">
        <ele>348.620000</ele>
        <time>2017-05-01T00:00:15Z</time>
      </trkpt>
      <trkpt lat="42.374649224" lon="-71.118256120">
        <ele>352.460000</ele>
        <time>2017-05-01T00:00:29Z</time>
      </trkpt>
      <trkpt lat="42.374647130" lon="-71.118231433">
        <ele>353.420000</ele>
        <time>2017-05-01T00:00:45Z</time>
      </trkpt>
      <trkpt lat="42.374651736" lon="-71.118222757">
        <ele>353.900000</ele>
        <time>2017-05-01T00:00:47Z</time>
      </trkpt>
      <trkpt lat="42.374677700" lon="-71.118089841">
        <ele>356.310000</ele>
        <time>2017-05-01T00:01:03Z</time>
      </trkpt>
      <trkpt lat="42.374711621" lon="-71.118205941">
        <ele>355.340000</ele>
        <time>2017-05-01T00:01:15Z</time>
      </trkpt>
      <trkpt lat="42.374717819" lon="-71.118199948">
        <ele>353.420000</ele>
        <time>2017-05-01T00:01:28Z</time>
      </trkpt>
      <trkpt lat="42.374728707" lon="-71.118198785">
        <ele>354.380000</ele>
        <time>2017-05-01T00:01:39Z</time>
      </trkpt>
      <trkpt lat="42.374752661" lon="-71.118185816">
        <ele>354.380000</ele>
        <time>2017-05-01T00:01:42Z</time>
      </trkpt>
      <trkpt lat="42.374754001" lon="-71.118099858">
        <ele>355.340000</ele>
        <time>2017-05-01T00:01:53Z</time>
      </trkpt>
      <trkpt lat="42.374758607" lon="-71.118088320">
        <ele>355.340000</ele>
        <time>2017-05-01T00:01:54Z</time>
      </trkpt>
      <trkpt lat="42.374757518" lon="-71.118020252">
        <ele>356.310000</ele>
        <time>2017-05-01T00:02:00Z</time>
      </trkpt>
      <trkpt lat="42.374756262" lon="-71.117933400">
        <ele>357.270000</ele>
        <time>2017-05-01T00:02:07Z</time>
      </trkpt>
      <trkpt lat="42.374789848" lon="-71.117870698">
        <ele>357.750000</ele>
        <time>2017-05-01T00:02:12Z</time>
      </trkpt>
      <trkpt lat="42.374788759" lon="-71.117844580">
        <ele>358.230000</ele>
        <time>2017-05-01T00:02:30Z</time>
      </trkpt>
      <trkpt lat="42.374797134" lon="-71.117830448">
        <ele>358.230000</ele>
        <time>2017-05-01T00:02:34Z</time>
      </trkpt>
      <trkpt lat="42.374855846" lon="-71.117722397">
        <ele>359.670000</ele>
        <time>2017-05-01T00:02:47Z</time>
      </trkpt>
      <trkpt lat="42.374934157" lon="-71.117617387">
        <ele>360.150000</ele>
        <time>2017-05-01T00:03:00Z</time>
      </trkpt>
      <trkpt lat="42.375043876" lon="-71.117450570">
        <ele>361.590000</ele>
        <time>2017-05-01T00:03:15Z</time>
      </trkpt>
      <trkpt lat="42.375097479" lon="-71.117372215">
        <ele>363.040000</ele>
        <time>2017-05-01T00:03:22Z</time>
      </trkpt>
      <trkpt lat="42.375114984" lon="-71.117354773">
        <ele>363.520000</ele>
        <time>2017-05-01T00:03:24Z</time>
      </trkpt>
      <trkpt lat="42.375220682" lon="-71.117162016">
        <ele>364.960000</ele>
        <time>2017-05-01T00:03:40Z</time>
      </trkpt>
      <trkpt lat="42.375226964" lon="-71.117149136">
        <ele>364.960000</ele>
        <time>2017-05-01T00:03:41Z</time>
      </trkpt>
      <trkpt lat="42.375247316" lon="-71.117053429">
        <ele>365.920000</ele>
        <time>2017-05-01T00:03:53Z</time>
      </trkpt>
      <trkpt lat="42.375287602" lon="-71.117008348">
        <ele>364.960000</ele>
        <time>2017-05-01T00:04:04Z</time>
      </trkpt>
      <trkpt lat="42.375316497" lon="-71.116916398">
        <ele>364.000000</ele>
        <time>2017-05-01T00:04:19Z</time>
      </trkpt>
      <trkpt lat="42.375318675" lon="-71.116935002">
        <ele>364.000000</ele>
        <time>2017-05-01T00:04:38Z</time>
      </trkpt>
      <trkpt lat="42.375336347" lon="-71.116873643">
        <ele>361.590000</ele>
        <time>2017-05-01T00:05:10Z</time>
      </trkpt>
      <trkpt lat="42.375347738" lon="-71.116865682">
        <ele>361.590000</ele>
        <time>2017-05-01T00:05:36Z</time>
      </trkpt>
      <trkpt lat="42.375370435" lon="-71.116807721">
        <ele>359.670000</ele>
        <time>2017-05-01T00:05:56Z</time>
      </trkpt>
      <trkpt lat="42.375369933" lon="-71.116769796">
        <ele>356.310000</ele>
        <time>2017-05-01T00:06:09Z</time>
      </trkpt>
      <trkpt lat="42.375360636" lon="-71.116765055">
        <ele>354.860000</ele>
        <time>2017-05-01T00:06:39Z</time>
      </trkpt>
      <trkpt lat="42.375411140" lon="-71.116699223">
        <ele>350.540000</ele>
        <time>2017-05-01T00:06:56Z</time>
      </trkpt>
      <trkpt lat="42.375453520" lon="-71.116688400">
        <ele>348.620000</ele>
        <time>2017-05-01T00:07:07Z</time>
      </trkpt>
      <trkpt lat="42.375483923" lon="-71.116727488">
        <ele>348.620000</ele>
        <time>2017-05-01T00:07:16Z</time>
      </trkpt>
      <trkpt lat="42.375552937" lon="-71.116756737">
        <ele>344.290000</ele>
        <time>2017-05-01T00:07:30Z</time>
      </trkpt>
      <trkpt lat="42.375576221" lon="-71.116740726">
        <ele>343.330000</ele>
        <time>2017-05-01T00:07:36Z</time>
      </trkpt>
      <trkpt lat="42.375620527" lon="-71.116710761">
        <ele>340.440000</ele>
        <time>2017-05-01T00:07:48Z</time>
      </trkpt>
      <trkpt lat="42.375634347" lon="-71.116656289">
        <ele>341.890000</ele>
        <time>2017-05-01T00:07:58Z</time>
      </trkpt>
      <trkpt lat="42.375638450" lon="-71.116625877">
        <ele>342.850000</ele>
        <time>2017-05-01T00:08:00Z</time>
      </trkpt>
      <trkpt lat="42.375679155" lon="-71.116568005">
        <ele>344.290000</ele>
        <time>2017-05-01T00:08:18Z</time>
      </trkpt>
      <trkpt lat="42.375718855" lon="-71.116455035">
        <ele>341.410000</ele>
        <time>2017-05-01T00:08:33Z</time>
      </trkpt>
      <trkpt lat="42.375775138" lon="-71.116387772">
        <ele>338.040000</ele>
        <time>2017-05-01T00:08:46Z</time>
      </trkpt>
      <trkpt lat="42.375816178" lon="-71.116365499">
        <ele>335.160000</ele>
        <time>2017-05-01T00:09:00Z</time>
      </trkpt>
      <trkpt lat="42.375812158" lon="-71.116330526">
        <ele>332.270000</ele>
        <time>2017-05-01T00:09:12Z</time>
      </trkpt>
      <trkpt lat="42.375816262" lon="-71.116293137">
        <ele>328.910000</ele>
        <time>2017-05-01T00:09:25Z</time>
      </trkpt>
      <trkpt lat="42.375807635" lon="-71.116241706">
        <ele>326.990000</ele>
        <time>2017-05-01T00:09:37Z</time>
      </trkpt>
      <trkpt lat="42.375774217" lon="-71.116177752">
        <ele>326.500000</ele>
        <time>2017-05-01T00:09:50Z</time>
      </trkpt>
      <trkpt lat="42.375756210" lon="-71.116144478">
        <ele>326.990000</ele>
        <time>2017-05-01T00:10:10Z</time>
      </trkpt>
      <trkpt lat="42.375793062" lon="-71.116067733">
        <ele>325.060000</ele>
        <time>2017-05-01T00:10:24Z</time>
      </trkpt>
      <trkpt lat="42.375744735" lon="-71.116043404">
        <ele>322.660000</ele>
        <time>2017-05-01T00:10:35Z</time>
      </trkpt>
      <trkpt lat="42.375756963" lon="-71.115998591">
        <ele>319.780000</ele>
        <time>2017-05-01T00:10:47Z</time>
      </trkpt>
      <trkpt lat="42.375726477" lon="-71.115934906">
        <ele>314.010000</ele>
        <time>2017-05-01T00:10:59Z</time>
      </trkpt>
      <trkpt lat="42.375715505" lon="-71.115885710">
        <ele>309.200000</ele>
        <time>2017-05-01T00:11:16Z</time>
      </trkpt>
      <trkpt lat="42.375664247" lon="-71.115808518">
        <ele>305.360000</ele>
        <time>2017-05-01T00:11:39Z</time>
      </trkpt>
      <trkpt lat="42.375668100" lon="-71.115898590">
        <ele>310.640000</ele>
        <time>2017-05-01T00:11:56Z</time>
      </trkpt>
      <trkpt lat="42.375659305" lon="-71.115903778">
        <ele>317.850000</ele>
        <time>2017-05-01T00:12:19Z</time>
      </trkpt>
      <trkpt lat="42.375660227" lon="-71.115877123">
        <ele>318.810000</ele>
        <time>2017-05-01T00:12:33Z</time>
      </trkpt>
      <trkpt lat="42.375669440" lon="-71.115822919">
        <ele>323.620000</ele>
        <time>2017-05-01T00:12:55Z</time>
      </trkpt>
      <trkpt lat="42.375741050" lon="-71.115735262">
        <ele>320.740000</ele>
        <time>2017-05-01T00:13:08Z</time>
      </trkpt>
      <trkpt lat="42.375758220" lon="-71.115626317">
        <ele>319.300000</ele>
        <time>2017-05-01T00:13:25Z</time>
      </trkpt>
      <trkpt lat="42.375700847" lon="-71.115590001">
        <ele>317.370000</ele>
        <time>2017-05-01T00:13:41Z</time>
      </trkpt>
      <trkpt lat="42.375738286" lon="-71.115474258">
        <ele>318.330000</ele>
        <time>2017-05-01T00:13:54Z</time>
      </trkpt>
      <trkpt lat="42.375686609" lon="-71.115376136">
        <ele>318.330000</ele>
        <time>2017-05-01T00:14:07Z</time>
      </trkpt>
      <trkpt lat="42.375696995" lon="-71.115310662">
        <ele>320.260000</ele>
        <time>2017-05-01T00:14:19Z</time>
      </trkpt>
      <trkpt lat="42.375705454" lon="-71.115282933">
        <ele>319.300000</ele>
        <time>2017-05-01T00:14:26Z</time>
      </trkpt>
      <trkpt lat="42.375664833" lon="-71.115076044">
        <ele>309.680000</ele>
        <time>2017-05-01T00:14:39Z</time>
      </trkpt>
      <trkpt lat="42.375645234" lon="-71.114969156">
        <ele>303.430000</ele>
        <time>2017-05-01T00:14:50Z</time>
      </trkpt>
      <trkpt lat="42.375630493" lon="-71.114903234">
        <ele>303.430000</ele>
        <time>2017-05-01T00:14:54Z</time>
      </trkpt>
      <trkpt lat="42.375585098" lon="-71.114791427">
        <ele>301.510000</ele>
        <time>2017-05-01T00:15:10Z</time>
      </trkpt>
      <trkpt lat="42.375542719" lon="-71.114645629">
        <ele>300.550000</ele>
        <time>2017-05-01T00:15:20Z</time>
      </trkpt>
      <trkpt lat="42.375422447" lon="-71.114541782">
        <ele>296.220000</ele>
        <time>2017-05-01T00:15:35Z</time>
      </trkpt>
      <trkpt lat="42.375332829" lon="-71.114462085">
        <ele>293.820000</ele>
        <time>2017-05-01T00:15:45Z</time>
      </trkpt>
      <trkpt lat="42.375351674" lon="-71.114387487">
        <ele>294.300000</ele>
        <time>2017-05-01T00:15:57Z</time>
      </trkpt>
      <trkpt lat="42.375398828" lon="-71.114381852">
        <ele>291.900000</ele>
        <time>2017-05-01T00:16:09Z</time>
      </trkpt>
      <trkpt lat="42.375495397" lon="-71.114367809">
        <ele>291.420000</ele>
        <time>2017-05-01T00:16:21Z</time>
      </trkpt>
      <trkpt lat="42.375606959" lon="-71.114369061">
        <ele>295.260000</ele>
        <time>2017-05-01T00:16:35Z</time>
      </trkpt>
      <trkpt lat="42.375621365" lon="-71.114395985">
        <ele>298.150000</ele>
        <time>2017-05-01T00:16:45Z</time>
      </trkpt>
      <trkpt lat="42.375640628" lon="-71.114345627">
        <ele>293.340000</ele>
        <time>2017-05-01T00:17:01Z</time>
      </trkpt>
      <trkpt lat="42.375662572" lon="-71.114304392">
        <ele>296.700000</ele>
        <time>2017-05-01T00:17:15Z</time>
      </trkpt>
      <trkpt lat="42.375685437" lon="-71.114286771">
        <ele>293.820000</ele>
        <time>2017-05-01T00:17:27Z</time>
      </trkpt>
      <trkpt lat="42.375698335" lon="-71.114354213">
        <ele>294.300000</ele>
        <time>2017-05-01T00:17:39Z</time>
      </trkpt>
      <trkpt lat="42.375778907" lon="-71.114367362">
        <ele>301.990000</ele>
        <time>2017-05-01T00:17:59Z</time>
      </trkpt>
      <trkpt lat="42.375760565" lon="-71.114312084">
        <ele>304.880000</ele>
        <time>2017-05-01T00:18:11Z</time>
      </trkpt>
      <trkpt lat="42.375751771" lon="-71.114253587">
        <ele>308.240000</ele>
        <time>2017-05-01T00:18:23Z</time>
      </trkpt>
      <trkpt lat="42.375790131" lon="-71.114235787">
        <ele>312.570000</ele>
        <time>2017-05-01T00:18:35Z</time>
      </trkpt>
      <trkpt lat="42.375771788" lon="-71.114206806">
        <ele>309.680000</ele>
        <time>2017-05-01T00:18:48Z</time>
      </trkpt>
      <trkpt lat="42.375770448" lon="-71.114119954">
        <ele>310.160000</ele>
        <time>2017-05-01T00:18:58Z</time>
      </trkpt>
      <trkpt lat="42.375797501" lon="-71.114118970">
        <ele>312.570000</ele>
        <time>2017-05-01T00:19:10Z</time>
      </trkpt>
      <trkpt lat="42.375798171" lon="-71.114069059">
        <ele>315.450000</ele>
        <time>2017-05-01T00:19:22Z</time>
      </trkpt>
      <trkpt lat="42.375810232" lon="-71.114049560">
        <ele>315.450000</ele>
        <time>2017-05-01T00:19:47Z</time>
      </trkpt>
      <trkpt lat="42.375824219" lon="-71.114037932">
        <ele>312.570000</ele>
        <time>2017-05-01T00:20:09Z</time>
      </trkpt>
      <trkpt lat="42.375852528" lon="-71.114014587">
        <ele>312.570000</ele>
        <time>2017-05-01T00:20:15Z</time>
      </trkpt>
      <trkpt lat="42.375872461" lon="-71.113998397">
        <ele>314.490000</ele>
        <time>2017-05-01T00:20:26Z</time>
      </trkpt>
      <trkpt lat="42.375935110" lon="-71.113997771">
        <ele>316.410000</ele>
        <time>2017-05-01T00:20:37Z</time>
      </trkpt>
      <trkpt lat="42.375962414" lon="-71.114005463">
        <ele>316.890000</ele>
        <time>2017-05-01T00:20:43Z</time>
      </trkpt>
      <trkpt lat="42.376101531" lon="-71.114045356">
        <ele>318.330000</ele>
        <time>2017-05-01T00:20:57Z</time>
      </trkpt>
      <trkpt lat="42.376163091" lon="-71.114084534">
        <ele>318.330000</ele>
        <time>2017-05-01T00:21:06Z</time>
      </trkpt>
      <trkpt lat="42.376236292" lon="-71.114154212">
        <ele>317.370000</ele>
        <time>2017-05-01T00:21:17Z</time>
      </trkpt>
      <trkpt lat="42.376288137" lon="-71.114180510">
        <ele>314.970000</ele>
        <time>2017-05-01T00:21:32Z</time>
      </trkpt>
      <trkpt lat="42.376287969" lon="-71.114206091">
        <ele>314.490000</ele>
        <time>2017-05-01T00:21:52Z</time>
      </trkpt>
      <trkpt lat="42.376257482" lon="-71.114230152">
        <ele>314.010000</ele>
        <time>2017-05-01T00:22:24Z</time>
      </trkpt>
      <trkpt lat="42.376327837" lon="-71.114210564">
        <ele>316.890000</ele>
        <time>2017-05-01T00:22:44Z</time>
      </trkpt>
      <trkpt lat="42.376483369" lon="-71.114246432">
        <ele>318.330000</ele>
        <time>2017-05-01T00:22:59Z</time>
      </trkpt>
      <trkpt lat="42.376518127" lon="-71.114216288">
        <ele>319.780000</ele>
        <time>2017-05-01T00:23:04Z</time>
      </trkpt>
      <trkpt lat="42.376617879" lon="-71.114157969">
        <ele>321.700000</ele>
        <time>2017-05-01T00:23:18Z</time>
      </trkpt>
      <trkpt lat="42.376631448" lon="-71.114098756">
        <ele>325.060000</ele>
        <time>2017-05-01T00:23:36Z</time>
      </trkpt>
      <trkpt lat="42.376648115" lon="-71.113974873">
        <ele>327.470000</ele>
        <time>2017-05-01T00:23:50Z</time>
      </trkpt>
      <trkpt lat="42.376676424" lon="-71.113871920">
        <ele>329.390000</ele>
        <time>2017-05-01T00:24:03Z</time>
      </trkpt>
      <trkpt lat="42.376693677" lon="-71.113728895">
        <ele>332.270000</ele>
        <time>2017-05-01T00:24:17Z</time>
      </trkpt>
      <trkpt lat="42.376703812" lon="-71.113718877">
        <ele>336.120000</ele>
        <time>2017-05-01T00:24:32Z</time>
      </trkpt>
      <trkpt lat="42.376731618" lon="-71.113573705">
        <ele>338.520000</ele>
        <time>2017-05-01T00:24:47Z</time>
      </trkpt>
      <trkpt lat="42.376747950" lon="-71.113503669">
        <ele>339.960000</ele>
        <time>2017-05-01T00:24:54Z</time>
      </trkpt>
      <trkpt lat="42.376787064" lon="-71.113379339">
        <ele>340.920000</ele>
        <time>2017-05-01T00:25:06Z</time>
      </trkpt>
      <trkpt lat="42.376791670" lon="-71.113357067">
        <ele>340.920000</ele>
        <time>2017-05-01T00:25:08Z</time>
      </trkpt>
      <trkpt lat="42.376823413" lon="-71.113248926">
        <ele>340.440000</ele>
        <time>2017-05-01T00:25:18Z</time>
      </trkpt>
      <trkpt lat="42.376837484" lon="-71.113192575">
        <ele>342.370000</ele>
        <time>2017-05-01T00:25:32Z</time>
      </trkpt>
      <trkpt lat="42.376845859" lon="-71.113168424">
        <ele>346.690000</ele>
        <time>2017-05-01T00:25:58Z</time>
      </trkpt>
      <trkpt lat="42.376857585" lon="-71.113091769">
        <ele>346.210000</ele>
        <time>2017-05-01T00:26:16Z</time>
      </trkpt>
      <trkpt lat="42.376864453" lon="-71.113027815">
        <ele>346.690000</ele>
        <time>2017-05-01T00:26:22Z</time>
      </trkpt>
      <trkpt lat="42.376879194" lon="-71.112868332">
        <ele>350.540000</ele>
        <time>2017-05-01T00:26:38Z</time>
      </trkpt>
      <trkpt lat="42.376904236" lon="-71.112736130">
        <ele>353.900000</ele>
        <time>2017-05-01T00:26:52Z</time>
      </trkpt>
      <trkpt lat="42.376911188" lon="-71.112688545">
        <ele>356.310000</ele>
        <time>2017-05-01T00:27:05Z</time>
      </trkpt>
      <trkpt lat="42.376918977" lon="-71.112633893">
        <ele>355.830000</ele>
        <time>2017-05-01T00:27:19Z</time>
      </trkpt>
      <trkpt lat="42.376931205" lon="-71.112461529">
        <ele>358.230000</ele>
        <time>2017-05-01T00:27:34Z</time>
      </trkpt>
      <trkpt lat="42.376936984" lon="-71.112421368">
        <ele>358.710000</ele>
        <time>2017-05-01T00:27:37Z</time>
      </trkpt>
      <trkpt lat="42.376937654" lon="-71.112394445">
        <ele>358.710000</ele>
        <time>2017-05-01T00:27:39Z</time>
      </trkpt>
      <trkpt lat="42.376942763" lon="-71.112342208">
        <ele>358.710000</ele>
        <time>2017-05-01T00:27:43Z</time>
      </trkpt>
      <trkpt lat="42.376963618" lon="-71.112251867">
        <ele>359.190000</ele>
        <time>2017-05-01T00:27:50Z</time>
      </trkpt>
      <trkpt lat="42.376985646" lon="-71.112128789">
        <ele>358.710000</ele>
        <time>2017-05-01T00:28:05Z</time>
      </trkpt>
      <trkpt lat="42.377031627" lon="-71.112017339">
        <ele>357.750000</ele>
        <time>2017-05-01T00:28:13Z</time>
      </trkpt>
      <trkpt lat="42.377079870" lon="-71.111807587">
        <ele>357.750000</ele>
        <time>2017-05-01T00:28:29Z</time>
      </trkpt>
      <trkpt lat="42.377110943" lon="-71.111724223">
        <ele>360.150000</ele>
        <time>2017-05-01T00:28:45Z</time>
      </trkpt>
      <trkpt lat="42.377161949" lon="-71.111553469">
        <ele>360.630000</ele>
        <time>2017-05-01T00:28:59Z</time>
      </trkpt>
      <trkpt lat="42.377191012" lon="-71.111462770">
        <ele>363.040000</ele>
        <time>2017-05-01T00:29:07Z</time>
      </trkpt>
      <trkpt lat="42.377249808" lon="-71.111285666">
        <ele>365.440000</ele>
        <time>2017-05-01T00:29:23Z</time>
      </trkpt>
      <trkpt lat="42.377273175" lon="-71.111152033">
        <ele>368.800000</ele>
        <time>2017-05-01T00:29:37Z</time>
      </trkpt>
      <trkpt lat="42.377293946" lon="-71.111072873">
        <ele>370.240000</ele>
        <time>2017-05-01T00:29:52Z</time>
      </trkpt>
      <trkpt lat="42.377299139" lon="-71.111040583">
        <ele>370.730000</ele>
        <time>2017-05-01T00:29:55Z</time>
      </trkpt>
      <trkpt lat="42.377315555" lon="-71.110940761">
        <ele>370.730000</ele>
        <time>2017-05-01T00:30:04Z</time>
      </trkpt>
      <trkpt lat="42.377334651" lon="-71.110918220">
        <ele>370.240000</ele>
        <time>2017-05-01T00:30:07Z</time>
      </trkpt>
      <trkpt lat="42.377325773" lon="-71.110753191">
        <ele>371.210000</ele>
        <time>2017-05-01T00:30:21Z</time>
      </trkpt>
      <trkpt lat="42.377326527" lon="-71.110744604">
        <ele>371.210000</ele>
        <time>2017-05-01T00:30:23Z</time>
      </trkpt>
      <trkpt lat="42.377317900" lon="-71.110651222">
        <ele>371.690000</ele>
        <time>2017-05-01T00:30:33Z</time>
      </trkpt>
      <trkpt lat="42.377260277" lon="-71.110542903">
        <ele>371.690000</ele>
        <time>2017-05-01T00:30:45Z</time>
      </trkpt>
      <trkpt lat="42.377263543" lon="-71.110517947">
        <ele>371.210000</ele>
        <time>2017-05-01T00:30:49Z</time>
      </trkpt>
      <trkpt lat="42.377257848" lon="-71.110461596">
        <ele>370.730000</ele>
        <time>2017-05-01T00:30:54Z</time>
      </trkpt>
      <trkpt lat="42.377255670" lon="-71.110444601">
        <ele>370.240000</ele>
        <time>2017-05-01T00:31:06Z</time>
      </trkpt>
      <trkpt lat="42.377257011" lon="-71.110396390">
        <ele>368.320000</ele>
        <time>2017-05-01T00:31:19Z</time>
      </trkpt>
      <trkpt lat="42.377238250" lon="-71.110347373">
        <ele>367.360000</ele>
        <time>2017-05-01T00:31:30Z</time>
      </trkpt>
      <trkpt lat="42.377220661" lon="-71.110288786">
        <ele>366.880000</ele>
        <time>2017-05-01T00:31:36Z</time>
      </trkpt>
      <trkpt lat="42.377215720" lon="-71.110120626">
        <ele>365.440000</ele>
        <time>2017-05-01T00:31:49Z</time>
      </trkpt>
      <trkpt lat="42.377215971" lon="-71.110077602">
        <ele>364.960000</ele>
        <time>2017-05-01T00:31:53Z</time>
      </trkpt>
      <trkpt lat="42.377214128" lon="-71.110049964">
        <ele>364.480000</ele>
        <time>2017-05-01T00:31:55Z</time>
      </trkpt>
      <trkpt lat="42.377247881" lon="-71.109944596">
        <ele>364.000000</ele>
        <time>2017-05-01T00:32:06Z</time>
      </trkpt>
      <trkpt lat="42.377247714" lon="-71.109907744">
        <ele>364.000000</ele>
        <time>2017-05-01T00:32:11Z</time>
      </trkpt>
      <trkpt lat="42.377230293" lon="-71.109790838">
        <ele>363.520000</ele>
        <time>2017-05-01T00:32:22Z</time>
      </trkpt>
      <trkpt lat="42.377265554" lon="-71.109693520">
        <ele>362.550000</ele>
        <time>2017-05-01T00:32:30Z</time>
      </trkpt>
      <trkpt lat="42.377312372" lon="-71.109597454">
        <ele>362.550000</ele>
        <time>2017-05-01T00:32:43Z</time>
      </trkpt>
      <trkpt lat="42.377326862" lon="-71.109595397">
        <ele>363.040000</ele>
        <time>2017-05-01T00:33:03Z</time>
      </trkpt>
      <trkpt lat="42.377338587" lon="-71.109538152">
        <ele>363.520000</ele>
        <time>2017-05-01T00:33:19Z</time>
      </trkpt>
      <trkpt lat="42.377380297" lon="-71.109481711">
        <ele>366.880000</ele>
        <time>2017-05-01T00:33:27Z</time>
      </trkpt>
      <trkpt lat="42.377459781" lon="-71.109444054">
        <ele>369.280000</ele>
        <time>2017-05-01T00:33:36Z</time>
      </trkpt>
      <trkpt lat="42.377487168" lon="-71.109419456">
        <ele>369.760000</ele>
        <time>2017-05-01T00:33:40Z</time>
      </trkpt>
      <trkpt lat="42.377587842" lon="-71.109313104">
        <ele>372.650000</ele>
        <time>2017-05-01T00:33:55Z</time>
      </trkpt>
      <trkpt lat="42.377652249" lon="-71.109160776">
        <ele>373.130000</ele>
        <time>2017-05-01T00:34:09Z</time>
      </trkpt>
      <trkpt lat="42.377656102" lon="-71.109144318">
        <ele>372.650000</ele>
        <time>2017-05-01T00:34:12Z</time>
      </trkpt>
      <trkpt lat="42.377694378" lon="-71.109031526">
        <ele>372.170000</ele>
        <time>2017-05-01T00:34:20Z</time>
      </trkpt>
      <trkpt lat="42.377751080" lon="-71.108765422">
        <ele>372.650000</ele>
        <time>2017-05-01T00:34:38Z</time>
      </trkpt>
      <trkpt lat="42.377740359" lon="-71.108533844">
        <ele>371.210000</ele>
        <time>2017-05-01T00:34:53Z</time>
      </trkpt>
      <trkpt lat="42.377743793" lon="-71.108504505">
        <ele>370.730000</ele>
        <time>2017-05-01T00:34:55Z</time>
      </trkpt>
      <trkpt lat="42.377734831" lon="-71.108337329">
        <ele>368.320000</ele>
        <time>2017-05-01T00:35:09Z</time>
      </trkpt>
      <trkpt lat="42.377767663" lon="-71.108262284">
        <ele>363.040000</ele>
        <time>2017-05-01T00:35:18Z</time>
      </trkpt>
      <trkpt lat="42.377822187" lon="-71.108172479">
        <ele>355.830000</ele>
        <time>2017-05-01T00:35:31Z</time>
      </trkpt>
      <trkpt lat="42.377834080" lon="-71.108148687">
        <ele>353.420000</ele>
        <time>2017-05-01T00:35:38Z</time>
      </trkpt>
      <trkpt lat="42.377874450" lon="-71.108059061">
        <ele>348.620000</ele>
        <time>2017-05-01T00:35:46Z</time>
      </trkpt>
      <trkpt lat="42.377881401" lon="-71.107970330">
        <ele>346.690000</ele>
        <time>2017-05-01T00:35:51Z</time>
      </trkpt>
      <trkpt lat="42.377898990" lon="-71.107915052">
        <ele>344.770000</ele>
        <time>2017-05-01T00:35:55Z</time>
      </trkpt>
      <trkpt lat="42.377889777" lon="-71.107776142">
        <ele>343.810000</ele>
        <time>2017-05-01T00:36:02Z</time>
      </trkpt>
      <trkpt lat="42.377935005" lon="-71.107592060">
        <ele>342.850000</ele>
        <time>2017-05-01T00:36:14Z</time>
      </trkpt>
      <trkpt lat="42.377973280" lon="-71.107506013">
        <ele>340.920000</ele>
        <time>2017-05-01T00:36:21Z</time>
      </trkpt>
      <trkpt lat="42.378056198" lon="-71.107344919">
        <ele>338.520000</ele>
        <time>2017-05-01T00:36:36Z</time>
      </trkpt>
      <trkpt lat="42.378157625" lon="-71.107178101">
        <ele>333.230000</ele>
        <time>2017-05-01T00:36:53Z</time>
      </trkpt>
      <trkpt lat="42.378195314" lon="-71.107089280">
        <ele>329.870000</ele>
        <time>2017-05-01T00:37:05Z</time>
      </trkpt>
      <trkpt lat="42.378231161" lon="-71.106971390">
        <ele>326.990000</ele>
        <time>2017-05-01T00:37:17Z</time>
      </trkpt>
      <trkpt lat="42.378229235" lon="-71.106960119">
        <ele>326.500000</ele>
        <time>2017-05-01T00:37:18Z</time>
      </trkpt>
      <trkpt lat="42.378223121" lon="-71.106817452">
        <ele>321.220000</ele>
        <time>2017-05-01T00:37:31Z</time>
      </trkpt>
      <trkpt lat="42.378247745" lon="-71.106769598">
        <ele>319.780000</ele>
        <time>2017-05-01T00:37:35Z</time>
      </trkpt>
      <trkpt lat="42.378284262" lon="-71.106699919">
        <ele>315.930000</ele>
        <time>2017-05-01T00:37:42Z</time>
      </trkpt>
      <trkpt lat="42.378322537" lon="-71.106648129">
        <ele>312.090000</ele>
        <time>2017-05-01T00:37:48Z</time>
      </trkpt>
      <trkpt lat="42.378348753" lon="-71.106500542">
        <ele>305.840000</ele>
        <time>2017-05-01T00:38:01Z</time>
      </trkpt>
      <trkpt lat="42.378350176" lon="-71.106479611">
        <ele>305.840000</ele>
        <time>2017-05-01T00:38:03Z</time>
      </trkpt>
      <trkpt lat="42.378348920" lon="-71.106390433">
        <ele>303.430000</ele>
        <time>2017-05-01T00:38:11Z</time>
      </trkpt>
      <trkpt lat="42.378331164" lon="-71.106327552">
        <ele>302.470000</ele>
        <time>2017-05-01T00:38:17Z</time>
      </trkpt>
      <trkpt lat="42.378283173" lon="-71.106214223">
        <ele>300.070000</ele>
        <time>2017-05-01T00:38:29Z</time>
      </trkpt>
      <trkpt lat="42.378263742" lon="-71.106044185">
        <ele>297.670000</ele>
        <time>2017-05-01T00:38:44Z</time>
      </trkpt>
      <trkpt lat="42.378291465" lon="-71.105795522">
        <ele>296.220000</ele>
        <time>2017-05-01T00:38:58Z</time>
      </trkpt>
      <trkpt lat="42.378384767" lon="-71.105562603">
        <ele>296.220000</ele>
        <time>2017-05-01T00:39:13Z</time>
      </trkpt>
      <trkpt lat="42.378443396" lon="-71.105331024">
        <ele>297.180000</ele>
        <time>2017-05-01T00:39:30Z</time>
      </trkpt>
      <trkpt lat="42.378452609" lon="-71.105171809">
        <ele>295.260000</ele>
        <time>2017-05-01T00:39:44Z</time>
      </trkpt>
      <trkpt lat="42.378501773" lon="-71.105003380">
        <ele>293.340000</ele>
        <time>2017-05-01T00:39:57Z</time>
      </trkpt>
      <trkpt lat="42.378506296" lon="-71.104957852">
        <ele>287.570000</ele>
        <time>2017-05-01T00:40:11Z</time>
      </trkpt>
      <trkpt lat="42.378519864" lon="-71.104956331">
        <ele>286.130000</ele>
        <time>2017-05-01T00:40:32Z</time>
      </trkpt>
      <trkpt lat="42.378536531" lon="-71.104912234">
        <ele>285.650000</ele>
        <time>2017-05-01T00:40:48Z</time>
      </trkpt>
      <trkpt lat="42.378556883" lon="-71.104897297">
        <ele>284.690000</ele>
        <time>2017-05-01T00:40:56Z</time>
      </trkpt>
      <trkpt lat="42.378654207" lon="-71.104872699">
        <ele>283.730000</ele>
        <time>2017-05-01T00:41:10Z</time>
      </trkpt>
      <trkpt lat="42.378669952" lon="-71.104827170">
        <ele>286.610000</ele>
        <time>2017-05-01T00:41:20Z</time>
      </trkpt>
      <trkpt lat="42.378680924" lon="-71.104732357">
        <ele>287.090000</ele>
        <time>2017-05-01T00:41:31Z</time>
      </trkpt>
      <trkpt lat="42.378700774" lon="-71.104669118">
        <ele>285.650000</ele>
        <time>2017-05-01T00:41:39Z</time>
      </trkpt>
      <trkpt lat="42.378706302" lon="-71.104593625">
        <ele>283.730000</ele>
        <time>2017-05-01T00:41:47Z</time>
      </trkpt>
      <trkpt lat="42.378704124" lon="-71.104545235">
        <ele>280.840000</ele>
        <time>2017-05-01T00:42:00Z</time>
      </trkpt>
      <trkpt lat="42.378683018" lon="-71.104461334">
        <ele>276.040000</ele>
        <time>2017-05-01T00:42:13Z</time>
      </trkpt>
      <trkpt lat="42.378764846" lon="-71.104334766">
        <ele>273.150000</ele>
        <time>2017-05-01T00:42:25Z</time>
      </trkpt>
      <trkpt lat="42.378792485" lon="-71.104262583">
        <ele>271.710000</ele>
        <time>2017-05-01T00:42:34Z</time>
      </trkpt>
      <trkpt lat="42.378800777" lon="-71.104167769">
        <ele>268.350000</ele>
        <time>2017-05-01T00:42:46Z</time>
      </trkpt>
      <trkpt lat="42.378811916" lon="-71.104053457">
        <ele>264.980000</ele>
        <time>2017-05-01T00:43:00Z</time>
      </trkpt>
      <trkpt lat="42.378802620" lon="-71.104021077">
        <ele>262.100000</ele>
        <time>2017-05-01T00:43:15Z</time>
      </trkpt>
      <trkpt lat="42.378822470" lon="-71.104023939">
        <ele>262.580000</ele>
        <time>2017-05-01T00:43:34Z</time>
      </trkpt>
      <trkpt lat="42.378889976" lon="-71.104046569">
        <ele>261.140000</ele>
        <time>2017-05-01T00:43:43Z</time>
      </trkpt>
      <trkpt lat="42.378964601" lon="-71.104131991">
        <ele>259.690000</ele>
        <time>2017-05-01T00:43:56Z</time>
      </trkpt>
      <trkpt lat="42.378976159" lon="-71.104149165">
        <ele>259.690000</ele>
        <time>2017-05-01T00:43:58Z</time>
      </trkpt>
      <trkpt lat="42.379063013" lon="-71.104168486">
        <ele>260.170000</ele>
        <time>2017-05-01T00:44:06Z</time>
      </trkpt>
      <trkpt lat="42.379211427" lon="-71.104229667">
        <ele>263.540000</ele>
        <time>2017-05-01T00:44:21Z</time>
      </trkpt>
      <trkpt lat="42.379274159" lon="-71.104263478">
        <ele>264.500000</ele>
        <time>2017-05-01T00:44:34Z</time>
      </trkpt>
      <trkpt lat="42.379431953" lon="-71.104352657">
        <ele>264.500000</ele>
        <time>2017-05-01T00:44:50Z</time>
      </trkpt>
      <trkpt lat="42.379536228" lon="-71.104384322">
        <ele>266.420000</ele>
        <time>2017-05-01T00:45:03Z</time>
      </trkpt>
      <trkpt lat="42.379579864" lon="-71.104390225">
        <ele>268.350000</ele>
        <time>2017-05-01T00:45:09Z</time>
      </trkpt>
      <trkpt lat="42.379690170" lon="-71.104420995">
        <ele>274.590000</ele>
        <time>2017-05-01T00:45:24Z</time>
      </trkpt>
      <trkpt lat="42.379802568" lon="-71.104496846">
        <ele>277.480000</ele>
        <time>2017-05-01T00:45:38Z</time>
      </trkpt>
      <trkpt lat="42.379903074" lon="-71.104560890">
        <ele>277.960000</ele>
        <time>2017-05-01T00:45:49Z</time>
      </trkpt>
      <trkpt lat="42.379934398" lon="-71.104576991">
        <ele>277.960000</ele>
        <time>2017-05-01T00:45:52Z</time>
      </trkpt>
      <trkpt lat="42.380049813" lon="-71.104595417">
        <ele>276.040000</ele>
        <time>2017-05-01T00:46:01Z</time>
      </trkpt>
      <trkpt lat="42.380176785" lon="-71.104608655">
        <ele>273.150000</ele>
        <time>2017-05-01T00:46:11Z</time>
      </trkpt>
      <trkpt lat="42.380355602" lon="-71.104602394">
        <ele>273.150000</ele>
        <time>2017-05-01T00:46:29Z</time>
      </trkpt>
      <trkpt lat="42.380396809" lon="-71.104627707">
        <ele>271.710000</ele>
        <time>2017-05-01T00:46:45Z</time>
      </trkpt>
      <trkpt lat="42.380421433" lon="-71.104622251">
        <ele>272.190000</ele>
        <time>2017-05-01T00:46:49Z</time>
      </trkpt>
      <trkpt lat="42.380446224" lon="-71.104752218">
        <ele>274.590000</ele>
        <time>2017-05-01T00:47:03Z</time>
      </trkpt>
      <trkpt lat="42.380448653" lon="-71.104810090">
        <ele>276.040000</ele>
        <time>2017-05-01T00:47:18Z</time>
      </trkpt>
      <trkpt lat="42.380459709" lon="-71.104849625">
        <ele>276.520000</ele>
        <time>2017-05-01T00:47:33Z</time>
      </trkpt>
      <trkpt lat="42.380493797" lon="-71.104831646">
        <ele>278.920000</ele>
        <time>2017-05-01T00:47:48Z</time>
      </trkpt>
      <trkpt lat="42.380533664" lon="-71.104806780">
        <ele>280.360000</ele>
        <time>2017-05-01T00:48:00Z</time>
      </trkpt>
      <trkpt lat="42.380585341" lon="-71.104778336">
        <ele>278.920000</ele>
        <time>2017-05-01T00:48:09Z</time>
      </trkpt>
      <trkpt lat="42.380587937" lon="-71.104815009">
        <ele>277.480000</ele>
        <time>2017-05-01T00:48:21Z</time>
      </trkpt>
      <trkpt lat="42.380584587" lon="-71.104791216">
        <ele>277.480000</ele>
        <time>2017-05-01T00:48:45Z</time>
      </trkpt>
      <trkpt lat="42.380595224" lon="-71.104797299">
        <ele>277.960000</ele>
        <time>2017-05-01T00:49:03Z</time>
      </trkpt>
      <trkpt lat="42.380582410" lon="-71.104779678">
        <ele>278.440000</ele>
        <time>2017-05-01T00:49:15Z</time>
      </trkpt>
    </trkseg>
  </trk>
</gpx>

Tracks and traces/a line made by walking.